<?xml version="1.0" encoding="UTF-8"?>
<gpx version="1.1" creator="https://www.youtrack.es" xsi:schemaLocation="http://www.topografix.com/GPX/1/1 http://www.topografix.com/GPX/1/1/gpx.xsd http://www.garmin.com/xmlschemas/GpxExtensions/v3 http://www.garmin.com/xmlschemas/GpxExtensionsv3.xsd http://www.garmin.com/xmlschemas/TrackPointExtension/v1 http://www.garmin.com/xmlschemas/TrackPointExtensionv1.xsd" xmlns:gpxtpx="http://www.garmin.com/xmlschemas/TrackPointExtension/v1" xmlns:gpxx="http://www.garmin.com/xmlschemas/GpxExtensions/v3" xmlns:xsi="http://www.w3.org/2001/XMLSchema-instance">
  <metadata>
    <link href="https://www.youtrack.es">
      <text>YouTrack.es</text>
    </link>
    <time>2026-05-08T10:27:30Z</time>
  </metadata>
  <trk>
    <src>https://www.youtrack.es</src>
    <link href="https://www.youtrack.es/ruta/22571-capitol-47--1-">
      <text>YouTrack.es</text>
    </link>
    <trkseg>
      <trkpt lat="41.238468" lon="1.854535">
        <ele>160.875</ele>
        <time>2021-05-15T18:13:51Z</time>
      </trkpt>
      <trkpt lat="41.238469" lon="1.854540">
        <ele>160.828</ele>
        <time>2021-05-15T18:13:52Z</time>
      </trkpt>
      <trkpt lat="41.238454" lon="1.854530">
        <ele>161.220</ele>
        <time>2021-05-15T18:13:56Z</time>
      </trkpt>
      <trkpt lat="41.238453" lon="1.854502">
        <ele>161.408</ele>
        <time>2021-05-15T18:13:58Z</time>
      </trkpt>
      <trkpt lat="41.238486" lon="1.854400">
        <ele>160.424</ele>
        <time>2021-05-15T18:14:03Z</time>
      </trkpt>
      <trkpt lat="41.238534" lon="1.854208">
        <ele>159.810</ele>
        <time>2021-05-15T18:14:08Z</time>
      </trkpt>
      <trkpt lat="41.238540" lon="1.854122">
        <ele>160.436</ele>
        <time>2021-05-15T18:14:12Z</time>
      </trkpt>
      <trkpt lat="41.238551" lon="1.854080">
        <ele>161.652</ele>
        <time>2021-05-15T18:14:18Z</time>
      </trkpt>
      <trkpt lat="41.238536" lon="1.854029">
        <ele>161.632</ele>
        <time>2021-05-15T18:14:22Z</time>
      </trkpt>
      <trkpt lat="41.238531" lon="1.854000">
        <ele>161.678</ele>
        <time>2021-05-15T18:14:23Z</time>
      </trkpt>
      <trkpt lat="41.238525" lon="1.853977">
        <ele>161.871</ele>
        <time>2021-05-15T18:14:24Z</time>
      </trkpt>
      <trkpt lat="41.238512" lon="1.853865">
        <ele>162.220</ele>
        <time>2021-05-15T18:14:27Z</time>
      </trkpt>
      <trkpt lat="41.238533" lon="1.853759">
        <ele>162.681</ele>
        <time>2021-05-15T18:14:31Z</time>
      </trkpt>
      <trkpt lat="41.238539" lon="1.853755">
        <ele>162.661</ele>
        <time>2021-05-15T18:14:32Z</time>
      </trkpt>
      <trkpt lat="41.238528" lon="1.853734">
        <ele>162.617</ele>
        <time>2021-05-15T18:15:59Z</time>
      </trkpt>
      <trkpt lat="41.238536" lon="1.853712">
        <ele>162.608</ele>
        <time>2021-05-15T18:16:00Z</time>
      </trkpt>
      <trkpt lat="41.238540" lon="1.853666">
        <ele>162.695</ele>
        <time>2021-05-15T18:16:02Z</time>
      </trkpt>
      <trkpt lat="41.238531" lon="1.853640">
        <ele>162.611</ele>
        <time>2021-05-15T18:16:03Z</time>
      </trkpt>
      <trkpt lat="41.238480" lon="1.853550">
        <ele>162.837</ele>
        <time>2021-05-15T18:16:06Z</time>
      </trkpt>
      <trkpt lat="41.238380" lon="1.853339">
        <ele>162.243</ele>
        <time>2021-05-15T18:16:11Z</time>
      </trkpt>
      <trkpt lat="41.238254" lon="1.853091">
        <ele>162.473</ele>
        <time>2021-05-15T18:16:17Z</time>
      </trkpt>
      <trkpt lat="41.238209" lon="1.852926">
        <ele>162.669</ele>
        <time>2021-05-15T18:16:20Z</time>
      </trkpt>
      <trkpt lat="41.238220" lon="1.852778">
        <ele>162.672</ele>
        <time>2021-05-15T18:16:22Z</time>
      </trkpt>
      <trkpt lat="41.238274" lon="1.852637">
        <ele>161.451</ele>
        <time>2021-05-15T18:16:24Z</time>
      </trkpt>
      <trkpt lat="41.238307" lon="1.852587">
        <ele>160.431</ele>
        <time>2021-05-15T18:16:25Z</time>
      </trkpt>
      <trkpt lat="41.238367" lon="1.852517">
        <ele>160.061</ele>
        <time>2021-05-15T18:16:26Z</time>
      </trkpt>
      <trkpt lat="41.238475" lon="1.852444">
        <ele>159.407</ele>
        <time>2021-05-15T18:16:28Z</time>
      </trkpt>
      <trkpt lat="41.238550" lon="1.852431">
        <ele>158.808</ele>
        <time>2021-05-15T18:16:30Z</time>
      </trkpt>
      <trkpt lat="41.238587" lon="1.852421">
        <ele>158.430</ele>
        <time>2021-05-15T18:16:33Z</time>
      </trkpt>
      <trkpt lat="41.238624" lon="1.852405">
        <ele>158.616</ele>
        <time>2021-05-15T18:16:35Z</time>
      </trkpt>
      <trkpt lat="41.238672" lon="1.852382">
        <ele>159.062</ele>
        <time>2021-05-15T18:16:38Z</time>
      </trkpt>
      <trkpt lat="41.238745" lon="1.852339">
        <ele>160.018</ele>
        <time>2021-05-15T18:16:42Z</time>
      </trkpt>
      <trkpt lat="41.238774" lon="1.852317">
        <ele>160.668</ele>
        <time>2021-05-15T18:16:44Z</time>
      </trkpt>
      <trkpt lat="41.238834" lon="1.852298">
        <ele>161.634</ele>
        <time>2021-05-15T18:16:47Z</time>
      </trkpt>
      <trkpt lat="41.238901" lon="1.852264">
        <ele>163.047</ele>
        <time>2021-05-15T18:16:51Z</time>
      </trkpt>
      <trkpt lat="41.238951" lon="1.852262">
        <ele>163.866</ele>
        <time>2021-05-15T18:16:54Z</time>
      </trkpt>
      <trkpt lat="41.238965" lon="1.852264">
        <ele>164.289</ele>
        <time>2021-05-15T18:16:55Z</time>
      </trkpt>
      <trkpt lat="41.239006" lon="1.852279">
        <ele>165.006</ele>
        <time>2021-05-15T18:16:58Z</time>
      </trkpt>
      <trkpt lat="41.239029" lon="1.852267">
        <ele>165.426</ele>
        <time>2021-05-15T18:17:00Z</time>
      </trkpt>
      <trkpt lat="41.239037" lon="1.852256">
        <ele>165.608</ele>
        <time>2021-05-15T18:17:01Z</time>
      </trkpt>
      <trkpt lat="41.239058" lon="1.852213">
        <ele>166.245</ele>
        <time>2021-05-15T18:17:04Z</time>
      </trkpt>
      <trkpt lat="41.239082" lon="1.852184">
        <ele>166.481</ele>
        <time>2021-05-15T18:17:06Z</time>
      </trkpt>
      <trkpt lat="41.239131" lon="1.852126">
        <ele>167.457</ele>
        <time>2021-05-15T18:17:10Z</time>
      </trkpt>
      <trkpt lat="41.239137" lon="1.852110">
        <ele>167.883</ele>
        <time>2021-05-15T18:17:11Z</time>
      </trkpt>
      <trkpt lat="41.239176" lon="1.852026">
        <ele>168.673</ele>
        <time>2021-05-15T18:17:15Z</time>
      </trkpt>
      <trkpt lat="41.239185" lon="1.852012">
        <ele>169.249</ele>
        <time>2021-05-15T18:17:16Z</time>
      </trkpt>
      <trkpt lat="41.239195" lon="1.851996">
        <ele>169.472</ele>
        <time>2021-05-15T18:17:17Z</time>
      </trkpt>
      <trkpt lat="41.239203" lon="1.851975">
        <ele>169.681</ele>
        <time>2021-05-15T18:17:18Z</time>
      </trkpt>
      <trkpt lat="41.239210" lon="1.851950">
        <ele>169.852</ele>
        <time>2021-05-15T18:17:19Z</time>
      </trkpt>
      <trkpt lat="41.239216" lon="1.851931">
        <ele>170.253</ele>
        <time>2021-05-15T18:17:20Z</time>
      </trkpt>
      <trkpt lat="41.239223" lon="1.851892">
        <ele>171.008</ele>
        <time>2021-05-15T18:17:22Z</time>
      </trkpt>
      <trkpt lat="41.239231" lon="1.851842">
        <ele>171.208</ele>
        <time>2021-05-15T18:17:24Z</time>
      </trkpt>
      <trkpt lat="41.239234" lon="1.851817">
        <ele>171.612</ele>
        <time>2021-05-15T18:17:25Z</time>
      </trkpt>
      <trkpt lat="41.239243" lon="1.851776">
        <ele>172.048</ele>
        <time>2021-05-15T18:17:27Z</time>
      </trkpt>
      <trkpt lat="41.239249" lon="1.851755">
        <ele>172.484</ele>
        <time>2021-05-15T18:17:28Z</time>
      </trkpt>
      <trkpt lat="41.239258" lon="1.851728">
        <ele>172.820</ele>
        <time>2021-05-15T18:17:29Z</time>
      </trkpt>
      <trkpt lat="41.239270" lon="1.851683">
        <ele>173.290</ele>
        <time>2021-05-15T18:17:31Z</time>
      </trkpt>
      <trkpt lat="41.239273" lon="1.851667">
        <ele>173.486</ele>
        <time>2021-05-15T18:17:32Z</time>
      </trkpt>
      <trkpt lat="41.239282" lon="1.851632">
        <ele>174.249</ele>
        <time>2021-05-15T18:17:34Z</time>
      </trkpt>
      <trkpt lat="41.239288" lon="1.851609">
        <ele>174.448</ele>
        <time>2021-05-15T18:17:35Z</time>
      </trkpt>
      <trkpt lat="41.239291" lon="1.851589">
        <ele>174.847</ele>
        <time>2021-05-15T18:17:36Z</time>
      </trkpt>
      <trkpt lat="41.239288" lon="1.851552">
        <ele>175.229</ele>
        <time>2021-05-15T18:17:38Z</time>
      </trkpt>
      <trkpt lat="41.239284" lon="1.851502">
        <ele>175.821</ele>
        <time>2021-05-15T18:17:40Z</time>
      </trkpt>
      <trkpt lat="41.239281" lon="1.851483">
        <ele>176.008</ele>
        <time>2021-05-15T18:17:41Z</time>
      </trkpt>
      <trkpt lat="41.239283" lon="1.851448">
        <ele>176.261</ele>
        <time>2021-05-15T18:17:43Z</time>
      </trkpt>
      <trkpt lat="41.239287" lon="1.851384">
        <ele>177.297</ele>
        <time>2021-05-15T18:17:46Z</time>
      </trkpt>
      <trkpt lat="41.239290" lon="1.851361">
        <ele>177.413</ele>
        <time>2021-05-15T18:17:47Z</time>
      </trkpt>
      <trkpt lat="41.239287" lon="1.851295">
        <ele>178.289</ele>
        <time>2021-05-15T18:17:50Z</time>
      </trkpt>
      <trkpt lat="41.239290" lon="1.851275">
        <ele>178.429</ele>
        <time>2021-05-15T18:17:51Z</time>
      </trkpt>
      <trkpt lat="41.239301" lon="1.851241">
        <ele>178.895</ele>
        <time>2021-05-15T18:17:53Z</time>
      </trkpt>
      <trkpt lat="41.239315" lon="1.851176">
        <ele>179.678</ele>
        <time>2021-05-15T18:17:56Z</time>
      </trkpt>
      <trkpt lat="41.239330" lon="1.851086">
        <ele>180.687</ele>
        <time>2021-05-15T18:18:00Z</time>
      </trkpt>
      <trkpt lat="41.239338" lon="1.851068">
        <ele>180.899</ele>
        <time>2021-05-15T18:18:01Z</time>
      </trkpt>
      <trkpt lat="41.239352" lon="1.851041">
        <ele>181.207</ele>
        <time>2021-05-15T18:18:03Z</time>
      </trkpt>
      <trkpt lat="41.239378" lon="1.850993">
        <ele>181.827</ele>
        <time>2021-05-15T18:18:06Z</time>
      </trkpt>
      <trkpt lat="41.239415" lon="1.850927">
        <ele>182.608</ele>
        <time>2021-05-15T18:18:10Z</time>
      </trkpt>
      <trkpt lat="41.239433" lon="1.850898">
        <ele>183.236</ele>
        <time>2021-05-15T18:18:12Z</time>
      </trkpt>
      <trkpt lat="41.239465" lon="1.850843">
        <ele>184.062</ele>
        <time>2021-05-15T18:18:16Z</time>
      </trkpt>
      <trkpt lat="41.239474" lon="1.850821">
        <ele>184.468</ele>
        <time>2021-05-15T18:18:17Z</time>
      </trkpt>
      <trkpt lat="41.239495" lon="1.850792">
        <ele>184.834</ele>
        <time>2021-05-15T18:18:19Z</time>
      </trkpt>
      <trkpt lat="41.239528" lon="1.850735">
        <ele>185.444</ele>
        <time>2021-05-15T18:18:22Z</time>
      </trkpt>
      <trkpt lat="41.239621" lon="1.850601">
        <ele>186.250</ele>
        <time>2021-05-15T18:18:29Z</time>
      </trkpt>
      <trkpt lat="41.239647" lon="1.850577">
        <ele>186.693</ele>
        <time>2021-05-15T18:18:31Z</time>
      </trkpt>
      <trkpt lat="41.239715" lon="1.850428">
        <ele>187.092</ele>
        <time>2021-05-15T18:18:38Z</time>
      </trkpt>
      <trkpt lat="41.239772" lon="1.850280">
        <ele>186.445</ele>
        <time>2021-05-15T18:18:41Z</time>
      </trkpt>
      <trkpt lat="41.239806" lon="1.850227">
        <ele>186.247</ele>
        <time>2021-05-15T18:18:42Z</time>
      </trkpt>
      <trkpt lat="41.239851" lon="1.850176">
        <ele>186.211</ele>
        <time>2021-05-15T18:18:43Z</time>
      </trkpt>
      <trkpt lat="41.239898" lon="1.850133">
        <ele>184.808</ele>
        <time>2021-05-15T18:18:44Z</time>
      </trkpt>
      <trkpt lat="41.239945" lon="1.850091">
        <ele>183.641</ele>
        <time>2021-05-15T18:18:45Z</time>
      </trkpt>
      <trkpt lat="41.240052" lon="1.849994">
        <ele>182.067</ele>
        <time>2021-05-15T18:18:47Z</time>
      </trkpt>
      <trkpt lat="41.240167" lon="1.849886">
        <ele>180.233</ele>
        <time>2021-05-15T18:18:49Z</time>
      </trkpt>
      <trkpt lat="41.240227" lon="1.849836">
        <ele>178.859</ele>
        <time>2021-05-15T18:18:50Z</time>
      </trkpt>
      <trkpt lat="41.240287" lon="1.849783">
        <ele>177.899</ele>
        <time>2021-05-15T18:18:51Z</time>
      </trkpt>
      <trkpt lat="41.240342" lon="1.849722">
        <ele>177.425</ele>
        <time>2021-05-15T18:18:52Z</time>
      </trkpt>
      <trkpt lat="41.240393" lon="1.849647">
        <ele>177.068</ele>
        <time>2021-05-15T18:18:53Z</time>
      </trkpt>
      <trkpt lat="41.240485" lon="1.849465">
        <ele>176.037</ele>
        <time>2021-05-15T18:18:55Z</time>
      </trkpt>
      <trkpt lat="41.240526" lon="1.849373">
        <ele>175.823</ele>
        <time>2021-05-15T18:18:56Z</time>
      </trkpt>
      <trkpt lat="41.240556" lon="1.849292">
        <ele>175.683</ele>
        <time>2021-05-15T18:18:57Z</time>
      </trkpt>
      <trkpt lat="41.240585" lon="1.849177">
        <ele>175.611</ele>
        <time>2021-05-15T18:18:59Z</time>
      </trkpt>
      <trkpt lat="41.240602" lon="1.849123">
        <ele>175.608</ele>
        <time>2021-05-15T18:19:00Z</time>
      </trkpt>
      <trkpt lat="41.240644" lon="1.848934">
        <ele>176.079</ele>
        <time>2021-05-15T18:19:04Z</time>
      </trkpt>
      <trkpt lat="41.240653" lon="1.848768">
        <ele>176.655</ele>
        <time>2021-05-15T18:19:09Z</time>
      </trkpt>
      <trkpt lat="41.240655" lon="1.848717">
        <ele>177.281</ele>
        <time>2021-05-15T18:19:11Z</time>
      </trkpt>
      <trkpt lat="41.240658" lon="1.848609">
        <ele>178.497</ele>
        <time>2021-05-15T18:19:16Z</time>
      </trkpt>
      <trkpt lat="41.240665" lon="1.848546">
        <ele>179.287</ele>
        <time>2021-05-15T18:19:19Z</time>
      </trkpt>
      <trkpt lat="41.240666" lon="1.848507">
        <ele>179.693</ele>
        <time>2021-05-15T18:19:21Z</time>
      </trkpt>
      <trkpt lat="41.240682" lon="1.848451">
        <ele>180.886</ele>
        <time>2021-05-15T18:19:24Z</time>
      </trkpt>
      <trkpt lat="41.240702" lon="1.848394">
        <ele>181.475</ele>
        <time>2021-05-15T18:19:27Z</time>
      </trkpt>
      <trkpt lat="41.240706" lon="1.848378">
        <ele>181.846</ele>
        <time>2021-05-15T18:19:28Z</time>
      </trkpt>
      <trkpt lat="41.240730" lon="1.848319">
        <ele>183.288</ele>
        <time>2021-05-15T18:19:32Z</time>
      </trkpt>
      <trkpt lat="41.240741" lon="1.848282">
        <ele>183.816</ele>
        <time>2021-05-15T18:19:34Z</time>
      </trkpt>
      <trkpt lat="41.240757" lon="1.848248">
        <ele>184.608</ele>
        <time>2021-05-15T18:19:36Z</time>
      </trkpt>
      <trkpt lat="41.240796" lon="1.848187">
        <ele>185.611</ele>
        <time>2021-05-15T18:19:41Z</time>
      </trkpt>
      <trkpt lat="41.240844" lon="1.848157">
        <ele>186.227</ele>
        <time>2021-05-15T18:19:45Z</time>
      </trkpt>
      <trkpt lat="41.240879" lon="1.848122">
        <ele>186.833</ele>
        <time>2021-05-15T18:19:48Z</time>
      </trkpt>
      <trkpt lat="41.240903" lon="1.848104">
        <ele>187.069</ele>
        <time>2021-05-15T18:19:50Z</time>
      </trkpt>
      <trkpt lat="41.240969" lon="1.848058">
        <ele>187.819</ele>
        <time>2021-05-15T18:19:55Z</time>
      </trkpt>
      <trkpt lat="41.241031" lon="1.848015">
        <ele>188.255</ele>
        <time>2021-05-15T18:19:59Z</time>
      </trkpt>
      <trkpt lat="41.241090" lon="1.847965">
        <ele>188.868</ele>
        <time>2021-05-15T18:20:03Z</time>
      </trkpt>
      <trkpt lat="41.241161" lon="1.847919">
        <ele>189.857</ele>
        <time>2021-05-15T18:20:08Z</time>
      </trkpt>
      <trkpt lat="41.241174" lon="1.847914">
        <ele>190.096</ele>
        <time>2021-05-15T18:20:09Z</time>
      </trkpt>
      <trkpt lat="41.241239" lon="1.847882">
        <ele>191.231</ele>
        <time>2021-05-15T18:20:14Z</time>
      </trkpt>
      <trkpt lat="41.241249" lon="1.847871">
        <ele>191.824</ele>
        <time>2021-05-15T18:20:15Z</time>
      </trkpt>
      <trkpt lat="41.241273" lon="1.847847">
        <ele>192.608</ele>
        <time>2021-05-15T18:20:17Z</time>
      </trkpt>
      <trkpt lat="41.241317" lon="1.847801">
        <ele>193.866</ele>
        <time>2021-05-15T18:20:21Z</time>
      </trkpt>
      <trkpt lat="41.241347" lon="1.847754">
        <ele>195.082</ele>
        <time>2021-05-15T18:20:24Z</time>
      </trkpt>
      <trkpt lat="41.241355" lon="1.847740">
        <ele>195.258</ele>
        <time>2021-05-15T18:20:25Z</time>
      </trkpt>
      <trkpt lat="41.241375" lon="1.847710">
        <ele>196.014</ele>
        <time>2021-05-15T18:20:27Z</time>
      </trkpt>
      <trkpt lat="41.241412" lon="1.847623">
        <ele>197.244</ele>
        <time>2021-05-15T18:20:32Z</time>
      </trkpt>
      <trkpt lat="41.241421" lon="1.847606">
        <ele>197.420</ele>
        <time>2021-05-15T18:20:33Z</time>
      </trkpt>
      <trkpt lat="41.241447" lon="1.847549">
        <ele>197.613</ele>
        <time>2021-05-15T18:20:36Z</time>
      </trkpt>
      <trkpt lat="41.241519" lon="1.847469">
        <ele>197.822</ele>
        <time>2021-05-15T18:20:40Z</time>
      </trkpt>
      <trkpt lat="41.241590" lon="1.847432">
        <ele>197.834</ele>
        <time>2021-05-15T18:20:43Z</time>
      </trkpt>
      <trkpt lat="41.241646" lon="1.847403">
        <ele>197.855</ele>
        <time>2021-05-15T18:20:46Z</time>
      </trkpt>
      <trkpt lat="41.241665" lon="1.847394">
        <ele>198.210</ele>
        <time>2021-05-15T18:20:47Z</time>
      </trkpt>
      <trkpt lat="41.241720" lon="1.847353">
        <ele>199.408</ele>
        <time>2021-05-15T18:20:51Z</time>
      </trkpt>
      <trkpt lat="41.241747" lon="1.847334">
        <ele>200.250</ele>
        <time>2021-05-15T18:20:53Z</time>
      </trkpt>
      <trkpt lat="41.241759" lon="1.847325">
        <ele>200.616</ele>
        <time>2021-05-15T18:20:54Z</time>
      </trkpt>
      <trkpt lat="41.241818" lon="1.847266">
        <ele>201.892</ele>
        <time>2021-05-15T18:20:59Z</time>
      </trkpt>
      <trkpt lat="41.241830" lon="1.847258">
        <ele>202.058</ele>
        <time>2021-05-15T18:21:00Z</time>
      </trkpt>
      <trkpt lat="41.241854" lon="1.847237">
        <ele>202.498</ele>
        <time>2021-05-15T18:21:02Z</time>
      </trkpt>
      <trkpt lat="41.241872" lon="1.847220">
        <ele>203.084</ele>
        <time>2021-05-15T18:21:04Z</time>
      </trkpt>
      <trkpt lat="41.241893" lon="1.847213">
        <ele>203.247</ele>
        <time>2021-05-15T18:21:06Z</time>
      </trkpt>
      <trkpt lat="41.241909" lon="1.847199">
        <ele>203.646</ele>
        <time>2021-05-15T18:21:08Z</time>
      </trkpt>
      <trkpt lat="41.241945" lon="1.847165">
        <ele>204.067</ele>
        <time>2021-05-15T18:21:11Z</time>
      </trkpt>
      <trkpt lat="41.242001" lon="1.847125">
        <ele>204.681</ele>
        <time>2021-05-15T18:21:15Z</time>
      </trkpt>
      <trkpt lat="41.242025" lon="1.847106">
        <ele>204.819</ele>
        <time>2021-05-15T18:21:17Z</time>
      </trkpt>
      <trkpt lat="41.242035" lon="1.847094">
        <ele>205.208</ele>
        <time>2021-05-15T18:21:18Z</time>
      </trkpt>
      <trkpt lat="41.242099" lon="1.847013">
        <ele>206.293</ele>
        <time>2021-05-15T18:21:24Z</time>
      </trkpt>
      <trkpt lat="41.242116" lon="1.846987">
        <ele>206.659</ele>
        <time>2021-05-15T18:21:26Z</time>
      </trkpt>
      <trkpt lat="41.242137" lon="1.846956">
        <ele>207.265</ele>
        <time>2021-05-15T18:21:28Z</time>
      </trkpt>
      <trkpt lat="41.242183" lon="1.846883">
        <ele>208.451</ele>
        <time>2021-05-15T18:21:33Z</time>
      </trkpt>
      <trkpt lat="41.242191" lon="1.846870">
        <ele>208.611</ele>
        <time>2021-05-15T18:21:34Z</time>
      </trkpt>
      <trkpt lat="41.242222" lon="1.846837">
        <ele>209.477</ele>
        <time>2021-05-15T18:21:37Z</time>
      </trkpt>
      <trkpt lat="41.242267" lon="1.846771">
        <ele>210.850</ele>
        <time>2021-05-15T18:21:42Z</time>
      </trkpt>
      <trkpt lat="41.242302" lon="1.846722">
        <ele>211.879</ele>
        <time>2021-05-15T18:21:46Z</time>
      </trkpt>
      <trkpt lat="41.242311" lon="1.846716">
        <ele>212.032</ele>
        <time>2021-05-15T18:21:47Z</time>
      </trkpt>
      <trkpt lat="41.242330" lon="1.846688">
        <ele>212.692</ele>
        <time>2021-05-15T18:21:49Z</time>
      </trkpt>
      <trkpt lat="41.242339" lon="1.846673">
        <ele>212.811</ele>
        <time>2021-05-15T18:21:50Z</time>
      </trkpt>
      <trkpt lat="41.242370" lon="1.846617">
        <ele>213.808</ele>
        <time>2021-05-15T18:21:54Z</time>
      </trkpt>
      <trkpt lat="41.242400" lon="1.846568">
        <ele>215.290</ele>
        <time>2021-05-15T18:21:58Z</time>
      </trkpt>
      <trkpt lat="41.242429" lon="1.846525">
        <ele>216.076</ele>
        <time>2021-05-15T18:22:01Z</time>
      </trkpt>
      <trkpt lat="41.242433" lon="1.846509">
        <ele>216.462</ele>
        <time>2021-05-15T18:22:02Z</time>
      </trkpt>
      <trkpt lat="41.242447" lon="1.846475">
        <ele>216.828</ele>
        <time>2021-05-15T18:22:04Z</time>
      </trkpt>
      <trkpt lat="41.242475" lon="1.846385">
        <ele>217.488</ele>
        <time>2021-05-15T18:22:09Z</time>
      </trkpt>
      <trkpt lat="41.242482" lon="1.846331">
        <ele>218.294</ele>
        <time>2021-05-15T18:22:12Z</time>
      </trkpt>
      <trkpt lat="41.242484" lon="1.846311">
        <ele>218.447</ele>
        <time>2021-05-15T18:22:13Z</time>
      </trkpt>
      <trkpt lat="41.242480" lon="1.846161">
        <ele>219.296</ele>
        <time>2021-05-15T18:22:19Z</time>
      </trkpt>
      <trkpt lat="41.242483" lon="1.846126">
        <ele>219.257</ele>
        <time>2021-05-15T18:22:20Z</time>
      </trkpt>
      <trkpt lat="41.242490" lon="1.846055">
        <ele>219.400</ele>
        <time>2021-05-15T18:22:22Z</time>
      </trkpt>
      <trkpt lat="41.242500" lon="1.845992">
        <ele>219.620</ele>
        <time>2021-05-15T18:22:24Z</time>
      </trkpt>
      <trkpt lat="41.242534" lon="1.845877">
        <ele>220.008</ele>
        <time>2021-05-15T18:22:28Z</time>
      </trkpt>
      <trkpt lat="41.242559" lon="1.845786">
        <ele>220.422</ele>
        <time>2021-05-15T18:22:31Z</time>
      </trkpt>
      <trkpt lat="41.242568" lon="1.845755">
        <ele>220.878</ele>
        <time>2021-05-15T18:22:32Z</time>
      </trkpt>
      <trkpt lat="41.242586" lon="1.845663">
        <ele>221.454</ele>
        <time>2021-05-15T18:22:35Z</time>
      </trkpt>
      <trkpt lat="41.242590" lon="1.845606">
        <ele>221.620</ele>
        <time>2021-05-15T18:22:37Z</time>
      </trkpt>
      <trkpt lat="41.242595" lon="1.845540">
        <ele>221.820</ele>
        <time>2021-05-15T18:22:39Z</time>
      </trkpt>
      <trkpt lat="41.242594" lon="1.845452">
        <ele>222.216</ele>
        <time>2021-05-15T18:22:42Z</time>
      </trkpt>
      <trkpt lat="41.242593" lon="1.845357">
        <ele>222.869</ele>
        <time>2021-05-15T18:22:45Z</time>
      </trkpt>
      <trkpt lat="41.242577" lon="1.845231">
        <ele>224.048</ele>
        <time>2021-05-15T18:22:49Z</time>
      </trkpt>
      <trkpt lat="41.242566" lon="1.845144">
        <ele>225.252</ele>
        <time>2021-05-15T18:22:52Z</time>
      </trkpt>
      <trkpt lat="41.242526" lon="1.844849">
        <ele>226.453</ele>
        <time>2021-05-15T18:23:02Z</time>
      </trkpt>
      <trkpt lat="41.242541" lon="1.844668">
        <ele>227.408</ele>
        <time>2021-05-15T18:23:09Z</time>
      </trkpt>
      <trkpt lat="41.242546" lon="1.844647">
        <ele>227.608</ele>
        <time>2021-05-15T18:23:10Z</time>
      </trkpt>
      <trkpt lat="41.242682" lon="1.844480">
        <ele>227.892</ele>
        <time>2021-05-15T18:23:16Z</time>
      </trkpt>
      <trkpt lat="41.242796" lon="1.844330">
        <ele>226.868</ele>
        <time>2021-05-15T18:23:19Z</time>
      </trkpt>
      <trkpt lat="41.242832" lon="1.844266">
        <ele>226.634</ele>
        <time>2021-05-15T18:23:20Z</time>
      </trkpt>
      <trkpt lat="41.242875" lon="1.844201">
        <ele>226.250</ele>
        <time>2021-05-15T18:23:21Z</time>
      </trkpt>
      <trkpt lat="41.243027" lon="1.844025">
        <ele>225.030</ele>
        <time>2021-05-15T18:23:24Z</time>
      </trkpt>
      <trkpt lat="41.243086" lon="1.843940">
        <ele>224.876</ele>
        <time>2021-05-15T18:23:25Z</time>
      </trkpt>
      <trkpt lat="41.243214" lon="1.843706">
        <ele>224.069</ele>
        <time>2021-05-15T18:23:28Z</time>
      </trkpt>
      <trkpt lat="41.243255" lon="1.843639">
        <ele>223.888</ele>
        <time>2021-05-15T18:23:29Z</time>
      </trkpt>
      <trkpt lat="41.243296" lon="1.843575">
        <ele>223.828</ele>
        <time>2021-05-15T18:23:30Z</time>
      </trkpt>
      <trkpt lat="41.243451" lon="1.843337">
        <ele>224.089</ele>
        <time>2021-05-15T18:23:34Z</time>
      </trkpt>
      <trkpt lat="41.243524" lon="1.843231">
        <ele>224.017</ele>
        <time>2021-05-15T18:23:36Z</time>
      </trkpt>
      <trkpt lat="41.243606" lon="1.843106">
        <ele>223.808</ele>
        <time>2021-05-15T18:23:38Z</time>
      </trkpt>
      <trkpt lat="41.243698" lon="1.842871">
        <ele>223.099</ele>
        <time>2021-05-15T18:23:41Z</time>
      </trkpt>
      <trkpt lat="41.243751" lon="1.842699">
        <ele>222.845</ele>
        <time>2021-05-15T18:23:43Z</time>
      </trkpt>
      <trkpt lat="41.243786" lon="1.842546">
        <ele>222.621</ele>
        <time>2021-05-15T18:23:45Z</time>
      </trkpt>
      <trkpt lat="41.243817" lon="1.842389">
        <ele>222.437</ele>
        <time>2021-05-15T18:23:47Z</time>
      </trkpt>
      <trkpt lat="41.243869" lon="1.842071">
        <ele>221.497</ele>
        <time>2021-05-15T18:23:51Z</time>
      </trkpt>
      <trkpt lat="41.243890" lon="1.841990">
        <ele>221.293</ele>
        <time>2021-05-15T18:23:52Z</time>
      </trkpt>
      <trkpt lat="41.243955" lon="1.841822">
        <ele>220.086</ele>
        <time>2021-05-15T18:23:54Z</time>
      </trkpt>
      <trkpt lat="41.244015" lon="1.841613">
        <ele>218.625</ele>
        <time>2021-05-15T18:23:56Z</time>
      </trkpt>
      <trkpt lat="41.244054" lon="1.841385">
        <ele>217.421</ele>
        <time>2021-05-15T18:23:58Z</time>
      </trkpt>
      <trkpt lat="41.244103" lon="1.841071">
        <ele>216.241</ele>
        <time>2021-05-15T18:24:01Z</time>
      </trkpt>
      <trkpt lat="41.244125" lon="1.840891">
        <ele>215.805</ele>
        <time>2021-05-15T18:24:03Z</time>
      </trkpt>
      <trkpt lat="41.244156" lon="1.840669">
        <ele>216.208</ele>
        <time>2021-05-15T18:24:06Z</time>
      </trkpt>
      <trkpt lat="41.244176" lon="1.840616">
        <ele>216.469</ele>
        <time>2021-05-15T18:24:07Z</time>
      </trkpt>
      <trkpt lat="41.244229" lon="1.840501">
        <ele>217.285</ele>
        <time>2021-05-15T18:24:10Z</time>
      </trkpt>
      <trkpt lat="41.244264" lon="1.840446">
        <ele>218.061</ele>
        <time>2021-05-15T18:24:12Z</time>
      </trkpt>
      <trkpt lat="41.244280" lon="1.840385">
        <ele>218.637</ele>
        <time>2021-05-15T18:24:14Z</time>
      </trkpt>
      <trkpt lat="41.244293" lon="1.840291">
        <ele>219.847</ele>
        <time>2021-05-15T18:24:17Z</time>
      </trkpt>
      <trkpt lat="41.244294" lon="1.840266">
        <ele>220.253</ele>
        <time>2021-05-15T18:24:18Z</time>
      </trkpt>
      <trkpt lat="41.244290" lon="1.840249">
        <ele>220.686</ele>
        <time>2021-05-15T18:24:19Z</time>
      </trkpt>
      <trkpt lat="41.244282" lon="1.840233">
        <ele>221.045</ele>
        <time>2021-05-15T18:24:20Z</time>
      </trkpt>
      <trkpt lat="41.244253" lon="1.840182">
        <ele>222.019</ele>
        <time>2021-05-15T18:24:23Z</time>
      </trkpt>
      <trkpt lat="41.244243" lon="1.840161">
        <ele>222.009</ele>
        <time>2021-05-15T18:24:24Z</time>
      </trkpt>
      <trkpt lat="41.244234" lon="1.840132">
        <ele>222.219</ele>
        <time>2021-05-15T18:24:29Z</time>
      </trkpt>
      <trkpt lat="41.244234" lon="1.840132">
        <ele>222.608</ele>
        <time>2021-05-15T18:24:37Z</time>
      </trkpt>
      <trkpt lat="41.244234" lon="1.840132">
        <ele>222.668</ele>
        <time>2021-05-15T18:24:40Z</time>
      </trkpt>
      <trkpt lat="41.244234" lon="1.840132">
        <ele>222.834</ele>
        <time>2021-05-15T18:24:44Z</time>
      </trkpt>
      <trkpt lat="41.244233" lon="1.840123">
        <ele>222.460</ele>
        <time>2021-05-15T18:24:56Z</time>
      </trkpt>
      <trkpt lat="41.244220" lon="1.840103">
        <ele>222.276</ele>
        <time>2021-05-15T18:24:57Z</time>
      </trkpt>
      <trkpt lat="41.244209" lon="1.840077">
        <ele>222.036</ele>
        <time>2021-05-15T18:24:58Z</time>
      </trkpt>
      <trkpt lat="41.244205" lon="1.840030">
        <ele>221.862</ele>
        <time>2021-05-15T18:25:00Z</time>
      </trkpt>
      <trkpt lat="41.244206" lon="1.840022">
        <ele>221.695</ele>
        <time>2021-05-15T18:25:01Z</time>
      </trkpt>
      <trkpt lat="41.244201" lon="1.840002">
        <ele>221.644</ele>
        <time>2021-05-15T18:25:07Z</time>
      </trkpt>
      <trkpt lat="41.244204" lon="1.839994">
        <ele>221.833</ele>
        <time>2021-05-15T18:25:15Z</time>
      </trkpt>
      <trkpt lat="41.244204" lon="1.839984">
        <ele>221.823</ele>
        <time>2021-05-15T18:25:16Z</time>
      </trkpt>
      <trkpt lat="41.244204" lon="1.839984">
        <ele>221.415</ele>
        <time>2021-05-15T18:25:21Z</time>
      </trkpt>
      <trkpt lat="41.244204" lon="1.839984">
        <ele>221.408</ele>
        <time>2021-05-15T18:25:23Z</time>
      </trkpt>
      <trkpt lat="41.244204" lon="1.839984">
        <ele>221.420</ele>
        <time>2021-05-15T18:25:27Z</time>
      </trkpt>
      <trkpt lat="41.244206" lon="1.839974">
        <ele>221.286</ele>
        <time>2021-05-15T18:25:30Z</time>
      </trkpt>
      <trkpt lat="41.244206" lon="1.839966">
        <ele>221.282</ele>
        <time>2021-05-15T18:25:33Z</time>
      </trkpt>
      <trkpt lat="41.244206" lon="1.839966">
        <ele>221.288</ele>
        <time>2021-05-15T18:25:36Z</time>
      </trkpt>
      <trkpt lat="41.244202" lon="1.839974">
        <ele>221.098</ele>
        <time>2021-05-15T18:25:49Z</time>
      </trkpt>
      <trkpt lat="41.244202" lon="1.839974">
        <ele>220.644</ele>
        <time>2021-05-15T18:25:52Z</time>
      </trkpt>
      <trkpt lat="41.244208" lon="1.839991">
        <ele>220.847</ele>
        <time>2021-05-15T18:25:55Z</time>
      </trkpt>
      <trkpt lat="41.244225" lon="1.840020">
        <ele>221.836</ele>
        <time>2021-05-15T18:25:57Z</time>
      </trkpt>
      <trkpt lat="41.244240" lon="1.840049">
        <ele>221.881</ele>
        <time>2021-05-15T18:25:59Z</time>
      </trkpt>
      <trkpt lat="41.244242" lon="1.840065">
        <ele>222.061</ele>
        <time>2021-05-15T18:26:00Z</time>
      </trkpt>
      <trkpt lat="41.244245" lon="1.840096">
        <ele>222.417</ele>
        <time>2021-05-15T18:26:02Z</time>
      </trkpt>
      <trkpt lat="41.244248" lon="1.840118">
        <ele>222.408</ele>
        <time>2021-05-15T18:26:04Z</time>
      </trkpt>
      <trkpt lat="41.244272" lon="1.840189">
        <ele>222.485</ele>
        <time>2021-05-15T18:26:10Z</time>
      </trkpt>
      <trkpt lat="41.244283" lon="1.840208">
        <ele>222.481</ele>
        <time>2021-05-15T18:26:11Z</time>
      </trkpt>
      <trkpt lat="41.244336" lon="1.840267">
        <ele>222.237</ele>
        <time>2021-05-15T18:26:14Z</time>
      </trkpt>
      <trkpt lat="41.244378" lon="1.840257">
        <ele>222.223</ele>
        <time>2021-05-15T18:26:16Z</time>
      </trkpt>
      <trkpt lat="41.244504" lon="1.840191">
        <ele>223.243</ele>
        <time>2021-05-15T18:26:22Z</time>
      </trkpt>
      <trkpt lat="41.244632" lon="1.840112">
        <ele>224.469</ele>
        <time>2021-05-15T18:26:28Z</time>
      </trkpt>
      <trkpt lat="41.244678" lon="1.840065">
        <ele>225.412</ele>
        <time>2021-05-15T18:26:31Z</time>
      </trkpt>
      <trkpt lat="41.244697" lon="1.840055">
        <ele>225.681</ele>
        <time>2021-05-15T18:26:32Z</time>
      </trkpt>
      <trkpt lat="41.244761" lon="1.840027">
        <ele>226.615</ele>
        <time>2021-05-15T18:26:35Z</time>
      </trkpt>
      <trkpt lat="41.244825" lon="1.840001">
        <ele>227.465</ele>
        <time>2021-05-15T18:26:38Z</time>
      </trkpt>
      <trkpt lat="41.244867" lon="1.839987">
        <ele>227.811</ele>
        <time>2021-05-15T18:26:40Z</time>
      </trkpt>
      <trkpt lat="41.244887" lon="1.839983">
        <ele>228.008</ele>
        <time>2021-05-15T18:26:41Z</time>
      </trkpt>
      <trkpt lat="41.244905" lon="1.839979">
        <ele>228.298</ele>
        <time>2021-05-15T18:26:42Z</time>
      </trkpt>
      <trkpt lat="41.244949" lon="1.839979">
        <ele>228.844</ele>
        <time>2021-05-15T18:26:44Z</time>
      </trkpt>
      <trkpt lat="41.244970" lon="1.839983">
        <ele>229.080</ele>
        <time>2021-05-15T18:26:45Z</time>
      </trkpt>
      <trkpt lat="41.245010" lon="1.839983">
        <ele>229.256</ele>
        <time>2021-05-15T18:26:47Z</time>
      </trkpt>
      <trkpt lat="41.245108" lon="1.840001">
        <ele>230.096</ele>
        <time>2021-05-15T18:26:52Z</time>
      </trkpt>
      <trkpt lat="41.245199" lon="1.840021">
        <ele>231.032</ele>
        <time>2021-05-15T18:26:56Z</time>
      </trkpt>
      <trkpt lat="41.245221" lon="1.840027">
        <ele>231.295</ele>
        <time>2021-05-15T18:26:57Z</time>
      </trkpt>
      <trkpt lat="41.245312" lon="1.840031">
        <ele>232.224</ele>
        <time>2021-05-15T18:27:01Z</time>
      </trkpt>
      <trkpt lat="41.245361" lon="1.840025">
        <ele>232.447</ele>
        <time>2021-05-15T18:27:03Z</time>
      </trkpt>
      <trkpt lat="41.245438" lon="1.840024">
        <ele>233.229</ele>
        <time>2021-05-15T18:27:06Z</time>
      </trkpt>
      <trkpt lat="41.245538" lon="1.840026">
        <ele>234.221</ele>
        <time>2021-05-15T18:27:10Z</time>
      </trkpt>
      <trkpt lat="41.245575" lon="1.840034">
        <ele>234.608</ele>
        <time>2021-05-15T18:27:12Z</time>
      </trkpt>
      <trkpt lat="41.245672" lon="1.840039">
        <ele>235.471</ele>
        <time>2021-05-15T18:27:16Z</time>
      </trkpt>
      <trkpt lat="41.245775" lon="1.840024">
        <ele>236.087</ele>
        <time>2021-05-15T18:27:20Z</time>
      </trkpt>
      <trkpt lat="41.245947" lon="1.839916">
        <ele>236.463</ele>
        <time>2021-05-15T18:27:27Z</time>
      </trkpt>
      <trkpt lat="41.245977" lon="1.839891">
        <ele>236.449</ele>
        <time>2021-05-15T18:27:28Z</time>
      </trkpt>
      <trkpt lat="41.246128" lon="1.839826">
        <ele>236.289</ele>
        <time>2021-05-15T18:27:32Z</time>
      </trkpt>
      <trkpt lat="41.246180" lon="1.839824">
        <ele>235.875</ele>
        <time>2021-05-15T18:27:33Z</time>
      </trkpt>
      <trkpt lat="41.246235" lon="1.839833">
        <ele>235.498</ele>
        <time>2021-05-15T18:27:34Z</time>
      </trkpt>
      <trkpt lat="41.246293" lon="1.839847">
        <ele>235.017</ele>
        <time>2021-05-15T18:27:35Z</time>
      </trkpt>
      <trkpt lat="41.246471" lon="1.839895">
        <ele>234.216</ele>
        <time>2021-05-15T18:27:38Z</time>
      </trkpt>
      <trkpt lat="41.246520" lon="1.839915">
        <ele>233.876</ele>
        <time>2021-05-15T18:27:39Z</time>
      </trkpt>
      <trkpt lat="41.246598" lon="1.839956">
        <ele>233.213</ele>
        <time>2021-05-15T18:27:41Z</time>
      </trkpt>
      <trkpt lat="41.246645" lon="1.839969">
        <ele>233.208</ele>
        <time>2021-05-15T18:27:42Z</time>
      </trkpt>
      <trkpt lat="41.246695" lon="1.839984">
        <ele>233.218</ele>
        <time>2021-05-15T18:27:43Z</time>
      </trkpt>
      <trkpt lat="41.246792" lon="1.840014">
        <ele>233.034</ele>
        <time>2021-05-15T18:27:45Z</time>
      </trkpt>
      <trkpt lat="41.246885" lon="1.840010">
        <ele>233.070</ele>
        <time>2021-05-15T18:27:47Z</time>
      </trkpt>
      <trkpt lat="41.247004" lon="1.839969">
        <ele>233.666</ele>
        <time>2021-05-15T18:27:50Z</time>
      </trkpt>
      <trkpt lat="41.247083" lon="1.839952">
        <ele>234.086</ele>
        <time>2021-05-15T18:27:52Z</time>
      </trkpt>
      <trkpt lat="41.247209" lon="1.839972">
        <ele>235.062</ele>
        <time>2021-05-15T18:27:56Z</time>
      </trkpt>
      <trkpt lat="41.247241" lon="1.839977">
        <ele>235.265</ele>
        <time>2021-05-15T18:27:57Z</time>
      </trkpt>
      <trkpt lat="41.247271" lon="1.839981">
        <ele>235.854</ele>
        <time>2021-05-15T18:27:58Z</time>
      </trkpt>
      <trkpt lat="41.247295" lon="1.839990">
        <ele>236.446</ele>
        <time>2021-05-15T18:27:59Z</time>
      </trkpt>
      <trkpt lat="41.247366" lon="1.840001">
        <ele>237.488</ele>
        <time>2021-05-15T18:28:02Z</time>
      </trkpt>
      <trkpt lat="41.247388" lon="1.840003">
        <ele>238.216</ele>
        <time>2021-05-15T18:28:03Z</time>
      </trkpt>
      <trkpt lat="41.247410" lon="1.840003">
        <ele>238.608</ele>
        <time>2021-05-15T18:28:04Z</time>
      </trkpt>
      <trkpt lat="41.247480" lon="1.839993">
        <ele>239.861</ele>
        <time>2021-05-15T18:28:07Z</time>
      </trkpt>
      <trkpt lat="41.247506" lon="1.839992">
        <ele>240.057</ele>
        <time>2021-05-15T18:28:08Z</time>
      </trkpt>
      <trkpt lat="41.247555" lon="1.839984">
        <ele>240.423</ele>
        <time>2021-05-15T18:28:10Z</time>
      </trkpt>
      <trkpt lat="41.247602" lon="1.839963">
        <ele>240.699</ele>
        <time>2021-05-15T18:28:12Z</time>
      </trkpt>
      <trkpt lat="41.247645" lon="1.839935">
        <ele>240.879</ele>
        <time>2021-05-15T18:28:14Z</time>
      </trkpt>
      <trkpt lat="41.247688" lon="1.839900">
        <ele>241.465</ele>
        <time>2021-05-15T18:28:16Z</time>
      </trkpt>
      <trkpt lat="41.247749" lon="1.839875">
        <ele>242.038</ele>
        <time>2021-05-15T18:28:19Z</time>
      </trkpt>
      <trkpt lat="41.247788" lon="1.839861">
        <ele>242.477</ele>
        <time>2021-05-15T18:28:21Z</time>
      </trkpt>
      <trkpt lat="41.247849" lon="1.839836">
        <ele>243.263</ele>
        <time>2021-05-15T18:28:24Z</time>
      </trkpt>
      <trkpt lat="41.247905" lon="1.839831">
        <ele>243.644</ele>
        <time>2021-05-15T18:28:27Z</time>
      </trkpt>
      <trkpt lat="41.247996" lon="1.839853">
        <ele>244.218</ele>
        <time>2021-05-15T18:28:31Z</time>
      </trkpt>
      <trkpt lat="41.248057" lon="1.839870">
        <ele>245.408</ele>
        <time>2021-05-15T18:28:34Z</time>
      </trkpt>
      <trkpt lat="41.248110" lon="1.839878">
        <ele>246.623</ele>
        <time>2021-05-15T18:28:37Z</time>
      </trkpt>
      <trkpt lat="41.248193" lon="1.839894">
        <ele>247.849</ele>
        <time>2021-05-15T18:28:41Z</time>
      </trkpt>
      <trkpt lat="41.248214" lon="1.839899">
        <ele>248.075</ele>
        <time>2021-05-15T18:28:42Z</time>
      </trkpt>
      <trkpt lat="41.248303" lon="1.839892">
        <ele>249.251</ele>
        <time>2021-05-15T18:28:46Z</time>
      </trkpt>
      <trkpt lat="41.248351" lon="1.839875">
        <ele>250.221</ele>
        <time>2021-05-15T18:28:49Z</time>
      </trkpt>
      <trkpt lat="41.248371" lon="1.839868">
        <ele>250.667</ele>
        <time>2021-05-15T18:28:50Z</time>
      </trkpt>
      <trkpt lat="41.248483" lon="1.839822">
        <ele>251.430</ele>
        <time>2021-05-15T18:28:56Z</time>
      </trkpt>
      <trkpt lat="41.248525" lon="1.839806">
        <ele>251.669</ele>
        <time>2021-05-15T18:28:58Z</time>
      </trkpt>
      <trkpt lat="41.248651" lon="1.839771">
        <ele>252.692</ele>
        <time>2021-05-15T18:29:04Z</time>
      </trkpt>
      <trkpt lat="41.248668" lon="1.839760">
        <ele>253.073</ele>
        <time>2021-05-15T18:29:05Z</time>
      </trkpt>
      <trkpt lat="41.248756" lon="1.839710">
        <ele>254.020</ele>
        <time>2021-05-15T18:29:10Z</time>
      </trkpt>
      <trkpt lat="41.248880" lon="1.839659">
        <ele>255.008</ele>
        <time>2021-05-15T18:29:15Z</time>
      </trkpt>
      <trkpt lat="41.249030" lon="1.839620">
        <ele>255.696</ele>
        <time>2021-05-15T18:29:20Z</time>
      </trkpt>
      <trkpt lat="41.249203" lon="1.839571">
        <ele>255.282</ele>
        <time>2021-05-15T18:29:27Z</time>
      </trkpt>
      <trkpt lat="41.249269" lon="1.839498">
        <ele>255.288</ele>
        <time>2021-05-15T18:29:32Z</time>
      </trkpt>
      <trkpt lat="41.249272" lon="1.839479">
        <ele>255.294</ele>
        <time>2021-05-15T18:29:33Z</time>
      </trkpt>
      <trkpt lat="41.249280" lon="1.839442">
        <ele>255.634</ele>
        <time>2021-05-15T18:29:35Z</time>
      </trkpt>
      <trkpt lat="41.249298" lon="1.839365">
        <ele>256.290</ele>
        <time>2021-05-15T18:29:39Z</time>
      </trkpt>
      <trkpt lat="41.249312" lon="1.839243">
        <ele>257.253</ele>
        <time>2021-05-15T18:29:45Z</time>
      </trkpt>
      <trkpt lat="41.249315" lon="1.839223">
        <ele>257.472</ele>
        <time>2021-05-15T18:29:46Z</time>
      </trkpt>
      <trkpt lat="41.249317" lon="1.839174">
        <ele>258.693</ele>
        <time>2021-05-15T18:29:49Z</time>
      </trkpt>
      <trkpt lat="41.249306" lon="1.839127">
        <ele>259.665</ele>
        <time>2021-05-15T18:29:52Z</time>
      </trkpt>
      <trkpt lat="41.249302" lon="1.839107">
        <ele>260.021</ele>
        <time>2021-05-15T18:29:53Z</time>
      </trkpt>
      <trkpt lat="41.249303" lon="1.839091">
        <ele>260.208</ele>
        <time>2021-05-15T18:29:54Z</time>
      </trkpt>
      <trkpt lat="41.249305" lon="1.839088">
        <ele>260.426</ele>
        <time>2021-05-15T18:29:56Z</time>
      </trkpt>
      <trkpt lat="41.249304" lon="1.839076">
        <ele>260.872</ele>
        <time>2021-05-15T18:29:59Z</time>
      </trkpt>
      <trkpt lat="41.249307" lon="1.839055">
        <ele>261.258</ele>
        <time>2021-05-15T18:30:01Z</time>
      </trkpt>
      <trkpt lat="41.249312" lon="1.839042">
        <ele>261.414</ele>
        <time>2021-05-15T18:30:02Z</time>
      </trkpt>
      <trkpt lat="41.249327" lon="1.838997">
        <ele>262.284</ele>
        <time>2021-05-15T18:30:06Z</time>
      </trkpt>
      <trkpt lat="41.249344" lon="1.838969">
        <ele>262.630</ele>
        <time>2021-05-15T18:30:09Z</time>
      </trkpt>
      <trkpt lat="41.249351" lon="1.838942">
        <ele>263.053</ele>
        <time>2021-05-15T18:30:12Z</time>
      </trkpt>
      <trkpt lat="41.249353" lon="1.838937">
        <ele>263.292</ele>
        <time>2021-05-15T18:30:13Z</time>
      </trkpt>
      <trkpt lat="41.249355" lon="1.838924">
        <ele>263.837</ele>
        <time>2021-05-15T18:30:15Z</time>
      </trkpt>
      <trkpt lat="41.249353" lon="1.838905">
        <ele>264.249</ele>
        <time>2021-05-15T18:30:17Z</time>
      </trkpt>
      <trkpt lat="41.249365" lon="1.838873">
        <ele>264.813</ele>
        <time>2021-05-15T18:30:20Z</time>
      </trkpt>
      <trkpt lat="41.249390" lon="1.838847">
        <ele>265.408</ele>
        <time>2021-05-15T18:30:23Z</time>
      </trkpt>
      <trkpt lat="41.249410" lon="1.838819">
        <ele>266.040</ele>
        <time>2021-05-15T18:30:26Z</time>
      </trkpt>
      <trkpt lat="41.249424" lon="1.838785">
        <ele>266.616</ele>
        <time>2021-05-15T18:30:29Z</time>
      </trkpt>
      <trkpt lat="41.249425" lon="1.838769">
        <ele>267.012</ele>
        <time>2021-05-15T18:30:30Z</time>
      </trkpt>
      <trkpt lat="41.249437" lon="1.838725">
        <ele>267.868</ele>
        <time>2021-05-15T18:30:34Z</time>
      </trkpt>
      <trkpt lat="41.249442" lon="1.838712">
        <ele>268.078</ele>
        <time>2021-05-15T18:30:35Z</time>
      </trkpt>
      <trkpt lat="41.249430" lon="1.838664">
        <ele>268.854</ele>
        <time>2021-05-15T18:30:39Z</time>
      </trkpt>
      <trkpt lat="41.249416" lon="1.838636">
        <ele>269.487</ele>
        <time>2021-05-15T18:30:42Z</time>
      </trkpt>
      <trkpt lat="41.249407" lon="1.838608">
        <ele>269.826</ele>
        <time>2021-05-15T18:30:45Z</time>
      </trkpt>
      <trkpt lat="41.249412" lon="1.838576">
        <ele>270.638</ele>
        <time>2021-05-15T18:30:49Z</time>
      </trkpt>
      <trkpt lat="41.249393" lon="1.838543">
        <ele>271.270</ele>
        <time>2021-05-15T18:30:52Z</time>
      </trkpt>
      <trkpt lat="41.249382" lon="1.838500">
        <ele>271.817</ele>
        <time>2021-05-15T18:30:55Z</time>
      </trkpt>
      <trkpt lat="41.249380" lon="1.838477">
        <ele>272.208</ele>
        <time>2021-05-15T18:30:57Z</time>
      </trkpt>
      <trkpt lat="41.249377" lon="1.838435">
        <ele>273.460</ele>
        <time>2021-05-15T18:31:04Z</time>
      </trkpt>
      <trkpt lat="41.249380" lon="1.838427">
        <ele>273.676</ele>
        <time>2021-05-15T18:31:05Z</time>
      </trkpt>
      <trkpt lat="41.249400" lon="1.838398">
        <ele>274.642</ele>
        <time>2021-05-15T18:31:09Z</time>
      </trkpt>
      <trkpt lat="41.249404" lon="1.838362">
        <ele>275.698</ele>
        <time>2021-05-15T18:31:13Z</time>
      </trkpt>
      <trkpt lat="41.249403" lon="1.838360">
        <ele>276.028</ele>
        <time>2021-05-15T18:31:14Z</time>
      </trkpt>
      <trkpt lat="41.249408" lon="1.838332">
        <ele>276.854</ele>
        <time>2021-05-15T18:31:18Z</time>
      </trkpt>
      <trkpt lat="41.249419" lon="1.838302">
        <ele>278.027</ele>
        <time>2021-05-15T18:31:23Z</time>
      </trkpt>
      <trkpt lat="41.249426" lon="1.838284">
        <ele>279.056</ele>
        <time>2021-05-15T18:31:28Z</time>
      </trkpt>
      <trkpt lat="41.249437" lon="1.838263">
        <ele>280.292</ele>
        <time>2021-05-15T18:31:32Z</time>
      </trkpt>
      <trkpt lat="41.249437" lon="1.838252">
        <ele>280.873</ele>
        <time>2021-05-15T18:31:35Z</time>
      </trkpt>
      <trkpt lat="41.249440" lon="1.838229">
        <ele>281.420</ele>
        <time>2021-05-15T18:31:37Z</time>
      </trkpt>
      <trkpt lat="41.249448" lon="1.838198">
        <ele>282.408</ele>
        <time>2021-05-15T18:31:42Z</time>
      </trkpt>
      <trkpt lat="41.249450" lon="1.838195">
        <ele>282.686</ele>
        <time>2021-05-15T18:31:43Z</time>
      </trkpt>
      <trkpt lat="41.249441" lon="1.838160">
        <ele>283.462</ele>
        <time>2021-05-15T18:31:47Z</time>
      </trkpt>
      <trkpt lat="41.249437" lon="1.838112">
        <ele>283.898</ele>
        <time>2021-05-15T18:31:50Z</time>
      </trkpt>
      <trkpt lat="41.249437" lon="1.838078">
        <ele>284.644</ele>
        <time>2021-05-15T18:31:53Z</time>
      </trkpt>
      <trkpt lat="41.249449" lon="1.838037">
        <ele>285.614</ele>
        <time>2021-05-15T18:31:59Z</time>
      </trkpt>
      <trkpt lat="41.249453" lon="1.838030">
        <ele>286.620</ele>
        <time>2021-05-15T18:32:03Z</time>
      </trkpt>
      <trkpt lat="41.249465" lon="1.837979">
        <ele>287.463</ele>
        <time>2021-05-15T18:32:07Z</time>
      </trkpt>
      <trkpt lat="41.249473" lon="1.837962">
        <ele>287.872</ele>
        <time>2021-05-15T18:32:09Z</time>
      </trkpt>
      <trkpt lat="41.249485" lon="1.837918">
        <ele>288.869</ele>
        <time>2021-05-15T18:32:14Z</time>
      </trkpt>
      <trkpt lat="41.249480" lon="1.837907">
        <ele>289.004</ele>
        <time>2021-05-15T18:32:15Z</time>
      </trkpt>
      <trkpt lat="41.249480" lon="1.837890">
        <ele>289.824</ele>
        <time>2021-05-15T18:32:20Z</time>
      </trkpt>
      <trkpt lat="41.249480" lon="1.837861">
        <ele>290.408</ele>
        <time>2021-05-15T18:32:23Z</time>
      </trkpt>
      <trkpt lat="41.249486" lon="1.837843">
        <ele>290.823</ele>
        <time>2021-05-15T18:32:25Z</time>
      </trkpt>
      <trkpt lat="41.249495" lon="1.837802">
        <ele>292.019</ele>
        <time>2021-05-15T18:32:29Z</time>
      </trkpt>
      <trkpt lat="41.249497" lon="1.837775">
        <ele>292.215</ele>
        <time>2021-05-15T18:32:32Z</time>
      </trkpt>
      <trkpt lat="41.249498" lon="1.837762">
        <ele>293.031</ele>
        <time>2021-05-15T18:32:37Z</time>
      </trkpt>
      <trkpt lat="41.249498" lon="1.837762">
        <ele>293.471</ele>
        <time>2021-05-15T18:32:42Z</time>
      </trkpt>
      <trkpt lat="41.249504" lon="1.837745">
        <ele>294.287</ele>
        <time>2021-05-15T18:32:48Z</time>
      </trkpt>
      <trkpt lat="41.249506" lon="1.837719">
        <ele>294.810</ele>
        <time>2021-05-15T18:32:50Z</time>
      </trkpt>
      <trkpt lat="41.249501" lon="1.837687">
        <ele>295.239</ele>
        <time>2021-05-15T18:32:52Z</time>
      </trkpt>
      <trkpt lat="41.249498" lon="1.837649">
        <ele>295.468</ele>
        <time>2021-05-15T18:32:54Z</time>
      </trkpt>
      <trkpt lat="41.249501" lon="1.837619">
        <ele>295.442</ele>
        <time>2021-05-15T18:32:56Z</time>
      </trkpt>
      <trkpt lat="41.249508" lon="1.837606">
        <ele>296.626</ele>
        <time>2021-05-15T18:33:01Z</time>
      </trkpt>
      <trkpt lat="41.249510" lon="1.837576">
        <ele>296.808</ele>
        <time>2021-05-15T18:33:03Z</time>
      </trkpt>
      <trkpt lat="41.249519" lon="1.837534">
        <ele>297.623</ele>
        <time>2021-05-15T18:33:07Z</time>
      </trkpt>
      <trkpt lat="41.249525" lon="1.837518">
        <ele>297.659</ele>
        <time>2021-05-15T18:33:11Z</time>
      </trkpt>
      <trkpt lat="41.249525" lon="1.837518">
        <ele>297.265</ele>
        <time>2021-05-15T18:33:20Z</time>
      </trkpt>
      <trkpt lat="41.249525" lon="1.837518">
        <ele>297.431</ele>
        <time>2021-05-15T18:33:29Z</time>
      </trkpt>
      <trkpt lat="41.249526" lon="1.837515">
        <ele>297.651</ele>
        <time>2021-05-15T18:33:38Z</time>
      </trkpt>
      <trkpt lat="41.249526" lon="1.837515">
        <ele>297.217</ele>
        <time>2021-05-15T18:33:48Z</time>
      </trkpt>
      <trkpt lat="41.249526" lon="1.837515">
        <ele>297.670</ele>
        <time>2021-05-15T18:33:51Z</time>
      </trkpt>
      <trkpt lat="41.249526" lon="1.837515">
        <ele>297.479</ele>
        <time>2021-05-15T18:33:53Z</time>
      </trkpt>
      <trkpt lat="41.249526" lon="1.837515">
        <ele>297.021</ele>
        <time>2021-05-15T18:34:01Z</time>
      </trkpt>
      <trkpt lat="41.249526" lon="1.837515">
        <ele>296.841</ele>
        <time>2021-05-15T18:34:09Z</time>
      </trkpt>
      <trkpt lat="41.249526" lon="1.837515">
        <ele>297.005</ele>
        <time>2021-05-15T18:34:13Z</time>
      </trkpt>
      <trkpt lat="41.249526" lon="1.837515">
        <ele>297.008</ele>
        <time>2021-05-15T18:34:15Z</time>
      </trkpt>
      <trkpt lat="41.249507" lon="1.837504">
        <ele>297.059</ele>
        <time>2021-05-15T18:34:17Z</time>
      </trkpt>
      <trkpt lat="41.249479" lon="1.837493">
        <ele>296.855</ele>
        <time>2021-05-15T18:34:19Z</time>
      </trkpt>
      <trkpt lat="41.249441" lon="1.837499">
        <ele>296.431</ele>
        <time>2021-05-15T18:34:21Z</time>
      </trkpt>
      <trkpt lat="41.249397" lon="1.837471">
        <ele>296.037</ele>
        <time>2021-05-15T18:34:24Z</time>
      </trkpt>
      <trkpt lat="41.249389" lon="1.837462">
        <ele>295.857</ele>
        <time>2021-05-15T18:34:25Z</time>
      </trkpt>
      <trkpt lat="41.249368" lon="1.837436">
        <ele>295.263</ele>
        <time>2021-05-15T18:34:27Z</time>
      </trkpt>
      <trkpt lat="41.249339" lon="1.837407">
        <ele>294.436</ele>
        <time>2021-05-15T18:34:29Z</time>
      </trkpt>
      <trkpt lat="41.249334" lon="1.837404">
        <ele>294.285</ele>
        <time>2021-05-15T18:34:31Z</time>
      </trkpt>
      <trkpt lat="41.249334" lon="1.837404">
        <ele>294.087</ele>
        <time>2021-05-15T18:34:34Z</time>
      </trkpt>
      <trkpt lat="41.249326" lon="1.837401">
        <ele>293.842</ele>
        <time>2021-05-15T18:34:43Z</time>
      </trkpt>
      <trkpt lat="41.249323" lon="1.837394">
        <ele>293.026</ele>
        <time>2021-05-15T18:34:52Z</time>
      </trkpt>
      <trkpt lat="41.249323" lon="1.837394">
        <ele>292.808</ele>
        <time>2021-05-15T18:34:56Z</time>
      </trkpt>
      <trkpt lat="41.249319" lon="1.837393">
        <ele>292.085</ele>
        <time>2021-05-15T18:35:06Z</time>
      </trkpt>
      <trkpt lat="41.249310" lon="1.837384">
        <ele>292.051</ele>
        <time>2021-05-15T18:35:09Z</time>
      </trkpt>
      <trkpt lat="41.249310" lon="1.837384">
        <ele>292.037</ele>
        <time>2021-05-15T18:35:13Z</time>
      </trkpt>
      <trkpt lat="41.249296" lon="1.837363">
        <ele>291.823</ele>
        <time>2021-05-15T18:35:20Z</time>
      </trkpt>
      <trkpt lat="41.249286" lon="1.837338">
        <ele>291.883</ele>
        <time>2021-05-15T18:35:22Z</time>
      </trkpt>
      <trkpt lat="41.249279" lon="1.837273">
        <ele>291.469</ele>
        <time>2021-05-15T18:35:25Z</time>
      </trkpt>
      <trkpt lat="41.249264" lon="1.837219">
        <ele>291.072</ele>
        <time>2021-05-15T18:35:29Z</time>
      </trkpt>
      <trkpt lat="41.249257" lon="1.837204">
        <ele>290.851</ele>
        <time>2021-05-15T18:35:30Z</time>
      </trkpt>
      <trkpt lat="41.249245" lon="1.837181">
        <ele>290.232</ele>
        <time>2021-05-15T18:35:32Z</time>
      </trkpt>
      <trkpt lat="41.249231" lon="1.837173">
        <ele>290.092</ele>
        <time>2021-05-15T18:35:34Z</time>
      </trkpt>
      <trkpt lat="41.249222" lon="1.837150">
        <ele>289.011</ele>
        <time>2021-05-15T18:35:40Z</time>
      </trkpt>
      <trkpt lat="41.249216" lon="1.837135">
        <ele>288.808</ele>
        <time>2021-05-15T18:35:41Z</time>
      </trkpt>
      <trkpt lat="41.249204" lon="1.837115">
        <ele>288.650</ele>
        <time>2021-05-15T18:35:42Z</time>
      </trkpt>
      <trkpt lat="41.249194" lon="1.837080">
        <ele>287.856</ele>
        <time>2021-05-15T18:35:44Z</time>
      </trkpt>
      <trkpt lat="41.249194" lon="1.837065">
        <ele>287.472</ele>
        <time>2021-05-15T18:35:45Z</time>
      </trkpt>
      <trkpt lat="41.249243" lon="1.836927">
        <ele>287.088</ele>
        <time>2021-05-15T18:35:51Z</time>
      </trkpt>
      <trkpt lat="41.249251" lon="1.836903">
        <ele>286.878</ele>
        <time>2021-05-15T18:35:52Z</time>
      </trkpt>
      <trkpt lat="41.249259" lon="1.836862">
        <ele>286.224</ele>
        <time>2021-05-15T18:35:54Z</time>
      </trkpt>
      <trkpt lat="41.249268" lon="1.836832">
        <ele>285.647</ele>
        <time>2021-05-15T18:35:58Z</time>
      </trkpt>
      <trkpt lat="41.249266" lon="1.836822">
        <ele>285.276</ele>
        <time>2021-05-15T18:36:02Z</time>
      </trkpt>
      <trkpt lat="41.249269" lon="1.836786">
        <ele>284.855</ele>
        <time>2021-05-15T18:36:06Z</time>
      </trkpt>
      <trkpt lat="41.249265" lon="1.836770">
        <ele>283.807</ele>
        <time>2021-05-15T18:36:09Z</time>
      </trkpt>
      <trkpt lat="41.249263" lon="1.836759">
        <ele>283.017</ele>
        <time>2021-05-15T18:36:11Z</time>
      </trkpt>
      <trkpt lat="41.249259" lon="1.836746">
        <ele>282.808</ele>
        <time>2021-05-15T18:36:12Z</time>
      </trkpt>
      <trkpt lat="41.249256" lon="1.836728">
        <ele>282.442</ele>
        <time>2021-05-15T18:36:13Z</time>
      </trkpt>
      <trkpt lat="41.249244" lon="1.836673">
        <ele>281.448</ele>
        <time>2021-05-15T18:36:16Z</time>
      </trkpt>
      <trkpt lat="41.249238" lon="1.836652">
        <ele>280.854</ele>
        <time>2021-05-15T18:36:17Z</time>
      </trkpt>
      <trkpt lat="41.249229" lon="1.836631">
        <ele>280.220</ele>
        <time>2021-05-15T18:36:18Z</time>
      </trkpt>
      <trkpt lat="41.249216" lon="1.836589">
        <ele>279.270</ele>
        <time>2021-05-15T18:36:20Z</time>
      </trkpt>
      <trkpt lat="41.249215" lon="1.836569">
        <ele>278.686</ele>
        <time>2021-05-15T18:36:21Z</time>
      </trkpt>
      <trkpt lat="41.249214" lon="1.836548">
        <ele>278.219</ele>
        <time>2021-05-15T18:36:22Z</time>
      </trkpt>
      <trkpt lat="41.249212" lon="1.836532">
        <ele>277.818</ele>
        <time>2021-05-15T18:36:23Z</time>
      </trkpt>
      <trkpt lat="41.249211" lon="1.836524">
        <ele>277.075</ele>
        <time>2021-05-15T18:36:26Z</time>
      </trkpt>
      <trkpt lat="41.249216" lon="1.836514">
        <ele>276.828</ele>
        <time>2021-05-15T18:36:28Z</time>
      </trkpt>
      <trkpt lat="41.249225" lon="1.836495">
        <ele>276.620</ele>
        <time>2021-05-15T18:36:29Z</time>
      </trkpt>
      <trkpt lat="41.249234" lon="1.836478">
        <ele>275.808</ele>
        <time>2021-05-15T18:36:32Z</time>
      </trkpt>
      <trkpt lat="41.249230" lon="1.836468">
        <ele>275.414</ele>
        <time>2021-05-15T18:36:35Z</time>
      </trkpt>
      <trkpt lat="41.249227" lon="1.836465">
        <ele>274.850</ele>
        <time>2021-05-15T18:36:41Z</time>
      </trkpt>
      <trkpt lat="41.249208" lon="1.836406">
        <ele>274.436</ele>
        <time>2021-05-15T18:36:45Z</time>
      </trkpt>
      <trkpt lat="41.249208" lon="1.836406">
        <ele>273.822</ele>
        <time>2021-05-15T18:36:48Z</time>
      </trkpt>
      <trkpt lat="41.249208" lon="1.836406">
        <ele>273.672</ele>
        <time>2021-05-15T18:36:49Z</time>
      </trkpt>
      <trkpt lat="41.249208" lon="1.836401">
        <ele>273.038</ele>
        <time>2021-05-15T18:36:55Z</time>
      </trkpt>
      <trkpt lat="41.249206" lon="1.836335">
        <ele>272.241</ele>
        <time>2021-05-15T18:36:58Z</time>
      </trkpt>
      <trkpt lat="41.249206" lon="1.836335">
        <ele>271.830</ele>
        <time>2021-05-15T18:36:59Z</time>
      </trkpt>
      <trkpt lat="41.249205" lon="1.836330">
        <ele>271.636</ele>
        <time>2021-05-15T18:37:00Z</time>
      </trkpt>
      <trkpt lat="41.249199" lon="1.836301">
        <ele>271.217</ele>
        <time>2021-05-15T18:37:01Z</time>
      </trkpt>
      <trkpt lat="41.249184" lon="1.836258">
        <ele>270.218</ele>
        <time>2021-05-15T18:37:03Z</time>
      </trkpt>
      <trkpt lat="41.249180" lon="1.836240">
        <ele>269.408</ele>
        <time>2021-05-15T18:37:04Z</time>
      </trkpt>
      <trkpt lat="41.249182" lon="1.836160">
        <ele>268.090</ele>
        <time>2021-05-15T18:37:07Z</time>
      </trkpt>
      <trkpt lat="41.249177" lon="1.836116">
        <ele>267.666</ele>
        <time>2021-05-15T18:37:09Z</time>
      </trkpt>
      <trkpt lat="41.249175" lon="1.836097">
        <ele>267.072</ele>
        <time>2021-05-15T18:37:12Z</time>
      </trkpt>
      <trkpt lat="41.249175" lon="1.836097">
        <ele>266.078</ele>
        <time>2021-05-15T18:37:15Z</time>
      </trkpt>
      <trkpt lat="41.249175" lon="1.836097">
        <ele>265.898</ele>
        <time>2021-05-15T18:37:17Z</time>
      </trkpt>
      <trkpt lat="41.249175" lon="1.836097">
        <ele>265.284</ele>
        <time>2021-05-15T18:37:25Z</time>
      </trkpt>
      <trkpt lat="41.249175" lon="1.836095">
        <ele>264.837</ele>
        <time>2021-05-15T18:37:27Z</time>
      </trkpt>
      <trkpt lat="41.249175" lon="1.836062">
        <ele>264.236</ele>
        <time>2021-05-15T18:37:30Z</time>
      </trkpt>
      <trkpt lat="41.249175" lon="1.836028">
        <ele>263.851</ele>
        <time>2021-05-15T18:37:31Z</time>
      </trkpt>
      <trkpt lat="41.249170" lon="1.835990">
        <ele>263.601</ele>
        <time>2021-05-15T18:37:32Z</time>
      </trkpt>
      <trkpt lat="41.249158" lon="1.835922">
        <ele>262.611</ele>
        <time>2021-05-15T18:37:34Z</time>
      </trkpt>
      <trkpt lat="41.249149" lon="1.835880">
        <ele>261.408</ele>
        <time>2021-05-15T18:37:36Z</time>
      </trkpt>
      <trkpt lat="41.249133" lon="1.835817">
        <ele>260.052</ele>
        <time>2021-05-15T18:37:39Z</time>
      </trkpt>
      <trkpt lat="41.249122" lon="1.835757">
        <ele>259.068</ele>
        <time>2021-05-15T18:37:42Z</time>
      </trkpt>
      <trkpt lat="41.249115" lon="1.835737">
        <ele>258.694</ele>
        <time>2021-05-15T18:37:43Z</time>
      </trkpt>
      <trkpt lat="41.249112" lon="1.835703">
        <ele>257.490</ele>
        <time>2021-05-15T18:37:45Z</time>
      </trkpt>
      <trkpt lat="41.249113" lon="1.835691">
        <ele>256.840</ele>
        <time>2021-05-15T18:37:48Z</time>
      </trkpt>
      <trkpt lat="41.249088" lon="1.835581">
        <ele>256.256</ele>
        <time>2021-05-15T18:37:53Z</time>
      </trkpt>
      <trkpt lat="41.249093" lon="1.835564">
        <ele>255.629</ele>
        <time>2021-05-15T18:37:55Z</time>
      </trkpt>
      <trkpt lat="41.249106" lon="1.835537">
        <ele>255.498</ele>
        <time>2021-05-15T18:37:59Z</time>
      </trkpt>
      <trkpt lat="41.249106" lon="1.835518">
        <ele>255.092</ele>
        <time>2021-05-15T18:38:00Z</time>
      </trkpt>
      <trkpt lat="41.249104" lon="1.835493">
        <ele>254.473</ele>
        <time>2021-05-15T18:38:02Z</time>
      </trkpt>
      <trkpt lat="41.249105" lon="1.835490">
        <ele>254.020</ele>
        <time>2021-05-15T18:38:05Z</time>
      </trkpt>
      <trkpt lat="41.249107" lon="1.835460">
        <ele>253.808</ele>
        <time>2021-05-15T18:38:08Z</time>
      </trkpt>
      <trkpt lat="41.249087" lon="1.835452">
        <ele>253.436</ele>
        <time>2021-05-15T18:38:12Z</time>
      </trkpt>
      <trkpt lat="41.249065" lon="1.835427">
        <ele>253.242</ele>
        <time>2021-05-15T18:38:14Z</time>
      </trkpt>
      <trkpt lat="41.249058" lon="1.835412">
        <ele>253.038</ele>
        <time>2021-05-15T18:38:15Z</time>
      </trkpt>
      <trkpt lat="41.249057" lon="1.835393">
        <ele>252.624</ele>
        <time>2021-05-15T18:38:18Z</time>
      </trkpt>
      <trkpt lat="41.249057" lon="1.835393">
        <ele>252.054</ele>
        <time>2021-05-15T18:38:23Z</time>
      </trkpt>
      <trkpt lat="41.249057" lon="1.835393">
        <ele>252.080</ele>
        <time>2021-05-15T18:38:24Z</time>
      </trkpt>
      <trkpt lat="41.249057" lon="1.835393">
        <ele>251.463</ele>
        <time>2021-05-15T18:38:27Z</time>
      </trkpt>
      <trkpt lat="41.249048" lon="1.835379">
        <ele>251.052</ele>
        <time>2021-05-15T18:38:34Z</time>
      </trkpt>
      <trkpt lat="41.249048" lon="1.835379">
        <ele>250.828</ele>
        <time>2021-05-15T18:38:36Z</time>
      </trkpt>
      <trkpt lat="41.249048" lon="1.835379">
        <ele>250.689</ele>
        <time>2021-05-15T18:38:39Z</time>
      </trkpt>
      <trkpt lat="41.249044" lon="1.835371">
        <ele>249.817</ele>
        <time>2021-05-15T18:38:49Z</time>
      </trkpt>
      <trkpt lat="41.249016" lon="1.835312">
        <ele>249.608</ele>
        <time>2021-05-15T18:38:53Z</time>
      </trkpt>
      <trkpt lat="41.249012" lon="1.835304">
        <ele>249.479</ele>
        <time>2021-05-15T18:38:54Z</time>
      </trkpt>
      <trkpt lat="41.248982" lon="1.835233">
        <ele>249.045</ele>
        <time>2021-05-15T18:38:59Z</time>
      </trkpt>
      <trkpt lat="41.248965" lon="1.835185">
        <ele>248.621</ele>
        <time>2021-05-15T18:39:01Z</time>
      </trkpt>
      <trkpt lat="41.248946" lon="1.835137">
        <ele>248.077</ele>
        <time>2021-05-15T18:39:03Z</time>
      </trkpt>
      <trkpt lat="41.248911" lon="1.835106">
        <ele>247.497</ele>
        <time>2021-05-15T18:39:05Z</time>
      </trkpt>
      <trkpt lat="41.248904" lon="1.835094">
        <ele>247.243</ele>
        <time>2021-05-15T18:39:06Z</time>
      </trkpt>
      <trkpt lat="41.248884" lon="1.835052">
        <ele>246.426</ele>
        <time>2021-05-15T18:39:09Z</time>
      </trkpt>
      <trkpt lat="41.248884" lon="1.835052">
        <ele>245.655</ele>
        <time>2021-05-15T18:39:12Z</time>
      </trkpt>
      <trkpt lat="41.248884" lon="1.835052">
        <ele>245.463</ele>
        <time>2021-05-15T18:39:13Z</time>
      </trkpt>
      <trkpt lat="41.248876" lon="1.835049">
        <ele>245.444</ele>
        <time>2021-05-15T18:39:18Z</time>
      </trkpt>
      <trkpt lat="41.248864" lon="1.835044">
        <ele>245.218</ele>
        <time>2021-05-15T18:39:21Z</time>
      </trkpt>
      <trkpt lat="41.248864" lon="1.835044">
        <ele>244.408</ele>
        <time>2021-05-15T18:39:33Z</time>
      </trkpt>
      <trkpt lat="41.248864" lon="1.835044">
        <ele>244.093</ele>
        <time>2021-05-15T18:39:35Z</time>
      </trkpt>
      <trkpt lat="41.248860" lon="1.835041">
        <ele>243.659</ele>
        <time>2021-05-15T18:39:38Z</time>
      </trkpt>
      <trkpt lat="41.248859" lon="1.835034">
        <ele>243.435</ele>
        <time>2021-05-15T18:39:41Z</time>
      </trkpt>
      <trkpt lat="41.248855" lon="1.835014">
        <ele>243.241</ele>
        <time>2021-05-15T18:39:42Z</time>
      </trkpt>
      <trkpt lat="41.248843" lon="1.834962">
        <ele>242.211</ele>
        <time>2021-05-15T18:39:45Z</time>
      </trkpt>
      <trkpt lat="41.248841" lon="1.834950">
        <ele>242.067</ele>
        <time>2021-05-15T18:39:46Z</time>
      </trkpt>
      <trkpt lat="41.248812" lon="1.834852">
        <ele>241.430</ele>
        <time>2021-05-15T18:39:52Z</time>
      </trkpt>
      <trkpt lat="41.248806" lon="1.834830">
        <ele>241.029</ele>
        <time>2021-05-15T18:39:56Z</time>
      </trkpt>
      <trkpt lat="41.248806" lon="1.834827">
        <ele>240.861</ele>
        <time>2021-05-15T18:39:58Z</time>
      </trkpt>
      <trkpt lat="41.248806" lon="1.834827">
        <ele>240.821</ele>
        <time>2021-05-15T18:40:00Z</time>
      </trkpt>
      <trkpt lat="41.248797" lon="1.834787">
        <ele>239.813</ele>
        <time>2021-05-15T18:40:08Z</time>
      </trkpt>
      <trkpt lat="41.248797" lon="1.834787">
        <ele>239.408</ele>
        <time>2021-05-15T18:40:11Z</time>
      </trkpt>
      <trkpt lat="41.248791" lon="1.834770">
        <ele>238.693</ele>
        <time>2021-05-15T18:40:14Z</time>
      </trkpt>
      <trkpt lat="41.248779" lon="1.834737">
        <ele>238.249</ele>
        <time>2021-05-15T18:40:16Z</time>
      </trkpt>
      <trkpt lat="41.248771" lon="1.834704">
        <ele>237.435</ele>
        <time>2021-05-15T18:40:18Z</time>
      </trkpt>
      <trkpt lat="41.248771" lon="1.834704">
        <ele>237.081</ele>
        <time>2021-05-15T18:40:19Z</time>
      </trkpt>
      <trkpt lat="41.248756" lon="1.834651">
        <ele>236.271</ele>
        <time>2021-05-15T18:40:22Z</time>
      </trkpt>
      <trkpt lat="41.248737" lon="1.834602">
        <ele>235.067</ele>
        <time>2021-05-15T18:40:26Z</time>
      </trkpt>
      <trkpt lat="41.248730" lon="1.834546">
        <ele>233.820</ele>
        <time>2021-05-15T18:40:33Z</time>
      </trkpt>
      <trkpt lat="41.248730" lon="1.834546">
        <ele>233.419</ele>
        <time>2021-05-15T18:40:35Z</time>
      </trkpt>
      <trkpt lat="41.248718" lon="1.834495">
        <ele>232.686</ele>
        <time>2021-05-15T18:40:39Z</time>
      </trkpt>
      <trkpt lat="41.248712" lon="1.834473">
        <ele>231.860</ele>
        <time>2021-05-15T18:40:43Z</time>
      </trkpt>
      <trkpt lat="41.248711" lon="1.834471">
        <ele>231.426</ele>
        <time>2021-05-15T18:40:46Z</time>
      </trkpt>
      <trkpt lat="41.248704" lon="1.834452">
        <ele>231.208</ele>
        <time>2021-05-15T18:40:49Z</time>
      </trkpt>
      <trkpt lat="41.248689" lon="1.834414">
        <ele>230.425</ele>
        <time>2021-05-15T18:40:54Z</time>
      </trkpt>
      <trkpt lat="41.248689" lon="1.834414">
        <ele>230.021</ele>
        <time>2021-05-15T18:40:58Z</time>
      </trkpt>
      <trkpt lat="41.248681" lon="1.834401">
        <ele>229.627</ele>
        <time>2021-05-15T18:41:01Z</time>
      </trkpt>
      <trkpt lat="41.248684" lon="1.834386">
        <ele>229.273</ele>
        <time>2021-05-15T18:41:03Z</time>
      </trkpt>
      <trkpt lat="41.248675" lon="1.834366">
        <ele>229.053</ele>
        <time>2021-05-15T18:41:05Z</time>
      </trkpt>
      <trkpt lat="41.248666" lon="1.834345">
        <ele>228.239</ele>
        <time>2021-05-15T18:41:10Z</time>
      </trkpt>
      <trkpt lat="41.248666" lon="1.834345">
        <ele>227.892</ele>
        <time>2021-05-15T18:41:14Z</time>
      </trkpt>
      <trkpt lat="41.248659" lon="1.834330">
        <ele>227.421</ele>
        <time>2021-05-15T18:41:17Z</time>
      </trkpt>
      <trkpt lat="41.248648" lon="1.834312">
        <ele>227.021</ele>
        <time>2021-05-15T18:41:19Z</time>
      </trkpt>
      <trkpt lat="41.248648" lon="1.834312">
        <ele>226.841</ele>
        <time>2021-05-15T18:41:20Z</time>
      </trkpt>
      <trkpt lat="41.248651" lon="1.834258">
        <ele>226.005</ele>
        <time>2021-05-15T18:41:27Z</time>
      </trkpt>
      <trkpt lat="41.248652" lon="1.834246">
        <ele>226.008</ele>
        <time>2021-05-15T18:41:28Z</time>
      </trkpt>
      <trkpt lat="41.248649" lon="1.834215">
        <ele>225.819</ele>
        <time>2021-05-15T18:41:30Z</time>
      </trkpt>
      <trkpt lat="41.248647" lon="1.834143">
        <ele>224.465</ele>
        <time>2021-05-15T18:41:34Z</time>
      </trkpt>
      <trkpt lat="41.248642" lon="1.834123">
        <ele>224.031</ele>
        <time>2021-05-15T18:41:41Z</time>
      </trkpt>
      <trkpt lat="41.248638" lon="1.834096">
        <ele>223.467</ele>
        <time>2021-05-15T18:41:45Z</time>
      </trkpt>
      <trkpt lat="41.248631" lon="1.834087">
        <ele>222.887</ele>
        <time>2021-05-15T18:41:51Z</time>
      </trkpt>
      <trkpt lat="41.248629" lon="1.834084">
        <ele>222.683</ele>
        <time>2021-05-15T18:41:53Z</time>
      </trkpt>
      <trkpt lat="41.248622" lon="1.834075">
        <ele>222.266</ele>
        <time>2021-05-15T18:41:54Z</time>
      </trkpt>
      <trkpt lat="41.248604" lon="1.834044">
        <ele>221.645</ele>
        <time>2021-05-15T18:41:57Z</time>
      </trkpt>
      <trkpt lat="41.248594" lon="1.834031">
        <ele>221.494</ele>
        <time>2021-05-15T18:41:58Z</time>
      </trkpt>
      <trkpt lat="41.248587" lon="1.834017">
        <ele>221.257</ele>
        <time>2021-05-15T18:41:59Z</time>
      </trkpt>
      <trkpt lat="41.248562" lon="1.833990">
        <ele>220.022</ele>
        <time>2021-05-15T18:42:02Z</time>
      </trkpt>
      <trkpt lat="41.248555" lon="1.833963">
        <ele>219.208</ele>
        <time>2021-05-15T18:42:05Z</time>
      </trkpt>
      <trkpt lat="41.248556" lon="1.833951">
        <ele>218.826</ele>
        <time>2021-05-15T18:42:06Z</time>
      </trkpt>
      <trkpt lat="41.248558" lon="1.833936">
        <ele>218.642</ele>
        <time>2021-05-15T18:42:07Z</time>
      </trkpt>
      <trkpt lat="41.248555" lon="1.833896">
        <ele>217.878</ele>
        <time>2021-05-15T18:42:11Z</time>
      </trkpt>
      <trkpt lat="41.248551" lon="1.833885">
        <ele>217.874</ele>
        <time>2021-05-15T18:42:12Z</time>
      </trkpt>
      <trkpt lat="41.248536" lon="1.833865">
        <ele>217.454</ele>
        <time>2021-05-15T18:42:14Z</time>
      </trkpt>
      <trkpt lat="41.248528" lon="1.833833">
        <ele>216.840</ele>
        <time>2021-05-15T18:42:17Z</time>
      </trkpt>
      <trkpt lat="41.248531" lon="1.833822">
        <ele>216.443</ele>
        <time>2021-05-15T18:42:18Z</time>
      </trkpt>
      <trkpt lat="41.248532" lon="1.833816">
        <ele>215.612</ele>
        <time>2021-05-15T18:42:21Z</time>
      </trkpt>
      <trkpt lat="41.248533" lon="1.833786">
        <ele>215.286</ele>
        <time>2021-05-15T18:42:25Z</time>
      </trkpt>
      <trkpt lat="41.248541" lon="1.833763">
        <ele>215.060</ele>
        <time>2021-05-15T18:42:26Z</time>
      </trkpt>
      <trkpt lat="41.248554" lon="1.833734">
        <ele>214.226</ele>
        <time>2021-05-15T18:42:29Z</time>
      </trkpt>
      <trkpt lat="41.248573" lon="1.833645">
        <ele>212.808</ele>
        <time>2021-05-15T18:42:33Z</time>
      </trkpt>
      <trkpt lat="41.248581" lon="1.833631">
        <ele>212.015</ele>
        <time>2021-05-15T18:42:34Z</time>
      </trkpt>
      <trkpt lat="41.248600" lon="1.833614">
        <ele>211.071</ele>
        <time>2021-05-15T18:42:36Z</time>
      </trkpt>
      <trkpt lat="41.248603" lon="1.833612">
        <ele>210.057</ele>
        <time>2021-05-15T18:42:39Z</time>
      </trkpt>
      <trkpt lat="41.248603" lon="1.833612">
        <ele>209.853</ele>
        <time>2021-05-15T18:42:40Z</time>
      </trkpt>
      <trkpt lat="41.248605" lon="1.833593">
        <ele>209.283</ele>
        <time>2021-05-15T18:42:47Z</time>
      </trkpt>
      <trkpt lat="41.248611" lon="1.833571">
        <ele>209.029</ele>
        <time>2021-05-15T18:42:49Z</time>
      </trkpt>
      <trkpt lat="41.248616" lon="1.833552">
        <ele>208.852</ele>
        <time>2021-05-15T18:42:51Z</time>
      </trkpt>
      <trkpt lat="41.248621" lon="1.833539">
        <ele>208.421</ele>
        <time>2021-05-15T18:42:53Z</time>
      </trkpt>
      <trkpt lat="41.248630" lon="1.833492">
        <ele>207.813</ele>
        <time>2021-05-15T18:42:57Z</time>
      </trkpt>
      <trkpt lat="41.248632" lon="1.833489">
        <ele>206.843</ele>
        <time>2021-05-15T18:43:00Z</time>
      </trkpt>
      <trkpt lat="41.248632" lon="1.833489">
        <ele>206.807</ele>
        <time>2021-05-15T18:43:02Z</time>
      </trkpt>
      <trkpt lat="41.248645" lon="1.833460">
        <ele>206.608</ele>
        <time>2021-05-15T18:43:09Z</time>
      </trkpt>
      <trkpt lat="41.248649" lon="1.833435">
        <ele>206.078</ele>
        <time>2021-05-15T18:43:12Z</time>
      </trkpt>
      <trkpt lat="41.248649" lon="1.833435">
        <ele>205.684</ele>
        <time>2021-05-15T18:43:14Z</time>
      </trkpt>
      <trkpt lat="41.248649" lon="1.833435">
        <ele>205.230</ele>
        <time>2021-05-15T18:43:17Z</time>
      </trkpt>
      <trkpt lat="41.248657" lon="1.833412">
        <ele>204.636</ele>
        <time>2021-05-15T18:43:20Z</time>
      </trkpt>
      <trkpt lat="41.248662" lon="1.833357">
        <ele>203.426</ele>
        <time>2021-05-15T18:43:24Z</time>
      </trkpt>
      <trkpt lat="41.248645" lon="1.833303">
        <ele>203.232</ele>
        <time>2021-05-15T18:43:26Z</time>
      </trkpt>
      <trkpt lat="41.248631" lon="1.833280">
        <ele>202.445</ele>
        <time>2021-05-15T18:43:29Z</time>
      </trkpt>
      <trkpt lat="41.248622" lon="1.833260">
        <ele>202.244</ele>
        <time>2021-05-15T18:43:30Z</time>
      </trkpt>
      <trkpt lat="41.248618" lon="1.833237">
        <ele>201.692</ele>
        <time>2021-05-15T18:43:32Z</time>
      </trkpt>
      <trkpt lat="41.248615" lon="1.833231">
        <ele>201.473</ele>
        <time>2021-05-15T18:43:33Z</time>
      </trkpt>
      <trkpt lat="41.248590" lon="1.833200">
        <ele>200.420</ele>
        <time>2021-05-15T18:43:37Z</time>
      </trkpt>
      <trkpt lat="41.248584" lon="1.833197">
        <ele>200.208</ele>
        <time>2021-05-15T18:43:38Z</time>
      </trkpt>
      <trkpt lat="41.248556" lon="1.833176">
        <ele>199.626</ele>
        <time>2021-05-15T18:43:43Z</time>
      </trkpt>
      <trkpt lat="41.248556" lon="1.833175">
        <ele>199.052</ele>
        <time>2021-05-15T18:43:45Z</time>
      </trkpt>
      <trkpt lat="41.248558" lon="1.833147">
        <ele>198.658</ele>
        <time>2021-05-15T18:43:47Z</time>
      </trkpt>
      <trkpt lat="41.248556" lon="1.833084">
        <ele>198.254</ele>
        <time>2021-05-15T18:43:50Z</time>
      </trkpt>
      <trkpt lat="41.248554" lon="1.833053">
        <ele>197.874</ele>
        <time>2021-05-15T18:43:51Z</time>
      </trkpt>
      <trkpt lat="41.248547" lon="1.833016">
        <ele>196.640</ele>
        <time>2021-05-15T18:43:53Z</time>
      </trkpt>
      <trkpt lat="41.248545" lon="1.832900">
        <ele>195.283</ele>
        <time>2021-05-15T18:43:55Z</time>
      </trkpt>
      <trkpt lat="41.248554" lon="1.832856">
        <ele>194.412</ele>
        <time>2021-05-15T18:43:56Z</time>
      </trkpt>
      <trkpt lat="41.248559" lon="1.832815">
        <ele>193.853</ele>
        <time>2021-05-15T18:43:57Z</time>
      </trkpt>
      <trkpt lat="41.248569" lon="1.832675">
        <ele>192.004</ele>
        <time>2021-05-15T18:44:00Z</time>
      </trkpt>
      <trkpt lat="41.248572" lon="1.832615">
        <ele>191.614</ele>
        <time>2021-05-15T18:44:01Z</time>
      </trkpt>
      <trkpt lat="41.248572" lon="1.832615">
        <ele>190.808</ele>
        <time>2021-05-15T18:44:02Z</time>
      </trkpt>
      <trkpt lat="41.248572" lon="1.832500">
        <ele>189.692</ele>
        <time>2021-05-15T18:44:03Z</time>
      </trkpt>
      <trkpt lat="41.248572" lon="1.832500">
        <ele>188.678</ele>
        <time>2021-05-15T18:44:04Z</time>
      </trkpt>
      <trkpt lat="41.248579" lon="1.832389">
        <ele>187.074</ele>
        <time>2021-05-15T18:44:06Z</time>
      </trkpt>
      <trkpt lat="41.248582" lon="1.832352">
        <ele>186.240</ele>
        <time>2021-05-15T18:44:08Z</time>
      </trkpt>
      <trkpt lat="41.248593" lon="1.832226">
        <ele>185.470</ele>
        <time>2021-05-15T18:44:10Z</time>
      </trkpt>
      <trkpt lat="41.248596" lon="1.832068">
        <ele>183.646</ele>
        <time>2021-05-15T18:44:13Z</time>
      </trkpt>
      <trkpt lat="41.248595" lon="1.831979">
        <ele>182.049</ele>
        <time>2021-05-15T18:44:15Z</time>
      </trkpt>
      <trkpt lat="41.248588" lon="1.831901">
        <ele>180.818</ele>
        <time>2021-05-15T18:44:17Z</time>
      </trkpt>
      <trkpt lat="41.248576" lon="1.831764">
        <ele>179.256</ele>
        <time>2021-05-15T18:44:20Z</time>
      </trkpt>
      <trkpt lat="41.248573" lon="1.831680">
        <ele>178.259</ele>
        <time>2021-05-15T18:44:22Z</time>
      </trkpt>
      <trkpt lat="41.248575" lon="1.831644">
        <ele>177.414</ele>
        <time>2021-05-15T18:44:23Z</time>
      </trkpt>
      <trkpt lat="41.248574" lon="1.831617">
        <ele>176.408</ele>
        <time>2021-05-15T18:44:24Z</time>
      </trkpt>
      <trkpt lat="41.248560" lon="1.831558">
        <ele>175.082</ele>
        <time>2021-05-15T18:44:27Z</time>
      </trkpt>
      <trkpt lat="41.248560" lon="1.831558">
        <ele>174.278</ele>
        <time>2021-05-15T18:44:33Z</time>
      </trkpt>
      <trkpt lat="41.248560" lon="1.831558">
        <ele>173.814</ele>
        <time>2021-05-15T18:44:35Z</time>
      </trkpt>
      <trkpt lat="41.248560" lon="1.831558">
        <ele>174.050</ele>
        <time>2021-05-15T18:44:44Z</time>
      </trkpt>
      <trkpt lat="41.248560" lon="1.831558">
        <ele>173.450</ele>
        <time>2021-05-15T18:44:51Z</time>
      </trkpt>
      <trkpt lat="41.248560" lon="1.831558">
        <ele>173.266</ele>
        <time>2021-05-15T18:45:20Z</time>
      </trkpt>
      <trkpt lat="41.248560" lon="1.831558">
        <ele>173.259</ele>
        <time>2021-05-15T18:45:26Z</time>
      </trkpt>
      <trkpt lat="41.248560" lon="1.831558">
        <ele>172.828</ele>
        <time>2021-05-15T18:45:34Z</time>
      </trkpt>
      <trkpt lat="41.248560" lon="1.831558">
        <ele>173.495</ele>
        <time>2021-05-15T18:46:05Z</time>
      </trkpt>
      <trkpt lat="41.248560" lon="1.831558">
        <ele>173.049</ele>
        <time>2021-05-15T18:46:12Z</time>
      </trkpt>
      <trkpt lat="41.248560" lon="1.831556">
        <ele>173.223</ele>
        <time>2021-05-15T18:46:18Z</time>
      </trkpt>
      <trkpt lat="41.248547" lon="1.831469">
        <ele>172.008</ele>
        <time>2021-05-15T18:46:21Z</time>
      </trkpt>
      <trkpt lat="41.248545" lon="1.831437">
        <ele>171.416</ele>
        <time>2021-05-15T18:46:22Z</time>
      </trkpt>
      <trkpt lat="41.248544" lon="1.831329">
        <ele>170.282</ele>
        <time>2021-05-15T18:46:25Z</time>
      </trkpt>
      <trkpt lat="41.248541" lon="1.831252">
        <ele>168.678</ele>
        <time>2021-05-15T18:46:27Z</time>
      </trkpt>
      <trkpt lat="41.248536" lon="1.831216">
        <ele>168.084</ele>
        <time>2021-05-15T18:46:28Z</time>
      </trkpt>
      <trkpt lat="41.248528" lon="1.831146">
        <ele>166.844</ele>
        <time>2021-05-15T18:46:30Z</time>
      </trkpt>
      <trkpt lat="41.248514" lon="1.831069">
        <ele>165.020</ele>
        <time>2021-05-15T18:46:32Z</time>
      </trkpt>
      <trkpt lat="41.248490" lon="1.830996">
        <ele>163.853</ele>
        <time>2021-05-15T18:46:34Z</time>
      </trkpt>
      <trkpt lat="41.248459" lon="1.830893">
        <ele>162.622</ele>
        <time>2021-05-15T18:46:36Z</time>
      </trkpt>
      <trkpt lat="41.248430" lon="1.830773">
        <ele>161.422</ele>
        <time>2021-05-15T18:46:38Z</time>
      </trkpt>
      <trkpt lat="41.248404" lon="1.830646">
        <ele>160.062</ele>
        <time>2021-05-15T18:46:40Z</time>
      </trkpt>
      <trkpt lat="41.248393" lon="1.830588">
        <ele>158.808</ele>
        <time>2021-05-15T18:46:41Z</time>
      </trkpt>
      <trkpt lat="41.248385" lon="1.830545">
        <ele>158.008</ele>
        <time>2021-05-15T18:46:42Z</time>
      </trkpt>
      <trkpt lat="41.248374" lon="1.830499">
        <ele>157.639</ele>
        <time>2021-05-15T18:46:43Z</time>
      </trkpt>
      <trkpt lat="41.248363" lon="1.830453">
        <ele>156.455</ele>
        <time>2021-05-15T18:46:44Z</time>
      </trkpt>
      <trkpt lat="41.248328" lon="1.830364">
        <ele>154.611</ele>
        <time>2021-05-15T18:46:46Z</time>
      </trkpt>
      <trkpt lat="41.248314" lon="1.830324">
        <ele>153.657</ele>
        <time>2021-05-15T18:46:47Z</time>
      </trkpt>
      <trkpt lat="41.248309" lon="1.830288">
        <ele>152.487</ele>
        <time>2021-05-15T18:46:48Z</time>
      </trkpt>
      <trkpt lat="41.248300" lon="1.830244">
        <ele>151.663</ele>
        <time>2021-05-15T18:46:49Z</time>
      </trkpt>
      <trkpt lat="41.248286" lon="1.830207">
        <ele>150.446</ele>
        <time>2021-05-15T18:46:50Z</time>
      </trkpt>
      <trkpt lat="41.248266" lon="1.830152">
        <ele>149.615</ele>
        <time>2021-05-15T18:46:51Z</time>
      </trkpt>
      <trkpt lat="41.248245" lon="1.830081">
        <ele>148.841</ele>
        <time>2021-05-15T18:46:52Z</time>
      </trkpt>
      <trkpt lat="41.248229" lon="1.829979">
        <ele>147.281</ele>
        <time>2021-05-15T18:46:54Z</time>
      </trkpt>
      <trkpt lat="41.248208" lon="1.829879">
        <ele>146.009</ele>
        <time>2021-05-15T18:46:56Z</time>
      </trkpt>
      <trkpt lat="41.248191" lon="1.829821">
        <ele>145.408</ele>
        <time>2021-05-15T18:46:57Z</time>
      </trkpt>
      <trkpt lat="41.248173" lon="1.829758">
        <ele>144.611</ele>
        <time>2021-05-15T18:46:58Z</time>
      </trkpt>
      <trkpt lat="41.248148" lon="1.829626">
        <ele>142.897</ele>
        <time>2021-05-15T18:47:00Z</time>
      </trkpt>
      <trkpt lat="41.248135" lon="1.829559">
        <ele>142.053</ele>
        <time>2021-05-15T18:47:01Z</time>
      </trkpt>
      <trkpt lat="41.248128" lon="1.829487">
        <ele>140.859</ele>
        <time>2021-05-15T18:47:02Z</time>
      </trkpt>
      <trkpt lat="41.248110" lon="1.829344">
        <ele>139.689</ele>
        <time>2021-05-15T18:47:04Z</time>
      </trkpt>
      <trkpt lat="41.248090" lon="1.829194">
        <ele>137.025</ele>
        <time>2021-05-15T18:47:06Z</time>
      </trkpt>
      <trkpt lat="41.248082" lon="1.829118">
        <ele>136.088</ele>
        <time>2021-05-15T18:47:07Z</time>
      </trkpt>
      <trkpt lat="41.248064" lon="1.828976">
        <ele>134.457</ele>
        <time>2021-05-15T18:47:09Z</time>
      </trkpt>
      <trkpt lat="41.248020" lon="1.828792">
        <ele>132.846</ele>
        <time>2021-05-15T18:47:12Z</time>
      </trkpt>
      <trkpt lat="41.248001" lon="1.828739">
        <ele>131.888</ele>
        <time>2021-05-15T18:47:13Z</time>
      </trkpt>
      <trkpt lat="41.247924" lon="1.828563">
        <ele>130.616</ele>
        <time>2021-05-15T18:47:16Z</time>
      </trkpt>
      <trkpt lat="41.247872" lon="1.828439">
        <ele>129.408</ele>
        <time>2021-05-15T18:47:18Z</time>
      </trkpt>
      <trkpt lat="41.247850" lon="1.828370">
        <ele>128.611</ele>
        <time>2021-05-15T18:47:19Z</time>
      </trkpt>
      <trkpt lat="41.247833" lon="1.828289">
        <ele>127.677</ele>
        <time>2021-05-15T18:47:20Z</time>
      </trkpt>
      <trkpt lat="41.247834" lon="1.828230">
        <ele>126.693</ele>
        <time>2021-05-15T18:47:21Z</time>
      </trkpt>
      <trkpt lat="41.247840" lon="1.828184">
        <ele>125.819</ele>
        <time>2021-05-15T18:47:22Z</time>
      </trkpt>
      <trkpt lat="41.247844" lon="1.828110">
        <ele>124.629</ele>
        <time>2021-05-15T18:47:24Z</time>
      </trkpt>
      <trkpt lat="41.247833" lon="1.828085">
        <ele>124.295</ele>
        <time>2021-05-15T18:47:25Z</time>
      </trkpt>
      <trkpt lat="41.247800" lon="1.828061">
        <ele>123.668</ele>
        <time>2021-05-15T18:47:29Z</time>
      </trkpt>
      <trkpt lat="41.247800" lon="1.828061">
        <ele>123.497</ele>
        <time>2021-05-15T18:47:34Z</time>
      </trkpt>
      <trkpt lat="41.247800" lon="1.828061">
        <ele>123.226</ele>
        <time>2021-05-15T18:47:43Z</time>
      </trkpt>
      <trkpt lat="41.247800" lon="1.828061">
        <ele>123.047</ele>
        <time>2021-05-15T18:48:11Z</time>
      </trkpt>
      <trkpt lat="41.247801" lon="1.828059">
        <ele>123.411</ele>
        <time>2021-05-15T18:48:29Z</time>
      </trkpt>
      <trkpt lat="41.247852" lon="1.828059">
        <ele>123.408</ele>
        <time>2021-05-15T18:48:32Z</time>
      </trkpt>
      <trkpt lat="41.247971" lon="1.828115">
        <ele>123.269</ele>
        <time>2021-05-15T18:48:39Z</time>
      </trkpt>
      <trkpt lat="41.247971" lon="1.828115">
        <ele>123.225</ele>
        <time>2021-05-15T18:48:41Z</time>
      </trkpt>
      <trkpt lat="41.247971" lon="1.828115">
        <ele>123.081</ele>
        <time>2021-05-15T18:48:43Z</time>
      </trkpt>
      <trkpt lat="41.247971" lon="1.828115">
        <ele>122.617</ele>
        <time>2021-05-15T18:48:47Z</time>
      </trkpt>
      <trkpt lat="41.247971" lon="1.828115">
        <ele>122.867</ele>
        <time>2021-05-15T18:48:52Z</time>
      </trkpt>
      <trkpt lat="41.248001" lon="1.828135">
        <ele>122.873</ele>
        <time>2021-05-15T18:49:10Z</time>
      </trkpt>
      <trkpt lat="41.248029" lon="1.828150">
        <ele>122.876</ele>
        <time>2021-05-15T18:49:11Z</time>
      </trkpt>
      <trkpt lat="41.248119" lon="1.828192">
        <ele>122.235</ele>
        <time>2021-05-15T18:49:13Z</time>
      </trkpt>
      <trkpt lat="41.248221" lon="1.828218">
        <ele>120.851</ele>
        <time>2021-05-15T18:49:15Z</time>
      </trkpt>
      <trkpt lat="41.248310" lon="1.828205">
        <ele>118.801</ele>
        <time>2021-05-15T18:49:17Z</time>
      </trkpt>
      <trkpt lat="41.248340" lon="1.828175">
        <ele>117.611</ele>
        <time>2021-05-15T18:49:18Z</time>
      </trkpt>
      <trkpt lat="41.248353" lon="1.828130">
        <ele>117.008</ele>
        <time>2021-05-15T18:49:19Z</time>
      </trkpt>
      <trkpt lat="41.248355" lon="1.828076">
        <ele>116.682</ele>
        <time>2021-05-15T18:49:20Z</time>
      </trkpt>
      <trkpt lat="41.248348" lon="1.828017">
        <ele>116.428</ele>
        <time>2021-05-15T18:49:21Z</time>
      </trkpt>
      <trkpt lat="41.248314" lon="1.827883">
        <ele>116.024</ele>
        <time>2021-05-15T18:49:23Z</time>
      </trkpt>
      <trkpt lat="41.248242" lon="1.827737">
        <ele>115.860</ele>
        <time>2021-05-15T18:49:25Z</time>
      </trkpt>
      <trkpt lat="41.248132" lon="1.827562">
        <ele>115.420</ele>
        <time>2021-05-15T18:49:27Z</time>
      </trkpt>
      <trkpt lat="41.248072" lon="1.827454">
        <ele>114.616</ele>
        <time>2021-05-15T18:49:28Z</time>
      </trkpt>
      <trkpt lat="41.248016" lon="1.827343">
        <ele>113.449</ele>
        <time>2021-05-15T18:49:29Z</time>
      </trkpt>
      <trkpt lat="41.247961" lon="1.827224">
        <ele>112.268</ele>
        <time>2021-05-15T18:49:30Z</time>
      </trkpt>
      <trkpt lat="41.247908" lon="1.827100">
        <ele>110.616</ele>
        <time>2021-05-15T18:49:31Z</time>
      </trkpt>
      <trkpt lat="41.247856" lon="1.826977">
        <ele>108.476</ele>
        <time>2021-05-15T18:49:32Z</time>
      </trkpt>
      <trkpt lat="41.247802" lon="1.826857">
        <ele>106.813</ele>
        <time>2021-05-15T18:49:33Z</time>
      </trkpt>
      <trkpt lat="41.247744" lon="1.826743">
        <ele>105.208</ele>
        <time>2021-05-15T18:49:34Z</time>
      </trkpt>
      <trkpt lat="41.247684" lon="1.826623">
        <ele>103.228</ele>
        <time>2021-05-15T18:49:35Z</time>
      </trkpt>
      <trkpt lat="41.247640" lon="1.826496">
        <ele>102.074</ele>
        <time>2021-05-15T18:49:36Z</time>
      </trkpt>
      <trkpt lat="41.247613" lon="1.826366">
        <ele>100.430</ele>
        <time>2021-05-15T18:49:37Z</time>
      </trkpt>
      <trkpt lat="41.247607" lon="1.826233">
        <ele>98.846</ele>
        <time>2021-05-15T18:49:38Z</time>
      </trkpt>
      <trkpt lat="41.247612" lon="1.826103">
        <ele>96.886</ele>
        <time>2021-05-15T18:49:39Z</time>
      </trkpt>
      <trkpt lat="41.247630" lon="1.825955">
        <ele>95.062</ele>
        <time>2021-05-15T18:49:40Z</time>
      </trkpt>
      <trkpt lat="41.247647" lon="1.825832">
        <ele>93.035</ele>
        <time>2021-05-15T18:49:41Z</time>
      </trkpt>
      <trkpt lat="41.247660" lon="1.825715">
        <ele>91.484</ele>
        <time>2021-05-15T18:49:42Z</time>
      </trkpt>
      <trkpt lat="41.247669" lon="1.825627">
        <ele>89.642</ele>
        <time>2021-05-15T18:49:43Z</time>
      </trkpt>
      <trkpt lat="41.247682" lon="1.825403">
        <ele>88.022</ele>
        <time>2021-05-15T18:49:45Z</time>
      </trkpt>
      <trkpt lat="41.247682" lon="1.825157">
        <ele>86.814</ele>
        <time>2021-05-15T18:49:47Z</time>
      </trkpt>
      <trkpt lat="41.247686" lon="1.824890">
        <ele>85.408</ele>
        <time>2021-05-15T18:49:49Z</time>
      </trkpt>
      <trkpt lat="41.247692" lon="1.824761">
        <ele>85.021</ele>
        <time>2021-05-15T18:49:50Z</time>
      </trkpt>
      <trkpt lat="41.247692" lon="1.824610">
        <ele>84.017</ele>
        <time>2021-05-15T18:49:51Z</time>
      </trkpt>
      <trkpt lat="41.247675" lon="1.824389">
        <ele>82.693</ele>
        <time>2021-05-15T18:49:53Z</time>
      </trkpt>
      <trkpt lat="41.247662" lon="1.824250">
        <ele>82.019</ele>
        <time>2021-05-15T18:49:54Z</time>
      </trkpt>
      <trkpt lat="41.247651" lon="1.824165">
        <ele>81.669</ele>
        <time>2021-05-15T18:49:55Z</time>
      </trkpt>
      <trkpt lat="41.247632" lon="1.824061">
        <ele>80.645</ele>
        <time>2021-05-15T18:49:56Z</time>
      </trkpt>
      <trkpt lat="41.247621" lon="1.824009">
        <ele>80.088</ele>
        <time>2021-05-15T18:49:57Z</time>
      </trkpt>
      <trkpt lat="41.247598" lon="1.823960">
        <ele>78.457</ele>
        <time>2021-05-15T18:49:58Z</time>
      </trkpt>
      <trkpt lat="41.247567" lon="1.823921">
        <ele>77.625</ele>
        <time>2021-05-15T18:49:59Z</time>
      </trkpt>
      <trkpt lat="41.247541" lon="1.823917">
        <ele>77.026</ele>
        <time>2021-05-15T18:50:00Z</time>
      </trkpt>
      <trkpt lat="41.247515" lon="1.823938">
        <ele>76.608</ele>
        <time>2021-05-15T18:50:01Z</time>
      </trkpt>
      <trkpt lat="41.247504" lon="1.823974">
        <ele>76.408</ele>
        <time>2021-05-15T18:50:02Z</time>
      </trkpt>
      <trkpt lat="41.247535" lon="1.824046">
        <ele>76.259</ele>
        <time>2021-05-15T18:50:04Z</time>
      </trkpt>
      <trkpt lat="41.247563" lon="1.824073">
        <ele>76.415</ele>
        <time>2021-05-15T18:50:05Z</time>
      </trkpt>
      <trkpt lat="41.247629" lon="1.824219">
        <ele>76.811</ele>
        <time>2021-05-15T18:50:09Z</time>
      </trkpt>
      <trkpt lat="41.247662" lon="1.824396">
        <ele>77.417</ele>
        <time>2021-05-15T18:50:13Z</time>
      </trkpt>
      <trkpt lat="41.247672" lon="1.824482">
        <ele>77.687</ele>
        <time>2021-05-15T18:50:15Z</time>
      </trkpt>
      <trkpt lat="41.247673" lon="1.824570">
        <ele>78.093</ele>
        <time>2021-05-15T18:50:17Z</time>
      </trkpt>
      <trkpt lat="41.247676" lon="1.824610">
        <ele>78.036</ele>
        <time>2021-05-15T18:50:18Z</time>
      </trkpt>
      <trkpt lat="41.247689" lon="1.824861">
        <ele>78.855</ele>
        <time>2021-05-15T18:50:24Z</time>
      </trkpt>
      <trkpt lat="41.247687" lon="1.824942">
        <ele>79.049</ele>
        <time>2021-05-15T18:50:26Z</time>
      </trkpt>
      <trkpt lat="41.247672" lon="1.825058">
        <ele>79.202</ele>
        <time>2021-05-15T18:50:29Z</time>
      </trkpt>
      <trkpt lat="41.247666" lon="1.825176">
        <ele>79.622</ele>
        <time>2021-05-15T18:50:32Z</time>
      </trkpt>
      <trkpt lat="41.247669" lon="1.825214">
        <ele>79.808</ele>
        <time>2021-05-15T18:50:33Z</time>
      </trkpt>
      <trkpt lat="41.247687" lon="1.825290">
        <ele>80.471</ele>
        <time>2021-05-15T18:50:35Z</time>
      </trkpt>
      <trkpt lat="41.247706" lon="1.825384">
        <ele>81.417</ele>
        <time>2021-05-15T18:50:38Z</time>
      </trkpt>
      <trkpt lat="41.247708" lon="1.825414">
        <ele>81.833</ele>
        <time>2021-05-15T18:50:39Z</time>
      </trkpt>
      <trkpt lat="41.247711" lon="1.825471">
        <ele>82.629</ele>
        <time>2021-05-15T18:50:41Z</time>
      </trkpt>
      <trkpt lat="41.247720" lon="1.825533">
        <ele>83.439</ele>
        <time>2021-05-15T18:50:43Z</time>
      </trkpt>
      <trkpt lat="41.247726" lon="1.825563">
        <ele>83.835</ele>
        <time>2021-05-15T18:50:44Z</time>
      </trkpt>
      <trkpt lat="41.247733" lon="1.825621">
        <ele>84.458</ele>
        <time>2021-05-15T18:50:46Z</time>
      </trkpt>
      <trkpt lat="41.247746" lon="1.825675">
        <ele>85.087</ele>
        <time>2021-05-15T18:50:48Z</time>
      </trkpt>
      <trkpt lat="41.247804" lon="1.825843">
        <ele>85.661</ele>
        <time>2021-05-15T18:50:53Z</time>
      </trkpt>
      <trkpt lat="41.247877" lon="1.826099">
        <ele>85.221</ele>
        <time>2021-05-15T18:50:57Z</time>
      </trkpt>
      <trkpt lat="41.247975" lon="1.826344">
        <ele>84.213</ele>
        <time>2021-05-15T18:51:00Z</time>
      </trkpt>
      <trkpt lat="41.248024" lon="1.826412">
        <ele>83.808</ele>
        <time>2021-05-15T18:51:01Z</time>
      </trkpt>
      <trkpt lat="41.248082" lon="1.826472">
        <ele>83.683</ele>
        <time>2021-05-15T18:51:02Z</time>
      </trkpt>
      <trkpt lat="41.248210" lon="1.826578">
        <ele>83.479</ele>
        <time>2021-05-15T18:51:04Z</time>
      </trkpt>
      <trkpt lat="41.248280" lon="1.826631">
        <ele>83.235</ele>
        <time>2021-05-15T18:51:05Z</time>
      </trkpt>
      <trkpt lat="41.248419" lon="1.826738">
        <ele>82.811</ele>
        <time>2021-05-15T18:51:07Z</time>
      </trkpt>
      <trkpt lat="41.248746" lon="1.826983">
        <ele>82.251</ele>
        <time>2021-05-15T18:51:12Z</time>
      </trkpt>
      <trkpt lat="41.249097" lon="1.827295">
        <ele>82.077</ele>
        <time>2021-05-15T18:51:18Z</time>
      </trkpt>
      <trkpt lat="41.249168" lon="1.827327">
        <ele>82.060</ele>
        <time>2021-05-15T18:51:19Z</time>
      </trkpt>
      <trkpt lat="41.249267" lon="1.827290">
        <ele>82.039</ele>
        <time>2021-05-15T18:51:21Z</time>
      </trkpt>
      <trkpt lat="41.249331" lon="1.827166">
        <ele>81.818</ele>
        <time>2021-05-15T18:51:23Z</time>
      </trkpt>
      <trkpt lat="41.249334" lon="1.827072">
        <ele>81.898</ele>
        <time>2021-05-15T18:51:24Z</time>
      </trkpt>
      <trkpt lat="41.249312" lon="1.826992">
        <ele>81.817</ele>
        <time>2021-05-15T18:51:25Z</time>
      </trkpt>
      <trkpt lat="41.249250" lon="1.826878">
        <ele>81.808</ele>
        <time>2021-05-15T18:51:27Z</time>
      </trkpt>
      <trkpt lat="41.248987" lon="1.826621">
        <ele>81.498</ele>
        <time>2021-05-15T18:51:32Z</time>
      </trkpt>
      <trkpt lat="41.248809" lon="1.826435">
        <ele>80.664</ele>
        <time>2021-05-15T18:51:35Z</time>
      </trkpt>
      <trkpt lat="41.248718" lon="1.826315">
        <ele>80.080</ele>
        <time>2021-05-15T18:51:37Z</time>
      </trkpt>
      <trkpt lat="41.248675" lon="1.826235">
        <ele>79.856</ele>
        <time>2021-05-15T18:51:38Z</time>
      </trkpt>
      <trkpt lat="41.248632" lon="1.826134">
        <ele>79.686</ele>
        <time>2021-05-15T18:51:39Z</time>
      </trkpt>
      <trkpt lat="41.248572" lon="1.825865">
        <ele>78.432</ele>
        <time>2021-05-15T18:51:42Z</time>
      </trkpt>
      <trkpt lat="41.248567" lon="1.825546">
        <ele>77.235</ele>
        <time>2021-05-15T18:51:45Z</time>
      </trkpt>
      <trkpt lat="41.248575" lon="1.825467">
        <ele>77.034</ele>
        <time>2021-05-15T18:51:46Z</time>
      </trkpt>
      <trkpt lat="41.248600" lon="1.825245">
        <ele>76.228</ele>
        <time>2021-05-15T18:51:48Z</time>
      </trkpt>
      <trkpt lat="41.248619" lon="1.824944">
        <ele>75.089</ele>
        <time>2021-05-15T18:51:51Z</time>
      </trkpt>
      <trkpt lat="41.248649" lon="1.824629">
        <ele>73.817</ele>
        <time>2021-05-15T18:51:54Z</time>
      </trkpt>
      <trkpt lat="41.248683" lon="1.824197">
        <ele>72.608</ele>
        <time>2021-05-15T18:51:58Z</time>
      </trkpt>
      <trkpt lat="41.248701" lon="1.823848">
        <ele>71.289</ele>
        <time>2021-05-15T18:52:01Z</time>
      </trkpt>
      <trkpt lat="41.248704" lon="1.823730">
        <ele>70.015</ele>
        <time>2021-05-15T18:52:02Z</time>
      </trkpt>
      <trkpt lat="41.248717" lon="1.823618">
        <ele>68.841</ele>
        <time>2021-05-15T18:52:03Z</time>
      </trkpt>
      <trkpt lat="41.248740" lon="1.823502">
        <ele>67.837</ele>
        <time>2021-05-15T18:52:04Z</time>
      </trkpt>
      <trkpt lat="41.248762" lon="1.823445">
        <ele>66.457</ele>
        <time>2021-05-15T18:52:05Z</time>
      </trkpt>
      <trkpt lat="41.248776" lon="1.823388">
        <ele>65.293</ele>
        <time>2021-05-15T18:52:06Z</time>
      </trkpt>
      <trkpt lat="41.248785" lon="1.823343">
        <ele>64.216</ele>
        <time>2021-05-15T18:52:07Z</time>
      </trkpt>
      <trkpt lat="41.248781" lon="1.823306">
        <ele>63.485</ele>
        <time>2021-05-15T18:52:08Z</time>
      </trkpt>
      <trkpt lat="41.248761" lon="1.823281">
        <ele>63.044</ele>
        <time>2021-05-15T18:52:09Z</time>
      </trkpt>
      <trkpt lat="41.248728" lon="1.823272">
        <ele>62.805</ele>
        <time>2021-05-15T18:52:10Z</time>
      </trkpt>
      <trkpt lat="41.248691" lon="1.823277">
        <ele>62.615</ele>
        <time>2021-05-15T18:52:11Z</time>
      </trkpt>
      <trkpt lat="41.248443" lon="1.823334">
        <ele>62.208</ele>
        <time>2021-05-15T18:52:16Z</time>
      </trkpt>
      <trkpt lat="41.248390" lon="1.823350">
        <ele>61.811</ele>
        <time>2021-05-15T18:52:17Z</time>
      </trkpt>
      <trkpt lat="41.248146" lon="1.823417">
        <ele>61.227</ele>
        <time>2021-05-15T18:52:21Z</time>
      </trkpt>
      <trkpt lat="41.248082" lon="1.823422">
        <ele>61.083</ele>
        <time>2021-05-15T18:52:22Z</time>
      </trkpt>
      <trkpt lat="41.248017" lon="1.823416">
        <ele>60.819</ele>
        <time>2021-05-15T18:52:23Z</time>
      </trkpt>
      <trkpt lat="41.247954" lon="1.823394">
        <ele>60.679</ele>
        <time>2021-05-15T18:52:24Z</time>
      </trkpt>
      <trkpt lat="41.247890" lon="1.823354">
        <ele>60.635</ele>
        <time>2021-05-15T18:52:25Z</time>
      </trkpt>
      <trkpt lat="41.247838" lon="1.823297">
        <ele>60.478</ele>
        <time>2021-05-15T18:52:26Z</time>
      </trkpt>
      <trkpt lat="41.247759" lon="1.823144">
        <ele>60.087</ele>
        <time>2021-05-15T18:52:28Z</time>
      </trkpt>
      <trkpt lat="41.247725" lon="1.823053">
        <ele>59.616</ele>
        <time>2021-05-15T18:52:29Z</time>
      </trkpt>
      <trkpt lat="41.247651" lon="1.822857">
        <ele>58.676</ele>
        <time>2021-05-15T18:52:31Z</time>
      </trkpt>
      <trkpt lat="41.247577" lon="1.822646">
        <ele>57.213</ele>
        <time>2021-05-15T18:52:33Z</time>
      </trkpt>
      <trkpt lat="41.247454" lon="1.822306">
        <ele>55.408</ele>
        <time>2021-05-15T18:52:36Z</time>
      </trkpt>
      <trkpt lat="41.247375" lon="1.822071">
        <ele>54.058</ele>
        <time>2021-05-15T18:52:38Z</time>
      </trkpt>
      <trkpt lat="41.247338" lon="1.821964">
        <ele>53.494</ele>
        <time>2021-05-15T18:52:39Z</time>
      </trkpt>
      <trkpt lat="41.247301" lon="1.821862">
        <ele>53.090</ele>
        <time>2021-05-15T18:52:40Z</time>
      </trkpt>
      <trkpt lat="41.247181" lon="1.821497">
        <ele>53.216</ele>
        <time>2021-05-15T18:52:44Z</time>
      </trkpt>
      <trkpt lat="41.247077" lon="1.821216">
        <ele>54.296</ele>
        <time>2021-05-15T18:52:48Z</time>
      </trkpt>
      <trkpt lat="41.247051" lon="1.821157">
        <ele>54.452</ele>
        <time>2021-05-15T18:52:49Z</time>
      </trkpt>
      <trkpt lat="41.246951" lon="1.820947">
        <ele>55.255</ele>
        <time>2021-05-15T18:52:53Z</time>
      </trkpt>
      <trkpt lat="41.246931" lon="1.820895">
        <ele>55.464</ele>
        <time>2021-05-15T18:52:54Z</time>
      </trkpt>
      <trkpt lat="41.246865" lon="1.820673">
        <ele>55.456</ele>
        <time>2021-05-15T18:52:58Z</time>
      </trkpt>
      <trkpt lat="41.246788" lon="1.820580">
        <ele>55.259</ele>
        <time>2021-05-15T18:53:00Z</time>
      </trkpt>
      <trkpt lat="41.246535" lon="1.820446">
        <ele>54.614</ele>
        <time>2021-05-15T18:53:04Z</time>
      </trkpt>
      <trkpt lat="41.246466" lon="1.820409">
        <ele>54.208</ele>
        <time>2021-05-15T18:53:05Z</time>
      </trkpt>
      <trkpt lat="41.246240" lon="1.820288">
        <ele>53.252</ele>
        <time>2021-05-15T18:53:08Z</time>
      </trkpt>
      <trkpt lat="41.246076" lon="1.820207">
        <ele>52.638</ele>
        <time>2021-05-15T18:53:10Z</time>
      </trkpt>
      <trkpt lat="41.245914" lon="1.820111">
        <ele>52.024</ele>
        <time>2021-05-15T18:53:12Z</time>
      </trkpt>
      <trkpt lat="41.245511" lon="1.819845">
        <ele>50.820</ele>
        <time>2021-05-15T18:53:17Z</time>
      </trkpt>
      <trkpt lat="41.245203" lon="1.819547">
        <ele>49.650</ele>
        <time>2021-05-15T18:53:21Z</time>
      </trkpt>
      <trkpt lat="41.245126" lon="1.819462">
        <ele>49.286</ele>
        <time>2021-05-15T18:53:22Z</time>
      </trkpt>
      <trkpt lat="41.244972" lon="1.819278">
        <ele>48.499</ele>
        <time>2021-05-15T18:53:24Z</time>
      </trkpt>
      <trkpt lat="41.244814" lon="1.819089">
        <ele>47.298</ele>
        <time>2021-05-15T18:53:26Z</time>
      </trkpt>
      <trkpt lat="41.244733" lon="1.818994">
        <ele>46.435</ele>
        <time>2021-05-15T18:53:27Z</time>
      </trkpt>
      <trkpt lat="41.244650" lon="1.818898">
        <ele>45.886</ele>
        <time>2021-05-15T18:53:28Z</time>
      </trkpt>
      <trkpt lat="41.244485" lon="1.818705">
        <ele>44.614</ele>
        <time>2021-05-15T18:53:30Z</time>
      </trkpt>
      <trkpt lat="41.244307" lon="1.818526">
        <ele>42.608</ele>
        <time>2021-05-15T18:53:32Z</time>
      </trkpt>
      <trkpt lat="41.244212" lon="1.818447">
        <ele>42.030</ele>
        <time>2021-05-15T18:53:33Z</time>
      </trkpt>
      <trkpt lat="41.244112" lon="1.818376">
        <ele>40.426</ele>
        <time>2021-05-15T18:53:34Z</time>
      </trkpt>
      <trkpt lat="41.243920" lon="1.818232">
        <ele>38.472</ele>
        <time>2021-05-15T18:53:36Z</time>
      </trkpt>
      <trkpt lat="41.243840" lon="1.818146">
        <ele>37.078</ele>
        <time>2021-05-15T18:53:37Z</time>
      </trkpt>
      <trkpt lat="41.243768" lon="1.818044">
        <ele>35.238</ele>
        <time>2021-05-15T18:53:38Z</time>
      </trkpt>
      <trkpt lat="41.243708" lon="1.817927">
        <ele>33.654</ele>
        <time>2021-05-15T18:53:39Z</time>
      </trkpt>
      <trkpt lat="41.243661" lon="1.817802">
        <ele>32.487</ele>
        <time>2021-05-15T18:53:40Z</time>
      </trkpt>
      <trkpt lat="41.243614" lon="1.817683">
        <ele>31.466</ele>
        <time>2021-05-15T18:53:41Z</time>
      </trkpt>
      <trkpt lat="41.243562" lon="1.817575">
        <ele>30.652</ele>
        <time>2021-05-15T18:53:42Z</time>
      </trkpt>
      <trkpt lat="41.243503" lon="1.817483">
        <ele>30.253</ele>
        <time>2021-05-15T18:53:43Z</time>
      </trkpt>
      <trkpt lat="41.243439" lon="1.817407">
        <ele>29.808</ele>
        <time>2021-05-15T18:53:44Z</time>
      </trkpt>
      <trkpt lat="41.243189" lon="1.817181">
        <ele>29.008</ele>
        <time>2021-05-15T18:53:48Z</time>
      </trkpt>
      <trkpt lat="41.243127" lon="1.817136">
        <ele>29.052</ele>
        <time>2021-05-15T18:53:49Z</time>
      </trkpt>
      <trkpt lat="41.242785" lon="1.816894">
        <ele>28.898</ele>
        <time>2021-05-15T18:53:55Z</time>
      </trkpt>
      <trkpt lat="41.242530" lon="1.816758">
        <ele>29.254</ele>
        <time>2021-05-15T18:54:00Z</time>
      </trkpt>
      <trkpt lat="41.242444" lon="1.816720">
        <ele>29.830</ele>
        <time>2021-05-15T18:54:02Z</time>
      </trkpt>
      <trkpt lat="41.242402" lon="1.816708">
        <ele>30.260</ele>
        <time>2021-05-15T18:54:03Z</time>
      </trkpt>
      <trkpt lat="41.242288" lon="1.816666">
        <ele>31.266</ele>
        <time>2021-05-15T18:54:06Z</time>
      </trkpt>
      <trkpt lat="41.242253" lon="1.816652">
        <ele>31.679</ele>
        <time>2021-05-15T18:54:07Z</time>
      </trkpt>
      <trkpt lat="41.242142" lon="1.816615">
        <ele>32.448</ele>
        <time>2021-05-15T18:54:10Z</time>
      </trkpt>
      <trkpt lat="41.242048" lon="1.816578">
        <ele>33.865</ele>
        <time>2021-05-15T18:54:13Z</time>
      </trkpt>
      <trkpt lat="41.242021" lon="1.816566">
        <ele>34.068</ele>
        <time>2021-05-15T18:54:14Z</time>
      </trkpt>
      <trkpt lat="41.241962" lon="1.816556">
        <ele>34.814</ele>
        <time>2021-05-15T18:54:16Z</time>
      </trkpt>
      <trkpt lat="41.241843" lon="1.816503">
        <ele>36.208</ele>
        <time>2021-05-15T18:54:20Z</time>
      </trkpt>
      <trkpt lat="41.241813" lon="1.816490">
        <ele>36.843</ele>
        <time>2021-05-15T18:54:21Z</time>
      </trkpt>
      <trkpt lat="41.241748" lon="1.816452">
        <ele>37.219</ele>
        <time>2021-05-15T18:54:23Z</time>
      </trkpt>
      <trkpt lat="41.241677" lon="1.816358">
        <ele>38.235</ele>
        <time>2021-05-15T18:54:26Z</time>
      </trkpt>
      <trkpt lat="41.241661" lon="1.816326">
        <ele>38.431</ele>
        <time>2021-05-15T18:54:27Z</time>
      </trkpt>
      <trkpt lat="41.241595" lon="1.816154">
        <ele>39.491</ele>
        <time>2021-05-15T18:54:32Z</time>
      </trkpt>
      <trkpt lat="41.241578" lon="1.816117">
        <ele>39.697</ele>
        <time>2021-05-15T18:54:33Z</time>
      </trkpt>
      <trkpt lat="41.241513" lon="1.815952">
        <ele>39.660</ele>
        <time>2021-05-15T18:54:37Z</time>
      </trkpt>
      <trkpt lat="41.241491" lon="1.815899">
        <ele>39.419</ele>
        <time>2021-05-15T18:54:38Z</time>
      </trkpt>
      <trkpt lat="41.241429" lon="1.815702">
        <ele>38.689</ele>
        <time>2021-05-15T18:54:41Z</time>
      </trkpt>
      <trkpt lat="41.241403" lon="1.815622">
        <ele>38.206</ele>
        <time>2021-05-15T18:54:42Z</time>
      </trkpt>
      <trkpt lat="41.241375" lon="1.815541">
        <ele>37.626</ele>
        <time>2021-05-15T18:54:43Z</time>
      </trkpt>
      <trkpt lat="41.241306" lon="1.815364">
        <ele>36.608</ele>
        <time>2021-05-15T18:54:45Z</time>
      </trkpt>
      <trkpt lat="41.241273" lon="1.815283">
        <ele>36.465</ele>
        <time>2021-05-15T18:54:46Z</time>
      </trkpt>
      <trkpt lat="41.241237" lon="1.815219">
        <ele>36.421</ele>
        <time>2021-05-15T18:54:47Z</time>
      </trkpt>
      <trkpt lat="41.241191" lon="1.815182">
        <ele>35.827</ele>
        <time>2021-05-15T18:54:48Z</time>
      </trkpt>
      <trkpt lat="41.241137" lon="1.815170">
        <ele>35.423</ele>
        <time>2021-05-15T18:54:49Z</time>
      </trkpt>
      <trkpt lat="41.240946" lon="1.815160">
        <ele>34.433</ele>
        <time>2021-05-15T18:54:52Z</time>
      </trkpt>
      <trkpt lat="41.240790" lon="1.815131">
        <ele>33.069</ele>
        <time>2021-05-15T18:54:54Z</time>
      </trkpt>
      <trkpt lat="41.240626" lon="1.815090">
        <ele>31.232</ele>
        <time>2021-05-15T18:54:56Z</time>
      </trkpt>
      <trkpt lat="41.240451" lon="1.815052">
        <ele>29.881</ele>
        <time>2021-05-15T18:54:58Z</time>
      </trkpt>
      <trkpt lat="41.240277" lon="1.815004">
        <ele>28.657</ele>
        <time>2021-05-15T18:55:00Z</time>
      </trkpt>
      <trkpt lat="41.240176" lon="1.814982">
        <ele>27.400</ele>
        <time>2021-05-15T18:55:01Z</time>
      </trkpt>
      <trkpt lat="41.239945" lon="1.814935">
        <ele>25.820</ele>
        <time>2021-05-15T18:55:03Z</time>
      </trkpt>
      <trkpt lat="41.239771" lon="1.814900">
        <ele>24.608</ele>
        <time>2021-05-15T18:55:05Z</time>
      </trkpt>
      <trkpt lat="41.239678" lon="1.814880">
        <ele>23.662</ele>
        <time>2021-05-15T18:55:06Z</time>
      </trkpt>
      <trkpt lat="41.239586" lon="1.814861">
        <ele>23.028</ele>
        <time>2021-05-15T18:55:07Z</time>
      </trkpt>
      <trkpt lat="41.239497" lon="1.814840">
        <ele>22.234</ele>
        <time>2021-05-15T18:55:08Z</time>
      </trkpt>
      <trkpt lat="41.239408" lon="1.814814">
        <ele>21.860</ele>
        <time>2021-05-15T18:55:09Z</time>
      </trkpt>
      <trkpt lat="41.239320" lon="1.814789">
        <ele>21.490</ele>
        <time>2021-05-15T18:55:10Z</time>
      </trkpt>
      <trkpt lat="41.239131" lon="1.814745">
        <ele>20.616</ele>
        <time>2021-05-15T18:55:12Z</time>
      </trkpt>
      <trkpt lat="41.238957" lon="1.814702">
        <ele>18.689</ele>
        <time>2021-05-15T18:55:15Z</time>
      </trkpt>
      <trkpt lat="41.238940" lon="1.814700">
        <ele>17.218</ele>
        <time>2021-05-15T18:55:16Z</time>
      </trkpt>
      <trkpt lat="41.238932" lon="1.814697">
        <ele>16.254</ele>
        <time>2021-05-15T18:55:18Z</time>
      </trkpt>
      <trkpt lat="41.238932" lon="1.814697">
        <ele>15.656</ele>
        <time>2021-05-15T18:55:22Z</time>
      </trkpt>
      <trkpt lat="41.238926" lon="1.814698">
        <ele>15.611</ele>
        <time>2021-05-15T18:55:24Z</time>
      </trkpt>
      <trkpt lat="41.238906" lon="1.814740">
        <ele>15.608</ele>
        <time>2021-05-15T18:55:26Z</time>
      </trkpt>
      <trkpt lat="41.238901" lon="1.814917">
        <ele>16.252</ele>
        <time>2021-05-15T18:55:30Z</time>
      </trkpt>
      <trkpt lat="41.238893" lon="1.815221">
        <ele>16.898</ele>
        <time>2021-05-15T18:55:36Z</time>
      </trkpt>
      <trkpt lat="41.238901" lon="1.815271">
        <ele>17.044</ele>
        <time>2021-05-15T18:55:37Z</time>
      </trkpt>
      <trkpt lat="41.238907" lon="1.815369">
        <ele>17.260</ele>
        <time>2021-05-15T18:55:39Z</time>
      </trkpt>
      <trkpt lat="41.238898" lon="1.815544">
        <ele>17.820</ele>
        <time>2021-05-15T18:55:43Z</time>
      </trkpt>
      <trkpt lat="41.238889" lon="1.815571">
        <ele>17.826</ele>
        <time>2021-05-15T18:55:44Z</time>
      </trkpt>
      <trkpt lat="41.238845" lon="1.815596">
        <ele>17.839</ele>
        <time>2021-05-15T18:55:46Z</time>
      </trkpt>
      <trkpt lat="41.238666" lon="1.815617">
        <ele>17.878</ele>
        <time>2021-05-15T18:55:50Z</time>
      </trkpt>
      <trkpt lat="41.238627" lon="1.815621">
        <ele>17.649</ele>
        <time>2021-05-15T18:55:51Z</time>
      </trkpt>
      <trkpt lat="41.238578" lon="1.815616">
        <ele>16.802</ele>
        <time>2021-05-15T18:55:53Z</time>
      </trkpt>
      <trkpt lat="41.238536" lon="1.815558">
        <ele>16.422</ele>
        <time>2021-05-15T18:55:55Z</time>
      </trkpt>
      <trkpt lat="41.238526" lon="1.815514">
        <ele>16.408</ele>
        <time>2021-05-15T18:55:56Z</time>
      </trkpt>
      <trkpt lat="41.238500" lon="1.815364">
        <ele>16.271</ele>
        <time>2021-05-15T18:55:59Z</time>
      </trkpt>
      <trkpt lat="41.238506" lon="1.815305">
        <ele>16.217</ele>
        <time>2021-05-15T18:56:00Z</time>
      </trkpt>
      <trkpt lat="41.238504" lon="1.815164">
        <ele>16.083</ele>
        <time>2021-05-15T18:56:02Z</time>
      </trkpt>
      <trkpt lat="41.238487" lon="1.815007">
        <ele>16.089</ele>
        <time>2021-05-15T18:56:04Z</time>
      </trkpt>
      <trkpt lat="41.238493" lon="1.814929">
        <ele>15.849</ele>
        <time>2021-05-15T18:56:05Z</time>
      </trkpt>
      <trkpt lat="41.238506" lon="1.814840">
        <ele>15.685</ele>
        <time>2021-05-15T18:56:06Z</time>
      </trkpt>
      <trkpt lat="41.238557" lon="1.814526">
        <ele>15.088</ele>
        <time>2021-05-15T18:56:09Z</time>
      </trkpt>
      <trkpt lat="41.238617" lon="1.814193">
        <ele>13.827</ele>
        <time>2021-05-15T18:56:12Z</time>
      </trkpt>
      <trkpt lat="41.238642" lon="1.814077">
        <ele>13.022</ele>
        <time>2021-05-15T18:56:13Z</time>
      </trkpt>
      <trkpt lat="41.238664" lon="1.813982">
        <ele>12.662</ele>
        <time>2021-05-15T18:56:14Z</time>
      </trkpt>
      <trkpt lat="41.238675" lon="1.813880">
        <ele>12.008</ele>
        <time>2021-05-15T18:56:15Z</time>
      </trkpt>
      <trkpt lat="41.238661" lon="1.813810">
        <ele>11.608</ele>
        <time>2021-05-15T18:56:16Z</time>
      </trkpt>
      <trkpt lat="41.238638" lon="1.813746">
        <ele>10.459</ele>
        <time>2021-05-15T18:56:17Z</time>
      </trkpt>
      <trkpt lat="41.238547" lon="1.813676">
        <ele>9.645</ele>
        <time>2021-05-15T18:56:19Z</time>
      </trkpt>
      <trkpt lat="41.238493" lon="1.813641">
        <ele>9.441</ele>
        <time>2021-05-15T18:56:20Z</time>
      </trkpt>
      <trkpt lat="41.238400" lon="1.813595">
        <ele>8.677</ele>
        <time>2021-05-15T18:56:22Z</time>
      </trkpt>
      <trkpt lat="41.238328" lon="1.813523">
        <ele>8.237</ele>
        <time>2021-05-15T18:56:24Z</time>
      </trkpt>
      <trkpt lat="41.238292" lon="1.813390">
        <ele>7.473</ele>
        <time>2021-05-15T18:56:26Z</time>
      </trkpt>
      <trkpt lat="41.238283" lon="1.813321">
        <ele>7.226</ele>
        <time>2021-05-15T18:56:27Z</time>
      </trkpt>
      <trkpt lat="41.238246" lon="1.813021">
        <ele>7.215</ele>
        <time>2021-05-15T18:56:31Z</time>
      </trkpt>
      <trkpt lat="41.238227" lon="1.812895">
        <ele>7.273</ele>
        <time>2021-05-15T18:56:33Z</time>
      </trkpt>
      <trkpt lat="41.238211" lon="1.812818">
        <ele>7.285</ele>
        <time>2021-05-15T18:56:34Z</time>
      </trkpt>
      <trkpt lat="41.238194" lon="1.812751">
        <ele>7.413</ele>
        <time>2021-05-15T18:56:35Z</time>
      </trkpt>
      <trkpt lat="41.238102" lon="1.812389">
        <ele>7.608</ele>
        <time>2021-05-15T18:56:40Z</time>
      </trkpt>
      <trkpt lat="41.238036" lon="1.812145">
        <ele>7.614</ele>
        <time>2021-05-15T18:56:44Z</time>
      </trkpt>
      <trkpt lat="41.238027" lon="1.812122">
        <ele>7.650</ele>
        <time>2021-05-15T18:56:45Z</time>
      </trkpt>
      <trkpt lat="41.238012" lon="1.812072">
        <ele>7.466</ele>
        <time>2021-05-15T18:56:49Z</time>
      </trkpt>
      <trkpt lat="41.237977" lon="1.811958">
        <ele>7.422</ele>
        <time>2021-05-15T18:56:53Z</time>
      </trkpt>
      <trkpt lat="41.237927" lon="1.811838">
        <ele>7.692</ele>
        <time>2021-05-15T18:56:57Z</time>
      </trkpt>
      <trkpt lat="41.237916" lon="1.811814">
        <ele>7.688</ele>
        <time>2021-05-15T18:56:58Z</time>
      </trkpt>
      <trkpt lat="41.237877" lon="1.811787">
        <ele>7.441</ele>
        <time>2021-05-15T18:57:01Z</time>
      </trkpt>
      <trkpt lat="41.237868" lon="1.811783">
        <ele>7.660</ele>
        <time>2021-05-15T18:57:02Z</time>
      </trkpt>
      <trkpt lat="41.237834" lon="1.811690">
        <ele>7.623</ele>
        <time>2021-05-15T18:57:06Z</time>
      </trkpt>
      <trkpt lat="41.237747" lon="1.811509">
        <ele>7.683</ele>
        <time>2021-05-15T18:57:11Z</time>
      </trkpt>
      <trkpt lat="41.237724" lon="1.811323">
        <ele>7.811</ele>
        <time>2021-05-15T18:57:16Z</time>
      </trkpt>
      <trkpt lat="41.237538" lon="1.811337">
        <ele>7.608</ele>
        <time>2021-05-15T18:57:21Z</time>
      </trkpt>
      <trkpt lat="41.237457" lon="1.811339">
        <ele>7.449</ele>
        <time>2021-05-15T18:57:23Z</time>
      </trkpt>
      <trkpt lat="41.237379" lon="1.811347">
        <ele>6.865</ele>
        <time>2021-05-15T18:57:25Z</time>
      </trkpt>
      <trkpt lat="41.237326" lon="1.811378">
        <ele>6.071</ele>
        <time>2021-05-15T18:57:28Z</time>
      </trkpt>
      <trkpt lat="41.237318" lon="1.811385">
        <ele>5.877</ele>
        <time>2021-05-15T18:57:29Z</time>
      </trkpt>
      <trkpt lat="41.237302" lon="1.811393">
        <ele>5.677</ele>
        <time>2021-05-15T18:57:30Z</time>
      </trkpt>
      <trkpt lat="41.237227" lon="1.811422">
        <ele>5.473</ele>
        <time>2021-05-15T18:57:33Z</time>
      </trkpt>
      <trkpt lat="41.237051" lon="1.811511">
        <ele>5.216</ele>
        <time>2021-05-15T18:57:37Z</time>
      </trkpt>
      <trkpt lat="41.236997" lon="1.811529">
        <ele>5.255</ele>
        <time>2021-05-15T18:57:38Z</time>
      </trkpt>
      <trkpt lat="41.236938" lon="1.811558">
        <ele>4.847</ele>
        <time>2021-05-15T18:57:39Z</time>
      </trkpt>
      <trkpt lat="41.236770" lon="1.811658">
        <ele>4.229</ele>
        <time>2021-05-15T18:57:42Z</time>
      </trkpt>
      <trkpt lat="41.236608" lon="1.811728">
        <ele>3.621</ele>
        <time>2021-05-15T18:57:45Z</time>
      </trkpt>
      <trkpt lat="41.236513" lon="1.811760">
        <ele>3.408</ele>
        <time>2021-05-15T18:57:47Z</time>
      </trkpt>
      <trkpt lat="41.236435" lon="1.811792">
        <ele>3.041</ele>
        <time>2021-05-15T18:57:49Z</time>
      </trkpt>
      <trkpt lat="41.236405" lon="1.811816">
        <ele>2.647</ele>
        <time>2021-05-15T18:57:51Z</time>
      </trkpt>
      <trkpt lat="41.236384" lon="1.811830">
        <ele>2.643</ele>
        <time>2021-05-15T18:57:52Z</time>
      </trkpt>
      <trkpt lat="41.236320" lon="1.811876">
        <ele>2.249</ele>
        <time>2021-05-15T18:57:55Z</time>
      </trkpt>
      <trkpt lat="41.236291" lon="1.811890">
        <ele>2.269</ele>
        <time>2021-05-15T18:57:57Z</time>
      </trkpt>
      <trkpt lat="41.236278" lon="1.811882">
        <ele>2.095</ele>
        <time>2021-05-15T18:57:59Z</time>
      </trkpt>
      <trkpt lat="41.236232" lon="1.811870">
        <ele>2.048</ele>
        <time>2021-05-15T18:58:05Z</time>
      </trkpt>
      <trkpt lat="41.236208" lon="1.811873">
        <ele>2.087</ele>
        <time>2021-05-15T18:58:06Z</time>
      </trkpt>
      <trkpt lat="41.236178" lon="1.811862">
        <ele>2.255</ele>
        <time>2021-05-15T18:58:07Z</time>
      </trkpt>
      <trkpt lat="41.236071" lon="1.811838">
        <ele>2.607</ele>
        <time>2021-05-15T18:58:10Z</time>
      </trkpt>
      <trkpt lat="41.235988" lon="1.811829">
        <ele>2.817</ele>
        <time>2021-05-15T18:58:12Z</time>
      </trkpt>
      <trkpt lat="41.235920" lon="1.811815">
        <ele>3.408</ele>
        <time>2021-05-15T18:58:14Z</time>
      </trkpt>
      <trkpt lat="41.235905" lon="1.811785">
        <ele>3.622</ele>
        <time>2021-05-15T18:58:15Z</time>
      </trkpt>
      <trkpt lat="41.235878" lon="1.811663">
        <ele>4.258</ele>
        <time>2021-05-15T18:58:18Z</time>
      </trkpt>
      <trkpt lat="41.235872" lon="1.811569">
        <ele>4.494</ele>
        <time>2021-05-15T18:58:20Z</time>
      </trkpt>
      <trkpt lat="41.235894" lon="1.811474">
        <ele>4.640</ele>
        <time>2021-05-15T18:58:22Z</time>
      </trkpt>
      <trkpt lat="41.235914" lon="1.811424">
        <ele>4.650</ele>
        <time>2021-05-15T18:58:23Z</time>
      </trkpt>
      <trkpt lat="41.235940" lon="1.811333">
        <ele>4.836</ele>
        <time>2021-05-15T18:58:25Z</time>
      </trkpt>
      <trkpt lat="41.235970" lon="1.811210">
        <ele>5.089</ele>
        <time>2021-05-15T18:58:28Z</time>
      </trkpt>
      <trkpt lat="41.236065" lon="1.811075">
        <ele>5.468</ele>
        <time>2021-05-15T18:58:33Z</time>
      </trkpt>
      <trkpt lat="41.236023" lon="1.811032">
        <ele>5.435</ele>
        <time>2021-05-15T18:58:34Z</time>
      </trkpt>
      <trkpt lat="41.235996" lon="1.810931">
        <ele>4.886</ele>
        <time>2021-05-15T18:58:37Z</time>
      </trkpt>
      <trkpt lat="41.236040" lon="1.810900">
        <ele>4.814</ele>
        <time>2021-05-15T18:58:40Z</time>
      </trkpt>
      <trkpt lat="41.236056" lon="1.810886">
        <ele>4.808</ele>
        <time>2021-05-15T18:58:41Z</time>
      </trkpt>
      <trkpt lat="41.236068" lon="1.810870">
        <ele>4.830</ele>
        <time>2021-05-15T18:58:42Z</time>
      </trkpt>
      <trkpt lat="41.236097" lon="1.810802">
        <ele>5.016</ele>
        <time>2021-05-15T18:58:45Z</time>
      </trkpt>
      <trkpt lat="41.236110" lon="1.810750">
        <ele>5.272</ele>
        <time>2021-05-15T18:58:48Z</time>
      </trkpt>
      <trkpt lat="41.236100" lon="1.810736">
        <ele>5.058</ele>
        <time>2021-05-15T18:58:49Z</time>
      </trkpt>
      <trkpt lat="41.236054" lon="1.810712">
        <ele>4.888</ele>
        <time>2021-05-15T18:58:51Z</time>
      </trkpt>
      <trkpt lat="41.235967" lon="1.810655">
        <ele>4.424</ele>
        <time>2021-05-15T18:58:53Z</time>
      </trkpt>
      <trkpt lat="41.235907" lon="1.810588">
        <ele>3.627</ele>
        <time>2021-05-15T18:58:55Z</time>
      </trkpt>
      <trkpt lat="41.235876" lon="1.810548">
        <ele>3.276</ele>
        <time>2021-05-15T18:58:56Z</time>
      </trkpt>
      <trkpt lat="41.235812" lon="1.810461">
        <ele>2.266</ele>
        <time>2021-05-15T18:58:58Z</time>
      </trkpt>
      <trkpt lat="41.235770" lon="1.810422">
        <ele>1.629</ele>
        <time>2021-05-15T18:58:59Z</time>
      </trkpt>
      <trkpt lat="41.235730" lon="1.810374">
        <ele>0.821</ele>
        <time>2021-05-15T18:59:00Z</time>
      </trkpt>
      <trkpt lat="41.235655" lon="1.810289">
        <ele>-0.208</ele>
        <time>2021-05-15T18:59:02Z</time>
      </trkpt>
      <trkpt lat="41.235633" lon="1.810247">
        <ele>-0.643</ele>
        <time>2021-05-15T18:59:03Z</time>
      </trkpt>
      <trkpt lat="41.235613" lon="1.810233">
        <ele>-1.059</ele>
        <time>2021-05-15T18:59:04Z</time>
      </trkpt>
      <trkpt lat="41.235599" lon="1.810218">
        <ele>-1.275</ele>
        <time>2021-05-15T18:59:05Z</time>
      </trkpt>
      <trkpt lat="41.235587" lon="1.810181">
        <ele>-1.641</ele>
        <time>2021-05-15T18:59:07Z</time>
      </trkpt>
      <trkpt lat="41.235597" lon="1.810150">
        <ele>-2.061</ele>
        <time>2021-05-15T18:59:09Z</time>
      </trkpt>
      <trkpt lat="41.235597" lon="1.810149">
        <ele>-2.257</ele>
        <time>2021-05-15T18:59:10Z</time>
      </trkpt>
      <trkpt lat="41.235582" lon="1.810161">
        <ele>-2.460</ele>
        <time>2021-05-15T18:59:11Z</time>
      </trkpt>
      <trkpt lat="41.235571" lon="1.810154">
        <ele>-2.649</ele>
        <time>2021-05-15T18:59:16Z</time>
      </trkpt>
      <trkpt lat="41.235567" lon="1.810158">
        <ele>-2.695</ele>
        <time>2021-05-15T18:59:17Z</time>
      </trkpt>
      <trkpt lat="41.235566" lon="1.810144">
        <ele>-2.649</ele>
        <time>2021-05-15T18:59:18Z</time>
      </trkpt>
      <trkpt lat="41.235864" lon="1.810293">
        <ele>62.681</ele>
        <time>2021-05-15T15:50:29Z</time>
      </trkpt>
      <trkpt lat="41.235869" lon="1.810308">
        <ele>62.661</ele>
        <time>2021-05-15T15:50:30Z</time>
      </trkpt>
      <trkpt lat="41.235871" lon="1.810322">
        <ele>62.617</ele>
        <time>2021-05-15T15:50:31Z</time>
      </trkpt>
      <trkpt lat="41.235884" lon="1.810321">
        <ele>63.608</ele>
        <time>2021-05-15T15:50:33Z</time>
      </trkpt>
      <trkpt lat="41.235882" lon="1.810302">
        <ele>64.275</ele>
        <time>2021-05-15T15:50:34Z</time>
      </trkpt>
      <trkpt lat="41.235910" lon="1.810333">
        <ele>64.651</ele>
        <time>2021-05-15T15:50:36Z</time>
      </trkpt>
      <trkpt lat="41.235943" lon="1.810377">
        <ele>65.037</ele>
        <time>2021-05-15T15:50:38Z</time>
      </trkpt>
      <trkpt lat="41.236002" lon="1.810456">
        <ele>65.883</ele>
        <time>2021-05-15T15:50:41Z</time>
      </trkpt>
      <trkpt lat="41.236018" lon="1.810480">
        <ele>66.293</ele>
        <time>2021-05-15T15:50:42Z</time>
      </trkpt>
      <trkpt lat="41.236031" lon="1.810555">
        <ele>67.059</ele>
        <time>2021-05-15T15:50:45Z</time>
      </trkpt>
      <trkpt lat="41.236056" lon="1.810632">
        <ele>68.022</ele>
        <time>2021-05-15T15:50:49Z</time>
      </trkpt>
      <trkpt lat="41.236069" lon="1.810644">
        <ele>68.498</ele>
        <time>2021-05-15T15:50:50Z</time>
      </trkpt>
      <trkpt lat="41.236091" lon="1.810663">
        <ele>68.818</ele>
        <time>2021-05-15T15:50:51Z</time>
      </trkpt>
      <trkpt lat="41.236117" lon="1.810678">
        <ele>69.298</ele>
        <time>2021-05-15T15:50:52Z</time>
      </trkpt>
      <trkpt lat="41.236114" lon="1.810694">
        <ele>69.417</ele>
        <time>2021-05-15T15:50:53Z</time>
      </trkpt>
      <trkpt lat="41.236117" lon="1.810696">
        <ele>69.808</ele>
        <time>2021-05-15T15:50:55Z</time>
      </trkpt>
      <trkpt lat="41.236114" lon="1.810700">
        <ele>70.288</ele>
        <time>2021-05-15T15:50:56Z</time>
      </trkpt>
      <trkpt lat="41.236099" lon="1.810701">
        <ele>70.414</ele>
        <time>2021-05-15T15:50:57Z</time>
      </trkpt>
      <trkpt lat="41.236085" lon="1.810724">
        <ele>70.440</ele>
        <time>2021-05-15T15:50:58Z</time>
      </trkpt>
      <trkpt lat="41.236050" lon="1.810795">
        <ele>70.466</ele>
        <time>2021-05-15T15:51:02Z</time>
      </trkpt>
      <trkpt lat="41.236038" lon="1.810807">
        <ele>70.466</ele>
        <time>2021-05-15T15:51:03Z</time>
      </trkpt>
      <trkpt lat="41.236001" lon="1.810828">
        <ele>70.212</ele>
        <time>2021-05-15T15:51:05Z</time>
      </trkpt>
      <trkpt lat="41.235976" lon="1.810857">
        <ele>70.085</ele>
        <time>2021-05-15T15:51:07Z</time>
      </trkpt>
      <trkpt lat="41.235975" lon="1.810907">
        <ele>70.061</ele>
        <time>2021-05-15T15:51:08Z</time>
      </trkpt>
      <trkpt lat="41.235977" lon="1.810940">
        <ele>69.899</ele>
        <time>2021-05-15T15:51:09Z</time>
      </trkpt>
      <trkpt lat="41.235989" lon="1.811012">
        <ele>70.007</ele>
        <time>2021-05-15T15:51:12Z</time>
      </trkpt>
      <trkpt lat="41.235980" lon="1.811051">
        <ele>70.227</ele>
        <time>2021-05-15T15:51:13Z</time>
      </trkpt>
      <trkpt lat="41.235957" lon="1.811280">
        <ele>70.608</ele>
        <time>2021-05-15T15:51:17Z</time>
      </trkpt>
      <trkpt lat="41.235946" lon="1.811336">
        <ele>70.666</ele>
        <time>2021-05-15T15:51:18Z</time>
      </trkpt>
      <trkpt lat="41.235928" lon="1.811442">
        <ele>70.642</ele>
        <time>2021-05-15T15:51:20Z</time>
      </trkpt>
      <trkpt lat="41.235937" lon="1.811555">
        <ele>70.418</ele>
        <time>2021-05-15T15:51:22Z</time>
      </trkpt>
      <trkpt lat="41.235944" lon="1.811714">
        <ele>70.014</ele>
        <time>2021-05-15T15:51:25Z</time>
      </trkpt>
      <trkpt lat="41.235976" lon="1.811802">
        <ele>69.864</ele>
        <time>2021-05-15T15:51:27Z</time>
      </trkpt>
      <trkpt lat="41.236064" lon="1.811887">
        <ele>69.630</ele>
        <time>2021-05-15T15:51:29Z</time>
      </trkpt>
      <trkpt lat="41.236110" lon="1.811921">
        <ele>69.473</ele>
        <time>2021-05-15T15:51:30Z</time>
      </trkpt>
      <trkpt lat="41.236141" lon="1.811948">
        <ele>69.059</ele>
        <time>2021-05-15T15:51:31Z</time>
      </trkpt>
      <trkpt lat="41.236170" lon="1.811958">
        <ele>68.253</ele>
        <time>2021-05-15T15:51:32Z</time>
      </trkpt>
      <trkpt lat="41.236201" lon="1.811977">
        <ele>67.804</ele>
        <time>2021-05-15T15:51:33Z</time>
      </trkpt>
      <trkpt lat="41.236243" lon="1.812015">
        <ele>67.614</ele>
        <time>2021-05-15T15:51:34Z</time>
      </trkpt>
      <trkpt lat="41.236278" lon="1.812025">
        <ele>16.608</ele>
        <time>2021-05-15T15:51:35Z</time>
      </trkpt>
      <trkpt lat="41.236307" lon="1.811987">
        <ele>16.612</ele>
        <time>2021-05-15T15:51:36Z</time>
      </trkpt>
      <trkpt lat="41.236362" lon="1.811870">
        <ele>16.638</ele>
        <time>2021-05-15T15:51:38Z</time>
      </trkpt>
      <trkpt lat="41.236443" lon="1.811807">
        <ele>16.684</ele>
        <time>2021-05-15T15:51:40Z</time>
      </trkpt>
      <trkpt lat="41.236540" lon="1.811781">
        <ele>16.610</ele>
        <time>2021-05-15T15:51:42Z</time>
      </trkpt>
      <trkpt lat="41.236636" lon="1.811739">
        <ele>16.810</ele>
        <time>2021-05-15T15:51:44Z</time>
      </trkpt>
      <trkpt lat="41.236705" lon="1.811687">
        <ele>16.866</ele>
        <time>2021-05-15T15:51:46Z</time>
      </trkpt>
      <trkpt lat="41.236777" lon="1.811639">
        <ele>17.039</ele>
        <time>2021-05-15T15:51:48Z</time>
      </trkpt>
      <trkpt lat="41.236814" lon="1.811622">
        <ele>17.025</ele>
        <time>2021-05-15T15:51:49Z</time>
      </trkpt>
      <trkpt lat="41.236895" lon="1.811585">
        <ele>17.261</ele>
        <time>2021-05-15T15:51:51Z</time>
      </trkpt>
      <trkpt lat="41.237006" lon="1.811520">
        <ele>17.621</ele>
        <time>2021-05-15T15:51:54Z</time>
      </trkpt>
      <trkpt lat="41.237041" lon="1.811508">
        <ele>17.813</ele>
        <time>2021-05-15T15:51:55Z</time>
      </trkpt>
      <trkpt lat="41.237072" lon="1.811478">
        <ele>18.008</ele>
        <time>2021-05-15T15:51:56Z</time>
      </trkpt>
      <trkpt lat="41.237174" lon="1.811340">
        <ele>18.493</ele>
        <time>2021-05-15T15:51:59Z</time>
      </trkpt>
      <trkpt lat="41.237208" lon="1.811341">
        <ele>18.689</ele>
        <time>2021-05-15T15:52:00Z</time>
      </trkpt>
      <trkpt lat="41.237248" lon="1.811378">
        <ele>18.815</ele>
        <time>2021-05-15T15:52:01Z</time>
      </trkpt>
      <trkpt lat="41.237322" lon="1.811400">
        <ele>19.221</ele>
        <time>2021-05-15T15:52:03Z</time>
      </trkpt>
      <trkpt lat="41.237356" lon="1.811395">
        <ele>19.221</ele>
        <time>2021-05-15T15:52:04Z</time>
      </trkpt>
      <trkpt lat="41.237409" lon="1.811338">
        <ele>19.847</ele>
        <time>2021-05-15T15:52:06Z</time>
      </trkpt>
      <trkpt lat="41.237441" lon="1.811317">
        <ele>19.840</ele>
        <time>2021-05-15T15:52:07Z</time>
      </trkpt>
      <trkpt lat="41.237473" lon="1.811300">
        <ele>20.036</ele>
        <time>2021-05-15T15:52:08Z</time>
      </trkpt>
      <trkpt lat="41.237614" lon="1.811272">
        <ele>21.012</ele>
        <time>2021-05-15T15:52:12Z</time>
      </trkpt>
      <trkpt lat="41.237678" lon="1.811248">
        <ele>21.432</ele>
        <time>2021-05-15T15:52:14Z</time>
      </trkpt>
      <trkpt lat="41.237701" lon="1.811225">
        <ele>21.605</ele>
        <time>2021-05-15T15:52:15Z</time>
      </trkpt>
      <trkpt lat="41.237710" lon="1.811210">
        <ele>21.808</ele>
        <time>2021-05-15T15:52:16Z</time>
      </trkpt>
      <trkpt lat="41.237705" lon="1.811204">
        <ele>22.088</ele>
        <time>2021-05-15T15:52:17Z</time>
      </trkpt>
      <trkpt lat="41.237688" lon="1.811209">
        <ele>22.014</ele>
        <time>2021-05-15T15:52:18Z</time>
      </trkpt>
      <trkpt lat="41.237696" lon="1.811249">
        <ele>22.010</ele>
        <time>2021-05-15T15:52:19Z</time>
      </trkpt>
      <trkpt lat="41.237725" lon="1.811430">
        <ele>22.046</ele>
        <time>2021-05-15T15:52:22Z</time>
      </trkpt>
      <trkpt lat="41.237805" lon="1.811659">
        <ele>21.866</ele>
        <time>2021-05-15T15:52:26Z</time>
      </trkpt>
      <trkpt lat="41.237828" lon="1.811719">
        <ele>21.882</ele>
        <time>2021-05-15T15:52:28Z</time>
      </trkpt>
      <trkpt lat="41.237946" lon="1.811971">
        <ele>21.455</ele>
        <time>2021-05-15T15:52:32Z</time>
      </trkpt>
      <trkpt lat="41.237969" lon="1.811995">
        <ele>21.461</ele>
        <time>2021-05-15T15:52:33Z</time>
      </trkpt>
      <trkpt lat="41.238159" lon="1.811952">
        <ele>22.239</ele>
        <time>2021-05-15T15:52:38Z</time>
      </trkpt>
      <trkpt lat="41.238243" lon="1.811913">
        <ele>22.601</ele>
        <time>2021-05-15T15:52:40Z</time>
      </trkpt>
      <trkpt lat="41.238322" lon="1.811885">
        <ele>23.221</ele>
        <time>2021-05-15T15:52:42Z</time>
      </trkpt>
      <trkpt lat="41.238405" lon="1.811851">
        <ele>23.808</ele>
        <time>2021-05-15T15:52:44Z</time>
      </trkpt>
      <trkpt lat="41.238450" lon="1.811822">
        <ele>24.230</ele>
        <time>2021-05-15T15:52:45Z</time>
      </trkpt>
      <trkpt lat="41.238552" lon="1.811815">
        <ele>24.886</ele>
        <time>2021-05-15T15:52:47Z</time>
      </trkpt>
      <trkpt lat="41.238636" lon="1.811802">
        <ele>25.422</ele>
        <time>2021-05-15T15:52:49Z</time>
      </trkpt>
      <trkpt lat="41.238700" lon="1.811766">
        <ele>26.078</ele>
        <time>2021-05-15T15:52:51Z</time>
      </trkpt>
      <trkpt lat="41.238728" lon="1.811740">
        <ele>26.278</ele>
        <time>2021-05-15T15:52:52Z</time>
      </trkpt>
      <trkpt lat="41.238756" lon="1.811705">
        <ele>26.674</ele>
        <time>2021-05-15T15:52:53Z</time>
      </trkpt>
      <trkpt lat="41.238809" lon="1.811636">
        <ele>27.087</ele>
        <time>2021-05-15T15:52:55Z</time>
      </trkpt>
      <trkpt lat="41.238820" lon="1.811594">
        <ele>27.083</ele>
        <time>2021-05-15T15:52:56Z</time>
      </trkpt>
      <trkpt lat="41.238822" lon="1.811486">
        <ele>27.224</ele>
        <time>2021-05-15T15:52:58Z</time>
      </trkpt>
      <trkpt lat="41.238811" lon="1.811311">
        <ele>27.404</ele>
        <time>2021-05-15T15:53:01Z</time>
      </trkpt>
      <trkpt lat="41.238802" lon="1.811176">
        <ele>27.614</ele>
        <time>2021-05-15T15:53:03Z</time>
      </trkpt>
      <trkpt lat="41.238794" lon="1.811106">
        <ele>27.808</ele>
        <time>2021-05-15T15:53:04Z</time>
      </trkpt>
      <trkpt lat="41.238787" lon="1.811035">
        <ele>27.849</ele>
        <time>2021-05-15T15:53:05Z</time>
      </trkpt>
      <trkpt lat="41.238767" lon="1.810680">
        <ele>27.685</ele>
        <time>2021-05-15T15:53:10Z</time>
      </trkpt>
      <trkpt lat="41.238768" lon="1.810612">
        <ele>27.651</ele>
        <time>2021-05-15T15:53:11Z</time>
      </trkpt>
      <trkpt lat="41.238762" lon="1.810476">
        <ele>27.677</ele>
        <time>2021-05-15T15:53:13Z</time>
      </trkpt>
      <trkpt lat="41.238772" lon="1.810204">
        <ele>27.697</ele>
        <time>2021-05-15T15:53:17Z</time>
      </trkpt>
      <trkpt lat="41.238762" lon="1.810067">
        <ele>27.663</ele>
        <time>2021-05-15T15:53:19Z</time>
      </trkpt>
      <trkpt lat="41.238745" lon="1.809925">
        <ele>27.446</ele>
        <time>2021-05-15T15:53:21Z</time>
      </trkpt>
      <trkpt lat="41.238740" lon="1.809780">
        <ele>27.632</ele>
        <time>2021-05-15T15:53:23Z</time>
      </trkpt>
      <trkpt lat="41.238735" lon="1.809371">
        <ele>27.057</ele>
        <time>2021-05-15T15:53:29Z</time>
      </trkpt>
      <trkpt lat="41.238752" lon="1.809322">
        <ele>27.000</ele>
        <time>2021-05-15T15:53:30Z</time>
      </trkpt>
      <trkpt lat="41.238776" lon="1.809292">
        <ele>26.620</ele>
        <time>2021-05-15T15:53:31Z</time>
      </trkpt>
      <trkpt lat="41.238814" lon="1.809297">
        <ele>26.608</ele>
        <time>2021-05-15T15:53:32Z</time>
      </trkpt>
      <trkpt lat="41.238855" lon="1.809305">
        <ele>26.462</ele>
        <time>2021-05-15T15:53:33Z</time>
      </trkpt>
      <trkpt lat="41.238924" lon="1.809301">
        <ele>26.438</ele>
        <time>2021-05-15T15:53:35Z</time>
      </trkpt>
      <trkpt lat="41.238955" lon="1.809279">
        <ele>26.424</ele>
        <time>2021-05-15T15:53:36Z</time>
      </trkpt>
      <trkpt lat="41.238982" lon="1.809235">
        <ele>26.430</ele>
        <time>2021-05-15T15:53:37Z</time>
      </trkpt>
      <trkpt lat="41.239011" lon="1.809109">
        <ele>26.240</ele>
        <time>2021-05-15T15:53:39Z</time>
      </trkpt>
      <trkpt lat="41.239037" lon="1.808968">
        <ele>26.056</ele>
        <time>2021-05-15T15:53:41Z</time>
      </trkpt>
      <trkpt lat="41.239079" lon="1.808762">
        <ele>26.069</ele>
        <time>2021-05-15T15:53:44Z</time>
      </trkpt>
      <trkpt lat="41.239091" lon="1.808693">
        <ele>26.035</ele>
        <time>2021-05-15T15:53:45Z</time>
      </trkpt>
      <trkpt lat="41.239123" lon="1.808476">
        <ele>25.825</ele>
        <time>2021-05-15T15:53:48Z</time>
      </trkpt>
      <trkpt lat="41.239164" lon="1.808264">
        <ele>26.226</ele>
        <time>2021-05-15T15:53:51Z</time>
      </trkpt>
      <trkpt lat="41.239189" lon="1.808192">
        <ele>26.208</ele>
        <time>2021-05-15T15:53:52Z</time>
      </trkpt>
      <trkpt lat="41.239176" lon="1.807888">
        <ele>26.208</ele>
        <time>2021-05-15T15:53:56Z</time>
      </trkpt>
      <trkpt lat="41.239200" lon="1.807611">
        <ele>25.099</ele>
        <time>2021-05-15T15:53:59Z</time>
      </trkpt>
      <trkpt lat="41.239226" lon="1.807427">
        <ele>23.815</ele>
        <time>2021-05-15T15:54:01Z</time>
      </trkpt>
      <trkpt lat="41.239224" lon="1.807120">
        <ele>22.891</ele>
        <time>2021-05-15T15:54:04Z</time>
      </trkpt>
      <trkpt lat="41.239228" lon="1.806958">
        <ele>21.817</ele>
        <time>2021-05-15T15:54:06Z</time>
      </trkpt>
      <trkpt lat="41.239240" lon="1.806901">
        <ele>21.497</ele>
        <time>2021-05-15T15:54:07Z</time>
      </trkpt>
      <trkpt lat="41.239282" lon="1.806799">
        <ele>21.433</ele>
        <time>2021-05-15T15:54:09Z</time>
      </trkpt>
      <trkpt lat="41.239672" lon="1.807001">
        <ele>22.666</ele>
        <time>2021-05-15T15:54:19Z</time>
      </trkpt>
      <trkpt lat="41.239729" lon="1.807034">
        <ele>22.622</ele>
        <time>2021-05-15T15:54:22Z</time>
      </trkpt>
      <trkpt lat="41.239758" lon="1.807037">
        <ele>22.637</ele>
        <time>2021-05-15T15:54:23Z</time>
      </trkpt>
      <trkpt lat="41.239785" lon="1.807008">
        <ele>22.649</ele>
        <time>2021-05-15T15:54:25Z</time>
      </trkpt>
      <trkpt lat="41.239797" lon="1.806953">
        <ele>22.613</ele>
        <time>2021-05-15T15:54:26Z</time>
      </trkpt>
      <trkpt lat="41.239782" lon="1.806664">
        <ele>22.608</ele>
        <time>2021-05-15T15:54:30Z</time>
      </trkpt>
      <trkpt lat="41.239793" lon="1.806611">
        <ele>22.610</ele>
        <time>2021-05-15T15:54:31Z</time>
      </trkpt>
      <trkpt lat="41.239823" lon="1.806531">
        <ele>22.446</ele>
        <time>2021-05-15T15:54:33Z</time>
      </trkpt>
      <trkpt lat="41.239850" lon="1.806508">
        <ele>22.252</ele>
        <time>2021-05-15T15:54:34Z</time>
      </trkpt>
      <trkpt lat="41.239957" lon="1.806464">
        <ele>22.448</ele>
        <time>2021-05-15T15:54:37Z</time>
      </trkpt>
      <trkpt lat="41.240029" lon="1.806442">
        <ele>22.868</ele>
        <time>2021-05-15T15:54:39Z</time>
      </trkpt>
      <trkpt lat="41.240056" lon="1.806430">
        <ele>23.074</ele>
        <time>2021-05-15T15:54:40Z</time>
      </trkpt>
      <trkpt lat="41.240137" lon="1.806400">
        <ele>23.477</ele>
        <time>2021-05-15T15:54:42Z</time>
      </trkpt>
      <trkpt lat="41.240271" lon="1.806401">
        <ele>23.813</ele>
        <time>2021-05-15T15:54:45Z</time>
      </trkpt>
      <trkpt lat="41.240391" lon="1.806372">
        <ele>24.431</ele>
        <time>2021-05-15T15:54:48Z</time>
      </trkpt>
      <trkpt lat="41.240471" lon="1.806343">
        <ele>24.661</ele>
        <time>2021-05-15T15:54:50Z</time>
      </trkpt>
      <trkpt lat="41.240551" lon="1.806315">
        <ele>25.007</ele>
        <time>2021-05-15T15:54:52Z</time>
      </trkpt>
      <trkpt lat="41.240624" lon="1.806288">
        <ele>25.208</ele>
        <time>2021-05-15T15:54:54Z</time>
      </trkpt>
      <trkpt lat="41.240663" lon="1.806268">
        <ele>25.460</ele>
        <time>2021-05-15T15:54:55Z</time>
      </trkpt>
      <trkpt lat="41.240773" lon="1.806215">
        <ele>26.046</ele>
        <time>2021-05-15T15:54:58Z</time>
      </trkpt>
      <trkpt lat="41.240920" lon="1.806154">
        <ele>26.622</ele>
        <time>2021-05-15T15:55:02Z</time>
      </trkpt>
      <trkpt lat="41.241036" lon="1.806118">
        <ele>27.298</ele>
        <time>2021-05-15T15:55:05Z</time>
      </trkpt>
      <trkpt lat="41.241110" lon="1.806093">
        <ele>27.878</ele>
        <time>2021-05-15T15:55:07Z</time>
      </trkpt>
      <trkpt lat="41.241227" lon="1.806062">
        <ele>28.454</ele>
        <time>2021-05-15T15:55:10Z</time>
      </trkpt>
      <trkpt lat="41.241258" lon="1.806050">
        <ele>28.697</ele>
        <time>2021-05-15T15:55:11Z</time>
      </trkpt>
      <trkpt lat="41.241438" lon="1.806027">
        <ele>29.453</ele>
        <time>2021-05-15T15:55:16Z</time>
      </trkpt>
      <trkpt lat="41.241471" lon="1.806029">
        <ele>29.499</ele>
        <time>2021-05-15T15:55:17Z</time>
      </trkpt>
      <trkpt lat="41.241543" lon="1.806028">
        <ele>29.807</ele>
        <time>2021-05-15T15:55:19Z</time>
      </trkpt>
      <trkpt lat="41.241606" lon="1.806004">
        <ele>30.427</ele>
        <time>2021-05-15T15:55:21Z</time>
      </trkpt>
      <trkpt lat="41.241633" lon="1.805987">
        <ele>30.608</ele>
        <time>2021-05-15T15:55:22Z</time>
      </trkpt>
      <trkpt lat="41.241793" lon="1.805876">
        <ele>30.856</ele>
        <time>2021-05-15T15:55:27Z</time>
      </trkpt>
      <trkpt lat="41.241893" lon="1.805842">
        <ele>31.092</ele>
        <time>2021-05-15T15:55:30Z</time>
      </trkpt>
      <trkpt lat="41.241995" lon="1.805814">
        <ele>31.698</ele>
        <time>2021-05-15T15:55:33Z</time>
      </trkpt>
      <trkpt lat="41.242029" lon="1.805806">
        <ele>31.644</ele>
        <time>2021-05-15T15:55:34Z</time>
      </trkpt>
      <trkpt lat="41.242207" lon="1.805779">
        <ele>32.254</ele>
        <time>2021-05-15T15:55:39Z</time>
      </trkpt>
      <trkpt lat="41.242274" lon="1.805767">
        <ele>32.690</ele>
        <time>2021-05-15T15:55:41Z</time>
      </trkpt>
      <trkpt lat="41.242365" lon="1.805734">
        <ele>33.233</ele>
        <time>2021-05-15T15:55:44Z</time>
      </trkpt>
      <trkpt lat="41.242432" lon="1.805714">
        <ele>33.489</ele>
        <time>2021-05-15T15:55:46Z</time>
      </trkpt>
      <trkpt lat="41.242466" lon="1.805709">
        <ele>33.672</ele>
        <time>2021-05-15T15:55:47Z</time>
      </trkpt>
      <trkpt lat="41.242501" lon="1.805702">
        <ele>33.813</ele>
        <time>2021-05-15T15:55:48Z</time>
      </trkpt>
      <trkpt lat="41.242755" lon="1.805674">
        <ele>35.014</ele>
        <time>2021-05-15T15:55:55Z</time>
      </trkpt>
      <trkpt lat="41.242851" lon="1.805663">
        <ele>35.408</ele>
        <time>2021-05-15T15:55:58Z</time>
      </trkpt>
      <trkpt lat="41.242910" lon="1.805650">
        <ele>36.054</ele>
        <time>2021-05-15T15:56:00Z</time>
      </trkpt>
      <trkpt lat="41.242938" lon="1.805644">
        <ele>36.260</ele>
        <time>2021-05-15T15:56:01Z</time>
      </trkpt>
      <trkpt lat="41.243035" lon="1.805597">
        <ele>37.026</ele>
        <time>2021-05-15T15:56:04Z</time>
      </trkpt>
      <trkpt lat="41.243067" lon="1.805577">
        <ele>37.212</ele>
        <time>2021-05-15T15:56:05Z</time>
      </trkpt>
      <trkpt lat="41.243194" lon="1.805536">
        <ele>38.222</ele>
        <time>2021-05-15T15:56:09Z</time>
      </trkpt>
      <trkpt lat="41.243329" lon="1.805524">
        <ele>38.818</ele>
        <time>2021-05-15T15:56:13Z</time>
      </trkpt>
      <trkpt lat="41.243524" lon="1.805498">
        <ele>39.411</ele>
        <time>2021-05-15T15:56:19Z</time>
      </trkpt>
      <trkpt lat="41.243752" lon="1.805483">
        <ele>40.417</ele>
        <time>2021-05-15T15:56:26Z</time>
      </trkpt>
      <trkpt lat="41.243774" lon="1.805510">
        <ele>40.682</ele>
        <time>2021-05-15T15:56:27Z</time>
      </trkpt>
      <trkpt lat="41.243798" lon="1.805622">
        <ele>41.643</ele>
        <time>2021-05-15T15:56:30Z</time>
      </trkpt>
      <trkpt lat="41.243803" lon="1.805692">
        <ele>41.817</ele>
        <time>2021-05-15T15:56:32Z</time>
      </trkpt>
      <trkpt lat="41.243813" lon="1.805797">
        <ele>42.608</ele>
        <time>2021-05-15T15:56:35Z</time>
      </trkpt>
      <trkpt lat="41.243836" lon="1.805889">
        <ele>43.635</ele>
        <time>2021-05-15T15:56:38Z</time>
      </trkpt>
      <trkpt lat="41.243846" lon="1.805910">
        <ele>44.091</ele>
        <time>2021-05-15T15:56:39Z</time>
      </trkpt>
      <trkpt lat="41.243917" lon="1.805965">
        <ele>45.097</ele>
        <time>2021-05-15T15:56:43Z</time>
      </trkpt>
      <trkpt lat="41.243938" lon="1.805974">
        <ele>45.233</ele>
        <time>2021-05-15T15:56:44Z</time>
      </trkpt>
      <trkpt lat="41.244053" lon="1.806038">
        <ele>46.463</ele>
        <time>2021-05-15T15:56:49Z</time>
      </trkpt>
      <trkpt lat="41.244111" lon="1.806069">
        <ele>47.069</ele>
        <time>2021-05-15T15:56:52Z</time>
      </trkpt>
      <trkpt lat="41.244133" lon="1.806076">
        <ele>47.412</ele>
        <time>2021-05-15T15:56:53Z</time>
      </trkpt>
      <trkpt lat="41.244156" lon="1.806090">
        <ele>47.878</ele>
        <time>2021-05-15T15:56:54Z</time>
      </trkpt>
      <trkpt lat="41.244238" lon="1.806138">
        <ele>48.667</ele>
        <time>2021-05-15T15:56:58Z</time>
      </trkpt>
      <trkpt lat="41.244263" lon="1.806155">
        <ele>48.881</ele>
        <time>2021-05-15T15:56:59Z</time>
      </trkpt>
      <trkpt lat="41.244280" lon="1.806168">
        <ele>49.219</ele>
        <time>2021-05-15T15:57:00Z</time>
      </trkpt>
      <trkpt lat="41.244319" lon="1.806200">
        <ele>49.608</ele>
        <time>2021-05-15T15:57:02Z</time>
      </trkpt>
      <trkpt lat="41.244340" lon="1.806218">
        <ele>50.033</ele>
        <time>2021-05-15T15:57:03Z</time>
      </trkpt>
      <trkpt lat="41.244376" lon="1.806244">
        <ele>50.439</ele>
        <time>2021-05-15T15:57:05Z</time>
      </trkpt>
      <trkpt lat="41.244399" lon="1.806258">
        <ele>50.425</ele>
        <time>2021-05-15T15:57:06Z</time>
      </trkpt>
      <trkpt lat="41.244420" lon="1.806275">
        <ele>50.641</ele>
        <time>2021-05-15T15:57:07Z</time>
      </trkpt>
      <trkpt lat="41.244463" lon="1.806309">
        <ele>51.051</ele>
        <time>2021-05-15T15:57:09Z</time>
      </trkpt>
      <trkpt lat="41.244483" lon="1.806327">
        <ele>51.267</ele>
        <time>2021-05-15T15:57:10Z</time>
      </trkpt>
      <trkpt lat="41.244502" lon="1.806346">
        <ele>51.410</ele>
        <time>2021-05-15T15:57:11Z</time>
      </trkpt>
      <trkpt lat="41.244523" lon="1.806366">
        <ele>51.696</ele>
        <time>2021-05-15T15:57:12Z</time>
      </trkpt>
      <trkpt lat="41.244545" lon="1.806387">
        <ele>51.853</ele>
        <time>2021-05-15T15:57:13Z</time>
      </trkpt>
      <trkpt lat="41.244567" lon="1.806405">
        <ele>52.204</ele>
        <time>2021-05-15T15:57:14Z</time>
      </trkpt>
      <trkpt lat="41.244590" lon="1.806423">
        <ele>52.414</ele>
        <time>2021-05-15T15:57:15Z</time>
      </trkpt>
      <trkpt lat="41.244612" lon="1.806443">
        <ele>52.608</ele>
        <time>2021-05-15T15:57:16Z</time>
      </trkpt>
      <trkpt lat="41.244632" lon="1.806467">
        <ele>52.892</ele>
        <time>2021-05-15T15:57:17Z</time>
      </trkpt>
      <trkpt lat="41.244652" lon="1.806489">
        <ele>53.068</ele>
        <time>2021-05-15T15:57:18Z</time>
      </trkpt>
      <trkpt lat="41.244671" lon="1.806511">
        <ele>53.284</ele>
        <time>2021-05-15T15:57:19Z</time>
      </trkpt>
      <trkpt lat="41.244688" lon="1.806532">
        <ele>53.480</ele>
        <time>2021-05-15T15:57:20Z</time>
      </trkpt>
      <trkpt lat="41.244705" lon="1.806555">
        <ele>53.680</ele>
        <time>2021-05-15T15:57:21Z</time>
      </trkpt>
      <trkpt lat="41.244755" lon="1.806630">
        <ele>54.486</ele>
        <time>2021-05-15T15:57:24Z</time>
      </trkpt>
      <trkpt lat="41.244800" lon="1.806740">
        <ele>55.639</ele>
        <time>2021-05-15T15:57:28Z</time>
      </trkpt>
      <trkpt lat="41.244837" lon="1.806915">
        <ele>56.685</ele>
        <time>2021-05-15T15:57:34Z</time>
      </trkpt>
      <trkpt lat="41.244860" lon="1.806966">
        <ele>56.831</ele>
        <time>2021-05-15T15:57:36Z</time>
      </trkpt>
      <trkpt lat="41.244921" lon="1.807046">
        <ele>57.661</ele>
        <time>2021-05-15T15:57:40Z</time>
      </trkpt>
      <trkpt lat="41.244999" lon="1.807121">
        <ele>58.407</ele>
        <time>2021-05-15T15:57:44Z</time>
      </trkpt>
      <trkpt lat="41.245034" lon="1.807175">
        <ele>58.608</ele>
        <time>2021-05-15T15:57:46Z</time>
      </trkpt>
      <trkpt lat="41.245038" lon="1.807275">
        <ele>59.280</ele>
        <time>2021-05-15T15:57:49Z</time>
      </trkpt>
      <trkpt lat="41.245008" lon="1.807491">
        <ele>59.856</ele>
        <time>2021-05-15T15:57:54Z</time>
      </trkpt>
      <trkpt lat="41.245003" lon="1.807542">
        <ele>59.862</ele>
        <time>2021-05-15T15:57:55Z</time>
      </trkpt>
      <trkpt lat="41.244976" lon="1.808046">
        <ele>60.648</ele>
        <time>2021-05-15T15:58:04Z</time>
      </trkpt>
      <trkpt lat="41.244963" lon="1.808430">
        <ele>60.688</ele>
        <time>2021-05-15T15:58:10Z</time>
      </trkpt>
      <trkpt lat="41.244963" lon="1.808566">
        <ele>60.464</ele>
        <time>2021-05-15T15:58:12Z</time>
      </trkpt>
      <trkpt lat="41.244975" lon="1.808934">
        <ele>60.627</ele>
        <time>2021-05-15T15:58:17Z</time>
      </trkpt>
      <trkpt lat="41.244982" lon="1.809087">
        <ele>60.873</ele>
        <time>2021-05-15T15:58:19Z</time>
      </trkpt>
      <trkpt lat="41.244991" lon="1.809319">
        <ele>60.893</ele>
        <time>2021-05-15T15:58:22Z</time>
      </trkpt>
      <trkpt lat="41.244994" lon="1.809398">
        <ele>60.665</ele>
        <time>2021-05-15T15:58:23Z</time>
      </trkpt>
      <trkpt lat="41.245022" lon="1.809555">
        <ele>60.421</ele>
        <time>2021-05-15T15:58:25Z</time>
      </trkpt>
      <trkpt lat="41.245073" lon="1.809699">
        <ele>60.208</ele>
        <time>2021-05-15T15:58:27Z</time>
      </trkpt>
      <trkpt lat="41.245102" lon="1.809762">
        <ele>60.226</ele>
        <time>2021-05-15T15:58:28Z</time>
      </trkpt>
      <trkpt lat="41.245278" lon="1.810082">
        <ele>61.422</ele>
        <time>2021-05-15T15:58:34Z</time>
      </trkpt>
      <trkpt lat="41.245305" lon="1.810133">
        <ele>62.068</ele>
        <time>2021-05-15T15:58:35Z</time>
      </trkpt>
      <trkpt lat="41.245399" lon="1.810320">
        <ele>63.244</ele>
        <time>2021-05-15T15:58:39Z</time>
      </trkpt>
      <trkpt lat="41.245424" lon="1.810408">
        <ele>63.614</ele>
        <time>2021-05-15T15:58:41Z</time>
      </trkpt>
      <trkpt lat="41.245419" lon="1.810552">
        <ele>63.810</ele>
        <time>2021-05-15T15:58:44Z</time>
      </trkpt>
      <trkpt lat="41.245439" lon="1.810592">
        <ele>63.243</ele>
        <time>2021-05-15T15:58:45Z</time>
      </trkpt>
      <trkpt lat="41.245472" lon="1.810615">
        <ele>63.099</ele>
        <time>2021-05-15T15:58:46Z</time>
      </trkpt>
      <trkpt lat="41.245559" lon="1.810625">
        <ele>62.887</ele>
        <time>2021-05-15T15:58:48Z</time>
      </trkpt>
      <trkpt lat="41.245714" lon="1.810617">
        <ele>63.242</ele>
        <time>2021-05-15T15:58:51Z</time>
      </trkpt>
      <trkpt lat="41.245817" lon="1.810634">
        <ele>63.826</ele>
        <time>2021-05-15T15:58:53Z</time>
      </trkpt>
      <trkpt lat="41.245868" lon="1.810650">
        <ele>63.808</ele>
        <time>2021-05-15T15:58:54Z</time>
      </trkpt>
      <trkpt lat="41.245920" lon="1.810675">
        <ele>64.065</ele>
        <time>2021-05-15T15:58:55Z</time>
      </trkpt>
      <trkpt lat="41.245974" lon="1.810708">
        <ele>64.021</ele>
        <time>2021-05-15T15:58:56Z</time>
      </trkpt>
      <trkpt lat="41.246027" lon="1.810748">
        <ele>64.047</ele>
        <time>2021-05-15T15:58:57Z</time>
      </trkpt>
      <trkpt lat="41.246363" lon="1.810999">
        <ele>62.243</ele>
        <time>2021-05-15T15:59:02Z</time>
      </trkpt>
      <trkpt lat="41.246444" lon="1.811058">
        <ele>61.813</ele>
        <time>2021-05-15T15:59:03Z</time>
      </trkpt>
      <trkpt lat="41.246612" lon="1.811179">
        <ele>60.229</ele>
        <time>2021-05-15T15:59:05Z</time>
      </trkpt>
      <trkpt lat="41.246788" lon="1.811304">
        <ele>59.022</ele>
        <time>2021-05-15T15:59:07Z</time>
      </trkpt>
      <trkpt lat="41.246979" lon="1.811436">
        <ele>58.838</ele>
        <time>2021-05-15T15:59:09Z</time>
      </trkpt>
      <trkpt lat="41.247083" lon="1.811551">
        <ele>58.614</ele>
        <time>2021-05-15T15:59:11Z</time>
      </trkpt>
      <trkpt lat="41.247131" lon="1.811623">
        <ele>58.654</ele>
        <time>2021-05-15T15:59:12Z</time>
      </trkpt>
      <trkpt lat="41.247212" lon="1.811790">
        <ele>58.609</ele>
        <time>2021-05-15T15:59:14Z</time>
      </trkpt>
      <trkpt lat="41.247288" lon="1.811914">
        <ele>58.608</ele>
        <time>2021-05-15T15:59:16Z</time>
      </trkpt>
      <trkpt lat="41.247330" lon="1.811972">
        <ele>58.828</ele>
        <time>2021-05-15T15:59:17Z</time>
      </trkpt>
      <trkpt lat="41.247387" lon="1.812112">
        <ele>58.874</ele>
        <time>2021-05-15T15:59:19Z</time>
      </trkpt>
      <trkpt lat="41.247424" lon="1.812241">
        <ele>59.240</ele>
        <time>2021-05-15T15:59:21Z</time>
      </trkpt>
      <trkpt lat="41.247493" lon="1.812344">
        <ele>59.446</ele>
        <time>2021-05-15T15:59:23Z</time>
      </trkpt>
      <trkpt lat="41.247579" lon="1.812426">
        <ele>59.626</ele>
        <time>2021-05-15T15:59:25Z</time>
      </trkpt>
      <trkpt lat="41.247717" lon="1.812526">
        <ele>60.072</ele>
        <time>2021-05-15T15:59:28Z</time>
      </trkpt>
      <trkpt lat="41.247773" lon="1.812563">
        <ele>60.455</ele>
        <time>2021-05-15T15:59:29Z</time>
      </trkpt>
      <trkpt lat="41.247905" lon="1.812643">
        <ele>61.651</ele>
        <time>2021-05-15T15:59:32Z</time>
      </trkpt>
      <trkpt lat="41.248082" lon="1.812767">
        <ele>62.018</ele>
        <time>2021-05-15T15:59:36Z</time>
      </trkpt>
      <trkpt lat="41.248245" lon="1.812889">
        <ele>62.498</ele>
        <time>2021-05-15T15:59:40Z</time>
      </trkpt>
      <trkpt lat="41.248329" lon="1.812951">
        <ele>62.617</ele>
        <time>2021-05-15T15:59:42Z</time>
      </trkpt>
      <trkpt lat="41.248493" lon="1.813076">
        <ele>63.208</ele>
        <time>2021-05-15T15:59:46Z</time>
      </trkpt>
      <trkpt lat="41.248611" lon="1.813153">
        <ele>63.828</ele>
        <time>2021-05-15T15:59:49Z</time>
      </trkpt>
      <trkpt lat="41.248952" lon="1.813368">
        <ele>64.824</ele>
        <time>2021-05-15T15:59:57Z</time>
      </trkpt>
      <trkpt lat="41.249072" lon="1.813445">
        <ele>65.490</ele>
        <time>2021-05-15T16:00:00Z</time>
      </trkpt>
      <trkpt lat="41.249153" lon="1.813501">
        <ele>65.856</ele>
        <time>2021-05-15T16:00:02Z</time>
      </trkpt>
      <trkpt lat="41.249486" lon="1.813733">
        <ele>67.036</ele>
        <time>2021-05-15T16:00:10Z</time>
      </trkpt>
      <trkpt lat="41.249685" lon="1.813861">
        <ele>68.022</ele>
        <time>2021-05-15T16:00:15Z</time>
      </trkpt>
      <trkpt lat="41.249818" lon="1.813914">
        <ele>68.625</ele>
        <time>2021-05-15T16:00:18Z</time>
      </trkpt>
      <trkpt lat="41.249957" lon="1.813972">
        <ele>69.051</ele>
        <time>2021-05-15T16:00:21Z</time>
      </trkpt>
      <trkpt lat="41.250210" lon="1.814083">
        <ele>70.228</ele>
        <time>2021-05-15T16:00:27Z</time>
      </trkpt>
      <trkpt lat="41.250338" lon="1.814143">
        <ele>70.289</ele>
        <time>2021-05-15T16:00:30Z</time>
      </trkpt>
      <trkpt lat="41.250374" lon="1.814174">
        <ele>70.417</ele>
        <time>2021-05-15T16:00:31Z</time>
      </trkpt>
      <trkpt lat="41.250473" lon="1.814307">
        <ele>70.808</ele>
        <time>2021-05-15T16:00:34Z</time>
      </trkpt>
      <trkpt lat="41.250550" lon="1.814356">
        <ele>70.879</ele>
        <time>2021-05-15T16:00:36Z</time>
      </trkpt>
      <trkpt lat="41.250630" lon="1.814314">
        <ele>71.035</ele>
        <time>2021-05-15T16:00:38Z</time>
      </trkpt>
      <trkpt lat="41.250660" lon="1.814269">
        <ele>71.031</ele>
        <time>2021-05-15T16:00:39Z</time>
      </trkpt>
      <trkpt lat="41.250677" lon="1.814214">
        <ele>71.237</ele>
        <time>2021-05-15T16:00:40Z</time>
      </trkpt>
      <trkpt lat="41.250686" lon="1.814149">
        <ele>71.297</ele>
        <time>2021-05-15T16:00:41Z</time>
      </trkpt>
      <trkpt lat="41.250716" lon="1.814017">
        <ele>71.253</ele>
        <time>2021-05-15T16:00:43Z</time>
      </trkpt>
      <trkpt lat="41.250852" lon="1.813799">
        <ele>71.446</ele>
        <time>2021-05-15T16:00:48Z</time>
      </trkpt>
      <trkpt lat="41.250886" lon="1.813774">
        <ele>71.862</ele>
        <time>2021-05-15T16:00:49Z</time>
      </trkpt>
      <trkpt lat="41.250922" lon="1.813763">
        <ele>72.295</ele>
        <time>2021-05-15T16:00:50Z</time>
      </trkpt>
      <trkpt lat="41.250958" lon="1.813773">
        <ele>72.449</ele>
        <time>2021-05-15T16:00:51Z</time>
      </trkpt>
      <trkpt lat="41.251123" lon="1.813923">
        <ele>73.223</ele>
        <time>2021-05-15T16:00:56Z</time>
      </trkpt>
      <trkpt lat="41.251389" lon="1.814128">
        <ele>74.208</ele>
        <time>2021-05-15T16:01:04Z</time>
      </trkpt>
      <trkpt lat="41.251451" lon="1.814178">
        <ele>74.426</ele>
        <time>2021-05-15T16:01:06Z</time>
      </trkpt>
      <trkpt lat="41.251666" lon="1.814313">
        <ele>75.422</ele>
        <time>2021-05-15T16:01:13Z</time>
      </trkpt>
      <trkpt lat="41.251870" lon="1.814475">
        <ele>76.048</ele>
        <time>2021-05-15T16:01:20Z</time>
      </trkpt>
      <trkpt lat="41.252196" lon="1.814715">
        <ele>76.014</ele>
        <time>2021-05-15T16:01:29Z</time>
      </trkpt>
      <trkpt lat="41.252344" lon="1.814819">
        <ele>76.484</ele>
        <time>2021-05-15T16:01:33Z</time>
      </trkpt>
      <trkpt lat="41.252513" lon="1.814968">
        <ele>76.640</ele>
        <time>2021-05-15T16:01:38Z</time>
      </trkpt>
      <trkpt lat="41.252550" lon="1.814993">
        <ele>76.643</ele>
        <time>2021-05-15T16:01:39Z</time>
      </trkpt>
      <trkpt lat="41.252676" lon="1.815059">
        <ele>76.859</ele>
        <time>2021-05-15T16:01:42Z</time>
      </trkpt>
      <trkpt lat="41.252706" lon="1.815082">
        <ele>77.069</ele>
        <time>2021-05-15T16:01:43Z</time>
      </trkpt>
      <trkpt lat="41.252782" lon="1.815147">
        <ele>77.004</ele>
        <time>2021-05-15T16:01:45Z</time>
      </trkpt>
      <trkpt lat="41.252934" lon="1.815309">
        <ele>77.624</ele>
        <time>2021-05-15T16:01:50Z</time>
      </trkpt>
      <trkpt lat="41.253131" lon="1.815584">
        <ele>78.608</ele>
        <time>2021-05-15T16:01:57Z</time>
      </trkpt>
      <trkpt lat="41.253217" lon="1.815700">
        <ele>78.613</ele>
        <time>2021-05-15T16:02:00Z</time>
      </trkpt>
      <trkpt lat="41.253465" lon="1.815929">
        <ele>79.839</ele>
        <time>2021-05-15T16:02:08Z</time>
      </trkpt>
      <trkpt lat="41.253492" lon="1.815958">
        <ele>80.065</ele>
        <time>2021-05-15T16:02:09Z</time>
      </trkpt>
      <trkpt lat="41.253580" lon="1.816120">
        <ele>80.811</ele>
        <time>2021-05-15T16:02:14Z</time>
      </trkpt>
      <trkpt lat="41.253620" lon="1.816290">
        <ele>81.851</ele>
        <time>2021-05-15T16:02:19Z</time>
      </trkpt>
      <trkpt lat="41.253627" lon="1.816327">
        <ele>82.037</ele>
        <time>2021-05-15T16:02:20Z</time>
      </trkpt>
      <trkpt lat="41.253657" lon="1.816505">
        <ele>83.210</ele>
        <time>2021-05-15T16:02:25Z</time>
      </trkpt>
      <trkpt lat="41.253659" lon="1.816543">
        <ele>83.486</ele>
        <time>2021-05-15T16:02:26Z</time>
      </trkpt>
      <trkpt lat="41.253669" lon="1.816638">
        <ele>84.235</ele>
        <time>2021-05-15T16:02:29Z</time>
      </trkpt>
      <trkpt lat="41.253710" lon="1.816788">
        <ele>85.486</ele>
        <time>2021-05-15T16:02:34Z</time>
      </trkpt>
      <trkpt lat="41.253721" lon="1.816817">
        <ele>85.414</ele>
        <time>2021-05-15T16:02:35Z</time>
      </trkpt>
      <trkpt lat="41.253774" lon="1.816923">
        <ele>86.608</ele>
        <time>2021-05-15T16:02:39Z</time>
      </trkpt>
      <trkpt lat="41.253864" lon="1.817091">
        <ele>87.630</ele>
        <time>2021-05-15T16:02:45Z</time>
      </trkpt>
      <trkpt lat="41.253888" lon="1.817140">
        <ele>88.066</ele>
        <time>2021-05-15T16:02:47Z</time>
      </trkpt>
      <trkpt lat="41.253981" lon="1.817383">
        <ele>88.692</ele>
        <time>2021-05-15T16:02:54Z</time>
      </trkpt>
      <trkpt lat="41.254011" lon="1.817458">
        <ele>88.888</ele>
        <time>2021-05-15T16:02:56Z</time>
      </trkpt>
      <trkpt lat="41.254054" lon="1.817571">
        <ele>89.078</ele>
        <time>2021-05-15T16:02:59Z</time>
      </trkpt>
      <trkpt lat="41.254116" lon="1.817750">
        <ele>89.654</ele>
        <time>2021-05-15T16:03:04Z</time>
      </trkpt>
      <trkpt lat="41.254126" lon="1.817786">
        <ele>89.837</ele>
        <time>2021-05-15T16:03:05Z</time>
      </trkpt>
      <trkpt lat="41.254152" lon="1.818013">
        <ele>90.653</ele>
        <time>2021-05-15T16:03:11Z</time>
      </trkpt>
      <trkpt lat="41.254157" lon="1.818048">
        <ele>90.883</ele>
        <time>2021-05-15T16:03:12Z</time>
      </trkpt>
      <trkpt lat="41.254155" lon="1.818186">
        <ele>91.825</ele>
        <time>2021-05-15T16:03:16Z</time>
      </trkpt>
      <trkpt lat="41.254147" lon="1.818284">
        <ele>92.417</ele>
        <time>2021-05-15T16:03:19Z</time>
      </trkpt>
      <trkpt lat="41.254142" lon="1.818348">
        <ele>93.008</ele>
        <time>2021-05-15T16:03:21Z</time>
      </trkpt>
      <trkpt lat="41.254144" lon="1.818489">
        <ele>94.075</ele>
        <time>2021-05-15T16:03:25Z</time>
      </trkpt>
      <trkpt lat="41.254148" lon="1.818581">
        <ele>94.831</ele>
        <time>2021-05-15T16:03:28Z</time>
      </trkpt>
      <trkpt lat="41.254150" lon="1.818618">
        <ele>95.057</ele>
        <time>2021-05-15T16:03:29Z</time>
      </trkpt>
      <trkpt lat="41.254173" lon="1.818767">
        <ele>96.233</ele>
        <time>2021-05-15T16:03:34Z</time>
      </trkpt>
      <trkpt lat="41.254205" lon="1.818924">
        <ele>97.433</ele>
        <time>2021-05-15T16:03:39Z</time>
      </trkpt>
      <trkpt lat="41.254235" lon="1.819052">
        <ele>98.629</ele>
        <time>2021-05-15T16:03:43Z</time>
      </trkpt>
      <trkpt lat="41.254279" lon="1.819200">
        <ele>99.672</ele>
        <time>2021-05-15T16:03:48Z</time>
      </trkpt>
      <trkpt lat="41.254326" lon="1.819324">
        <ele>100.848</ele>
        <time>2021-05-15T16:03:52Z</time>
      </trkpt>
      <trkpt lat="41.254356" lon="1.819411">
        <ele>101.471</ele>
        <time>2021-05-15T16:03:55Z</time>
      </trkpt>
      <trkpt lat="41.254387" lon="1.819498">
        <ele>102.041</ele>
        <time>2021-05-15T16:03:58Z</time>
      </trkpt>
      <trkpt lat="41.254438" lon="1.819639">
        <ele>103.015</ele>
        <time>2021-05-15T16:04:03Z</time>
      </trkpt>
      <trkpt lat="41.254447" lon="1.819667">
        <ele>103.208</ele>
        <time>2021-05-15T16:04:04Z</time>
      </trkpt>
      <trkpt lat="41.254511" lon="1.819813">
        <ele>104.224</ele>
        <time>2021-05-15T16:04:09Z</time>
      </trkpt>
      <trkpt lat="41.254574" lon="1.819925">
        <ele>105.480</ele>
        <time>2021-05-15T16:04:13Z</time>
      </trkpt>
      <trkpt lat="41.254584" lon="1.819946">
        <ele>105.626</ele>
        <time>2021-05-15T16:04:14Z</time>
      </trkpt>
      <trkpt lat="41.254647" lon="1.820045">
        <ele>106.472</ele>
        <time>2021-05-15T16:04:18Z</time>
      </trkpt>
      <trkpt lat="41.254713" lon="1.820123">
        <ele>107.412</ele>
        <time>2021-05-15T16:04:22Z</time>
      </trkpt>
      <trkpt lat="41.254825" lon="1.820253">
        <ele>108.618</ele>
        <time>2021-05-15T16:04:28Z</time>
      </trkpt>
      <trkpt lat="41.254877" lon="1.820314">
        <ele>109.471</ele>
        <time>2021-05-15T16:04:31Z</time>
      </trkpt>
      <trkpt lat="41.254900" lon="1.820347">
        <ele>109.817</ele>
        <time>2021-05-15T16:04:33Z</time>
      </trkpt>
      <trkpt lat="41.254976" lon="1.820442">
        <ele>111.075</ele>
        <time>2021-05-15T16:04:38Z</time>
      </trkpt>
      <trkpt lat="41.255088" lon="1.820575">
        <ele>111.628</ele>
        <time>2021-05-15T16:04:45Z</time>
      </trkpt>
      <trkpt lat="41.255131" lon="1.820637">
        <ele>112.020</ele>
        <time>2021-05-15T16:04:48Z</time>
      </trkpt>
      <trkpt lat="41.255239" lon="1.820812">
        <ele>113.008</ele>
        <time>2021-05-15T16:04:56Z</time>
      </trkpt>
      <trkpt lat="41.255252" lon="1.820834">
        <ele>113.034</ele>
        <time>2021-05-15T16:04:57Z</time>
      </trkpt>
      <trkpt lat="41.255334" lon="1.820963">
        <ele>114.060</ele>
        <time>2021-05-15T16:05:03Z</time>
      </trkpt>
      <trkpt lat="41.255410" lon="1.821069">
        <ele>114.676</ele>
        <time>2021-05-15T16:05:08Z</time>
      </trkpt>
      <trkpt lat="41.255468" lon="1.821164">
        <ele>115.022</ele>
        <time>2021-05-15T16:05:12Z</time>
      </trkpt>
      <trkpt lat="41.255517" lon="1.821251">
        <ele>115.892</ele>
        <time>2021-05-15T16:05:16Z</time>
      </trkpt>
      <trkpt lat="41.255562" lon="1.821317">
        <ele>116.288</ele>
        <time>2021-05-15T16:05:19Z</time>
      </trkpt>
      <trkpt lat="41.255636" lon="1.821427">
        <ele>117.231</ele>
        <time>2021-05-15T16:05:24Z</time>
      </trkpt>
      <trkpt lat="41.255702" lon="1.821538">
        <ele>118.217</ele>
        <time>2021-05-15T16:05:29Z</time>
      </trkpt>
      <trkpt lat="41.255713" lon="1.821560">
        <ele>118.253</ele>
        <time>2021-05-15T16:05:30Z</time>
      </trkpt>
      <trkpt lat="41.255808" lon="1.821701">
        <ele>119.404</ele>
        <time>2021-05-15T16:05:37Z</time>
      </trkpt>
      <trkpt lat="41.255858" lon="1.821822">
        <ele>120.614</ele>
        <time>2021-05-15T16:05:42Z</time>
      </trkpt>
      <trkpt lat="41.255878" lon="1.821927">
        <ele>121.408</ele>
        <time>2021-05-15T16:05:46Z</time>
      </trkpt>
      <trkpt lat="41.255881" lon="1.821956">
        <ele>121.842</ele>
        <time>2021-05-15T16:05:47Z</time>
      </trkpt>
      <trkpt lat="41.255906" lon="1.822118">
        <ele>122.898</ele>
        <time>2021-05-15T16:05:53Z</time>
      </trkpt>
      <trkpt lat="41.255925" lon="1.822163">
        <ele>123.244</ele>
        <time>2021-05-15T16:05:55Z</time>
      </trkpt>
      <trkpt lat="41.255954" lon="1.822232">
        <ele>124.060</ele>
        <time>2021-05-15T16:05:58Z</time>
      </trkpt>
      <trkpt lat="41.256024" lon="1.822330">
        <ele>125.080</ele>
        <time>2021-05-15T16:06:03Z</time>
      </trkpt>
      <trkpt lat="41.256042" lon="1.822345">
        <ele>125.296</ele>
        <time>2021-05-15T16:06:04Z</time>
      </trkpt>
      <trkpt lat="41.256139" lon="1.822435">
        <ele>126.449</ele>
        <time>2021-05-15T16:06:10Z</time>
      </trkpt>
      <trkpt lat="41.256233" lon="1.822528">
        <ele>127.415</ele>
        <time>2021-05-15T16:06:16Z</time>
      </trkpt>
      <trkpt lat="41.256268" lon="1.822566">
        <ele>127.634</ele>
        <time>2021-05-15T16:06:18Z</time>
      </trkpt>
      <trkpt lat="41.256354" lon="1.822650">
        <ele>128.455</ele>
        <time>2021-05-15T16:06:23Z</time>
      </trkpt>
      <trkpt lat="41.256439" lon="1.822726">
        <ele>129.410</ele>
        <time>2021-05-15T16:06:28Z</time>
      </trkpt>
      <trkpt lat="41.256458" lon="1.822737">
        <ele>129.608</ele>
        <time>2021-05-15T16:06:29Z</time>
      </trkpt>
      <trkpt lat="41.256605" lon="1.822842">
        <ele>130.850</ele>
        <time>2021-05-15T16:06:37Z</time>
      </trkpt>
      <trkpt lat="41.256622" lon="1.822857">
        <ele>131.066</ele>
        <time>2021-05-15T16:06:38Z</time>
      </trkpt>
      <trkpt lat="41.256755" lon="1.822956">
        <ele>131.842</ele>
        <time>2021-05-15T16:06:45Z</time>
      </trkpt>
      <trkpt lat="41.256771" lon="1.822971">
        <ele>131.858</ele>
        <time>2021-05-15T16:06:46Z</time>
      </trkpt>
      <trkpt lat="41.256828" lon="1.823019">
        <ele>132.488</ele>
        <time>2021-05-15T16:06:49Z</time>
      </trkpt>
      <trkpt lat="41.256880" lon="1.823071">
        <ele>132.874</ele>
        <time>2021-05-15T16:06:52Z</time>
      </trkpt>
      <trkpt lat="41.256967" lon="1.823153">
        <ele>133.667</ele>
        <time>2021-05-15T16:06:57Z</time>
      </trkpt>
      <trkpt lat="41.257019" lon="1.823201">
        <ele>134.033</ele>
        <time>2021-05-15T16:07:00Z</time>
      </trkpt>
      <trkpt lat="41.257132" lon="1.823299">
        <ele>135.052</ele>
        <time>2021-05-15T16:07:06Z</time>
      </trkpt>
      <trkpt lat="41.257270" lon="1.823421">
        <ele>136.053</ele>
        <time>2021-05-15T16:07:14Z</time>
      </trkpt>
      <trkpt lat="41.257292" lon="1.823435">
        <ele>136.208</ele>
        <time>2021-05-15T16:07:15Z</time>
      </trkpt>
      <trkpt lat="41.257417" lon="1.823540">
        <ele>137.408</ele>
        <time>2021-05-15T16:07:22Z</time>
      </trkpt>
      <trkpt lat="41.257445" lon="1.823583">
        <ele>137.842</ele>
        <time>2021-05-15T16:07:24Z</time>
      </trkpt>
      <trkpt lat="41.257479" lon="1.823710">
        <ele>138.468</ele>
        <time>2021-05-15T16:07:29Z</time>
      </trkpt>
      <trkpt lat="41.257478" lon="1.823738">
        <ele>138.674</ele>
        <time>2021-05-15T16:07:30Z</time>
      </trkpt>
      <trkpt lat="41.257487" lon="1.823904">
        <ele>139.450</ele>
        <time>2021-05-15T16:07:36Z</time>
      </trkpt>
      <trkpt lat="41.257502" lon="1.823985">
        <ele>140.050</ele>
        <time>2021-05-15T16:07:39Z</time>
      </trkpt>
      <trkpt lat="41.257538" lon="1.824147">
        <ele>140.636</ele>
        <time>2021-05-15T16:07:45Z</time>
      </trkpt>
      <trkpt lat="41.257563" lon="1.824306">
        <ele>141.439</ele>
        <time>2021-05-15T16:07:51Z</time>
      </trkpt>
      <trkpt lat="41.257572" lon="1.824360">
        <ele>141.695</ele>
        <time>2021-05-15T16:07:53Z</time>
      </trkpt>
      <trkpt lat="41.257603" lon="1.824531">
        <ele>142.815</ele>
        <time>2021-05-15T16:07:59Z</time>
      </trkpt>
      <trkpt lat="41.257616" lon="1.824609">
        <ele>143.265</ele>
        <time>2021-05-15T16:08:02Z</time>
      </trkpt>
      <trkpt lat="41.257635" lon="1.824701">
        <ele>144.011</ele>
        <time>2021-05-15T16:08:05Z</time>
      </trkpt>
      <trkpt lat="41.257612" lon="1.824834">
        <ele>145.008</ele>
        <time>2021-05-15T16:08:10Z</time>
      </trkpt>
      <trkpt lat="41.257600" lon="1.824858">
        <ele>145.018</ele>
        <time>2021-05-15T16:08:11Z</time>
      </trkpt>
      <trkpt lat="41.257526" lon="1.824963">
        <ele>146.034</ele>
        <time>2021-05-15T16:08:16Z</time>
      </trkpt>
      <trkpt lat="41.257510" lon="1.824982">
        <ele>146.410</ele>
        <time>2021-05-15T16:08:17Z</time>
      </trkpt>
      <trkpt lat="41.257457" lon="1.825036">
        <ele>147.026</ele>
        <time>2021-05-15T16:08:20Z</time>
      </trkpt>
      <trkpt lat="41.257376" lon="1.825138">
        <ele>148.226</ele>
        <time>2021-05-15T16:08:25Z</time>
      </trkpt>
      <trkpt lat="41.257362" lon="1.825190">
        <ele>148.842</ele>
        <time>2021-05-15T16:08:27Z</time>
      </trkpt>
      <trkpt lat="41.257388" lon="1.825294">
        <ele>149.475</ele>
        <time>2021-05-15T16:08:31Z</time>
      </trkpt>
      <trkpt lat="41.257399" lon="1.825312">
        <ele>149.671</ele>
        <time>2021-05-15T16:08:32Z</time>
      </trkpt>
      <trkpt lat="41.257477" lon="1.825451">
        <ele>150.679</ele>
        <time>2021-05-15T16:08:38Z</time>
      </trkpt>
      <trkpt lat="41.257509" lon="1.825510">
        <ele>151.405</ele>
        <time>2021-05-15T16:08:41Z</time>
      </trkpt>
      <trkpt lat="41.257533" lon="1.825559">
        <ele>152.025</ele>
        <time>2021-05-15T16:08:43Z</time>
      </trkpt>
      <trkpt lat="41.257609" lon="1.825760">
        <ele>153.208</ele>
        <time>2021-05-15T16:08:51Z</time>
      </trkpt>
      <trkpt lat="41.257645" lon="1.825880">
        <ele>154.614</ele>
        <time>2021-05-15T16:08:56Z</time>
      </trkpt>
      <trkpt lat="41.257673" lon="1.825957">
        <ele>155.220</ele>
        <time>2021-05-15T16:08:59Z</time>
      </trkpt>
      <trkpt lat="41.257689" lon="1.826006">
        <ele>155.816</ele>
        <time>2021-05-15T16:09:01Z</time>
      </trkpt>
      <trkpt lat="41.257768" lon="1.826125">
        <ele>156.852</ele>
        <time>2021-05-15T16:09:07Z</time>
      </trkpt>
      <trkpt lat="41.257785" lon="1.826148">
        <ele>157.082</ele>
        <time>2021-05-15T16:09:08Z</time>
      </trkpt>
      <trkpt lat="41.257866" lon="1.826237">
        <ele>158.098</ele>
        <time>2021-05-15T16:09:13Z</time>
      </trkpt>
      <trkpt lat="41.257952" lon="1.826295">
        <ele>159.231</ele>
        <time>2021-05-15T16:09:18Z</time>
      </trkpt>
      <trkpt lat="41.258067" lon="1.826333">
        <ele>160.267</ele>
        <time>2021-05-15T16:09:24Z</time>
      </trkpt>
      <trkpt lat="41.258126" lon="1.826333">
        <ele>160.648</ele>
        <time>2021-05-15T16:09:27Z</time>
      </trkpt>
      <trkpt lat="41.258207" lon="1.826339">
        <ele>161.261</ele>
        <time>2021-05-15T16:09:31Z</time>
      </trkpt>
      <trkpt lat="41.258346" lon="1.826330">
        <ele>162.417</ele>
        <time>2021-05-15T16:09:38Z</time>
      </trkpt>
      <trkpt lat="41.258453" lon="1.826312">
        <ele>163.608</ele>
        <time>2021-05-15T16:09:43Z</time>
      </trkpt>
      <trkpt lat="41.258570" lon="1.826257">
        <ele>165.091</ele>
        <time>2021-05-15T16:09:49Z</time>
      </trkpt>
      <trkpt lat="41.258590" lon="1.826243">
        <ele>165.287</ele>
        <time>2021-05-15T16:09:50Z</time>
      </trkpt>
      <trkpt lat="41.258659" lon="1.826135">
        <ele>166.033</ele>
        <time>2021-05-15T16:09:55Z</time>
      </trkpt>
      <trkpt lat="41.258686" lon="1.826091">
        <ele>166.669</ele>
        <time>2021-05-15T16:09:57Z</time>
      </trkpt>
      <trkpt lat="41.258730" lon="1.826000">
        <ele>167.289</ele>
        <time>2021-05-15T16:10:01Z</time>
      </trkpt>
      <trkpt lat="41.258777" lon="1.825863">
        <ele>167.635</ele>
        <time>2021-05-15T16:10:06Z</time>
      </trkpt>
      <trkpt lat="41.258796" lon="1.825818">
        <ele>168.288</ele>
        <time>2021-05-15T16:10:08Z</time>
      </trkpt>
      <trkpt lat="41.258833" lon="1.825723">
        <ele>169.234</ele>
        <time>2021-05-15T16:10:12Z</time>
      </trkpt>
      <trkpt lat="41.258842" lon="1.825697">
        <ele>169.493</ele>
        <time>2021-05-15T16:10:13Z</time>
      </trkpt>
      <trkpt lat="41.258914" lon="1.825628">
        <ele>170.465</ele>
        <time>2021-05-15T16:10:18Z</time>
      </trkpt>
      <trkpt lat="41.258984" lon="1.825604">
        <ele>171.421</ele>
        <time>2021-05-15T16:10:22Z</time>
      </trkpt>
      <trkpt lat="41.259039" lon="1.825612">
        <ele>172.408</ele>
        <time>2021-05-15T16:10:25Z</time>
      </trkpt>
      <trkpt lat="41.259106" lon="1.825654">
        <ele>173.666</ele>
        <time>2021-05-15T16:10:30Z</time>
      </trkpt>
      <trkpt lat="41.259142" lon="1.825670">
        <ele>173.862</ele>
        <time>2021-05-15T16:10:32Z</time>
      </trkpt>
      <trkpt lat="41.259244" lon="1.825718">
        <ele>174.618</ele>
        <time>2021-05-15T16:10:38Z</time>
      </trkpt>
      <trkpt lat="41.259260" lon="1.825729">
        <ele>174.874</ele>
        <time>2021-05-15T16:10:39Z</time>
      </trkpt>
      <trkpt lat="41.259378" lon="1.825809">
        <ele>175.674</ele>
        <time>2021-05-15T16:10:46Z</time>
      </trkpt>
      <trkpt lat="41.259454" lon="1.825871">
        <ele>176.890</ele>
        <time>2021-05-15T16:10:51Z</time>
      </trkpt>
      <trkpt lat="41.259467" lon="1.825884">
        <ele>177.073</ele>
        <time>2021-05-15T16:10:52Z</time>
      </trkpt>
      <trkpt lat="41.259548" lon="1.825976">
        <ele>177.889</ele>
        <time>2021-05-15T16:10:58Z</time>
      </trkpt>
      <trkpt lat="41.259591" lon="1.826033">
        <ele>178.489</ele>
        <time>2021-05-15T16:11:01Z</time>
      </trkpt>
      <trkpt lat="41.259616" lon="1.826074">
        <ele>179.006</ele>
        <time>2021-05-15T16:11:03Z</time>
      </trkpt>
      <trkpt lat="41.259679" lon="1.826199">
        <ele>180.026</ele>
        <time>2021-05-15T16:11:09Z</time>
      </trkpt>
      <trkpt lat="41.259724" lon="1.826277">
        <ele>180.808</ele>
        <time>2021-05-15T16:11:13Z</time>
      </trkpt>
      <trkpt lat="41.259747" lon="1.826314">
        <ele>181.255</ele>
        <time>2021-05-15T16:11:15Z</time>
      </trkpt>
      <trkpt lat="41.259822" lon="1.826450">
        <ele>182.491</ele>
        <time>2021-05-15T16:11:22Z</time>
      </trkpt>
      <trkpt lat="41.259850" lon="1.826511">
        <ele>182.687</ele>
        <time>2021-05-15T16:11:25Z</time>
      </trkpt>
      <trkpt lat="41.259878" lon="1.826573">
        <ele>183.463</ele>
        <time>2021-05-15T16:11:28Z</time>
      </trkpt>
      <trkpt lat="41.259927" lon="1.826674">
        <ele>184.653</ele>
        <time>2021-05-15T16:11:33Z</time>
      </trkpt>
      <trkpt lat="41.259938" lon="1.826694">
        <ele>184.819</ele>
        <time>2021-05-15T16:11:34Z</time>
      </trkpt>
      <trkpt lat="41.259986" lon="1.826769">
        <ele>185.852</ele>
        <time>2021-05-15T16:11:38Z</time>
      </trkpt>
      <trkpt lat="41.260055" lon="1.826856">
        <ele>186.828</ele>
        <time>2021-05-15T16:11:43Z</time>
      </trkpt>
      <trkpt lat="41.260071" lon="1.826867">
        <ele>187.066</ele>
        <time>2021-05-15T16:11:44Z</time>
      </trkpt>
      <trkpt lat="41.260155" lon="1.826931">
        <ele>188.029</ele>
        <time>2021-05-15T16:11:49Z</time>
      </trkpt>
      <trkpt lat="41.260224" lon="1.826987">
        <ele>188.421</ele>
        <time>2021-05-15T16:11:53Z</time>
      </trkpt>
      <trkpt lat="41.260271" lon="1.827023">
        <ele>189.008</ele>
        <time>2021-05-15T16:11:56Z</time>
      </trkpt>
      <trkpt lat="41.260353" lon="1.827083">
        <ele>189.813</ele>
        <time>2021-05-15T16:12:01Z</time>
      </trkpt>
      <trkpt lat="41.260368" lon="1.827094">
        <ele>190.099</ele>
        <time>2021-05-15T16:12:02Z</time>
      </trkpt>
      <trkpt lat="41.260485" lon="1.827206">
        <ele>191.085</ele>
        <time>2021-05-15T16:12:10Z</time>
      </trkpt>
      <trkpt lat="41.260634" lon="1.827344">
        <ele>192.221</ele>
        <time>2021-05-15T16:12:20Z</time>
      </trkpt>
      <trkpt lat="41.260731" lon="1.827398">
        <ele>193.291</ele>
        <time>2021-05-15T16:12:26Z</time>
      </trkpt>
      <trkpt lat="41.260745" lon="1.827409">
        <ele>193.637</ele>
        <time>2021-05-15T16:12:27Z</time>
      </trkpt>
      <trkpt lat="41.260820" lon="1.827451">
        <ele>194.480</ele>
        <time>2021-05-15T16:12:32Z</time>
      </trkpt>
      <trkpt lat="41.260873" lon="1.827469">
        <ele>195.466</ele>
        <time>2021-05-15T16:12:36Z</time>
      </trkpt>
      <trkpt lat="41.260887" lon="1.827478">
        <ele>195.424</ele>
        <time>2021-05-15T16:12:37Z</time>
      </trkpt>
      <trkpt lat="41.261018" lon="1.827527">
        <ele>196.604</ele>
        <time>2021-05-15T16:12:44Z</time>
      </trkpt>
      <trkpt lat="41.261167" lon="1.827608">
        <ele>197.614</ele>
        <time>2021-05-15T16:12:51Z</time>
      </trkpt>
      <trkpt lat="41.261192" lon="1.827627">
        <ele>198.008</ele>
        <time>2021-05-15T16:12:52Z</time>
      </trkpt>
      <trkpt lat="41.261322" lon="1.827742">
        <ele>198.899</ele>
        <time>2021-05-15T16:12:58Z</time>
      </trkpt>
      <trkpt lat="41.261416" lon="1.827841">
        <ele>199.425</ele>
        <time>2021-05-15T16:13:03Z</time>
      </trkpt>
      <trkpt lat="41.261460" lon="1.827875">
        <ele>199.831</ele>
        <time>2021-05-15T16:13:05Z</time>
      </trkpt>
      <trkpt lat="41.261620" lon="1.827992">
        <ele>201.077</ele>
        <time>2021-05-15T16:13:13Z</time>
      </trkpt>
      <trkpt lat="41.261644" lon="1.828011">
        <ele>201.237</ele>
        <time>2021-05-15T16:13:14Z</time>
      </trkpt>
      <trkpt lat="41.261739" lon="1.828082">
        <ele>202.263</ele>
        <time>2021-05-15T16:13:19Z</time>
      </trkpt>
      <trkpt lat="41.261812" lon="1.828144">
        <ele>202.846</ele>
        <time>2021-05-15T16:13:23Z</time>
      </trkpt>
      <trkpt lat="41.261846" lon="1.828179">
        <ele>203.292</ele>
        <time>2021-05-15T16:13:25Z</time>
      </trkpt>
      <trkpt lat="41.261941" lon="1.828301">
        <ele>204.295</ele>
        <time>2021-05-15T16:13:31Z</time>
      </trkpt>
      <trkpt lat="41.261979" lon="1.828368">
        <ele>204.649</ele>
        <time>2021-05-15T16:13:34Z</time>
      </trkpt>
      <trkpt lat="41.262001" lon="1.828474">
        <ele>205.423</ele>
        <time>2021-05-15T16:13:38Z</time>
      </trkpt>
      <trkpt lat="41.262014" lon="1.828557">
        <ele>205.608</ele>
        <time>2021-05-15T16:13:41Z</time>
      </trkpt>
      <trkpt lat="41.262057" lon="1.828719">
        <ele>206.456</ele>
        <time>2021-05-15T16:13:47Z</time>
      </trkpt>
      <trkpt lat="41.262073" lon="1.828781">
        <ele>206.682</ele>
        <time>2021-05-15T16:13:49Z</time>
      </trkpt>
      <trkpt lat="41.262132" lon="1.829017">
        <ele>207.418</ele>
        <time>2021-05-15T16:13:56Z</time>
      </trkpt>
      <trkpt lat="41.262164" lon="1.829115">
        <ele>208.014</ele>
        <time>2021-05-15T16:13:59Z</time>
      </trkpt>
      <trkpt lat="41.262245" lon="1.829299">
        <ele>208.624</ele>
        <time>2021-05-15T16:14:05Z</time>
      </trkpt>
      <trkpt lat="41.262278" lon="1.829365">
        <ele>209.060</ele>
        <time>2021-05-15T16:14:07Z</time>
      </trkpt>
      <trkpt lat="41.262324" lon="1.829526">
        <ele>209.613</ele>
        <time>2021-05-15T16:14:12Z</time>
      </trkpt>
      <trkpt lat="41.262333" lon="1.829637">
        <ele>209.899</ele>
        <time>2021-05-15T16:14:15Z</time>
      </trkpt>
      <trkpt lat="41.262324" lon="1.829854">
        <ele>210.631</ele>
        <time>2021-05-15T16:14:21Z</time>
      </trkpt>
      <trkpt lat="41.262306" lon="1.829927">
        <ele>210.861</ele>
        <time>2021-05-15T16:14:23Z</time>
      </trkpt>
      <trkpt lat="41.262206" lon="1.830204">
        <ele>211.607</ele>
        <time>2021-05-15T16:14:30Z</time>
      </trkpt>
      <trkpt lat="41.262140" lon="1.830515">
        <ele>212.608</ele>
        <time>2021-05-15T16:14:37Z</time>
      </trkpt>
      <trkpt lat="41.262119" lon="1.830568">
        <ele>212.880</ele>
        <time>2021-05-15T16:14:38Z</time>
      </trkpt>
      <trkpt lat="41.262013" lon="1.830888">
        <ele>213.626</ele>
        <time>2021-05-15T16:14:45Z</time>
      </trkpt>
      <trkpt lat="41.261999" lon="1.830931">
        <ele>213.852</ele>
        <time>2021-05-15T16:14:46Z</time>
      </trkpt>
      <trkpt lat="41.261903" lon="1.831176">
        <ele>214.828</ele>
        <time>2021-05-15T16:14:52Z</time>
      </trkpt>
      <trkpt lat="41.261853" lon="1.831297">
        <ele>215.098</ele>
        <time>2021-05-15T16:14:55Z</time>
      </trkpt>
      <trkpt lat="41.261770" lon="1.831480">
        <ele>215.844</ele>
        <time>2021-05-15T16:15:00Z</time>
      </trkpt>
      <trkpt lat="41.261698" lon="1.831717">
        <ele>216.097</ele>
        <time>2021-05-15T16:15:05Z</time>
      </trkpt>
      <trkpt lat="41.261702" lon="1.831828">
        <ele>216.053</ele>
        <time>2021-05-15T16:15:07Z</time>
      </trkpt>
      <trkpt lat="41.261752" lon="1.831931">
        <ele>216.046</ele>
        <time>2021-05-15T16:15:09Z</time>
      </trkpt>
      <trkpt lat="41.261811" lon="1.832005">
        <ele>216.288</ele>
        <time>2021-05-15T16:15:11Z</time>
      </trkpt>
      <trkpt lat="41.261925" lon="1.832110">
        <ele>216.416</ele>
        <time>2021-05-15T16:15:14Z</time>
      </trkpt>
      <trkpt lat="41.261951" lon="1.832141">
        <ele>216.408</ele>
        <time>2021-05-15T16:15:15Z</time>
      </trkpt>
      <trkpt lat="41.261989" lon="1.832178">
        <ele>216.411</ele>
        <time>2021-05-15T16:15:16Z</time>
      </trkpt>
      <trkpt lat="41.262080" lon="1.832251">
        <ele>216.697</ele>
        <time>2021-05-15T16:15:18Z</time>
      </trkpt>
      <trkpt lat="41.262145" lon="1.832279">
        <ele>216.893</ele>
        <time>2021-05-15T16:15:20Z</time>
      </trkpt>
      <trkpt lat="41.262211" lon="1.832275">
        <ele>217.099</ele>
        <time>2021-05-15T16:15:22Z</time>
      </trkpt>
      <trkpt lat="41.262250" lon="1.832267">
        <ele>217.019</ele>
        <time>2021-05-15T16:15:23Z</time>
      </trkpt>
      <trkpt lat="41.262313" lon="1.832248">
        <ele>217.625</ele>
        <time>2021-05-15T16:15:25Z</time>
      </trkpt>
      <trkpt lat="41.262457" lon="1.832209">
        <ele>218.048</ele>
        <time>2021-05-15T16:15:29Z</time>
      </trkpt>
      <trkpt lat="41.262563" lon="1.832197">
        <ele>219.024</ele>
        <time>2021-05-15T16:15:32Z</time>
      </trkpt>
      <trkpt lat="41.262591" lon="1.832189">
        <ele>219.221</ele>
        <time>2021-05-15T16:15:33Z</time>
      </trkpt>
      <trkpt lat="41.262676" lon="1.832161">
        <ele>220.241</ele>
        <time>2021-05-15T16:15:36Z</time>
      </trkpt>
      <trkpt lat="41.262706" lon="1.832153">
        <ele>220.605</ele>
        <time>2021-05-15T16:15:37Z</time>
      </trkpt>
      <trkpt lat="41.262735" lon="1.832152">
        <ele>220.808</ele>
        <time>2021-05-15T16:15:38Z</time>
      </trkpt>
      <trkpt lat="41.262916" lon="1.832155">
        <ele>221.669</ele>
        <time>2021-05-15T16:15:44Z</time>
      </trkpt>
      <trkpt lat="41.262973" lon="1.832177">
        <ele>222.225</ele>
        <time>2021-05-15T16:15:46Z</time>
      </trkpt>
      <trkpt lat="41.263027" lon="1.832206">
        <ele>222.831</ele>
        <time>2021-05-15T16:15:48Z</time>
      </trkpt>
      <trkpt lat="41.263133" lon="1.832291">
        <ele>224.097</ele>
        <time>2021-05-15T16:15:52Z</time>
      </trkpt>
      <trkpt lat="41.263177" lon="1.832337">
        <ele>224.467</ele>
        <time>2021-05-15T16:15:54Z</time>
      </trkpt>
      <trkpt lat="41.263217" lon="1.832398">
        <ele>224.823</ele>
        <time>2021-05-15T16:15:56Z</time>
      </trkpt>
      <trkpt lat="41.263241" lon="1.832439">
        <ele>225.016</ele>
        <time>2021-05-15T16:15:57Z</time>
      </trkpt>
      <trkpt lat="41.263280" lon="1.832545">
        <ele>225.612</ele>
        <time>2021-05-15T16:16:00Z</time>
      </trkpt>
      <trkpt lat="41.263287" lon="1.832716">
        <ele>226.291</ele>
        <time>2021-05-15T16:16:04Z</time>
      </trkpt>
      <trkpt lat="41.263282" lon="1.832747">
        <ele>226.281</ele>
        <time>2021-05-15T16:16:05Z</time>
      </trkpt>
      <trkpt lat="41.263212" lon="1.832940">
        <ele>226.819</ele>
        <time>2021-05-15T16:16:10Z</time>
      </trkpt>
      <trkpt lat="41.263191" lon="1.832981">
        <ele>226.808</ele>
        <time>2021-05-15T16:16:11Z</time>
      </trkpt>
      <trkpt lat="41.263133" lon="1.833117">
        <ele>227.296</ele>
        <time>2021-05-15T16:16:14Z</time>
      </trkpt>
      <trkpt lat="41.263048" lon="1.833267">
        <ele>227.292</ele>
        <time>2021-05-15T16:16:17Z</time>
      </trkpt>
      <trkpt lat="41.262836" lon="1.833624">
        <ele>226.838</ele>
        <time>2021-05-15T16:16:24Z</time>
      </trkpt>
      <trkpt lat="41.262807" lon="1.833681">
        <ele>226.834</ele>
        <time>2021-05-15T16:16:25Z</time>
      </trkpt>
      <trkpt lat="41.262764" lon="1.833815">
        <ele>226.684</ele>
        <time>2021-05-15T16:16:27Z</time>
      </trkpt>
      <trkpt lat="41.262756" lon="1.833887">
        <ele>226.660</ele>
        <time>2021-05-15T16:16:28Z</time>
      </trkpt>
      <trkpt lat="41.262760" lon="1.833960">
        <ele>226.693</ele>
        <time>2021-05-15T16:16:29Z</time>
      </trkpt>
      <trkpt lat="41.262795" lon="1.834103">
        <ele>227.069</ele>
        <time>2021-05-15T16:16:31Z</time>
      </trkpt>
      <trkpt lat="41.262822" lon="1.834169">
        <ele>227.257</ele>
        <time>2021-05-15T16:16:32Z</time>
      </trkpt>
      <trkpt lat="41.262972" lon="1.834467">
        <ele>227.000</ele>
        <time>2021-05-15T16:16:37Z</time>
      </trkpt>
      <trkpt lat="41.263083" lon="1.834664">
        <ele>227.220</ele>
        <time>2021-05-15T16:16:41Z</time>
      </trkpt>
      <trkpt lat="41.263226" lon="1.834949">
        <ele>227.408</ele>
        <time>2021-05-15T16:16:47Z</time>
      </trkpt>
      <trkpt lat="41.263250" lon="1.834998">
        <ele>227.422</ele>
        <time>2021-05-15T16:16:48Z</time>
      </trkpt>
      <trkpt lat="41.263359" lon="1.835171">
        <ele>228.038</ele>
        <time>2021-05-15T16:16:52Z</time>
      </trkpt>
      <trkpt lat="41.263386" lon="1.835220">
        <ele>228.224</ele>
        <time>2021-05-15T16:16:53Z</time>
      </trkpt>
      <trkpt lat="41.263426" lon="1.835292">
        <ele>228.850</ele>
        <time>2021-05-15T16:16:55Z</time>
      </trkpt>
      <trkpt lat="41.263473" lon="1.835376">
        <ele>229.430</ele>
        <time>2021-05-15T16:16:57Z</time>
      </trkpt>
      <trkpt lat="41.263592" lon="1.835548">
        <ele>230.626</ele>
        <time>2021-05-15T16:17:03Z</time>
      </trkpt>
      <trkpt lat="41.263707" lon="1.835646">
        <ele>231.629</ele>
        <time>2021-05-15T16:17:08Z</time>
      </trkpt>
      <trkpt lat="41.263736" lon="1.835649">
        <ele>231.835</ele>
        <time>2021-05-15T16:17:09Z</time>
      </trkpt>
      <trkpt lat="41.263848" lon="1.835621">
        <ele>232.878</ele>
        <time>2021-05-15T16:17:13Z</time>
      </trkpt>
      <trkpt lat="41.263903" lon="1.835598">
        <ele>233.633</ele>
        <time>2021-05-15T16:17:15Z</time>
      </trkpt>
      <trkpt lat="41.263960" lon="1.835577">
        <ele>234.026</ele>
        <time>2021-05-15T16:17:17Z</time>
      </trkpt>
      <trkpt lat="41.263982" lon="1.835574">
        <ele>234.208</ele>
        <time>2021-05-15T16:17:18Z</time>
      </trkpt>
      <trkpt lat="41.264027" lon="1.835580">
        <ele>234.884</ele>
        <time>2021-05-15T16:17:20Z</time>
      </trkpt>
      <trkpt lat="41.264079" lon="1.835594">
        <ele>235.090</ele>
        <time>2021-05-15T16:17:22Z</time>
      </trkpt>
      <trkpt lat="41.264109" lon="1.835602">
        <ele>235.016</ele>
        <time>2021-05-15T16:17:23Z</time>
      </trkpt>
      <trkpt lat="41.264223" lon="1.835656">
        <ele>236.052</ele>
        <time>2021-05-15T16:17:28Z</time>
      </trkpt>
      <trkpt lat="41.264246" lon="1.835666">
        <ele>236.222</ele>
        <time>2021-05-15T16:17:29Z</time>
      </trkpt>
      <trkpt lat="41.264374" lon="1.835767">
        <ele>237.478</ele>
        <time>2021-05-15T16:17:35Z</time>
      </trkpt>
      <trkpt lat="41.264417" lon="1.835916">
        <ele>238.471</ele>
        <time>2021-05-15T16:17:40Z</time>
      </trkpt>
      <trkpt lat="41.264422" lon="1.835955">
        <ele>238.637</ele>
        <time>2021-05-15T16:17:41Z</time>
      </trkpt>
      <trkpt lat="41.264460" lon="1.836157">
        <ele>239.612</ele>
        <time>2021-05-15T16:17:47Z</time>
      </trkpt>
      <trkpt lat="41.264489" lon="1.836287">
        <ele>240.232</ele>
        <time>2021-05-15T16:17:51Z</time>
      </trkpt>
      <trkpt lat="41.264515" lon="1.836346">
        <ele>240.605</ele>
        <time>2021-05-15T16:17:53Z</time>
      </trkpt>
      <trkpt lat="41.264597" lon="1.836533">
        <ele>241.408</ele>
        <time>2021-05-15T16:17:59Z</time>
      </trkpt>
      <trkpt lat="41.264647" lon="1.836638">
        <ele>241.888</ele>
        <time>2021-05-15T16:18:02Z</time>
      </trkpt>
      <trkpt lat="41.264752" lon="1.836857">
        <ele>242.434</ele>
        <time>2021-05-15T16:18:08Z</time>
      </trkpt>
      <trkpt lat="41.264869" lon="1.837089">
        <ele>242.270</ele>
        <time>2021-05-15T16:18:14Z</time>
      </trkpt>
      <trkpt lat="41.264922" lon="1.837182">
        <ele>242.256</ele>
        <time>2021-05-15T16:18:16Z</time>
      </trkpt>
      <trkpt lat="41.265126" lon="1.837599">
        <ele>242.666</ele>
        <time>2021-05-15T16:18:25Z</time>
      </trkpt>
      <trkpt lat="41.265161" lon="1.837659">
        <ele>242.632</ele>
        <time>2021-05-15T16:18:26Z</time>
      </trkpt>
      <trkpt lat="41.265187" lon="1.837696">
        <ele>242.615</ele>
        <time>2021-05-15T16:18:27Z</time>
      </trkpt>
      <trkpt lat="41.265275" lon="1.837772">
        <ele>242.431</ele>
        <time>2021-05-15T16:18:29Z</time>
      </trkpt>
      <trkpt lat="41.265329" lon="1.837796">
        <ele>242.033</ele>
        <time>2021-05-15T16:18:30Z</time>
      </trkpt>
      <trkpt lat="41.265398" lon="1.837811">
        <ele>241.823</ele>
        <time>2021-05-15T16:18:31Z</time>
      </trkpt>
      <trkpt lat="41.265567" lon="1.837779">
        <ele>241.015</ele>
        <time>2021-05-15T16:18:34Z</time>
      </trkpt>
      <trkpt lat="41.265682" lon="1.837753">
        <ele>240.808</ele>
        <time>2021-05-15T16:18:36Z</time>
      </trkpt>
      <trkpt lat="41.265786" lon="1.837823">
        <ele>240.890</ele>
        <time>2021-05-15T16:18:38Z</time>
      </trkpt>
      <trkpt lat="41.265838" lon="1.838029">
        <ele>240.886</ele>
        <time>2021-05-15T16:18:41Z</time>
      </trkpt>
      <trkpt lat="41.265863" lon="1.838360">
        <ele>241.252</ele>
        <time>2021-05-15T16:18:46Z</time>
      </trkpt>
      <trkpt lat="41.265914" lon="1.838641">
        <ele>242.098</ele>
        <time>2021-05-15T16:18:51Z</time>
      </trkpt>
      <trkpt lat="41.266041" lon="1.838969">
        <ele>242.878</ele>
        <time>2021-05-15T16:18:58Z</time>
      </trkpt>
      <trkpt lat="41.266067" lon="1.839013">
        <ele>242.874</ele>
        <time>2021-05-15T16:18:59Z</time>
      </trkpt>
      <trkpt lat="41.266301" lon="1.839423">
        <ele>243.247</ele>
        <time>2021-05-15T16:19:07Z</time>
      </trkpt>
      <trkpt lat="41.266376" lon="1.839526">
        <ele>243.473</ele>
        <time>2021-05-15T16:19:09Z</time>
      </trkpt>
      <trkpt lat="41.266520" lon="1.839661">
        <ele>243.497</ele>
        <time>2021-05-15T16:19:12Z</time>
      </trkpt>
      <trkpt lat="41.266800" lon="1.839784">
        <ele>243.023</ele>
        <time>2021-05-15T16:19:17Z</time>
      </trkpt>
      <trkpt lat="41.267278" lon="1.839929">
        <ele>243.225</ele>
        <time>2021-05-15T16:19:25Z</time>
      </trkpt>
      <trkpt lat="41.267328" lon="1.839957">
        <ele>243.208</ele>
        <time>2021-05-15T16:19:26Z</time>
      </trkpt>
      <trkpt lat="41.267422" lon="1.840015">
        <ele>243.846</ele>
        <time>2021-05-15T16:19:28Z</time>
      </trkpt>
      <trkpt lat="41.267637" lon="1.840162">
        <ele>244.892</ele>
        <time>2021-05-15T16:19:33Z</time>
      </trkpt>
      <trkpt lat="41.267861" lon="1.840383">
        <ele>246.018</ele>
        <time>2021-05-15T16:19:40Z</time>
      </trkpt>
      <trkpt lat="41.267899" lon="1.840491">
        <ele>246.444</ele>
        <time>2021-05-15T16:19:42Z</time>
      </trkpt>
      <trkpt lat="41.267901" lon="1.840592">
        <ele>247.274</ele>
        <time>2021-05-15T16:19:44Z</time>
      </trkpt>
      <trkpt lat="41.267884" lon="1.840782">
        <ele>248.280</ele>
        <time>2021-05-15T16:19:48Z</time>
      </trkpt>
      <trkpt lat="41.267869" lon="1.840954">
        <ele>249.263</ele>
        <time>2021-05-15T16:19:52Z</time>
      </trkpt>
      <trkpt lat="41.267864" lon="1.841005">
        <ele>249.449</ele>
        <time>2021-05-15T16:19:53Z</time>
      </trkpt>
      <trkpt lat="41.267855" lon="1.841206">
        <ele>250.655</ele>
        <time>2021-05-15T16:19:58Z</time>
      </trkpt>
      <trkpt lat="41.267856" lon="1.841281">
        <ele>251.007</ele>
        <time>2021-05-15T16:20:00Z</time>
      </trkpt>
      <trkpt lat="41.267881" lon="1.841479">
        <ele>251.617</ele>
        <time>2021-05-15T16:20:05Z</time>
      </trkpt>
      <trkpt lat="41.267888" lon="1.841515">
        <ele>251.808</ele>
        <time>2021-05-15T16:20:06Z</time>
      </trkpt>
      <trkpt lat="41.267911" lon="1.841582">
        <ele>252.232</ele>
        <time>2021-05-15T16:20:08Z</time>
      </trkpt>
      <trkpt lat="41.267969" lon="1.841656">
        <ele>252.838</ele>
        <time>2021-05-15T16:20:11Z</time>
      </trkpt>
      <trkpt lat="41.268019" lon="1.841676">
        <ele>253.254</ele>
        <time>2021-05-15T16:20:13Z</time>
      </trkpt>
      <trkpt lat="41.268136" lon="1.841647">
        <ele>254.060</ele>
        <time>2021-05-15T16:20:17Z</time>
      </trkpt>
      <trkpt lat="41.268176" lon="1.841631">
        <ele>254.060</ele>
        <time>2021-05-15T16:20:18Z</time>
      </trkpt>
      <trkpt lat="41.268371" lon="1.841561">
        <ele>253.846</ele>
        <time>2021-05-15T16:20:22Z</time>
      </trkpt>
      <trkpt lat="41.268427" lon="1.841544">
        <ele>253.629</ele>
        <time>2021-05-15T16:20:23Z</time>
      </trkpt>
      <trkpt lat="41.268611" lon="1.841499">
        <ele>253.275</ele>
        <time>2021-05-15T16:20:26Z</time>
      </trkpt>
      <trkpt lat="41.268677" lon="1.841501">
        <ele>252.896</ele>
        <time>2021-05-15T16:20:27Z</time>
      </trkpt>
      <trkpt lat="41.268744" lon="1.841503">
        <ele>252.631</ele>
        <time>2021-05-15T16:20:28Z</time>
      </trkpt>
      <trkpt lat="41.269024" lon="1.841526">
        <ele>251.624</ele>
        <time>2021-05-15T16:20:32Z</time>
      </trkpt>
      <trkpt lat="41.269100" lon="1.841535">
        <ele>251.608</ele>
        <time>2021-05-15T16:20:33Z</time>
      </trkpt>
      <trkpt lat="41.269332" lon="1.841575">
        <ele>251.216</ele>
        <time>2021-05-15T16:20:36Z</time>
      </trkpt>
      <trkpt lat="41.269522" lon="1.841629">
        <ele>250.662</ele>
        <time>2021-05-15T16:20:39Z</time>
      </trkpt>
      <trkpt lat="41.269589" lon="1.841647">
        <ele>250.498</ele>
        <time>2021-05-15T16:20:40Z</time>
      </trkpt>
      <trkpt lat="41.269862" lon="1.841666">
        <ele>249.464</ele>
        <time>2021-05-15T16:20:44Z</time>
      </trkpt>
      <trkpt lat="41.270010" lon="1.841673">
        <ele>248.664</ele>
        <time>2021-05-15T16:20:46Z</time>
      </trkpt>
      <trkpt lat="41.270083" lon="1.841671">
        <ele>248.230</ele>
        <time>2021-05-15T16:20:47Z</time>
      </trkpt>
      <trkpt lat="41.270302" lon="1.841653">
        <ele>247.453</ele>
        <time>2021-05-15T16:20:50Z</time>
      </trkpt>
      <trkpt lat="41.270370" lon="1.841629">
        <ele>247.069</ele>
        <time>2021-05-15T16:20:51Z</time>
      </trkpt>
      <trkpt lat="41.270513" lon="1.841567">
        <ele>246.421</ele>
        <time>2021-05-15T16:20:53Z</time>
      </trkpt>
      <trkpt lat="41.270640" lon="1.841586">
        <ele>245.641</ele>
        <time>2021-05-15T16:20:55Z</time>
      </trkpt>
      <trkpt lat="41.270754" lon="1.841685">
        <ele>244.605</ele>
        <time>2021-05-15T16:20:57Z</time>
      </trkpt>
      <trkpt lat="41.270805" lon="1.841744">
        <ele>244.008</ele>
        <time>2021-05-15T16:20:58Z</time>
      </trkpt>
      <trkpt lat="41.270851" lon="1.841811">
        <ele>243.879</ele>
        <time>2021-05-15T16:20:59Z</time>
      </trkpt>
      <trkpt lat="41.270958" lon="1.842035">
        <ele>243.685</ele>
        <time>2021-05-15T16:21:02Z</time>
      </trkpt>
      <trkpt lat="41.271005" lon="1.842201">
        <ele>243.491</ele>
        <time>2021-05-15T16:21:04Z</time>
      </trkpt>
      <trkpt lat="41.271053" lon="1.842366">
        <ele>243.237</ele>
        <time>2021-05-15T16:21:06Z</time>
      </trkpt>
      <trkpt lat="41.271072" lon="1.842455">
        <ele>243.227</ele>
        <time>2021-05-15T16:21:07Z</time>
      </trkpt>
      <trkpt lat="41.271092" lon="1.842715">
        <ele>243.283</ele>
        <time>2021-05-15T16:21:10Z</time>
      </trkpt>
      <trkpt lat="41.271128" lon="1.843092">
        <ele>243.446</ele>
        <time>2021-05-15T16:21:15Z</time>
      </trkpt>
      <trkpt lat="41.271197" lon="1.843464">
        <ele>244.462</ele>
        <time>2021-05-15T16:21:21Z</time>
      </trkpt>
      <trkpt lat="41.271290" lon="1.843655">
        <ele>245.653</ele>
        <time>2021-05-15T16:21:25Z</time>
      </trkpt>
      <trkpt lat="41.271353" lon="1.843748">
        <ele>245.604</ele>
        <time>2021-05-15T16:21:27Z</time>
      </trkpt>
      <trkpt lat="41.271392" lon="1.843796">
        <ele>245.614</ele>
        <time>2021-05-15T16:21:28Z</time>
      </trkpt>
      <trkpt lat="41.271547" lon="1.843976">
        <ele>245.208</ele>
        <time>2021-05-15T16:21:31Z</time>
      </trkpt>
      <trkpt lat="41.271591" lon="1.844137">
        <ele>244.482</ele>
        <time>2021-05-15T16:21:33Z</time>
      </trkpt>
      <trkpt lat="41.271593" lon="1.844235">
        <ele>244.088</ele>
        <time>2021-05-15T16:21:34Z</time>
      </trkpt>
      <trkpt lat="41.271580" lon="1.844330">
        <ele>244.054</ele>
        <time>2021-05-15T16:21:35Z</time>
      </trkpt>
      <trkpt lat="41.271514" lon="1.844603">
        <ele>243.630</ele>
        <time>2021-05-15T16:21:38Z</time>
      </trkpt>
      <trkpt lat="41.271416" lon="1.844828">
        <ele>243.270</ele>
        <time>2021-05-15T16:21:41Z</time>
      </trkpt>
      <trkpt lat="41.271360" lon="1.844960">
        <ele>243.266</ele>
        <time>2021-05-15T16:21:43Z</time>
      </trkpt>
      <trkpt lat="41.271303" lon="1.845075">
        <ele>243.279</ele>
        <time>2021-05-15T16:21:45Z</time>
      </trkpt>
      <trkpt lat="41.271203" lon="1.845231">
        <ele>243.225</ele>
        <time>2021-05-15T16:21:48Z</time>
      </trkpt>
      <trkpt lat="41.271053" lon="1.845463">
        <ele>244.276</ele>
        <time>2021-05-15T16:21:53Z</time>
      </trkpt>
      <trkpt lat="41.270955" lon="1.845691">
        <ele>245.290</ele>
        <time>2021-05-15T16:21:58Z</time>
      </trkpt>
      <trkpt lat="41.270940" lon="1.845746">
        <ele>245.419</ele>
        <time>2021-05-15T16:21:59Z</time>
      </trkpt>
      <trkpt lat="41.270902" lon="1.845871">
        <ele>245.808</ele>
        <time>2021-05-15T16:22:01Z</time>
      </trkpt>
      <trkpt lat="41.270826" lon="1.846081">
        <ele>246.224</ele>
        <time>2021-05-15T16:22:05Z</time>
      </trkpt>
      <trkpt lat="41.270812" lon="1.846152">
        <ele>246.290</ele>
        <time>2021-05-15T16:22:06Z</time>
      </trkpt>
      <trkpt lat="41.270811" lon="1.846214">
        <ele>246.466</ele>
        <time>2021-05-15T16:22:07Z</time>
      </trkpt>
      <trkpt lat="41.270819" lon="1.846273">
        <ele>246.642</ele>
        <time>2021-05-15T16:22:08Z</time>
      </trkpt>
      <trkpt lat="41.270835" lon="1.846325">
        <ele>246.892</ele>
        <time>2021-05-15T16:22:09Z</time>
      </trkpt>
      <trkpt lat="41.270862" lon="1.846393">
        <ele>246.878</ele>
        <time>2021-05-15T16:22:10Z</time>
      </trkpt>
      <trkpt lat="41.270918" lon="1.846503">
        <ele>247.081</ele>
        <time>2021-05-15T16:22:12Z</time>
      </trkpt>
      <trkpt lat="41.270990" lon="1.846605">
        <ele>247.287</ele>
        <time>2021-05-15T16:22:14Z</time>
      </trkpt>
      <trkpt lat="41.271206" lon="1.846890">
        <ele>247.083</ele>
        <time>2021-05-15T16:22:19Z</time>
      </trkpt>
      <trkpt lat="41.271247" lon="1.846949">
        <ele>247.225</ele>
        <time>2021-05-15T16:22:20Z</time>
      </trkpt>
      <trkpt lat="41.271455" lon="1.847227">
        <ele>247.417</ele>
        <time>2021-05-15T16:22:25Z</time>
      </trkpt>
      <trkpt lat="41.271490" lon="1.847290">
        <ele>247.408</ele>
        <time>2021-05-15T16:22:26Z</time>
      </trkpt>
      <trkpt lat="41.271514" lon="1.847360">
        <ele>247.455</ele>
        <time>2021-05-15T16:22:27Z</time>
      </trkpt>
      <trkpt lat="41.271544" lon="1.847610">
        <ele>247.411</ele>
        <time>2021-05-15T16:22:30Z</time>
      </trkpt>
      <trkpt lat="41.271549" lon="1.847692">
        <ele>247.447</ele>
        <time>2021-05-15T16:22:31Z</time>
      </trkpt>
      <trkpt lat="41.271524" lon="1.848175">
        <ele>247.433</ele>
        <time>2021-05-15T16:22:37Z</time>
      </trkpt>
      <trkpt lat="41.271399" lon="1.848703">
        <ele>246.883</ele>
        <time>2021-05-15T16:22:44Z</time>
      </trkpt>
      <trkpt lat="41.271349" lon="1.849024">
        <ele>246.639</ele>
        <time>2021-05-15T16:22:48Z</time>
      </trkpt>
      <trkpt lat="41.271365" lon="1.849186">
        <ele>246.482</ele>
        <time>2021-05-15T16:22:50Z</time>
      </trkpt>
      <trkpt lat="41.271388" lon="1.849270">
        <ele>246.228</ele>
        <time>2021-05-15T16:22:51Z</time>
      </trkpt>
      <trkpt lat="41.271423" lon="1.849352">
        <ele>245.857</ele>
        <time>2021-05-15T16:22:52Z</time>
      </trkpt>
      <trkpt lat="41.271470" lon="1.849431">
        <ele>245.600</ele>
        <time>2021-05-15T16:22:53Z</time>
      </trkpt>
      <trkpt lat="41.271530" lon="1.849501">
        <ele>245.420</ele>
        <time>2021-05-15T16:22:54Z</time>
      </trkpt>
      <trkpt lat="41.271618" lon="1.849555">
        <ele>244.808</ele>
        <time>2021-05-15T16:22:55Z</time>
      </trkpt>
      <trkpt lat="41.271700" lon="1.849582">
        <ele>244.252</ele>
        <time>2021-05-15T16:22:56Z</time>
      </trkpt>
      <trkpt lat="41.271783" lon="1.849621">
        <ele>244.048</ele>
        <time>2021-05-15T16:22:57Z</time>
      </trkpt>
      <trkpt lat="41.271914" lon="1.849759">
        <ele>243.234</ele>
        <time>2021-05-15T16:22:59Z</time>
      </trkpt>
      <trkpt lat="41.272015" lon="1.849969">
        <ele>241.840</ele>
        <time>2021-05-15T16:23:01Z</time>
      </trkpt>
      <trkpt lat="41.272041" lon="1.850100">
        <ele>241.210</ele>
        <time>2021-05-15T16:23:02Z</time>
      </trkpt>
      <trkpt lat="41.272040" lon="1.850225">
        <ele>240.656</ele>
        <time>2021-05-15T16:23:03Z</time>
      </trkpt>
      <trkpt lat="41.272016" lon="1.850332">
        <ele>240.269</ele>
        <time>2021-05-15T16:23:04Z</time>
      </trkpt>
      <trkpt lat="41.271977" lon="1.850428">
        <ele>239.035</ele>
        <time>2021-05-15T16:23:05Z</time>
      </trkpt>
      <trkpt lat="41.271853" lon="1.850586">
        <ele>237.259</ele>
        <time>2021-05-15T16:23:07Z</time>
      </trkpt>
      <trkpt lat="41.271694" lon="1.850749">
        <ele>235.803</ele>
        <time>2021-05-15T16:23:09Z</time>
      </trkpt>
      <trkpt lat="41.271627" lon="1.850799">
        <ele>235.623</ele>
        <time>2021-05-15T16:23:10Z</time>
      </trkpt>
      <trkpt lat="41.271527" lon="1.850864">
        <ele>234.608</ele>
        <time>2021-05-15T16:23:11Z</time>
      </trkpt>
      <trkpt lat="41.271449" lon="1.850918">
        <ele>233.622</ele>
        <time>2021-05-15T16:23:12Z</time>
      </trkpt>
      <trkpt lat="41.271373" lon="1.850975">
        <ele>233.228</ele>
        <time>2021-05-15T16:23:13Z</time>
      </trkpt>
      <trkpt lat="41.271253" lon="1.851081">
        <ele>232.214</ele>
        <time>2021-05-15T16:23:15Z</time>
      </trkpt>
      <trkpt lat="41.271188" lon="1.851166">
        <ele>232.060</ele>
        <time>2021-05-15T16:23:16Z</time>
      </trkpt>
      <trkpt lat="41.271136" lon="1.851245">
        <ele>231.810</ele>
        <time>2021-05-15T16:23:17Z</time>
      </trkpt>
      <trkpt lat="41.271035" lon="1.851390">
        <ele>231.056</ele>
        <time>2021-05-15T16:23:19Z</time>
      </trkpt>
      <trkpt lat="41.270979" lon="1.851475">
        <ele>230.699</ele>
        <time>2021-05-15T16:23:20Z</time>
      </trkpt>
      <trkpt lat="41.270906" lon="1.851563">
        <ele>230.475</ele>
        <time>2021-05-15T16:23:21Z</time>
      </trkpt>
      <trkpt lat="41.270780" lon="1.851690">
        <ele>229.453</ele>
        <time>2021-05-15T16:23:23Z</time>
      </trkpt>
      <trkpt lat="41.270555" lon="1.851907">
        <ele>228.404</ele>
        <time>2021-05-15T16:23:27Z</time>
      </trkpt>
      <trkpt lat="41.270459" lon="1.852035">
        <ele>228.414</ele>
        <time>2021-05-15T16:23:29Z</time>
      </trkpt>
      <trkpt lat="41.270438" lon="1.852114">
        <ele>228.408</ele>
        <time>2021-05-15T16:23:30Z</time>
      </trkpt>
      <trkpt lat="41.270439" lon="1.852194">
        <ele>228.272</ele>
        <time>2021-05-15T16:23:31Z</time>
      </trkpt>
      <trkpt lat="41.270482" lon="1.852364">
        <ele>228.298</ele>
        <time>2021-05-15T16:23:33Z</time>
      </trkpt>
      <trkpt lat="41.270605" lon="1.852786">
        <ele>228.044</ele>
        <time>2021-05-15T16:23:38Z</time>
      </trkpt>
      <trkpt lat="41.270599" lon="1.852960">
        <ele>228.020</ele>
        <time>2021-05-15T16:23:40Z</time>
      </trkpt>
      <trkpt lat="41.270578" lon="1.853046">
        <ele>227.860</ele>
        <time>2021-05-15T16:23:41Z</time>
      </trkpt>
      <trkpt lat="41.270518" lon="1.853217">
        <ele>227.096</ele>
        <time>2021-05-15T16:23:43Z</time>
      </trkpt>
      <trkpt lat="41.270373" lon="1.853564">
        <ele>226.639</ele>
        <time>2021-05-15T16:23:47Z</time>
      </trkpt>
      <trkpt lat="41.270160" lon="1.853813">
        <ele>226.235</ele>
        <time>2021-05-15T16:23:51Z</time>
      </trkpt>
      <trkpt lat="41.270101" lon="1.853867">
        <ele>226.089</ele>
        <time>2021-05-15T16:23:52Z</time>
      </trkpt>
      <trkpt lat="41.270035" lon="1.853918">
        <ele>225.806</ele>
        <time>2021-05-15T16:23:53Z</time>
      </trkpt>
      <trkpt lat="41.269834" lon="1.854042">
        <ele>225.026</ele>
        <time>2021-05-15T16:23:56Z</time>
      </trkpt>
      <trkpt lat="41.269765" lon="1.854090">
        <ele>225.008</ele>
        <time>2021-05-15T16:23:57Z</time>
      </trkpt>
      <trkpt lat="41.269703" lon="1.854155">
        <ele>224.645</ele>
        <time>2021-05-15T16:23:58Z</time>
      </trkpt>
      <trkpt lat="41.269646" lon="1.854227">
        <ele>224.411</ele>
        <time>2021-05-15T16:23:59Z</time>
      </trkpt>
      <trkpt lat="41.269551" lon="1.854400">
        <ele>224.257</ele>
        <time>2021-05-15T16:24:01Z</time>
      </trkpt>
      <trkpt lat="41.269473" lon="1.854598">
        <ele>223.813</ele>
        <time>2021-05-15T16:24:03Z</time>
      </trkpt>
      <trkpt lat="41.269434" lon="1.854696">
        <ele>223.483</ele>
        <time>2021-05-15T16:24:04Z</time>
      </trkpt>
      <trkpt lat="41.269304" lon="1.855094">
        <ele>222.279</ele>
        <time>2021-05-15T16:24:08Z</time>
      </trkpt>
      <trkpt lat="41.269257" lon="1.855259">
        <ele>222.022</ele>
        <time>2021-05-15T16:24:10Z</time>
      </trkpt>
      <trkpt lat="41.269207" lon="1.855453">
        <ele>222.218</ele>
        <time>2021-05-15T16:24:12Z</time>
      </trkpt>
      <trkpt lat="41.269178" lon="1.855696">
        <ele>222.625</ele>
        <time>2021-05-15T16:24:15Z</time>
      </trkpt>
      <trkpt lat="41.269125" lon="1.856030">
        <ele>222.826</ele>
        <time>2021-05-15T16:24:19Z</time>
      </trkpt>
      <trkpt lat="41.269109" lon="1.856086">
        <ele>222.808</ele>
        <time>2021-05-15T16:24:20Z</time>
      </trkpt>
      <trkpt lat="41.269025" lon="1.856405">
        <ele>223.408</ele>
        <time>2021-05-15T16:24:25Z</time>
      </trkpt>
      <trkpt lat="41.269016" lon="1.856463">
        <ele>223.449</ele>
        <time>2021-05-15T16:24:26Z</time>
      </trkpt>
      <trkpt lat="41.269011" lon="1.856728">
        <ele>224.435</ele>
        <time>2021-05-15T16:24:31Z</time>
      </trkpt>
      <trkpt lat="41.269037" lon="1.856935">
        <ele>224.811</ele>
        <time>2021-05-15T16:24:35Z</time>
      </trkpt>
      <trkpt lat="41.269036" lon="1.857084">
        <ele>225.477</ele>
        <time>2021-05-15T16:24:38Z</time>
      </trkpt>
      <trkpt lat="41.269022" lon="1.857257">
        <ele>226.637</ele>
        <time>2021-05-15T16:24:42Z</time>
      </trkpt>
      <trkpt lat="41.269001" lon="1.857436">
        <ele>227.633</ele>
        <time>2021-05-15T16:24:46Z</time>
      </trkpt>
      <trkpt lat="41.268995" lon="1.857466">
        <ele>227.646</ele>
        <time>2021-05-15T16:24:47Z</time>
      </trkpt>
      <trkpt lat="41.268971" lon="1.857739">
        <ele>228.622</ele>
        <time>2021-05-15T16:24:54Z</time>
      </trkpt>
      <trkpt lat="41.268970" lon="1.857786">
        <ele>228.883</ele>
        <time>2021-05-15T16:24:55Z</time>
      </trkpt>
      <trkpt lat="41.268978" lon="1.857976">
        <ele>229.825</ele>
        <time>2021-05-15T16:25:00Z</time>
      </trkpt>
      <trkpt lat="41.268993" lon="1.858128">
        <ele>230.617</ele>
        <time>2021-05-15T16:25:04Z</time>
      </trkpt>
      <trkpt lat="41.269037" lon="1.858274">
        <ele>231.008</ele>
        <time>2021-05-15T16:25:08Z</time>
      </trkpt>
      <trkpt lat="41.269092" lon="1.858452">
        <ele>231.675</ele>
        <time>2021-05-15T16:25:13Z</time>
      </trkpt>
      <trkpt lat="41.269119" lon="1.858531">
        <ele>232.041</ele>
        <time>2021-05-15T16:25:15Z</time>
      </trkpt>
      <trkpt lat="41.269162" lon="1.858663">
        <ele>233.097</ele>
        <time>2021-05-15T16:25:19Z</time>
      </trkpt>
      <trkpt lat="41.269181" lon="1.858738">
        <ele>233.063</ele>
        <time>2021-05-15T16:25:21Z</time>
      </trkpt>
      <trkpt lat="41.269192" lon="1.858769">
        <ele>233.063</ele>
        <time>2021-05-15T16:25:22Z</time>
      </trkpt>
      <trkpt lat="41.269256" lon="1.858946">
        <ele>234.239</ele>
        <time>2021-05-15T16:25:28Z</time>
      </trkpt>
      <trkpt lat="41.269279" lon="1.859003">
        <ele>234.672</ele>
        <time>2021-05-15T16:25:30Z</time>
      </trkpt>
      <trkpt lat="41.269307" lon="1.859094">
        <ele>235.248</ele>
        <time>2021-05-15T16:25:33Z</time>
      </trkpt>
      <trkpt lat="41.269396" lon="1.859340">
        <ele>236.041</ele>
        <time>2021-05-15T16:25:41Z</time>
      </trkpt>
      <trkpt lat="41.269405" lon="1.859368">
        <ele>236.281</ele>
        <time>2021-05-15T16:25:42Z</time>
      </trkpt>
      <trkpt lat="41.269416" lon="1.859398">
        <ele>236.409</ele>
        <time>2021-05-15T16:25:43Z</time>
      </trkpt>
      <trkpt lat="41.269470" lon="1.859552">
        <ele>237.208</ele>
        <time>2021-05-15T16:25:48Z</time>
      </trkpt>
      <trkpt lat="41.269516" lon="1.859706">
        <ele>238.261</ele>
        <time>2021-05-15T16:25:53Z</time>
      </trkpt>
      <trkpt lat="41.269558" lon="1.859783">
        <ele>239.467</ele>
        <time>2021-05-15T16:25:56Z</time>
      </trkpt>
      <trkpt lat="41.269590" lon="1.859907">
        <ele>240.293</ele>
        <time>2021-05-15T16:26:01Z</time>
      </trkpt>
      <trkpt lat="41.269604" lon="1.859967">
        <ele>240.449</ele>
        <time>2021-05-15T16:26:03Z</time>
      </trkpt>
      <trkpt lat="41.269623" lon="1.860132">
        <ele>241.679</ele>
        <time>2021-05-15T16:26:08Z</time>
      </trkpt>
      <trkpt lat="41.269630" lon="1.860165">
        <ele>241.835</ele>
        <time>2021-05-15T16:26:09Z</time>
      </trkpt>
      <trkpt lat="41.269674" lon="1.860320">
        <ele>242.678</ele>
        <time>2021-05-15T16:26:14Z</time>
      </trkpt>
      <trkpt lat="41.269698" lon="1.860412">
        <ele>243.284</ele>
        <time>2021-05-15T16:26:17Z</time>
      </trkpt>
      <trkpt lat="41.269723" lon="1.860505">
        <ele>243.688</ele>
        <time>2021-05-15T16:26:20Z</time>
      </trkpt>
      <trkpt lat="41.269741" lon="1.860638">
        <ele>244.424</ele>
        <time>2021-05-15T16:26:24Z</time>
      </trkpt>
      <trkpt lat="41.269749" lon="1.860703">
        <ele>245.026</ele>
        <time>2021-05-15T16:26:26Z</time>
      </trkpt>
      <trkpt lat="41.269777" lon="1.860924">
        <ele>246.008</ele>
        <time>2021-05-15T16:26:33Z</time>
      </trkpt>
      <trkpt lat="41.269783" lon="1.860951">
        <ele>246.085</ele>
        <time>2021-05-15T16:26:34Z</time>
      </trkpt>
      <trkpt lat="41.269794" lon="1.860955">
        <ele>246.291</ele>
        <time>2021-05-15T16:26:36Z</time>
      </trkpt>
      <trkpt lat="41.269785" lon="1.860930">
        <ele>246.237</ele>
        <time>2021-05-15T16:26:38Z</time>
      </trkpt>
      <trkpt lat="41.269777" lon="1.860924">
        <ele>246.273</ele>
        <time>2021-05-15T16:26:41Z</time>
      </trkpt>
      <trkpt lat="41.269777" lon="1.860924">
        <ele>246.273</ele>
        <time>2021-05-15T16:26:46Z</time>
      </trkpt>
      <trkpt lat="41.269777" lon="1.860924">
        <ele>246.269</ele>
        <time>2021-05-15T16:26:50Z</time>
      </trkpt>
      <trkpt lat="41.269777" lon="1.860946">
        <ele>246.222</ele>
        <time>2021-05-15T16:26:53Z</time>
      </trkpt>
      <trkpt lat="41.269782" lon="1.861001">
        <ele>246.278</ele>
        <time>2021-05-15T16:26:55Z</time>
      </trkpt>
      <trkpt lat="41.269737" lon="1.861138">
        <ele>247.281</ele>
        <time>2021-05-15T16:27:00Z</time>
      </trkpt>
      <trkpt lat="41.269722" lon="1.861160">
        <ele>247.461</ele>
        <time>2021-05-15T16:27:01Z</time>
      </trkpt>
      <trkpt lat="41.269648" lon="1.861263">
        <ele>248.017</ele>
        <time>2021-05-15T16:27:05Z</time>
      </trkpt>
      <trkpt lat="41.269606" lon="1.861345">
        <ele>248.208</ele>
        <time>2021-05-15T16:27:08Z</time>
      </trkpt>
      <trkpt lat="41.269582" lon="1.861421">
        <ele>248.285</ele>
        <time>2021-05-15T16:27:10Z</time>
      </trkpt>
      <trkpt lat="41.269529" lon="1.861570">
        <ele>248.821</ele>
        <time>2021-05-15T16:27:14Z</time>
      </trkpt>
      <trkpt lat="41.269498" lon="1.861674">
        <ele>249.267</ele>
        <time>2021-05-15T16:27:17Z</time>
      </trkpt>
      <trkpt lat="41.269450" lon="1.861839">
        <ele>249.453</ele>
        <time>2021-05-15T16:27:21Z</time>
      </trkpt>
      <trkpt lat="41.269425" lon="1.861996">
        <ele>249.413</ele>
        <time>2021-05-15T16:27:24Z</time>
      </trkpt>
      <trkpt lat="41.269332" lon="1.862427">
        <ele>248.649</ele>
        <time>2021-05-15T16:27:31Z</time>
      </trkpt>
      <trkpt lat="41.269315" lon="1.862500">
        <ele>248.432</ele>
        <time>2021-05-15T16:27:32Z</time>
      </trkpt>
      <trkpt lat="41.269297" lon="1.862589">
        <ele>248.298</ele>
        <time>2021-05-15T16:27:33Z</time>
      </trkpt>
      <trkpt lat="41.269291" lon="1.862743">
        <ele>248.047</ele>
        <time>2021-05-15T16:27:35Z</time>
      </trkpt>
      <trkpt lat="41.269304" lon="1.862804">
        <ele>248.029</ele>
        <time>2021-05-15T16:27:36Z</time>
      </trkpt>
      <trkpt lat="41.269331" lon="1.862875">
        <ele>248.021</ele>
        <time>2021-05-15T16:27:37Z</time>
      </trkpt>
      <trkpt lat="41.269413" lon="1.863007">
        <ele>248.008</ele>
        <time>2021-05-15T16:27:39Z</time>
      </trkpt>
      <trkpt lat="41.269529" lon="1.863189">
        <ele>247.691</ele>
        <time>2021-05-15T16:27:42Z</time>
      </trkpt>
      <trkpt lat="41.269581" lon="1.863334">
        <ele>247.497</ele>
        <time>2021-05-15T16:27:44Z</time>
      </trkpt>
      <trkpt lat="41.269590" lon="1.863508">
        <ele>247.283</ele>
        <time>2021-05-15T16:27:46Z</time>
      </trkpt>
      <trkpt lat="41.269580" lon="1.863616">
        <ele>247.019</ele>
        <time>2021-05-15T16:27:47Z</time>
      </trkpt>
      <trkpt lat="41.269507" lon="1.864389">
        <ele>246.639</ele>
        <time>2021-05-15T16:27:56Z</time>
      </trkpt>
      <trkpt lat="41.269455" lon="1.864548">
        <ele>246.685</ele>
        <time>2021-05-15T16:27:58Z</time>
      </trkpt>
      <trkpt lat="41.269422" lon="1.864625">
        <ele>246.218</ele>
        <time>2021-05-15T16:27:59Z</time>
      </trkpt>
      <trkpt lat="41.269394" lon="1.864681">
        <ele>246.274</ele>
        <time>2021-05-15T16:28:00Z</time>
      </trkpt>
      <trkpt lat="41.269354" lon="1.864762">
        <ele>246.036</ele>
        <time>2021-05-15T16:28:01Z</time>
      </trkpt>
      <trkpt lat="41.269271" lon="1.864960">
        <ele>246.017</ele>
        <time>2021-05-15T16:28:04Z</time>
      </trkpt>
      <trkpt lat="41.269235" lon="1.865030">
        <ele>246.018</ele>
        <time>2021-05-15T16:28:05Z</time>
      </trkpt>
      <trkpt lat="41.268951" lon="1.865637">
        <ele>245.808</ele>
        <time>2021-05-15T16:28:13Z</time>
      </trkpt>
      <trkpt lat="41.268811" lon="1.865825">
        <ele>245.610</ele>
        <time>2021-05-15T16:28:16Z</time>
      </trkpt>
      <trkpt lat="41.268704" lon="1.865937">
        <ele>245.676</ele>
        <time>2021-05-15T16:28:18Z</time>
      </trkpt>
      <trkpt lat="41.268666" lon="1.865986">
        <ele>245.692</ele>
        <time>2021-05-15T16:28:19Z</time>
      </trkpt>
      <trkpt lat="41.268514" lon="1.866283">
        <ele>246.058</ele>
        <time>2021-05-15T16:28:23Z</time>
      </trkpt>
      <trkpt lat="41.268486" lon="1.866365">
        <ele>246.018</ele>
        <time>2021-05-15T16:28:24Z</time>
      </trkpt>
      <trkpt lat="41.268404" lon="1.866608">
        <ele>245.854</ele>
        <time>2021-05-15T16:28:27Z</time>
      </trkpt>
      <trkpt lat="41.268288" lon="1.866833">
        <ele>245.877</ele>
        <time>2021-05-15T16:28:30Z</time>
      </trkpt>
      <trkpt lat="41.268259" lon="1.866910">
        <ele>245.833</ele>
        <time>2021-05-15T16:28:31Z</time>
      </trkpt>
      <trkpt lat="41.268155" lon="1.867211">
        <ele>245.859</ele>
        <time>2021-05-15T16:28:35Z</time>
      </trkpt>
      <trkpt lat="41.268025" lon="1.867499">
        <ele>245.603</ele>
        <time>2021-05-15T16:28:39Z</time>
      </trkpt>
      <trkpt lat="41.267939" lon="1.867627">
        <ele>245.223</ele>
        <time>2021-05-15T16:28:41Z</time>
      </trkpt>
      <trkpt lat="41.267890" lon="1.867679">
        <ele>245.208</ele>
        <time>2021-05-15T16:28:42Z</time>
      </trkpt>
      <trkpt lat="41.267682" lon="1.867911">
        <ele>245.242</ele>
        <time>2021-05-15T16:28:47Z</time>
      </trkpt>
      <trkpt lat="41.267651" lon="1.867963">
        <ele>245.488</ele>
        <time>2021-05-15T16:28:48Z</time>
      </trkpt>
      <trkpt lat="41.267584" lon="1.868133">
        <ele>246.014</ele>
        <time>2021-05-15T16:28:51Z</time>
      </trkpt>
      <trkpt lat="41.267562" lon="1.868220">
        <ele>246.260</ele>
        <time>2021-05-15T16:28:53Z</time>
      </trkpt>
      <trkpt lat="41.267546" lon="1.868400">
        <ele>247.250</ele>
        <time>2021-05-15T16:28:57Z</time>
      </trkpt>
      <trkpt lat="41.267541" lon="1.868449">
        <ele>247.636</ele>
        <time>2021-05-15T16:28:58Z</time>
      </trkpt>
      <trkpt lat="41.267528" lon="1.868586">
        <ele>248.639</ele>
        <time>2021-05-15T16:29:02Z</time>
      </trkpt>
      <trkpt lat="41.267515" lon="1.868684">
        <ele>248.875</ele>
        <time>2021-05-15T16:29:04Z</time>
      </trkpt>
      <trkpt lat="41.267453" lon="1.869062">
        <ele>249.089</ele>
        <time>2021-05-15T16:29:11Z</time>
      </trkpt>
      <trkpt lat="41.267429" lon="1.869203">
        <ele>248.806</ele>
        <time>2021-05-15T16:29:13Z</time>
      </trkpt>
      <trkpt lat="41.267394" lon="1.869414">
        <ele>248.226</ele>
        <time>2021-05-15T16:29:16Z</time>
      </trkpt>
      <trkpt lat="41.267379" lon="1.869512">
        <ele>247.808</ele>
        <time>2021-05-15T16:29:17Z</time>
      </trkpt>
      <trkpt lat="41.267373" lon="1.869595">
        <ele>247.615</ele>
        <time>2021-05-15T16:29:18Z</time>
      </trkpt>
      <trkpt lat="41.267363" lon="1.869868">
        <ele>247.061</ele>
        <time>2021-05-15T16:29:21Z</time>
      </trkpt>
      <trkpt lat="41.267352" lon="1.870104">
        <ele>246.487</ele>
        <time>2021-05-15T16:29:23Z</time>
      </trkpt>
      <trkpt lat="41.267341" lon="1.870230">
        <ele>245.213</ele>
        <time>2021-05-15T16:29:24Z</time>
      </trkpt>
      <trkpt lat="41.267296" lon="1.870461">
        <ele>244.083</ele>
        <time>2021-05-15T16:29:26Z</time>
      </trkpt>
      <trkpt lat="41.267216" lon="1.870736">
        <ele>243.099</ele>
        <time>2021-05-15T16:29:28Z</time>
      </trkpt>
      <trkpt lat="41.267135" lon="1.870974">
        <ele>241.842</ele>
        <time>2021-05-15T16:29:30Z</time>
      </trkpt>
      <trkpt lat="41.267105" lon="1.871062">
        <ele>240.848</ele>
        <time>2021-05-15T16:29:31Z</time>
      </trkpt>
      <trkpt lat="41.267085" lon="1.871194">
        <ele>239.434</ele>
        <time>2021-05-15T16:29:32Z</time>
      </trkpt>
      <trkpt lat="41.267087" lon="1.871311">
        <ele>238.055</ele>
        <time>2021-05-15T16:29:33Z</time>
      </trkpt>
      <trkpt lat="41.267099" lon="1.871516">
        <ele>236.210</ele>
        <time>2021-05-15T16:29:35Z</time>
      </trkpt>
      <trkpt lat="41.267105" lon="1.871805">
        <ele>235.208</ele>
        <time>2021-05-15T16:29:38Z</time>
      </trkpt>
      <trkpt lat="41.267106" lon="1.871888">
        <ele>234.880</ele>
        <time>2021-05-15T16:29:39Z</time>
      </trkpt>
      <trkpt lat="41.267087" lon="1.872194">
        <ele>234.836</ele>
        <time>2021-05-15T16:29:43Z</time>
      </trkpt>
      <trkpt lat="41.267086" lon="1.872260">
        <ele>234.872</ele>
        <time>2021-05-15T16:29:44Z</time>
      </trkpt>
      <trkpt lat="41.267124" lon="1.872356">
        <ele>235.048</ele>
        <time>2021-05-15T16:29:46Z</time>
      </trkpt>
      <trkpt lat="41.267209" lon="1.872431">
        <ele>235.428</ele>
        <time>2021-05-15T16:29:49Z</time>
      </trkpt>
      <trkpt lat="41.267255" lon="1.872455">
        <ele>236.244</ele>
        <time>2021-05-15T16:29:51Z</time>
      </trkpt>
      <trkpt lat="41.267316" lon="1.872498">
        <ele>237.277</ele>
        <time>2021-05-15T16:29:54Z</time>
      </trkpt>
      <trkpt lat="41.267350" lon="1.872531">
        <ele>238.013</ele>
        <time>2021-05-15T16:29:56Z</time>
      </trkpt>
      <trkpt lat="41.267364" lon="1.872544">
        <ele>238.682</ele>
        <time>2021-05-15T16:29:57Z</time>
      </trkpt>
      <trkpt lat="41.267422" lon="1.872586">
        <ele>239.643</ele>
        <time>2021-05-15T16:30:01Z</time>
      </trkpt>
      <trkpt lat="41.267441" lon="1.872599">
        <ele>240.017</ele>
        <time>2021-05-15T16:30:02Z</time>
      </trkpt>
      <trkpt lat="41.267456" lon="1.872610">
        <ele>240.208</ele>
        <time>2021-05-15T16:30:03Z</time>
      </trkpt>
      <trkpt lat="41.267468" lon="1.872620">
        <ele>240.635</ele>
        <time>2021-05-15T16:30:04Z</time>
      </trkpt>
      <trkpt lat="41.267507" lon="1.872650">
        <ele>241.621</ele>
        <time>2021-05-15T16:30:07Z</time>
      </trkpt>
      <trkpt lat="41.267571" lon="1.872689">
        <ele>242.847</ele>
        <time>2021-05-15T16:30:11Z</time>
      </trkpt>
      <trkpt lat="41.267602" lon="1.872717">
        <ele>243.423</ele>
        <time>2021-05-15T16:30:13Z</time>
      </trkpt>
      <trkpt lat="41.267630" lon="1.872735">
        <ele>243.883</ele>
        <time>2021-05-15T16:30:15Z</time>
      </trkpt>
      <trkpt lat="41.267646" lon="1.872744">
        <ele>244.079</ele>
        <time>2021-05-15T16:30:16Z</time>
      </trkpt>
      <trkpt lat="41.267712" lon="1.872766">
        <ele>245.232</ele>
        <time>2021-05-15T16:30:20Z</time>
      </trkpt>
      <trkpt lat="41.267727" lon="1.872771">
        <ele>245.498</ele>
        <time>2021-05-15T16:30:21Z</time>
      </trkpt>
      <trkpt lat="41.267779" lon="1.872762">
        <ele>246.035</ele>
        <time>2021-05-15T16:30:24Z</time>
      </trkpt>
      <trkpt lat="41.267819" lon="1.872740">
        <ele>246.486</ele>
        <time>2021-05-15T16:30:26Z</time>
      </trkpt>
      <trkpt lat="41.267851" lon="1.872721">
        <ele>247.014</ele>
        <time>2021-05-15T16:30:28Z</time>
      </trkpt>
      <trkpt lat="41.267884" lon="1.872699">
        <ele>247.408</ele>
        <time>2021-05-15T16:30:30Z</time>
      </trkpt>
      <trkpt lat="41.267974" lon="1.872654">
        <ele>248.430</ele>
        <time>2021-05-15T16:30:36Z</time>
      </trkpt>
      <trkpt lat="41.268062" lon="1.872624">
        <ele>249.456</ele>
        <time>2021-05-15T16:30:41Z</time>
      </trkpt>
      <trkpt lat="41.268111" lon="1.872600">
        <ele>250.232</ele>
        <time>2021-05-15T16:30:44Z</time>
      </trkpt>
      <trkpt lat="41.268142" lon="1.872599">
        <ele>250.818</ele>
        <time>2021-05-15T16:30:46Z</time>
      </trkpt>
      <trkpt lat="41.268219" lon="1.872604">
        <ele>252.048</ele>
        <time>2021-05-15T16:30:51Z</time>
      </trkpt>
      <trkpt lat="41.268281" lon="1.872610">
        <ele>253.244</ele>
        <time>2021-05-15T16:30:55Z</time>
      </trkpt>
      <trkpt lat="41.268324" lon="1.872625">
        <ele>254.097</ele>
        <time>2021-05-15T16:30:58Z</time>
      </trkpt>
      <trkpt lat="41.268338" lon="1.872630">
        <ele>254.223</ele>
        <time>2021-05-15T16:30:59Z</time>
      </trkpt>
      <trkpt lat="41.268406" lon="1.872674">
        <ele>255.696</ele>
        <time>2021-05-15T16:31:04Z</time>
      </trkpt>
      <trkpt lat="41.268427" lon="1.872706">
        <ele>256.231</ele>
        <time>2021-05-15T16:31:06Z</time>
      </trkpt>
      <trkpt lat="41.268458" lon="1.872738">
        <ele>256.624</ele>
        <time>2021-05-15T16:31:08Z</time>
      </trkpt>
      <trkpt lat="41.268527" lon="1.872802">
        <ele>257.808</ele>
        <time>2021-05-15T16:31:13Z</time>
      </trkpt>
      <trkpt lat="41.268574" lon="1.872890">
        <ele>259.046</ele>
        <time>2021-05-15T16:31:18Z</time>
      </trkpt>
      <trkpt lat="41.268590" lon="1.872927">
        <ele>259.492</ele>
        <time>2021-05-15T16:31:20Z</time>
      </trkpt>
      <trkpt lat="41.268608" lon="1.872988">
        <ele>260.228</ele>
        <time>2021-05-15T16:31:23Z</time>
      </trkpt>
      <trkpt lat="41.268624" lon="1.873051">
        <ele>261.254</ele>
        <time>2021-05-15T16:31:26Z</time>
      </trkpt>
      <trkpt lat="41.268649" lon="1.873186">
        <ele>262.234</ele>
        <time>2021-05-15T16:31:31Z</time>
      </trkpt>
      <trkpt lat="41.268664" lon="1.873235">
        <ele>262.640</ele>
        <time>2021-05-15T16:31:33Z</time>
      </trkpt>
      <trkpt lat="41.268725" lon="1.873336">
        <ele>263.623</ele>
        <time>2021-05-15T16:31:38Z</time>
      </trkpt>
      <trkpt lat="41.268738" lon="1.873357">
        <ele>263.889</ele>
        <time>2021-05-15T16:31:39Z</time>
      </trkpt>
      <trkpt lat="41.268793" lon="1.873444">
        <ele>264.865</ele>
        <time>2021-05-15T16:31:44Z</time>
      </trkpt>
      <trkpt lat="41.268804" lon="1.873460">
        <ele>265.068</ele>
        <time>2021-05-15T16:31:45Z</time>
      </trkpt>
      <trkpt lat="41.268849" lon="1.873516">
        <ele>265.814</ele>
        <time>2021-05-15T16:31:49Z</time>
      </trkpt>
      <trkpt lat="41.268875" lon="1.873548">
        <ele>266.408</ele>
        <time>2021-05-15T16:31:51Z</time>
      </trkpt>
      <trkpt lat="41.268896" lon="1.873577">
        <ele>267.253</ele>
        <time>2021-05-15T16:31:53Z</time>
      </trkpt>
      <trkpt lat="41.268931" lon="1.873640">
        <ele>268.229</ele>
        <time>2021-05-15T16:31:57Z</time>
      </trkpt>
      <trkpt lat="41.268960" lon="1.873699">
        <ele>269.065</ele>
        <time>2021-05-15T16:32:00Z</time>
      </trkpt>
      <trkpt lat="41.268973" lon="1.873711">
        <ele>269.461</ele>
        <time>2021-05-15T16:32:01Z</time>
      </trkpt>
      <trkpt lat="41.269044" lon="1.873805">
        <ele>270.461</ele>
        <time>2021-05-15T16:32:06Z</time>
      </trkpt>
      <trkpt lat="41.269071" lon="1.873850">
        <ele>271.297</ele>
        <time>2021-05-15T16:32:08Z</time>
      </trkpt>
      <trkpt lat="41.269083" lon="1.873904">
        <ele>271.840</ele>
        <time>2021-05-15T16:32:10Z</time>
      </trkpt>
      <trkpt lat="41.269105" lon="1.874040">
        <ele>272.876</ele>
        <time>2021-05-15T16:32:15Z</time>
      </trkpt>
      <trkpt lat="41.269146" lon="1.874206">
        <ele>274.093</ele>
        <time>2021-05-15T16:32:21Z</time>
      </trkpt>
      <trkpt lat="41.269160" lon="1.874320">
        <ele>274.265</ele>
        <time>2021-05-15T16:32:24Z</time>
      </trkpt>
      <trkpt lat="41.269221" lon="1.874577">
        <ele>274.021</ele>
        <time>2021-05-15T16:32:29Z</time>
      </trkpt>
      <trkpt lat="41.269313" lon="1.874693">
        <ele>273.808</ele>
        <time>2021-05-15T16:32:32Z</time>
      </trkpt>
      <trkpt lat="41.269403" lon="1.874778">
        <ele>273.636</ele>
        <time>2021-05-15T16:32:34Z</time>
      </trkpt>
      <trkpt lat="41.269558" lon="1.874840">
        <ele>273.222</ele>
        <time>2021-05-15T16:32:37Z</time>
      </trkpt>
      <trkpt lat="41.269614" lon="1.874842">
        <ele>273.258</ele>
        <time>2021-05-15T16:32:38Z</time>
      </trkpt>
      <trkpt lat="41.269724" lon="1.874842">
        <ele>273.014</ele>
        <time>2021-05-15T16:32:40Z</time>
      </trkpt>
      <trkpt lat="41.269946" lon="1.874815">
        <ele>272.834</ele>
        <time>2021-05-15T16:32:44Z</time>
      </trkpt>
      <trkpt lat="41.269990" lon="1.874800">
        <ele>272.880</ele>
        <time>2021-05-15T16:32:45Z</time>
      </trkpt>
      <trkpt lat="41.270051" lon="1.874772">
        <ele>272.833</ele>
        <time>2021-05-15T16:32:46Z</time>
      </trkpt>
      <trkpt lat="41.270162" lon="1.874680">
        <ele>273.029</ele>
        <time>2021-05-15T16:32:49Z</time>
      </trkpt>
      <trkpt lat="41.270318" lon="1.874549">
        <ele>274.278</ele>
        <time>2021-05-15T16:32:54Z</time>
      </trkpt>
      <trkpt lat="41.270357" lon="1.874523">
        <ele>274.433</ele>
        <time>2021-05-15T16:32:55Z</time>
      </trkpt>
      <trkpt lat="41.270454" lon="1.874469">
        <ele>275.426</ele>
        <time>2021-05-15T16:32:58Z</time>
      </trkpt>
      <trkpt lat="41.270628" lon="1.874404">
        <ele>275.808</ele>
        <time>2021-05-15T16:33:03Z</time>
      </trkpt>
      <trkpt lat="41.270864" lon="1.874323">
        <ele>276.024</ele>
        <time>2021-05-15T16:33:09Z</time>
      </trkpt>
      <trkpt lat="41.270914" lon="1.874322">
        <ele>276.010</ele>
        <time>2021-05-15T16:33:10Z</time>
      </trkpt>
      <trkpt lat="41.270965" lon="1.874333">
        <ele>276.076</ele>
        <time>2021-05-15T16:33:11Z</time>
      </trkpt>
      <trkpt lat="41.271063" lon="1.874386">
        <ele>276.042</ele>
        <time>2021-05-15T16:33:13Z</time>
      </trkpt>
      <trkpt lat="41.271123" lon="1.874442">
        <ele>275.822</ele>
        <time>2021-05-15T16:33:14Z</time>
      </trkpt>
      <trkpt lat="41.271159" lon="1.874505">
        <ele>275.628</ele>
        <time>2021-05-15T16:33:15Z</time>
      </trkpt>
      <trkpt lat="41.271189" lon="1.874654">
        <ele>275.281</ele>
        <time>2021-05-15T16:33:17Z</time>
      </trkpt>
      <trkpt lat="41.271213" lon="1.874954">
        <ele>275.087</ele>
        <time>2021-05-15T16:33:22Z</time>
      </trkpt>
      <trkpt lat="41.271241" lon="1.875213">
        <ele>276.624</ele>
        <time>2021-05-15T16:33:28Z</time>
      </trkpt>
      <trkpt lat="41.271261" lon="1.875286">
        <ele>277.604</ele>
        <time>2021-05-15T16:33:30Z</time>
      </trkpt>
      <trkpt lat="41.271297" lon="1.875436">
        <ele>279.014</ele>
        <time>2021-05-15T16:33:34Z</time>
      </trkpt>
      <trkpt lat="41.271299" lon="1.875506">
        <ele>279.608</ele>
        <time>2021-05-15T16:33:36Z</time>
      </trkpt>
      <trkpt lat="41.271297" lon="1.875599">
        <ele>280.219</ele>
        <time>2021-05-15T16:33:38Z</time>
      </trkpt>
      <trkpt lat="41.271292" lon="1.875760">
        <ele>280.425</ele>
        <time>2021-05-15T16:33:41Z</time>
      </trkpt>
      <trkpt lat="41.271291" lon="1.875822">
        <ele>280.491</ele>
        <time>2021-05-15T16:33:42Z</time>
      </trkpt>
      <trkpt lat="41.271309" lon="1.875964">
        <ele>280.017</ele>
        <time>2021-05-15T16:33:44Z</time>
      </trkpt>
      <trkpt lat="41.271368" lon="1.876103">
        <ele>279.457</ele>
        <time>2021-05-15T16:33:46Z</time>
      </trkpt>
      <trkpt lat="41.271415" lon="1.876160">
        <ele>279.063</ele>
        <time>2021-05-15T16:33:47Z</time>
      </trkpt>
      <trkpt lat="41.271465" lon="1.876209">
        <ele>278.816</ele>
        <time>2021-05-15T16:33:48Z</time>
      </trkpt>
      <trkpt lat="41.271574" lon="1.876286">
        <ele>278.682</ele>
        <time>2021-05-15T16:33:50Z</time>
      </trkpt>
      <trkpt lat="41.271682" lon="1.876351">
        <ele>278.272</ele>
        <time>2021-05-15T16:33:52Z</time>
      </trkpt>
      <trkpt lat="41.271736" lon="1.876400">
        <ele>278.013</ele>
        <time>2021-05-15T16:33:53Z</time>
      </trkpt>
      <trkpt lat="41.271770" lon="1.876454">
        <ele>277.814</ele>
        <time>2021-05-15T16:33:54Z</time>
      </trkpt>
      <trkpt lat="41.271818" lon="1.876630">
        <ele>277.208</ele>
        <time>2021-05-15T16:33:56Z</time>
      </trkpt>
      <trkpt lat="41.271827" lon="1.876728">
        <ele>277.024</ele>
        <time>2021-05-15T16:33:57Z</time>
      </trkpt>
      <trkpt lat="41.271842" lon="1.876821">
        <ele>276.680</ele>
        <time>2021-05-15T16:33:58Z</time>
      </trkpt>
      <trkpt lat="41.271913" lon="1.876985">
        <ele>276.216</ele>
        <time>2021-05-15T16:34:00Z</time>
      </trkpt>
      <trkpt lat="41.271950" lon="1.877043">
        <ele>275.842</ele>
        <time>2021-05-15T16:34:01Z</time>
      </trkpt>
      <trkpt lat="41.271970" lon="1.877086">
        <ele>275.492</ele>
        <time>2021-05-15T16:34:02Z</time>
      </trkpt>
      <trkpt lat="41.271974" lon="1.877125">
        <ele>275.428</ele>
        <time>2021-05-15T16:34:03Z</time>
      </trkpt>
      <trkpt lat="41.271981" lon="1.877196">
        <ele>275.481</ele>
        <time>2021-05-15T16:34:05Z</time>
      </trkpt>
      <trkpt lat="41.272025" lon="1.877247">
        <ele>275.417</ele>
        <time>2021-05-15T16:34:07Z</time>
      </trkpt>
      <trkpt lat="41.272159" lon="1.877232">
        <ele>276.045</ele>
        <time>2021-05-15T16:34:12Z</time>
      </trkpt>
      <trkpt lat="41.272257" lon="1.877116">
        <ele>276.447</ele>
        <time>2021-05-15T16:34:17Z</time>
      </trkpt>
      <trkpt lat="41.272278" lon="1.877087">
        <ele>276.611</ele>
        <time>2021-05-15T16:34:18Z</time>
      </trkpt>
      <trkpt lat="41.272305" lon="1.877054">
        <ele>276.808</ele>
        <time>2021-05-15T16:34:19Z</time>
      </trkpt>
      <trkpt lat="41.272392" lon="1.876954">
        <ele>277.831</ele>
        <time>2021-05-15T16:34:23Z</time>
      </trkpt>
      <trkpt lat="41.272476" lon="1.876904">
        <ele>278.697</ele>
        <time>2021-05-15T16:34:26Z</time>
      </trkpt>
      <trkpt lat="41.272536" lon="1.876881">
        <ele>279.073</ele>
        <time>2021-05-15T16:34:28Z</time>
      </trkpt>
      <trkpt lat="41.272754" lon="1.876839">
        <ele>279.299</ele>
        <time>2021-05-15T16:34:36Z</time>
      </trkpt>
      <trkpt lat="41.272719" lon="1.876867">
        <ele>279.239</ele>
        <time>2021-05-15T16:34:39Z</time>
      </trkpt>
      <trkpt lat="41.272540" lon="1.876877">
        <ele>279.085</ele>
        <time>2021-05-15T16:34:44Z</time>
      </trkpt>
      <trkpt lat="41.272377" lon="1.876956">
        <ele>278.858</ele>
        <time>2021-05-15T16:34:49Z</time>
      </trkpt>
      <trkpt lat="41.272334" lon="1.877006">
        <ele>278.414</ele>
        <time>2021-05-15T16:34:53Z</time>
      </trkpt>
      <trkpt lat="41.272334" lon="1.877006">
        <ele>278.239</ele>
        <time>2021-05-15T16:34:54Z</time>
      </trkpt>
      <trkpt lat="41.272334" lon="1.877006">
        <ele>277.801</ele>
        <time>2021-05-15T16:34:57Z</time>
      </trkpt>
      <trkpt lat="41.272334" lon="1.877006">
        <ele>277.421</ele>
        <time>2021-05-15T16:35:04Z</time>
      </trkpt>
      <trkpt lat="41.272334" lon="1.877006">
        <ele>277.408</ele>
        <time>2021-05-15T16:35:05Z</time>
      </trkpt>
      <trkpt lat="41.272334" lon="1.877006">
        <ele>277.260</ele>
        <time>2021-05-15T16:35:14Z</time>
      </trkpt>
      <trkpt lat="41.272334" lon="1.877006">
        <ele>277.216</ele>
        <time>2021-05-15T16:35:16Z</time>
      </trkpt>
      <trkpt lat="41.272334" lon="1.877006">
        <ele>276.892</ele>
        <time>2021-05-15T16:35:26Z</time>
      </trkpt>
      <trkpt lat="41.272334" lon="1.877006">
        <ele>276.838</ele>
        <time>2021-05-15T16:35:27Z</time>
      </trkpt>
      <trkpt lat="41.272334" lon="1.877006">
        <ele>276.838</ele>
        <time>2021-05-15T16:35:29Z</time>
      </trkpt>
      <trkpt lat="41.272334" lon="1.877004">
        <ele>277.034</ele>
        <time>2021-05-15T16:35:32Z</time>
      </trkpt>
      <trkpt lat="41.272334" lon="1.877004">
        <ele>277.067</ele>
        <time>2021-05-15T16:35:41Z</time>
      </trkpt>
      <trkpt lat="41.272332" lon="1.876990">
        <ele>275.883</ele>
        <time>2021-05-15T16:35:53Z</time>
      </trkpt>
      <trkpt lat="41.272323" lon="1.876985">
        <ele>275.875</ele>
        <time>2021-05-15T16:35:59Z</time>
      </trkpt>
      <trkpt lat="41.272323" lon="1.876984">
        <ele>275.828</ele>
        <time>2021-05-15T16:36:02Z</time>
      </trkpt>
      <trkpt lat="41.272323" lon="1.876984">
        <ele>276.020</ele>
        <time>2021-05-15T16:36:04Z</time>
      </trkpt>
      <trkpt lat="41.272323" lon="1.876984">
        <ele>275.808</ele>
        <time>2021-05-15T16:36:11Z</time>
      </trkpt>
      <trkpt lat="41.272323" lon="1.876984">
        <ele>276.014</ele>
        <time>2021-05-15T16:36:17Z</time>
      </trkpt>
      <trkpt lat="41.272323" lon="1.876984">
        <ele>275.640</ele>
        <time>2021-05-15T16:36:40Z</time>
      </trkpt>
      <trkpt lat="41.272323" lon="1.876984">
        <ele>274.886</ele>
        <time>2021-05-15T16:37:03Z</time>
      </trkpt>
      <trkpt lat="41.272323" lon="1.876984">
        <ele>274.622</ele>
        <time>2021-05-15T16:37:25Z</time>
      </trkpt>
      <trkpt lat="41.272327" lon="1.876983">
        <ele>274.622</ele>
        <time>2021-05-15T16:37:31Z</time>
      </trkpt>
      <trkpt lat="41.272327" lon="1.876983">
        <ele>273.888</ele>
        <time>2021-05-15T16:37:52Z</time>
      </trkpt>
      <trkpt lat="41.272327" lon="1.876983">
        <ele>273.641</ele>
        <time>2021-05-15T16:38:08Z</time>
      </trkpt>
      <trkpt lat="41.272332" lon="1.876977">
        <ele>274.257</ele>
        <time>2021-05-15T16:38:22Z</time>
      </trkpt>
      <trkpt lat="41.272338" lon="1.876974">
        <ele>274.423</ele>
        <time>2021-05-15T16:38:38Z</time>
      </trkpt>
      <trkpt lat="41.272338" lon="1.876974">
        <ele>274.483</ele>
        <time>2021-05-15T16:38:41Z</time>
      </trkpt>
      <trkpt lat="41.272338" lon="1.876976">
        <ele>273.611</ele>
        <time>2021-05-15T16:38:50Z</time>
      </trkpt>
      <trkpt lat="41.272333" lon="1.876980">
        <ele>273.808</ele>
        <time>2021-05-15T16:38:59Z</time>
      </trkpt>
      <trkpt lat="41.272324" lon="1.876984">
        <ele>273.879</ele>
        <time>2021-05-15T16:39:01Z</time>
      </trkpt>
      <trkpt lat="41.272323" lon="1.876985">
        <ele>273.815</ele>
        <time>2021-05-15T16:39:03Z</time>
      </trkpt>
      <trkpt lat="41.272323" lon="1.876985">
        <ele>273.851</ele>
        <time>2021-05-15T16:39:08Z</time>
      </trkpt>
      <trkpt lat="41.272323" lon="1.876985">
        <ele>272.677</ele>
        <time>2021-05-15T16:39:46Z</time>
      </trkpt>
      <trkpt lat="41.272323" lon="1.876985">
        <ele>272.637</ele>
        <time>2021-05-15T16:39:50Z</time>
      </trkpt>
      <trkpt lat="41.272319" lon="1.876986">
        <ele>272.893</ele>
        <time>2021-05-15T16:40:18Z</time>
      </trkpt>
      <trkpt lat="41.272319" lon="1.876986">
        <ele>273.066</ele>
        <time>2021-05-15T16:40:27Z</time>
      </trkpt>
      <trkpt lat="41.272319" lon="1.876986">
        <ele>272.422</ele>
        <time>2021-05-15T16:41:22Z</time>
      </trkpt>
      <trkpt lat="41.272319" lon="1.876986">
        <ele>272.219</ele>
        <time>2021-05-15T16:41:28Z</time>
      </trkpt>
      <trkpt lat="41.272319" lon="1.876986">
        <ele>272.409</ele>
        <time>2021-05-15T16:41:39Z</time>
      </trkpt>
      <trkpt lat="41.272319" lon="1.876986">
        <ele>272.419</ele>
        <time>2021-05-15T16:41:44Z</time>
      </trkpt>
      <trkpt lat="41.272319" lon="1.876986">
        <ele>272.208</ele>
        <time>2021-05-15T16:41:47Z</time>
      </trkpt>
      <trkpt lat="41.272319" lon="1.876986">
        <ele>272.268</ele>
        <time>2021-05-15T16:42:01Z</time>
      </trkpt>
      <trkpt lat="41.272319" lon="1.876986">
        <ele>272.064</ele>
        <time>2021-05-15T16:42:16Z</time>
      </trkpt>
      <trkpt lat="41.272319" lon="1.876986">
        <ele>272.010</ele>
        <time>2021-05-15T16:42:37Z</time>
      </trkpt>
      <trkpt lat="41.272319" lon="1.876986">
        <ele>272.036</ele>
        <time>2021-05-15T16:42:46Z</time>
      </trkpt>
      <trkpt lat="41.272319" lon="1.876986">
        <ele>272.086</ele>
        <time>2021-05-15T16:43:15Z</time>
      </trkpt>
      <trkpt lat="41.272319" lon="1.876986">
        <ele>272.032</ele>
        <time>2021-05-15T16:43:21Z</time>
      </trkpt>
      <trkpt lat="41.272319" lon="1.876986">
        <ele>272.025</ele>
        <time>2021-05-15T16:43:22Z</time>
      </trkpt>
      <trkpt lat="41.272319" lon="1.876986">
        <ele>272.051</ele>
        <time>2021-05-15T16:43:24Z</time>
      </trkpt>
      <trkpt lat="41.272319" lon="1.876986">
        <ele>272.067</ele>
        <time>2021-05-15T16:43:39Z</time>
      </trkpt>
      <trkpt lat="41.272319" lon="1.876987">
        <ele>272.081</ele>
        <time>2021-05-15T16:44:11Z</time>
      </trkpt>
      <trkpt lat="41.272315" lon="1.876991">
        <ele>272.019</ele>
        <time>2021-05-15T16:44:36Z</time>
      </trkpt>
      <trkpt lat="41.272315" lon="1.876991">
        <ele>272.008</ele>
        <time>2021-05-15T16:44:38Z</time>
      </trkpt>
      <trkpt lat="41.272312" lon="1.876992">
        <ele>272.053</ele>
        <time>2021-05-15T16:44:50Z</time>
      </trkpt>
      <trkpt lat="41.272312" lon="1.876992">
        <ele>272.059</ele>
        <time>2021-05-15T16:44:53Z</time>
      </trkpt>
      <trkpt lat="41.272312" lon="1.876998">
        <ele>272.015</ele>
        <time>2021-05-15T16:45:41Z</time>
      </trkpt>
      <trkpt lat="41.272312" lon="1.876998">
        <ele>272.081</ele>
        <time>2021-05-15T16:46:36Z</time>
      </trkpt>
      <trkpt lat="41.272312" lon="1.876998">
        <ele>272.071</ele>
        <time>2021-05-15T16:46:47Z</time>
      </trkpt>
      <trkpt lat="41.272312" lon="1.876998">
        <ele>272.077</ele>
        <time>2021-05-15T16:47:05Z</time>
      </trkpt>
      <trkpt lat="41.272312" lon="1.876998">
        <ele>272.010</ele>
        <time>2021-05-15T16:47:17Z</time>
      </trkpt>
      <trkpt lat="41.272312" lon="1.876998">
        <ele>272.076</ele>
        <time>2021-05-15T16:47:19Z</time>
      </trkpt>
      <trkpt lat="41.272312" lon="1.876998">
        <ele>272.018</ele>
        <time>2021-05-15T16:47:21Z</time>
      </trkpt>
      <trkpt lat="41.272312" lon="1.876998">
        <ele>272.098</ele>
        <time>2021-05-15T16:47:22Z</time>
      </trkpt>
      <trkpt lat="41.272312" lon="1.876998">
        <ele>272.017</ele>
        <time>2021-05-15T16:47:24Z</time>
      </trkpt>
      <trkpt lat="41.272312" lon="1.876998">
        <ele>272.008</ele>
        <time>2021-05-15T16:47:34Z</time>
      </trkpt>
      <trkpt lat="41.272312" lon="1.876998">
        <ele>272.098</ele>
        <time>2021-05-15T16:47:36Z</time>
      </trkpt>
      <trkpt lat="41.272312" lon="1.876998">
        <ele>272.014</ele>
        <time>2021-05-15T16:47:37Z</time>
      </trkpt>
      <trkpt lat="41.272312" lon="1.876998">
        <ele>272.060</ele>
        <time>2021-05-15T16:47:39Z</time>
      </trkpt>
      <trkpt lat="41.272314" lon="1.876993">
        <ele>272.066</ele>
        <time>2021-05-15T16:47:42Z</time>
      </trkpt>
      <trkpt lat="41.272339" lon="1.876975">
        <ele>272.096</ele>
        <time>2021-05-15T16:47:44Z</time>
      </trkpt>
      <trkpt lat="41.272461" lon="1.876916">
        <ele>274.012</ele>
        <time>2021-05-15T16:47:49Z</time>
      </trkpt>
      <trkpt lat="41.272494" lon="1.876904">
        <ele>274.255</ele>
        <time>2021-05-15T16:47:50Z</time>
      </trkpt>
      <trkpt lat="41.272597" lon="1.876865">
        <ele>274.851</ele>
        <time>2021-05-15T16:47:53Z</time>
      </trkpt>
      <trkpt lat="41.272666" lon="1.876851">
        <ele>275.064</ele>
        <time>2021-05-15T16:47:55Z</time>
      </trkpt>
      <trkpt lat="41.272737" lon="1.876840">
        <ele>275.206</ele>
        <time>2021-05-15T16:47:57Z</time>
      </trkpt>
      <trkpt lat="41.272771" lon="1.876831">
        <ele>275.216</ele>
        <time>2021-05-15T16:47:58Z</time>
      </trkpt>
      <trkpt lat="41.272802" lon="1.876822">
        <ele>275.408</ele>
        <time>2021-05-15T16:47:59Z</time>
      </trkpt>
      <trkpt lat="41.272859" lon="1.876805">
        <ele>275.683</ele>
        <time>2021-05-15T16:48:01Z</time>
      </trkpt>
      <trkpt lat="41.272884" lon="1.876796">
        <ele>276.059</ele>
        <time>2021-05-15T16:48:02Z</time>
      </trkpt>
      <trkpt lat="41.272907" lon="1.876787">
        <ele>276.225</ele>
        <time>2021-05-15T16:48:03Z</time>
      </trkpt>
      <trkpt lat="41.272929" lon="1.876780">
        <ele>276.481</ele>
        <time>2021-05-15T16:48:04Z</time>
      </trkpt>
      <trkpt lat="41.272951" lon="1.876770">
        <ele>276.831</ele>
        <time>2021-05-15T16:48:05Z</time>
      </trkpt>
      <trkpt lat="41.272998" lon="1.876751">
        <ele>277.447</ele>
        <time>2021-05-15T16:48:07Z</time>
      </trkpt>
      <trkpt lat="41.273041" lon="1.876734">
        <ele>278.010</ele>
        <time>2021-05-15T16:48:09Z</time>
      </trkpt>
      <trkpt lat="41.273086" lon="1.876717">
        <ele>278.626</ele>
        <time>2021-05-15T16:48:11Z</time>
      </trkpt>
      <trkpt lat="41.273105" lon="1.876712">
        <ele>278.858</ele>
        <time>2021-05-15T16:48:12Z</time>
      </trkpt>
      <trkpt lat="41.273166" lon="1.876712">
        <ele>279.452</ele>
        <time>2021-05-15T16:48:15Z</time>
      </trkpt>
      <trkpt lat="41.273186" lon="1.876716">
        <ele>279.617</ele>
        <time>2021-05-15T16:48:16Z</time>
      </trkpt>
      <trkpt lat="41.273254" lon="1.876702">
        <ele>280.408</ele>
        <time>2021-05-15T16:48:19Z</time>
      </trkpt>
      <trkpt lat="41.273276" lon="1.876698">
        <ele>280.642</ele>
        <time>2021-05-15T16:48:20Z</time>
      </trkpt>
      <trkpt lat="41.273421" lon="1.876682">
        <ele>281.618</ele>
        <time>2021-05-15T16:48:26Z</time>
      </trkpt>
      <trkpt lat="41.273448" lon="1.876678">
        <ele>281.894</ele>
        <time>2021-05-15T16:48:27Z</time>
      </trkpt>
      <trkpt lat="41.273597" lon="1.876621">
        <ele>282.440</ele>
        <time>2021-05-15T16:48:33Z</time>
      </trkpt>
      <trkpt lat="41.273642" lon="1.876602">
        <ele>282.810</ele>
        <time>2021-05-15T16:48:35Z</time>
      </trkpt>
      <trkpt lat="41.273744" lon="1.876504">
        <ele>283.886</ele>
        <time>2021-05-15T16:48:41Z</time>
      </trkpt>
      <trkpt lat="41.273762" lon="1.876484">
        <ele>284.079</ele>
        <time>2021-05-15T16:48:42Z</time>
      </trkpt>
      <trkpt lat="41.273841" lon="1.876379">
        <ele>285.245</ele>
        <time>2021-05-15T16:48:47Z</time>
      </trkpt>
      <trkpt lat="41.273881" lon="1.876310">
        <ele>286.092</ele>
        <time>2021-05-15T16:48:50Z</time>
      </trkpt>
      <trkpt lat="41.273893" lon="1.876288">
        <ele>286.273</ele>
        <time>2021-05-15T16:48:51Z</time>
      </trkpt>
      <trkpt lat="41.273925" lon="1.876210">
        <ele>287.420</ele>
        <time>2021-05-15T16:48:54Z</time>
      </trkpt>
      <trkpt lat="41.273965" lon="1.876139">
        <ele>288.408</ele>
        <time>2021-05-15T16:48:57Z</time>
      </trkpt>
      <trkpt lat="41.274021" lon="1.876030">
        <ele>289.496</ele>
        <time>2021-05-15T16:49:01Z</time>
      </trkpt>
      <trkpt lat="41.274072" lon="1.875948">
        <ele>289.622</ele>
        <time>2021-05-15T16:49:04Z</time>
      </trkpt>
      <trkpt lat="41.274172" lon="1.875751">
        <ele>290.478</ele>
        <time>2021-05-15T16:49:10Z</time>
      </trkpt>
      <trkpt lat="41.274199" lon="1.875693">
        <ele>290.684</ele>
        <time>2021-05-15T16:49:12Z</time>
      </trkpt>
      <trkpt lat="41.274274" lon="1.875559">
        <ele>291.684</ele>
        <time>2021-05-15T16:49:17Z</time>
      </trkpt>
      <trkpt lat="41.274303" lon="1.875506">
        <ele>292.280</ele>
        <time>2021-05-15T16:49:19Z</time>
      </trkpt>
      <trkpt lat="41.274336" lon="1.875451">
        <ele>292.613</ele>
        <time>2021-05-15T16:49:21Z</time>
      </trkpt>
      <trkpt lat="41.274450" lon="1.875373">
        <ele>292.849</ele>
        <time>2021-05-15T16:49:25Z</time>
      </trkpt>
      <trkpt lat="41.274688" lon="1.875271">
        <ele>293.013</ele>
        <time>2021-05-15T16:49:32Z</time>
      </trkpt>
      <trkpt lat="41.274720" lon="1.875256">
        <ele>293.043</ele>
        <time>2021-05-15T16:49:33Z</time>
      </trkpt>
      <trkpt lat="41.275008" lon="1.875210">
        <ele>293.407</ele>
        <time>2021-05-15T16:49:41Z</time>
      </trkpt>
      <trkpt lat="41.275112" lon="1.875223">
        <ele>293.808</ele>
        <time>2021-05-15T16:49:44Z</time>
      </trkpt>
      <trkpt lat="41.275230" lon="1.875217">
        <ele>293.838</ele>
        <time>2021-05-15T16:49:48Z</time>
      </trkpt>
      <trkpt lat="41.275360" lon="1.875119">
        <ele>294.664</ele>
        <time>2021-05-15T16:49:53Z</time>
      </trkpt>
      <trkpt lat="41.275382" lon="1.875094">
        <ele>294.830</ele>
        <time>2021-05-15T16:49:54Z</time>
      </trkpt>
      <trkpt lat="41.275464" lon="1.875013">
        <ele>296.026</ele>
        <time>2021-05-15T16:49:58Z</time>
      </trkpt>
      <trkpt lat="41.275558" lon="1.874951">
        <ele>297.096</ele>
        <time>2021-05-15T16:50:02Z</time>
      </trkpt>
      <trkpt lat="41.275582" lon="1.874936">
        <ele>297.232</ele>
        <time>2021-05-15T16:50:03Z</time>
      </trkpt>
      <trkpt lat="41.275677" lon="1.874878">
        <ele>298.295</ele>
        <time>2021-05-15T16:50:07Z</time>
      </trkpt>
      <trkpt lat="41.275858" lon="1.874758">
        <ele>299.451</ele>
        <time>2021-05-15T16:50:15Z</time>
      </trkpt>
      <trkpt lat="41.275881" lon="1.874742">
        <ele>299.868</ele>
        <time>2021-05-15T16:50:16Z</time>
      </trkpt>
      <trkpt lat="41.275993" lon="1.874693">
        <ele>300.642</ele>
        <time>2021-05-15T16:50:21Z</time>
      </trkpt>
      <trkpt lat="41.276118" lon="1.874652">
        <ele>300.826</ele>
        <time>2021-05-15T16:50:26Z</time>
      </trkpt>
      <trkpt lat="41.276237" lon="1.874527">
        <ele>301.408</ele>
        <time>2021-05-15T16:50:32Z</time>
      </trkpt>
      <trkpt lat="41.276267" lon="1.874468">
        <ele>301.643</ele>
        <time>2021-05-15T16:50:34Z</time>
      </trkpt>
      <trkpt lat="41.276364" lon="1.874365">
        <ele>302.489</ele>
        <time>2021-05-15T16:50:39Z</time>
      </trkpt>
      <trkpt lat="41.276422" lon="1.874372">
        <ele>302.685</ele>
        <time>2021-05-15T16:50:41Z</time>
      </trkpt>
      <trkpt lat="41.276530" lon="1.874416">
        <ele>302.841</ele>
        <time>2021-05-15T16:50:45Z</time>
      </trkpt>
      <trkpt lat="41.276738" lon="1.874583">
        <ele>303.251</ele>
        <time>2021-05-15T16:50:52Z</time>
      </trkpt>
      <trkpt lat="41.276767" lon="1.874595">
        <ele>303.227</ele>
        <time>2021-05-15T16:50:53Z</time>
      </trkpt>
      <trkpt lat="41.276865" lon="1.874576">
        <ele>303.410</ele>
        <time>2021-05-15T16:50:56Z</time>
      </trkpt>
      <trkpt lat="41.276934" lon="1.874530">
        <ele>303.676</ele>
        <time>2021-05-15T16:50:58Z</time>
      </trkpt>
      <trkpt lat="41.277120" lon="1.874428">
        <ele>304.052</ele>
        <time>2021-05-15T16:51:03Z</time>
      </trkpt>
      <trkpt lat="41.277340" lon="1.874380">
        <ele>304.053</ele>
        <time>2021-05-15T16:51:08Z</time>
      </trkpt>
      <trkpt lat="41.277528" lon="1.874338">
        <ele>303.208</ele>
        <time>2021-05-15T16:51:11Z</time>
      </trkpt>
      <trkpt lat="41.277606" lon="1.874317">
        <ele>302.408</ele>
        <time>2021-05-15T16:51:12Z</time>
      </trkpt>
      <trkpt lat="41.277704" lon="1.874296">
        <ele>301.612</ele>
        <time>2021-05-15T16:51:13Z</time>
      </trkpt>
      <trkpt lat="41.277781" lon="1.874295">
        <ele>301.288</ele>
        <time>2021-05-15T16:51:14Z</time>
      </trkpt>
      <trkpt lat="41.277913" lon="1.874313">
        <ele>300.484</ele>
        <time>2021-05-15T16:51:16Z</time>
      </trkpt>
      <trkpt lat="41.277972" lon="1.874334">
        <ele>300.250</ele>
        <time>2021-05-15T16:51:17Z</time>
      </trkpt>
      <trkpt lat="41.278012" lon="1.874372">
        <ele>300.090</ele>
        <time>2021-05-15T16:51:18Z</time>
      </trkpt>
      <trkpt lat="41.278032" lon="1.874439">
        <ele>299.846</ele>
        <time>2021-05-15T16:51:19Z</time>
      </trkpt>
      <trkpt lat="41.278007" lon="1.874547">
        <ele>298.839</ele>
        <time>2021-05-15T16:51:21Z</time>
      </trkpt>
      <trkpt lat="41.277979" lon="1.874593">
        <ele>298.635</ele>
        <time>2021-05-15T16:51:22Z</time>
      </trkpt>
      <trkpt lat="41.277823" lon="1.874837">
        <ele>299.024</ele>
        <time>2021-05-15T16:51:28Z</time>
      </trkpt>
      <trkpt lat="41.277784" lon="1.874946">
        <ele>299.804</ele>
        <time>2021-05-15T16:51:31Z</time>
      </trkpt>
      <trkpt lat="41.277777" lon="1.874983">
        <ele>300.014</ele>
        <time>2021-05-15T16:51:32Z</time>
      </trkpt>
      <trkpt lat="41.277773" lon="1.875027">
        <ele>300.208</ele>
        <time>2021-05-15T16:51:33Z</time>
      </trkpt>
      <trkpt lat="41.277781" lon="1.875126">
        <ele>301.039</ele>
        <time>2021-05-15T16:51:36Z</time>
      </trkpt>
      <trkpt lat="41.277815" lon="1.875200">
        <ele>301.885</ele>
        <time>2021-05-15T16:51:38Z</time>
      </trkpt>
      <trkpt lat="41.277830" lon="1.875232">
        <ele>302.221</ele>
        <time>2021-05-15T16:51:39Z</time>
      </trkpt>
      <trkpt lat="41.277895" lon="1.875344">
        <ele>303.437</ele>
        <time>2021-05-15T16:51:43Z</time>
      </trkpt>
      <trkpt lat="41.277944" lon="1.875433">
        <ele>304.687</ele>
        <time>2021-05-15T16:51:46Z</time>
      </trkpt>
      <trkpt lat="41.277958" lon="1.875460">
        <ele>304.853</ele>
        <time>2021-05-15T16:51:47Z</time>
      </trkpt>
      <trkpt lat="41.278003" lon="1.875539">
        <ele>305.466</ele>
        <time>2021-05-15T16:51:50Z</time>
      </trkpt>
      <trkpt lat="41.278018" lon="1.875568">
        <ele>305.612</ele>
        <time>2021-05-15T16:51:51Z</time>
      </trkpt>
      <trkpt lat="41.278046" lon="1.875624">
        <ele>305.836</ele>
        <time>2021-05-15T16:51:53Z</time>
      </trkpt>
      <trkpt lat="41.278081" lon="1.875717">
        <ele>306.217</ele>
        <time>2021-05-15T16:51:56Z</time>
      </trkpt>
      <trkpt lat="41.278139" lon="1.875822">
        <ele>306.818</ele>
        <time>2021-05-15T16:52:00Z</time>
      </trkpt>
      <trkpt lat="41.278159" lon="1.875863">
        <ele>307.208</ele>
        <time>2021-05-15T16:52:02Z</time>
      </trkpt>
      <trkpt lat="41.278183" lon="1.875902">
        <ele>307.840</ele>
        <time>2021-05-15T16:52:04Z</time>
      </trkpt>
      <trkpt lat="41.278217" lon="1.875977">
        <ele>309.056</ele>
        <time>2021-05-15T16:52:08Z</time>
      </trkpt>
      <trkpt lat="41.278227" lon="1.875998">
        <ele>309.432</ele>
        <time>2021-05-15T16:52:09Z</time>
      </trkpt>
      <trkpt lat="41.278236" lon="1.876043">
        <ele>310.258</ele>
        <time>2021-05-15T16:52:11Z</time>
      </trkpt>
      <trkpt lat="41.278252" lon="1.876118">
        <ele>311.068</ele>
        <time>2021-05-15T16:52:15Z</time>
      </trkpt>
      <trkpt lat="41.278260" lon="1.876136">
        <ele>311.254</ele>
        <time>2021-05-15T16:52:16Z</time>
      </trkpt>
      <trkpt lat="41.278295" lon="1.876182">
        <ele>312.487</ele>
        <time>2021-05-15T16:52:19Z</time>
      </trkpt>
      <trkpt lat="41.278345" lon="1.876222">
        <ele>313.493</ele>
        <time>2021-05-15T16:52:23Z</time>
      </trkpt>
      <trkpt lat="41.278377" lon="1.876231">
        <ele>313.686</ele>
        <time>2021-05-15T16:52:25Z</time>
      </trkpt>
      <trkpt lat="41.278454" lon="1.876256">
        <ele>314.860</ele>
        <time>2021-05-15T16:52:30Z</time>
      </trkpt>
      <trkpt lat="41.278518" lon="1.876293">
        <ele>315.426</ele>
        <time>2021-05-15T16:52:34Z</time>
      </trkpt>
      <trkpt lat="41.278536" lon="1.876304">
        <ele>315.808</ele>
        <time>2021-05-15T16:52:35Z</time>
      </trkpt>
      <trkpt lat="41.278635" lon="1.876322">
        <ele>317.045</ele>
        <time>2021-05-15T16:52:41Z</time>
      </trkpt>
      <trkpt lat="41.278652" lon="1.876321">
        <ele>317.271</ele>
        <time>2021-05-15T16:52:42Z</time>
      </trkpt>
      <trkpt lat="41.278768" lon="1.876300">
        <ele>318.237</ele>
        <time>2021-05-15T16:52:49Z</time>
      </trkpt>
      <trkpt lat="41.278797" lon="1.876287">
        <ele>318.413</ele>
        <time>2021-05-15T16:52:51Z</time>
      </trkpt>
      <trkpt lat="41.278872" lon="1.876215">
        <ele>319.213</ele>
        <time>2021-05-15T16:52:58Z</time>
      </trkpt>
      <trkpt lat="41.278868" lon="1.876217">
        <ele>319.689</ele>
        <time>2021-05-15T16:53:01Z</time>
      </trkpt>
      <trkpt lat="41.278857" lon="1.876240">
        <ele>319.632</ele>
        <time>2021-05-15T16:53:03Z</time>
      </trkpt>
      <trkpt lat="41.278861" lon="1.876255">
        <ele>319.878</ele>
        <time>2021-05-15T16:53:09Z</time>
      </trkpt>
      <trkpt lat="41.278872" lon="1.876241">
        <ele>319.833</ele>
        <time>2021-05-15T16:53:15Z</time>
      </trkpt>
      <trkpt lat="41.278907" lon="1.876217">
        <ele>320.223</ele>
        <time>2021-05-15T16:53:18Z</time>
      </trkpt>
      <trkpt lat="41.278947" lon="1.876201">
        <ele>320.415</ele>
        <time>2021-05-15T16:53:20Z</time>
      </trkpt>
      <trkpt lat="41.279044" lon="1.876194">
        <ele>321.208</ele>
        <time>2021-05-15T16:53:26Z</time>
      </trkpt>
      <trkpt lat="41.279065" lon="1.876214">
        <ele>321.410</ele>
        <time>2021-05-15T16:53:28Z</time>
      </trkpt>
      <trkpt lat="41.279074" lon="1.876219">
        <ele>321.666</ele>
        <time>2021-05-15T16:53:29Z</time>
      </trkpt>
      <trkpt lat="41.279089" lon="1.876212">
        <ele>321.612</ele>
        <time>2021-05-15T16:53:31Z</time>
      </trkpt>
      <trkpt lat="41.279148" lon="1.876210">
        <ele>321.688</ele>
        <time>2021-05-15T16:53:34Z</time>
      </trkpt>
      <trkpt lat="41.279191" lon="1.876224">
        <ele>321.438</ele>
        <time>2021-05-15T16:53:36Z</time>
      </trkpt>
      <trkpt lat="41.279316" lon="1.876304">
        <ele>320.874</ele>
        <time>2021-05-15T16:53:42Z</time>
      </trkpt>
      <trkpt lat="41.279316" lon="1.876304">
        <ele>320.687</ele>
        <time>2021-05-15T16:53:45Z</time>
      </trkpt>
      <trkpt lat="41.279316" lon="1.876304">
        <ele>320.463</ele>
        <time>2021-05-15T16:53:46Z</time>
      </trkpt>
      <trkpt lat="41.279316" lon="1.876304">
        <ele>320.429</ele>
        <time>2021-05-15T16:53:47Z</time>
      </trkpt>
      <trkpt lat="41.279316" lon="1.876304">
        <ele>320.200</ele>
        <time>2021-05-15T16:53:55Z</time>
      </trkpt>
      <trkpt lat="41.279316" lon="1.876304">
        <ele>320.220</ele>
        <time>2021-05-15T16:54:08Z</time>
      </trkpt>
      <trkpt lat="41.279316" lon="1.876303">
        <ele>320.008</ele>
        <time>2021-05-15T16:54:11Z</time>
      </trkpt>
      <trkpt lat="41.279317" lon="1.876302">
        <ele>320.099</ele>
        <time>2021-05-15T16:54:23Z</time>
      </trkpt>
      <trkpt lat="41.279319" lon="1.876300">
        <ele>320.065</ele>
        <time>2021-05-15T16:54:34Z</time>
      </trkpt>
      <trkpt lat="41.279315" lon="1.876300">
        <ele>320.041</ele>
        <time>2021-05-15T16:54:43Z</time>
      </trkpt>
      <trkpt lat="41.279312" lon="1.876301">
        <ele>320.027</ele>
        <time>2021-05-15T16:54:47Z</time>
      </trkpt>
      <trkpt lat="41.279312" lon="1.876301">
        <ele>320.097</ele>
        <time>2021-05-15T16:54:49Z</time>
      </trkpt>
      <trkpt lat="41.279312" lon="1.876301">
        <ele>320.073</ele>
        <time>2021-05-15T16:54:56Z</time>
      </trkpt>
      <trkpt lat="41.279312" lon="1.876301">
        <ele>320.036</ele>
        <time>2021-05-15T16:55:07Z</time>
      </trkpt>
      <trkpt lat="41.279312" lon="1.876301">
        <ele>320.042</ele>
        <time>2021-05-15T16:55:11Z</time>
      </trkpt>
      <trkpt lat="41.279312" lon="1.876301">
        <ele>320.078</ele>
        <time>2021-05-15T16:55:14Z</time>
      </trkpt>
      <trkpt lat="41.279314" lon="1.876302">
        <ele>320.033</ele>
        <time>2021-05-15T16:55:23Z</time>
      </trkpt>
      <trkpt lat="41.279350" lon="1.876341">
        <ele>320.026</ele>
        <time>2021-05-15T16:55:26Z</time>
      </trkpt>
      <trkpt lat="41.279402" lon="1.876420">
        <ele>320.808</ele>
        <time>2021-05-15T16:55:31Z</time>
      </trkpt>
      <trkpt lat="41.279410" lon="1.876430">
        <ele>320.874</ele>
        <time>2021-05-15T16:55:32Z</time>
      </trkpt>
      <trkpt lat="41.279430" lon="1.876476">
        <ele>320.870</ele>
        <time>2021-05-15T16:55:36Z</time>
      </trkpt>
      <trkpt lat="41.279442" lon="1.876482">
        <ele>320.886</ele>
        <time>2021-05-15T16:55:37Z</time>
      </trkpt>
      <trkpt lat="41.279539" lon="1.876507">
        <ele>320.892</ele>
        <time>2021-05-15T16:55:40Z</time>
      </trkpt>
      <trkpt lat="41.279590" lon="1.876526">
        <ele>320.672</ele>
        <time>2021-05-15T16:55:41Z</time>
      </trkpt>
      <trkpt lat="41.279696" lon="1.876574">
        <ele>320.298</ele>
        <time>2021-05-15T16:55:43Z</time>
      </trkpt>
      <trkpt lat="41.279755" lon="1.876595">
        <ele>319.881</ele>
        <time>2021-05-15T16:55:44Z</time>
      </trkpt>
      <trkpt lat="41.279881" lon="1.876627">
        <ele>319.497</ele>
        <time>2021-05-15T16:55:46Z</time>
      </trkpt>
      <trkpt lat="41.280034" lon="1.876630">
        <ele>318.841</ele>
        <time>2021-05-15T16:55:48Z</time>
      </trkpt>
      <trkpt lat="41.280201" lon="1.876623">
        <ele>318.081</ele>
        <time>2021-05-15T16:55:50Z</time>
      </trkpt>
      <trkpt lat="41.280377" lon="1.876611">
        <ele>316.809</ele>
        <time>2021-05-15T16:55:52Z</time>
      </trkpt>
      <trkpt lat="41.280470" lon="1.876622">
        <ele>316.008</ele>
        <time>2021-05-15T16:55:53Z</time>
      </trkpt>
      <trkpt lat="41.280560" lon="1.876646">
        <ele>315.441</ele>
        <time>2021-05-15T16:55:54Z</time>
      </trkpt>
      <trkpt lat="41.280725" lon="1.876702">
        <ele>314.037</ele>
        <time>2021-05-15T16:55:56Z</time>
      </trkpt>
      <trkpt lat="41.280807" lon="1.876710">
        <ele>313.213</ele>
        <time>2021-05-15T16:55:57Z</time>
      </trkpt>
      <trkpt lat="41.280891" lon="1.876707">
        <ele>312.859</ele>
        <time>2021-05-15T16:55:58Z</time>
      </trkpt>
      <trkpt lat="41.281156" lon="1.876641">
        <ele>311.289</ele>
        <time>2021-05-15T16:56:01Z</time>
      </trkpt>
      <trkpt lat="41.281330" lon="1.876549">
        <ele>309.625</ele>
        <time>2021-05-15T16:56:03Z</time>
      </trkpt>
      <trkpt lat="41.281412" lon="1.876489">
        <ele>308.648</ele>
        <time>2021-05-15T16:56:04Z</time>
      </trkpt>
      <trkpt lat="41.281496" lon="1.876427">
        <ele>307.494</ele>
        <time>2021-05-15T16:56:05Z</time>
      </trkpt>
      <trkpt lat="41.281582" lon="1.876363">
        <ele>305.871</ele>
        <time>2021-05-15T16:56:06Z</time>
      </trkpt>
      <trkpt lat="41.281677" lon="1.876295">
        <ele>304.841</ele>
        <time>2021-05-15T16:56:07Z</time>
      </trkpt>
      <trkpt lat="41.281874" lon="1.876183">
        <ele>303.015</ele>
        <time>2021-05-15T16:56:09Z</time>
      </trkpt>
      <trkpt lat="41.281968" lon="1.876134">
        <ele>302.008</ele>
        <time>2021-05-15T16:56:10Z</time>
      </trkpt>
      <trkpt lat="41.282061" lon="1.876097">
        <ele>300.694</ele>
        <time>2021-05-15T16:56:11Z</time>
      </trkpt>
      <trkpt lat="41.282231" lon="1.876094">
        <ele>299.030</ele>
        <time>2021-05-15T16:56:13Z</time>
      </trkpt>
      <trkpt lat="41.282431" lon="1.876250">
        <ele>297.666</ele>
        <time>2021-05-15T16:56:16Z</time>
      </trkpt>
      <trkpt lat="41.282496" lon="1.876295">
        <ele>297.422</ele>
        <time>2021-05-15T16:56:17Z</time>
      </trkpt>
      <trkpt lat="41.282633" lon="1.876332">
        <ele>296.842</ele>
        <time>2021-05-15T16:56:19Z</time>
      </trkpt>
      <trkpt lat="41.282704" lon="1.876337">
        <ele>296.628</ele>
        <time>2021-05-15T16:56:20Z</time>
      </trkpt>
      <trkpt lat="41.283011" lon="1.876398">
        <ele>295.221</ele>
        <time>2021-05-15T16:56:24Z</time>
      </trkpt>
      <trkpt lat="41.283090" lon="1.876418">
        <ele>294.837</ele>
        <time>2021-05-15T16:56:25Z</time>
      </trkpt>
      <trkpt lat="41.283238" lon="1.876445">
        <ele>294.227</ele>
        <time>2021-05-15T16:56:27Z</time>
      </trkpt>
      <trkpt lat="41.283487" lon="1.876457">
        <ele>293.468</ele>
        <time>2021-05-15T16:56:30Z</time>
      </trkpt>
      <trkpt lat="41.283573" lon="1.876459">
        <ele>292.814</ele>
        <time>2021-05-15T16:56:31Z</time>
      </trkpt>
      <trkpt lat="41.283829" lon="1.876437">
        <ele>292.208</ele>
        <time>2021-05-15T16:56:34Z</time>
      </trkpt>
      <trkpt lat="41.283915" lon="1.876445">
        <ele>291.839</ele>
        <time>2021-05-15T16:56:35Z</time>
      </trkpt>
      <trkpt lat="41.283998" lon="1.876471">
        <ele>291.675</ele>
        <time>2021-05-15T16:56:36Z</time>
      </trkpt>
      <trkpt lat="41.284144" lon="1.876580">
        <ele>290.691</ele>
        <time>2021-05-15T16:56:38Z</time>
      </trkpt>
      <trkpt lat="41.284280" lon="1.876712">
        <ele>289.477</ele>
        <time>2021-05-15T16:56:40Z</time>
      </trkpt>
      <trkpt lat="41.284345" lon="1.876774">
        <ele>288.687</ele>
        <time>2021-05-15T16:56:41Z</time>
      </trkpt>
      <trkpt lat="41.284415" lon="1.876818">
        <ele>288.023</ele>
        <time>2021-05-15T16:56:42Z</time>
      </trkpt>
      <trkpt lat="41.284487" lon="1.876847">
        <ele>287.666</ele>
        <time>2021-05-15T16:56:43Z</time>
      </trkpt>
      <trkpt lat="41.284636" lon="1.876862">
        <ele>286.682</ele>
        <time>2021-05-15T16:56:45Z</time>
      </trkpt>
      <trkpt lat="41.284774" lon="1.876819">
        <ele>285.847</ele>
        <time>2021-05-15T16:56:47Z</time>
      </trkpt>
      <trkpt lat="41.284831" lon="1.876769">
        <ele>285.429</ele>
        <time>2021-05-15T16:56:48Z</time>
      </trkpt>
      <trkpt lat="41.284958" lon="1.876660">
        <ele>285.021</ele>
        <time>2021-05-15T16:56:50Z</time>
      </trkpt>
      <trkpt lat="41.285091" lon="1.876555">
        <ele>284.208</ele>
        <time>2021-05-15T16:56:52Z</time>
      </trkpt>
      <trkpt lat="41.285372" lon="1.876346">
        <ele>283.041</ele>
        <time>2021-05-15T16:56:57Z</time>
      </trkpt>
      <trkpt lat="41.285410" lon="1.876317">
        <ele>282.497</ele>
        <time>2021-05-15T16:56:58Z</time>
      </trkpt>
      <trkpt lat="41.285458" lon="1.876263">
        <ele>281.873</ele>
        <time>2021-05-15T16:57:00Z</time>
      </trkpt>
      <trkpt lat="41.285466" lon="1.876250">
        <ele>281.469</ele>
        <time>2021-05-15T16:57:01Z</time>
      </trkpt>
      <trkpt lat="41.285468" lon="1.876247">
        <ele>280.869</ele>
        <time>2021-05-15T16:57:05Z</time>
      </trkpt>
      <trkpt lat="41.285468" lon="1.876247">
        <ele>280.675</ele>
        <time>2021-05-15T16:57:09Z</time>
      </trkpt>
      <trkpt lat="41.285468" lon="1.876247">
        <ele>280.468</ele>
        <time>2021-05-15T16:57:14Z</time>
      </trkpt>
      <trkpt lat="41.285482" lon="1.876231">
        <ele>280.234</ele>
        <time>2021-05-15T16:57:32Z</time>
      </trkpt>
      <trkpt lat="41.285505" lon="1.876192">
        <ele>280.497</ele>
        <time>2021-05-15T16:57:34Z</time>
      </trkpt>
      <trkpt lat="41.285559" lon="1.876077">
        <ele>280.423</ele>
        <time>2021-05-15T16:57:39Z</time>
      </trkpt>
      <trkpt lat="41.285573" lon="1.876055">
        <ele>280.625</ele>
        <time>2021-05-15T16:57:40Z</time>
      </trkpt>
      <trkpt lat="41.285657" lon="1.876037">
        <ele>280.608</ele>
        <time>2021-05-15T16:57:43Z</time>
      </trkpt>
      <trkpt lat="41.285887" lon="1.876026">
        <ele>280.036</ele>
        <time>2021-05-15T16:57:48Z</time>
      </trkpt>
      <trkpt lat="41.285936" lon="1.876005">
        <ele>279.612</ele>
        <time>2021-05-15T16:57:49Z</time>
      </trkpt>
      <trkpt lat="41.285981" lon="1.875968">
        <ele>279.098</ele>
        <time>2021-05-15T16:57:50Z</time>
      </trkpt>
      <trkpt lat="41.286017" lon="1.875920">
        <ele>278.884</ele>
        <time>2021-05-15T16:57:51Z</time>
      </trkpt>
      <trkpt lat="41.286079" lon="1.875809">
        <ele>278.474</ele>
        <time>2021-05-15T16:57:53Z</time>
      </trkpt>
      <trkpt lat="41.286163" lon="1.875608">
        <ele>277.880</ele>
        <time>2021-05-15T16:57:56Z</time>
      </trkpt>
      <trkpt lat="41.286237" lon="1.875500">
        <ele>277.463</ele>
        <time>2021-05-15T16:57:58Z</time>
      </trkpt>
      <trkpt lat="41.286299" lon="1.875376">
        <ele>277.259</ele>
        <time>2021-05-15T16:58:00Z</time>
      </trkpt>
      <trkpt lat="41.286349" lon="1.875234">
        <ele>277.286</ele>
        <time>2021-05-15T16:58:02Z</time>
      </trkpt>
      <trkpt lat="41.286504" lon="1.874922">
        <ele>276.860</ele>
        <time>2021-05-15T16:58:07Z</time>
      </trkpt>
      <trkpt lat="41.286536" lon="1.874861">
        <ele>276.826</ele>
        <time>2021-05-15T16:58:08Z</time>
      </trkpt>
      <trkpt lat="41.286573" lon="1.874804">
        <ele>276.608</ele>
        <time>2021-05-15T16:58:09Z</time>
      </trkpt>
      <trkpt lat="41.286619" lon="1.874757">
        <ele>276.675</ele>
        <time>2021-05-15T16:58:10Z</time>
      </trkpt>
      <trkpt lat="41.286728" lon="1.874704">
        <ele>276.611</ele>
        <time>2021-05-15T16:58:12Z</time>
      </trkpt>
      <trkpt lat="41.286849" lon="1.874691">
        <ele>276.297</ele>
        <time>2021-05-15T16:58:14Z</time>
      </trkpt>
      <trkpt lat="41.286973" lon="1.874700">
        <ele>275.453</ele>
        <time>2021-05-15T16:58:16Z</time>
      </trkpt>
      <trkpt lat="41.287074" lon="1.874645">
        <ele>275.233</ele>
        <time>2021-05-15T16:58:18Z</time>
      </trkpt>
      <trkpt lat="41.287100" lon="1.874589">
        <ele>275.089</ele>
        <time>2021-05-15T16:58:19Z</time>
      </trkpt>
      <trkpt lat="41.287135" lon="1.874456">
        <ele>275.062</ele>
        <time>2021-05-15T16:58:21Z</time>
      </trkpt>
      <trkpt lat="41.287181" lon="1.874314">
        <ele>275.038</ele>
        <time>2021-05-15T16:58:23Z</time>
      </trkpt>
      <trkpt lat="41.287189" lon="1.874225">
        <ele>274.471</ele>
        <time>2021-05-15T16:58:24Z</time>
      </trkpt>
      <trkpt lat="41.287181" lon="1.874135">
        <ele>273.841</ele>
        <time>2021-05-15T16:58:25Z</time>
      </trkpt>
      <trkpt lat="41.287118" lon="1.873960">
        <ele>273.015</ele>
        <time>2021-05-15T16:58:27Z</time>
      </trkpt>
      <trkpt lat="41.287062" lon="1.873776">
        <ele>272.808</ele>
        <time>2021-05-15T16:58:29Z</time>
      </trkpt>
      <trkpt lat="41.287002" lon="1.873489">
        <ele>271.424</ele>
        <time>2021-05-15T16:58:32Z</time>
      </trkpt>
      <trkpt lat="41.286982" lon="1.873396">
        <ele>271.220</ele>
        <time>2021-05-15T16:58:33Z</time>
      </trkpt>
      <trkpt lat="41.286946" lon="1.873213">
        <ele>270.076</ele>
        <time>2021-05-15T16:58:35Z</time>
      </trkpt>
      <trkpt lat="41.286939" lon="1.873121">
        <ele>269.672</ele>
        <time>2021-05-15T16:58:36Z</time>
      </trkpt>
      <trkpt lat="41.286935" lon="1.873030">
        <ele>269.252</ele>
        <time>2021-05-15T16:58:37Z</time>
      </trkpt>
      <trkpt lat="41.286944" lon="1.872869">
        <ele>268.838</ele>
        <time>2021-05-15T16:58:39Z</time>
      </trkpt>
      <trkpt lat="41.286973" lon="1.872722">
        <ele>268.221</ele>
        <time>2021-05-15T16:58:41Z</time>
      </trkpt>
      <trkpt lat="41.286992" lon="1.872652">
        <ele>267.867</ele>
        <time>2021-05-15T16:58:42Z</time>
      </trkpt>
      <trkpt lat="41.287066" lon="1.872452">
        <ele>267.282</ele>
        <time>2021-05-15T16:58:45Z</time>
      </trkpt>
      <trkpt lat="41.287084" lon="1.872383">
        <ele>267.043</ele>
        <time>2021-05-15T16:58:46Z</time>
      </trkpt>
      <trkpt lat="41.287139" lon="1.872061">
        <ele>266.617</ele>
        <time>2021-05-15T16:58:50Z</time>
      </trkpt>
      <trkpt lat="41.287143" lon="1.871984">
        <ele>266.408</ele>
        <time>2021-05-15T16:58:51Z</time>
      </trkpt>
      <trkpt lat="41.287133" lon="1.871914">
        <ele>266.215</ele>
        <time>2021-05-15T16:58:52Z</time>
      </trkpt>
      <trkpt lat="41.287107" lon="1.871854">
        <ele>266.281</ele>
        <time>2021-05-15T16:58:53Z</time>
      </trkpt>
      <trkpt lat="41.287027" lon="1.871777">
        <ele>266.047</ele>
        <time>2021-05-15T16:58:55Z</time>
      </trkpt>
      <trkpt lat="41.286894" lon="1.871699">
        <ele>266.023</ele>
        <time>2021-05-15T16:58:58Z</time>
      </trkpt>
      <trkpt lat="41.286794" lon="1.871656">
        <ele>265.443</ele>
        <time>2021-05-15T16:59:00Z</time>
      </trkpt>
      <trkpt lat="41.286738" lon="1.871642">
        <ele>265.249</ele>
        <time>2021-05-15T16:59:01Z</time>
      </trkpt>
      <trkpt lat="41.286541" lon="1.871653">
        <ele>264.642</ele>
        <time>2021-05-15T16:59:04Z</time>
      </trkpt>
      <trkpt lat="41.286472" lon="1.871651">
        <ele>264.498</ele>
        <time>2021-05-15T16:59:05Z</time>
      </trkpt>
      <trkpt lat="41.286270" lon="1.871643">
        <ele>263.877</ele>
        <time>2021-05-15T16:59:08Z</time>
      </trkpt>
      <trkpt lat="41.286209" lon="1.871623">
        <ele>263.861</ele>
        <time>2021-05-15T16:59:09Z</time>
      </trkpt>
      <trkpt lat="41.286155" lon="1.871576">
        <ele>263.627</ele>
        <time>2021-05-15T16:59:10Z</time>
      </trkpt>
      <trkpt lat="41.286061" lon="1.871446">
        <ele>263.408</ele>
        <time>2021-05-15T16:59:12Z</time>
      </trkpt>
      <trkpt lat="41.286007" lon="1.871294">
        <ele>263.094</ele>
        <time>2021-05-15T16:59:14Z</time>
      </trkpt>
      <trkpt lat="41.285980" lon="1.871124">
        <ele>263.010</ele>
        <time>2021-05-15T16:59:16Z</time>
      </trkpt>
      <trkpt lat="41.286009" lon="1.870967">
        <ele>262.886</ele>
        <time>2021-05-15T16:59:18Z</time>
      </trkpt>
      <trkpt lat="41.286050" lon="1.870903">
        <ele>262.832</ele>
        <time>2021-05-15T16:59:19Z</time>
      </trkpt>
      <trkpt lat="41.286251" lon="1.870659">
        <ele>262.252</ele>
        <time>2021-05-15T16:59:23Z</time>
      </trkpt>
      <trkpt lat="41.286399" lon="1.870475">
        <ele>261.238</ele>
        <time>2021-05-15T16:59:26Z</time>
      </trkpt>
      <trkpt lat="41.286430" lon="1.870393">
        <ele>260.821</ele>
        <time>2021-05-15T16:59:27Z</time>
      </trkpt>
      <trkpt lat="41.286446" lon="1.870302">
        <ele>260.647</ele>
        <time>2021-05-15T16:59:28Z</time>
      </trkpt>
      <trkpt lat="41.286472" lon="1.870129">
        <ele>260.423</ele>
        <time>2021-05-15T16:59:30Z</time>
      </trkpt>
      <trkpt lat="41.286496" lon="1.870057">
        <ele>260.283</ele>
        <time>2021-05-15T16:59:31Z</time>
      </trkpt>
      <trkpt lat="41.286677" lon="1.869603">
        <ele>260.011</ele>
        <time>2021-05-15T16:59:37Z</time>
      </trkpt>
      <trkpt lat="41.286738" lon="1.869355">
        <ele>259.808</ele>
        <time>2021-05-15T16:59:40Z</time>
      </trkpt>
      <trkpt lat="41.286790" lon="1.869106">
        <ele>259.689</ele>
        <time>2021-05-15T16:59:43Z</time>
      </trkpt>
      <trkpt lat="41.286823" lon="1.868939">
        <ele>259.225</ele>
        <time>2021-05-15T16:59:45Z</time>
      </trkpt>
      <trkpt lat="41.286934" lon="1.868529">
        <ele>258.471</ele>
        <time>2021-05-15T16:59:50Z</time>
      </trkpt>
      <trkpt lat="41.286979" lon="1.868363">
        <ele>258.277</ele>
        <time>2021-05-15T16:59:52Z</time>
      </trkpt>
      <trkpt lat="41.287056" lon="1.868228">
        <ele>257.847</ele>
        <time>2021-05-15T16:59:54Z</time>
      </trkpt>
      <trkpt lat="41.287343" lon="1.868008">
        <ele>257.243</ele>
        <time>2021-05-15T16:59:59Z</time>
      </trkpt>
      <trkpt lat="41.287701" lon="1.867786">
        <ele>256.236</ele>
        <time>2021-05-15T17:00:05Z</time>
      </trkpt>
      <trkpt lat="41.287738" lon="1.867724">
        <ele>255.812</ele>
        <time>2021-05-15T17:00:06Z</time>
      </trkpt>
      <trkpt lat="41.287790" lon="1.867567">
        <ele>255.435</ele>
        <time>2021-05-15T17:00:08Z</time>
      </trkpt>
      <trkpt lat="41.287848" lon="1.867413">
        <ele>255.486</ele>
        <time>2021-05-15T17:00:10Z</time>
      </trkpt>
      <trkpt lat="41.287929" lon="1.867297">
        <ele>255.414</ele>
        <time>2021-05-15T17:00:12Z</time>
      </trkpt>
      <trkpt lat="41.288013" lon="1.867186">
        <ele>254.608</ele>
        <time>2021-05-15T17:00:14Z</time>
      </trkpt>
      <trkpt lat="41.288049" lon="1.867127">
        <ele>254.410</ele>
        <time>2021-05-15T17:00:15Z</time>
      </trkpt>
      <trkpt lat="41.288121" lon="1.866986">
        <ele>253.836</ele>
        <time>2021-05-15T17:00:17Z</time>
      </trkpt>
      <trkpt lat="41.288223" lon="1.866768">
        <ele>253.652</ele>
        <time>2021-05-15T17:00:20Z</time>
      </trkpt>
      <trkpt lat="41.288351" lon="1.866451">
        <ele>253.288</ele>
        <time>2021-05-15T17:00:24Z</time>
      </trkpt>
      <trkpt lat="41.288485" lon="1.866218">
        <ele>252.478</ele>
        <time>2021-05-15T17:00:27Z</time>
      </trkpt>
      <trkpt lat="41.288595" lon="1.866096">
        <ele>252.464</ele>
        <time>2021-05-15T17:00:29Z</time>
      </trkpt>
      <trkpt lat="41.288785" lon="1.865951">
        <ele>251.817</ele>
        <time>2021-05-15T17:00:33Z</time>
      </trkpt>
      <trkpt lat="41.288829" lon="1.865927">
        <ele>251.433</ele>
        <time>2021-05-15T17:00:34Z</time>
      </trkpt>
      <trkpt lat="41.288969" lon="1.865855">
        <ele>250.812</ele>
        <time>2021-05-15T17:00:37Z</time>
      </trkpt>
      <trkpt lat="41.289073" lon="1.865827">
        <ele>250.832</ele>
        <time>2021-05-15T17:00:39Z</time>
      </trkpt>
      <trkpt lat="41.289129" lon="1.865822">
        <ele>251.005</ele>
        <time>2021-05-15T17:00:40Z</time>
      </trkpt>
      <trkpt lat="41.289182" lon="1.865822">
        <ele>251.008</ele>
        <time>2021-05-15T17:00:41Z</time>
      </trkpt>
      <trkpt lat="41.289288" lon="1.865842">
        <ele>250.888</ele>
        <time>2021-05-15T17:00:43Z</time>
      </trkpt>
      <trkpt lat="41.289404" lon="1.865885">
        <ele>250.834</ele>
        <time>2021-05-15T17:00:45Z</time>
      </trkpt>
      <trkpt lat="41.289468" lon="1.865904">
        <ele>250.640</ele>
        <time>2021-05-15T17:00:46Z</time>
      </trkpt>
      <trkpt lat="41.289536" lon="1.865913">
        <ele>250.236</ele>
        <time>2021-05-15T17:00:47Z</time>
      </trkpt>
      <trkpt lat="41.289689" lon="1.865903">
        <ele>249.896</ele>
        <time>2021-05-15T17:00:49Z</time>
      </trkpt>
      <trkpt lat="41.289934" lon="1.865798">
        <ele>249.282</ele>
        <time>2021-05-15T17:00:53Z</time>
      </trkpt>
      <trkpt lat="41.290105" lon="1.865673">
        <ele>249.055</ele>
        <time>2021-05-15T17:00:56Z</time>
      </trkpt>
      <trkpt lat="41.290208" lon="1.865540">
        <ele>248.831</ele>
        <time>2021-05-15T17:00:58Z</time>
      </trkpt>
      <trkpt lat="41.290407" lon="1.865255">
        <ele>248.255</ele>
        <time>2021-05-15T17:01:02Z</time>
      </trkpt>
      <trkpt lat="41.290448" lon="1.865180">
        <ele>248.007</ele>
        <time>2021-05-15T17:01:03Z</time>
      </trkpt>
      <trkpt lat="41.290616" lon="1.864767">
        <ele>247.417</ele>
        <time>2021-05-15T17:01:08Z</time>
      </trkpt>
      <trkpt lat="41.290734" lon="1.864530">
        <ele>247.208</ele>
        <time>2021-05-15T17:01:11Z</time>
      </trkpt>
      <trkpt lat="41.290792" lon="1.864473">
        <ele>247.092</ele>
        <time>2021-05-15T17:01:12Z</time>
      </trkpt>
      <trkpt lat="41.290871" lon="1.864438">
        <ele>247.058</ele>
        <time>2021-05-15T17:01:13Z</time>
      </trkpt>
      <trkpt lat="41.290992" lon="1.864439">
        <ele>247.014</ele>
        <time>2021-05-15T17:01:15Z</time>
      </trkpt>
      <trkpt lat="41.291146" lon="1.864444">
        <ele>247.040</ele>
        <time>2021-05-15T17:01:17Z</time>
      </trkpt>
      <trkpt lat="41.291201" lon="1.864436">
        <ele>246.820</ele>
        <time>2021-05-15T17:01:18Z</time>
      </trkpt>
      <trkpt lat="41.291308" lon="1.864377">
        <ele>246.086</ele>
        <time>2021-05-15T17:01:20Z</time>
      </trkpt>
      <trkpt lat="41.291362" lon="1.864272">
        <ele>244.419</ele>
        <time>2021-05-15T17:01:22Z</time>
      </trkpt>
      <trkpt lat="41.291383" lon="1.864212">
        <ele>244.275</ele>
        <time>2021-05-15T17:01:23Z</time>
      </trkpt>
      <trkpt lat="41.291426" lon="1.864085">
        <ele>243.489</ele>
        <time>2021-05-15T17:01:25Z</time>
      </trkpt>
      <trkpt lat="41.291549" lon="1.863737">
        <ele>242.806</ele>
        <time>2021-05-15T17:01:30Z</time>
      </trkpt>
      <trkpt lat="41.291642" lon="1.863686">
        <ele>242.826</ele>
        <time>2021-05-15T17:01:32Z</time>
      </trkpt>
      <trkpt lat="41.291732" lon="1.863710">
        <ele>242.208</ele>
        <time>2021-05-15T17:01:34Z</time>
      </trkpt>
      <trkpt lat="41.291773" lon="1.863718">
        <ele>242.225</ele>
        <time>2021-05-15T17:01:35Z</time>
      </trkpt>
      <trkpt lat="41.291814" lon="1.863717">
        <ele>242.221</ele>
        <time>2021-05-15T17:01:36Z</time>
      </trkpt>
      <trkpt lat="41.291866" lon="1.863701">
        <ele>242.267</ele>
        <time>2021-05-15T17:01:37Z</time>
      </trkpt>
      <trkpt lat="41.291943" lon="1.863646">
        <ele>241.853</ele>
        <time>2021-05-15T17:01:39Z</time>
      </trkpt>
      <trkpt lat="41.291965" lon="1.863587">
        <ele>241.643</ele>
        <time>2021-05-15T17:01:40Z</time>
      </trkpt>
      <trkpt lat="41.291969" lon="1.863509">
        <ele>241.279</ele>
        <time>2021-05-15T17:01:41Z</time>
      </trkpt>
      <trkpt lat="41.291973" lon="1.863352">
        <ele>240.642</ele>
        <time>2021-05-15T17:01:43Z</time>
      </trkpt>
      <trkpt lat="41.292032" lon="1.863228">
        <ele>240.468</ele>
        <time>2021-05-15T17:01:45Z</time>
      </trkpt>
      <trkpt lat="41.292078" lon="1.863189">
        <ele>240.417</ele>
        <time>2021-05-15T17:01:46Z</time>
      </trkpt>
      <trkpt lat="41.292233" lon="1.863086">
        <ele>240.487</ele>
        <time>2021-05-15T17:01:49Z</time>
      </trkpt>
      <trkpt lat="41.292403" lon="1.863023">
        <ele>240.415</ele>
        <time>2021-05-15T17:01:52Z</time>
      </trkpt>
      <trkpt lat="41.292599" lon="1.862951">
        <ele>240.008</ele>
        <time>2021-05-15T17:01:55Z</time>
      </trkpt>
      <trkpt lat="41.292659" lon="1.862908">
        <ele>239.878</ele>
        <time>2021-05-15T17:01:56Z</time>
      </trkpt>
      <trkpt lat="41.292712" lon="1.862850">
        <ele>239.634</ele>
        <time>2021-05-15T17:01:57Z</time>
      </trkpt>
      <trkpt lat="41.292859" lon="1.862683">
        <ele>239.080</ele>
        <time>2021-05-15T17:02:00Z</time>
      </trkpt>
      <trkpt lat="41.292950" lon="1.862585">
        <ele>239.446</ele>
        <time>2021-05-15T17:02:02Z</time>
      </trkpt>
      <trkpt lat="41.293026" lon="1.862468">
        <ele>239.296</ele>
        <time>2021-05-15T17:02:04Z</time>
      </trkpt>
      <trkpt lat="41.293086" lon="1.862323">
        <ele>239.012</ele>
        <time>2021-05-15T17:02:06Z</time>
      </trkpt>
      <trkpt lat="41.293199" lon="1.862042">
        <ele>238.095</ele>
        <time>2021-05-15T17:02:10Z</time>
      </trkpt>
      <trkpt lat="41.293221" lon="1.861993">
        <ele>237.661</ele>
        <time>2021-05-15T17:02:11Z</time>
      </trkpt>
      <trkpt lat="41.293231" lon="1.861944">
        <ele>236.874</ele>
        <time>2021-05-15T17:02:13Z</time>
      </trkpt>
      <trkpt lat="41.293228" lon="1.861874">
        <ele>236.856</ele>
        <time>2021-05-15T17:02:16Z</time>
      </trkpt>
      <trkpt lat="41.293235" lon="1.861809">
        <ele>237.421</ele>
        <time>2021-05-15T17:02:19Z</time>
      </trkpt>
      <trkpt lat="41.293223" lon="1.861744">
        <ele>238.008</ele>
        <time>2021-05-15T17:02:22Z</time>
      </trkpt>
      <trkpt lat="41.293209" lon="1.861616">
        <ele>238.494</ele>
        <time>2021-05-15T17:02:26Z</time>
      </trkpt>
      <trkpt lat="41.293206" lon="1.861378">
        <ele>239.010</ele>
        <time>2021-05-15T17:02:32Z</time>
      </trkpt>
      <trkpt lat="41.293233" lon="1.861146">
        <ele>240.036</ele>
        <time>2021-05-15T17:02:38Z</time>
      </trkpt>
      <trkpt lat="41.293243" lon="1.861070">
        <ele>240.412</ele>
        <time>2021-05-15T17:02:40Z</time>
      </trkpt>
      <trkpt lat="41.293245" lon="1.860870">
        <ele>241.252</ele>
        <time>2021-05-15T17:02:45Z</time>
      </trkpt>
      <trkpt lat="41.293243" lon="1.860715">
        <ele>241.678</ele>
        <time>2021-05-15T17:02:49Z</time>
      </trkpt>
      <trkpt lat="41.293242" lon="1.860639">
        <ele>242.211</ele>
        <time>2021-05-15T17:02:51Z</time>
      </trkpt>
      <trkpt lat="41.293257" lon="1.860365">
        <ele>243.237</ele>
        <time>2021-05-15T17:02:59Z</time>
      </trkpt>
      <trkpt lat="41.293257" lon="1.860331">
        <ele>243.417</ele>
        <time>2021-05-15T17:03:00Z</time>
      </trkpt>
      <trkpt lat="41.293267" lon="1.860123">
        <ele>244.687</ele>
        <time>2021-05-15T17:03:06Z</time>
      </trkpt>
      <trkpt lat="41.293254" lon="1.859912">
        <ele>245.815</ele>
        <time>2021-05-15T17:03:12Z</time>
      </trkpt>
      <trkpt lat="41.293246" lon="1.859846">
        <ele>246.008</ele>
        <time>2021-05-15T17:03:14Z</time>
      </trkpt>
      <trkpt lat="41.293243" lon="1.859680">
        <ele>247.088</ele>
        <time>2021-05-15T17:03:19Z</time>
      </trkpt>
      <trkpt lat="41.293248" lon="1.859551">
        <ele>247.664</ele>
        <time>2021-05-15T17:03:23Z</time>
      </trkpt>
      <trkpt lat="41.293246" lon="1.859415">
        <ele>248.080</ele>
        <time>2021-05-15T17:03:27Z</time>
      </trkpt>
      <trkpt lat="41.293229" lon="1.859284">
        <ele>248.616</ele>
        <time>2021-05-15T17:03:32Z</time>
      </trkpt>
      <trkpt lat="41.293210" lon="1.859240">
        <ele>249.076</ele>
        <time>2021-05-15T17:03:34Z</time>
      </trkpt>
      <trkpt lat="41.293166" lon="1.859174">
        <ele>250.092</ele>
        <time>2021-05-15T17:03:37Z</time>
      </trkpt>
      <trkpt lat="41.293138" lon="1.859102">
        <ele>250.835</ele>
        <time>2021-05-15T17:03:40Z</time>
      </trkpt>
      <trkpt lat="41.293124" lon="1.859085">
        <ele>251.251</ele>
        <time>2021-05-15T17:03:41Z</time>
      </trkpt>
      <trkpt lat="41.293026" lon="1.859040">
        <ele>252.235</ele>
        <time>2021-05-15T17:03:46Z</time>
      </trkpt>
      <trkpt lat="41.292946" lon="1.859035">
        <ele>253.486</ele>
        <time>2021-05-15T17:03:50Z</time>
      </trkpt>
      <trkpt lat="41.292889" lon="1.859029">
        <ele>254.414</ele>
        <time>2021-05-15T17:03:53Z</time>
      </trkpt>
      <trkpt lat="41.292870" lon="1.859028">
        <ele>254.808</ele>
        <time>2021-05-15T17:03:54Z</time>
      </trkpt>
      <trkpt lat="41.292798" lon="1.859033">
        <ele>255.660</ele>
        <time>2021-05-15T17:03:58Z</time>
      </trkpt>
      <trkpt lat="41.292721" lon="1.859048">
        <ele>256.636</ele>
        <time>2021-05-15T17:04:02Z</time>
      </trkpt>
      <trkpt lat="41.292653" lon="1.859080">
        <ele>257.822</ele>
        <time>2021-05-15T17:04:06Z</time>
      </trkpt>
      <trkpt lat="41.292586" lon="1.859119">
        <ele>259.078</ele>
        <time>2021-05-15T17:04:11Z</time>
      </trkpt>
      <trkpt lat="41.292556" lon="1.859137">
        <ele>259.648</ele>
        <time>2021-05-15T17:04:13Z</time>
      </trkpt>
      <trkpt lat="41.292526" lon="1.859148">
        <ele>260.244</ele>
        <time>2021-05-15T17:04:15Z</time>
      </trkpt>
      <trkpt lat="41.292462" lon="1.859201">
        <ele>261.637</ele>
        <time>2021-05-15T17:04:20Z</time>
      </trkpt>
      <trkpt lat="41.292431" lon="1.859216">
        <ele>262.033</ele>
        <time>2021-05-15T17:04:22Z</time>
      </trkpt>
      <trkpt lat="41.292383" lon="1.859243">
        <ele>262.814</ele>
        <time>2021-05-15T17:04:25Z</time>
      </trkpt>
      <trkpt lat="41.292358" lon="1.859297">
        <ele>263.454</ele>
        <time>2021-05-15T17:04:28Z</time>
      </trkpt>
      <trkpt lat="41.292331" lon="1.859321">
        <ele>263.809</ele>
        <time>2021-05-15T17:04:30Z</time>
      </trkpt>
      <trkpt lat="41.292312" lon="1.859326">
        <ele>264.208</ele>
        <time>2021-05-15T17:04:31Z</time>
      </trkpt>
      <trkpt lat="41.292280" lon="1.859330">
        <ele>264.658</ele>
        <time>2021-05-15T17:04:33Z</time>
      </trkpt>
      <trkpt lat="41.292255" lon="1.859345">
        <ele>265.054</ele>
        <time>2021-05-15T17:04:35Z</time>
      </trkpt>
      <trkpt lat="41.292237" lon="1.859410">
        <ele>265.640</ele>
        <time>2021-05-15T17:04:38Z</time>
      </trkpt>
      <trkpt lat="41.292225" lon="1.859425">
        <ele>266.036</ele>
        <time>2021-05-15T17:04:39Z</time>
      </trkpt>
      <trkpt lat="41.292184" lon="1.859428">
        <ele>266.656</ele>
        <time>2021-05-15T17:04:42Z</time>
      </trkpt>
      <trkpt lat="41.292172" lon="1.859435">
        <ele>266.882</ele>
        <time>2021-05-15T17:04:43Z</time>
      </trkpt>
      <trkpt lat="41.292151" lon="1.859469">
        <ele>267.225</ele>
        <time>2021-05-15T17:04:45Z</time>
      </trkpt>
      <trkpt lat="41.292137" lon="1.859511">
        <ele>267.861</ele>
        <time>2021-05-15T17:04:47Z</time>
      </trkpt>
      <trkpt lat="41.292113" lon="1.859535">
        <ele>268.297</ele>
        <time>2021-05-15T17:04:49Z</time>
      </trkpt>
      <trkpt lat="41.292098" lon="1.859537">
        <ele>268.423</ele>
        <time>2021-05-15T17:04:50Z</time>
      </trkpt>
      <trkpt lat="41.292069" lon="1.859536">
        <ele>268.825</ele>
        <time>2021-05-15T17:04:52Z</time>
      </trkpt>
      <trkpt lat="41.292060" lon="1.859543">
        <ele>269.008</ele>
        <time>2021-05-15T17:04:53Z</time>
      </trkpt>
      <trkpt lat="41.292039" lon="1.859597">
        <ele>269.496</ele>
        <time>2021-05-15T17:04:56Z</time>
      </trkpt>
      <trkpt lat="41.292023" lon="1.859636">
        <ele>269.862</ele>
        <time>2021-05-15T17:04:58Z</time>
      </trkpt>
      <trkpt lat="41.291976" lon="1.859637">
        <ele>270.438</ele>
        <time>2021-05-15T17:05:01Z</time>
      </trkpt>
      <trkpt lat="41.291960" lon="1.859639">
        <ele>270.864</ele>
        <time>2021-05-15T17:05:02Z</time>
      </trkpt>
      <trkpt lat="41.291934" lon="1.859688">
        <ele>271.654</ele>
        <time>2021-05-15T17:05:05Z</time>
      </trkpt>
      <trkpt lat="41.291917" lon="1.859722">
        <ele>272.070</ele>
        <time>2021-05-15T17:05:07Z</time>
      </trkpt>
      <trkpt lat="41.291867" lon="1.859737">
        <ele>272.443</ele>
        <time>2021-05-15T17:05:10Z</time>
      </trkpt>
      <trkpt lat="41.291838" lon="1.859740">
        <ele>272.689</ele>
        <time>2021-05-15T17:05:12Z</time>
      </trkpt>
      <trkpt lat="41.291810" lon="1.859788">
        <ele>272.841</ele>
        <time>2021-05-15T17:05:15Z</time>
      </trkpt>
      <trkpt lat="41.291729" lon="1.859841">
        <ele>273.881</ele>
        <time>2021-05-15T17:05:20Z</time>
      </trkpt>
      <trkpt lat="41.291654" lon="1.859887">
        <ele>274.609</ele>
        <time>2021-05-15T17:05:25Z</time>
      </trkpt>
      <trkpt lat="41.291646" lon="1.859907">
        <ele>274.808</ele>
        <time>2021-05-15T17:05:26Z</time>
      </trkpt>
      <trkpt lat="41.291621" lon="1.859941">
        <ele>275.461</ele>
        <time>2021-05-15T17:05:28Z</time>
      </trkpt>
      <trkpt lat="41.291587" lon="1.859940">
        <ele>275.867</ele>
        <time>2021-05-15T17:05:30Z</time>
      </trkpt>
      <trkpt lat="41.291571" lon="1.859940">
        <ele>276.073</ele>
        <time>2021-05-15T17:05:31Z</time>
      </trkpt>
      <trkpt lat="41.291524" lon="1.859987">
        <ele>276.889</ele>
        <time>2021-05-15T17:05:35Z</time>
      </trkpt>
      <trkpt lat="41.291512" lon="1.860007">
        <ele>277.019</ele>
        <time>2021-05-15T17:05:36Z</time>
      </trkpt>
      <trkpt lat="41.291443" lon="1.860030">
        <ele>278.065</ele>
        <time>2021-05-15T17:05:40Z</time>
      </trkpt>
      <trkpt lat="41.291425" lon="1.860038">
        <ele>278.298</ele>
        <time>2021-05-15T17:05:41Z</time>
      </trkpt>
      <trkpt lat="41.291332" lon="1.860100">
        <ele>279.054</ele>
        <time>2021-05-15T17:05:47Z</time>
      </trkpt>
      <trkpt lat="41.291315" lon="1.860107">
        <ele>279.269</ele>
        <time>2021-05-15T17:05:48Z</time>
      </trkpt>
      <trkpt lat="41.291236" lon="1.860152">
        <ele>280.404</ele>
        <time>2021-05-15T17:05:53Z</time>
      </trkpt>
      <trkpt lat="41.291203" lon="1.860160">
        <ele>280.624</ele>
        <time>2021-05-15T17:05:55Z</time>
      </trkpt>
      <trkpt lat="41.291139" lon="1.860164">
        <ele>281.608</ele>
        <time>2021-05-15T17:05:59Z</time>
      </trkpt>
      <trkpt lat="41.291093" lon="1.860136">
        <ele>282.653</ele>
        <time>2021-05-15T17:06:02Z</time>
      </trkpt>
      <trkpt lat="41.291008" lon="1.859983">
        <ele>283.219</ele>
        <time>2021-05-15T17:06:09Z</time>
      </trkpt>
      <trkpt lat="41.290948" lon="1.859751">
        <ele>283.615</ele>
        <time>2021-05-15T17:06:16Z</time>
      </trkpt>
      <trkpt lat="41.290944" lon="1.859719">
        <ele>283.891</ele>
        <time>2021-05-15T17:06:17Z</time>
      </trkpt>
      <trkpt lat="41.290923" lon="1.859551">
        <ele>285.071</ele>
        <time>2021-05-15T17:06:22Z</time>
      </trkpt>
      <trkpt lat="41.290921" lon="1.859483">
        <ele>285.487</ele>
        <time>2021-05-15T17:06:24Z</time>
      </trkpt>
      <trkpt lat="41.290924" lon="1.859320">
        <ele>286.010</ele>
        <time>2021-05-15T17:06:29Z</time>
      </trkpt>
      <trkpt lat="41.290938" lon="1.859125">
        <ele>286.886</ele>
        <time>2021-05-15T17:06:35Z</time>
      </trkpt>
      <trkpt lat="41.290946" lon="1.859052">
        <ele>287.069</ele>
        <time>2021-05-15T17:06:37Z</time>
      </trkpt>
      <trkpt lat="41.290950" lon="1.858801">
        <ele>287.404</ele>
        <time>2021-05-15T17:06:44Z</time>
      </trkpt>
      <trkpt lat="41.290952" lon="1.858593">
        <ele>288.224</ele>
        <time>2021-05-15T17:06:50Z</time>
      </trkpt>
      <trkpt lat="41.290951" lon="1.858466">
        <ele>288.608</ele>
        <time>2021-05-15T17:06:54Z</time>
      </trkpt>
      <trkpt lat="41.290927" lon="1.858327">
        <ele>289.223</ele>
        <time>2021-05-15T17:06:59Z</time>
      </trkpt>
      <trkpt lat="41.290894" lon="1.858236">
        <ele>289.829</ele>
        <time>2021-05-15T17:07:02Z</time>
      </trkpt>
      <trkpt lat="41.290824" lon="1.858145">
        <ele>290.255</ele>
        <time>2021-05-15T17:07:06Z</time>
      </trkpt>
      <trkpt lat="41.290792" lon="1.858100">
        <ele>290.681</ele>
        <time>2021-05-15T17:07:08Z</time>
      </trkpt>
      <trkpt lat="41.290632" lon="1.857884">
        <ele>291.451</ele>
        <time>2021-05-15T17:07:16Z</time>
      </trkpt>
      <trkpt lat="41.290604" lon="1.857857">
        <ele>291.447</ele>
        <time>2021-05-15T17:07:17Z</time>
      </trkpt>
      <trkpt lat="41.290376" lon="1.857651">
        <ele>291.230</ele>
        <time>2021-05-15T17:07:24Z</time>
      </trkpt>
      <trkpt lat="41.290331" lon="1.857607">
        <ele>291.246</ele>
        <time>2021-05-15T17:07:25Z</time>
      </trkpt>
      <trkpt lat="41.290132" lon="1.857395">
        <ele>290.085</ele>
        <time>2021-05-15T17:07:30Z</time>
      </trkpt>
      <trkpt lat="41.290073" lon="1.857333">
        <ele>289.689</ele>
        <time>2021-05-15T17:07:31Z</time>
      </trkpt>
      <trkpt lat="41.289962" lon="1.857235">
        <ele>289.217</ele>
        <time>2021-05-15T17:07:33Z</time>
      </trkpt>
      <trkpt lat="41.289913" lon="1.857203">
        <ele>288.608</ele>
        <time>2021-05-15T17:07:34Z</time>
      </trkpt>
      <trkpt lat="41.289847" lon="1.857170">
        <ele>288.285</ele>
        <time>2021-05-15T17:07:35Z</time>
      </trkpt>
      <trkpt lat="41.289760" lon="1.857141">
        <ele>287.291</ele>
        <time>2021-05-15T17:07:36Z</time>
      </trkpt>
      <trkpt lat="41.289549" lon="1.857097">
        <ele>286.247</ele>
        <time>2021-05-15T17:07:39Z</time>
      </trkpt>
      <trkpt lat="41.289453" lon="1.857080">
        <ele>285.653</ele>
        <time>2021-05-15T17:07:40Z</time>
      </trkpt>
      <trkpt lat="41.289370" lon="1.857067">
        <ele>285.243</ele>
        <time>2021-05-15T17:07:41Z</time>
      </trkpt>
      <trkpt lat="41.289194" lon="1.857027">
        <ele>284.049</ele>
        <time>2021-05-15T17:07:43Z</time>
      </trkpt>
      <trkpt lat="41.289110" lon="1.856975">
        <ele>283.042</ele>
        <time>2021-05-15T17:07:44Z</time>
      </trkpt>
      <trkpt lat="41.289048" lon="1.856909">
        <ele>282.678</ele>
        <time>2021-05-15T17:07:45Z</time>
      </trkpt>
      <trkpt lat="41.288964" lon="1.856793">
        <ele>281.211</ele>
        <time>2021-05-15T17:07:46Z</time>
      </trkpt>
      <trkpt lat="41.288910" lon="1.856671">
        <ele>279.621</ele>
        <time>2021-05-15T17:07:47Z</time>
      </trkpt>
      <trkpt lat="41.288879" lon="1.856531">
        <ele>278.203</ele>
        <time>2021-05-15T17:07:48Z</time>
      </trkpt>
      <trkpt lat="41.288865" lon="1.856385">
        <ele>277.208</ele>
        <time>2021-05-15T17:07:49Z</time>
      </trkpt>
      <trkpt lat="41.288862" lon="1.856232">
        <ele>275.878</ele>
        <time>2021-05-15T17:07:50Z</time>
      </trkpt>
      <trkpt lat="41.288863" lon="1.856074">
        <ele>274.494</ele>
        <time>2021-05-15T17:07:51Z</time>
      </trkpt>
      <trkpt lat="41.288859" lon="1.855912">
        <ele>273.210</ele>
        <time>2021-05-15T17:07:52Z</time>
      </trkpt>
      <trkpt lat="41.288843" lon="1.855584">
        <ele>271.246</ele>
        <time>2021-05-15T17:07:54Z</time>
      </trkpt>
      <trkpt lat="41.288838" lon="1.855421">
        <ele>270.436</ele>
        <time>2021-05-15T17:07:55Z</time>
      </trkpt>
      <trkpt lat="41.288832" lon="1.855263">
        <ele>269.082</ele>
        <time>2021-05-15T17:07:56Z</time>
      </trkpt>
      <trkpt lat="41.288823" lon="1.855110">
        <ele>267.675</ele>
        <time>2021-05-15T17:07:57Z</time>
      </trkpt>
      <trkpt lat="41.288815" lon="1.854816">
        <ele>266.451</ele>
        <time>2021-05-15T17:07:59Z</time>
      </trkpt>
      <trkpt lat="41.288823" lon="1.854677">
        <ele>266.253</ele>
        <time>2021-05-15T17:08:00Z</time>
      </trkpt>
      <trkpt lat="41.288839" lon="1.854545">
        <ele>266.004</ele>
        <time>2021-05-15T17:08:01Z</time>
      </trkpt>
      <trkpt lat="41.288916" lon="1.854294">
        <ele>265.414</ele>
        <time>2021-05-15T17:08:03Z</time>
      </trkpt>
      <trkpt lat="41.288960" lon="1.854205">
        <ele>265.008</ele>
        <time>2021-05-15T17:08:04Z</time>
      </trkpt>
      <trkpt lat="41.289062" lon="1.853991">
        <ele>263.272</ele>
        <time>2021-05-15T17:08:06Z</time>
      </trkpt>
      <trkpt lat="41.289092" lon="1.853911">
        <ele>262.638</ele>
        <time>2021-05-15T17:08:07Z</time>
      </trkpt>
      <trkpt lat="41.289095" lon="1.853853">
        <ele>262.014</ele>
        <time>2021-05-15T17:08:08Z</time>
      </trkpt>
      <trkpt lat="41.289073" lon="1.853827">
        <ele>261.290</ele>
        <time>2021-05-15T17:08:09Z</time>
      </trkpt>
      <trkpt lat="41.289030" lon="1.853823">
        <ele>260.620</ele>
        <time>2021-05-15T17:08:10Z</time>
      </trkpt>
      <trkpt lat="41.288991" lon="1.853854">
        <ele>260.416</ele>
        <time>2021-05-15T17:08:11Z</time>
      </trkpt>
      <trkpt lat="41.288942" lon="1.853909">
        <ele>260.239</ele>
        <time>2021-05-15T17:08:12Z</time>
      </trkpt>
      <trkpt lat="41.288852" lon="1.854022">
        <ele>259.445</ele>
        <time>2021-05-15T17:08:14Z</time>
      </trkpt>
      <trkpt lat="41.288806" lon="1.854085">
        <ele>259.229</ele>
        <time>2021-05-15T17:08:15Z</time>
      </trkpt>
      <trkpt lat="41.288586" lon="1.854340">
        <ele>258.200</ele>
        <time>2021-05-15T17:08:19Z</time>
      </trkpt>
      <trkpt lat="41.288480" lon="1.854476">
        <ele>257.420</ele>
        <time>2021-05-15T17:08:21Z</time>
      </trkpt>
      <trkpt lat="41.288425" lon="1.854543">
        <ele>257.208</ele>
        <time>2021-05-15T17:08:22Z</time>
      </trkpt>
      <trkpt lat="41.288264" lon="1.854764">
        <ele>255.839</ele>
        <time>2021-05-15T17:08:25Z</time>
      </trkpt>
      <trkpt lat="41.288051" lon="1.855074">
        <ele>254.625</ele>
        <time>2021-05-15T17:08:29Z</time>
      </trkpt>
      <trkpt lat="41.287938" lon="1.855216">
        <ele>253.631</ele>
        <time>2021-05-15T17:08:31Z</time>
      </trkpt>
      <trkpt lat="41.287804" lon="1.855388">
        <ele>252.627</ele>
        <time>2021-05-15T17:08:33Z</time>
      </trkpt>
      <trkpt lat="41.287686" lon="1.855524">
        <ele>251.887</ele>
        <time>2021-05-15T17:08:35Z</time>
      </trkpt>
      <trkpt lat="41.287595" lon="1.855591">
        <ele>251.473</ele>
        <time>2021-05-15T17:08:36Z</time>
      </trkpt>
      <trkpt lat="41.287515" lon="1.855617">
        <ele>251.236</ele>
        <time>2021-05-15T17:08:37Z</time>
      </trkpt>
      <trkpt lat="41.287360" lon="1.855625">
        <ele>250.892</ele>
        <time>2021-05-15T17:08:39Z</time>
      </trkpt>
      <trkpt lat="41.287161" lon="1.855646">
        <ele>250.892</ele>
        <time>2021-05-15T17:08:42Z</time>
      </trkpt>
      <trkpt lat="41.287099" lon="1.855671">
        <ele>250.673</ele>
        <time>2021-05-15T17:08:43Z</time>
      </trkpt>
      <trkpt lat="41.287036" lon="1.855708">
        <ele>250.420</ele>
        <time>2021-05-15T17:08:44Z</time>
      </trkpt>
      <trkpt lat="41.286864" lon="1.855884">
        <ele>249.608</ele>
        <time>2021-05-15T17:08:47Z</time>
      </trkpt>
      <trkpt lat="41.286809" lon="1.855958">
        <ele>249.276</ele>
        <time>2021-05-15T17:08:48Z</time>
      </trkpt>
      <trkpt lat="41.286694" lon="1.856113">
        <ele>248.872</ele>
        <time>2021-05-15T17:08:50Z</time>
      </trkpt>
      <trkpt lat="41.286560" lon="1.856194">
        <ele>248.448</ele>
        <time>2021-05-15T17:08:52Z</time>
      </trkpt>
      <trkpt lat="41.286491" lon="1.856184">
        <ele>248.214</ele>
        <time>2021-05-15T17:08:53Z</time>
      </trkpt>
      <trkpt lat="41.286439" lon="1.856143">
        <ele>247.854</ele>
        <time>2021-05-15T17:08:54Z</time>
      </trkpt>
      <trkpt lat="41.286406" lon="1.856018">
        <ele>247.410</ele>
        <time>2021-05-15T17:08:56Z</time>
      </trkpt>
      <trkpt lat="41.286410" lon="1.855657">
        <ele>247.823</ele>
        <time>2021-05-15T17:09:02Z</time>
      </trkpt>
      <trkpt lat="41.286356" lon="1.855299">
        <ele>248.859</ele>
        <time>2021-05-15T17:09:09Z</time>
      </trkpt>
      <trkpt lat="41.286347" lon="1.855246">
        <ele>249.081</ele>
        <time>2021-05-15T17:09:10Z</time>
      </trkpt>
      <trkpt lat="41.286341" lon="1.855194">
        <ele>249.261</ele>
        <time>2021-05-15T17:09:11Z</time>
      </trkpt>
      <trkpt lat="41.286320" lon="1.855040">
        <ele>250.017</ele>
        <time>2021-05-15T17:09:14Z</time>
      </trkpt>
      <trkpt lat="41.286316" lon="1.854999">
        <ele>250.208</ele>
        <time>2021-05-15T17:09:15Z</time>
      </trkpt>
      <trkpt lat="41.286313" lon="1.854825">
        <ele>250.825</ele>
        <time>2021-05-15T17:09:18Z</time>
      </trkpt>
      <trkpt lat="41.286318" lon="1.854773">
        <ele>250.871</ele>
        <time>2021-05-15T17:09:19Z</time>
      </trkpt>
      <trkpt lat="41.286362" lon="1.854558">
        <ele>251.217</ele>
        <time>2021-05-15T17:09:23Z</time>
      </trkpt>
      <trkpt lat="41.286408" lon="1.854419">
        <ele>251.473</ele>
        <time>2021-05-15T17:09:26Z</time>
      </trkpt>
      <trkpt lat="41.286531" lon="1.854024">
        <ele>252.433</ele>
        <time>2021-05-15T17:09:34Z</time>
      </trkpt>
      <trkpt lat="41.286543" lon="1.853971">
        <ele>252.649</ele>
        <time>2021-05-15T17:09:35Z</time>
      </trkpt>
      <trkpt lat="41.286663" lon="1.853542">
        <ele>253.412</ele>
        <time>2021-05-15T17:09:44Z</time>
      </trkpt>
      <trkpt lat="41.286734" lon="1.853288">
        <ele>254.678</ele>
        <time>2021-05-15T17:09:50Z</time>
      </trkpt>
      <trkpt lat="41.286754" lon="1.853204">
        <ele>254.873</ele>
        <time>2021-05-15T17:09:52Z</time>
      </trkpt>
      <trkpt lat="41.286781" lon="1.853081">
        <ele>255.685</ele>
        <time>2021-05-15T17:09:55Z</time>
      </trkpt>
      <trkpt lat="41.286830" lon="1.852912">
        <ele>256.413</ele>
        <time>2021-05-15T17:09:59Z</time>
      </trkpt>
      <trkpt lat="41.286872" lon="1.852702">
        <ele>256.408</ele>
        <time>2021-05-15T17:10:03Z</time>
      </trkpt>
      <trkpt lat="41.286871" lon="1.852572">
        <ele>255.834</ele>
        <time>2021-05-15T17:10:05Z</time>
      </trkpt>
      <trkpt lat="41.286837" lon="1.852471">
        <ele>255.240</ele>
        <time>2021-05-15T17:10:07Z</time>
      </trkpt>
      <trkpt lat="41.286817" lon="1.852443">
        <ele>254.876</ele>
        <time>2021-05-15T17:10:08Z</time>
      </trkpt>
      <trkpt lat="41.286805" lon="1.852429">
        <ele>254.012</ele>
        <time>2021-05-15T17:10:09Z</time>
      </trkpt>
      <trkpt lat="41.286805" lon="1.852425">
        <ele>253.492</ele>
        <time>2021-05-15T17:10:11Z</time>
      </trkpt>
      <trkpt lat="41.286805" lon="1.852425">
        <ele>253.058</ele>
        <time>2021-05-15T17:10:18Z</time>
      </trkpt>
      <trkpt lat="41.286805" lon="1.852425">
        <ele>252.861</ele>
        <time>2021-05-15T17:10:22Z</time>
      </trkpt>
      <trkpt lat="41.286805" lon="1.852425">
        <ele>252.867</ele>
        <time>2021-05-15T17:10:23Z</time>
      </trkpt>
      <trkpt lat="41.286805" lon="1.852425">
        <ele>252.869</ele>
        <time>2021-05-15T17:10:26Z</time>
      </trkpt>
      <trkpt lat="41.286805" lon="1.852425">
        <ele>252.804</ele>
        <time>2021-05-15T17:10:29Z</time>
      </trkpt>
      <trkpt lat="41.286805" lon="1.852425">
        <ele>252.624</ele>
        <time>2021-05-15T17:10:34Z</time>
      </trkpt>
      <trkpt lat="41.286805" lon="1.852425">
        <ele>252.608</ele>
        <time>2021-05-15T17:10:37Z</time>
      </trkpt>
      <trkpt lat="41.286805" lon="1.852425">
        <ele>252.693</ele>
        <time>2021-05-15T17:10:39Z</time>
      </trkpt>
      <trkpt lat="41.286805" lon="1.852425">
        <ele>252.699</ele>
        <time>2021-05-15T17:10:44Z</time>
      </trkpt>
      <trkpt lat="41.286775" lon="1.852408">
        <ele>252.875</ele>
        <time>2021-05-15T17:10:46Z</time>
      </trkpt>
      <trkpt lat="41.286738" lon="1.852390">
        <ele>252.821</ele>
        <time>2021-05-15T17:10:47Z</time>
      </trkpt>
      <trkpt lat="41.286643" lon="1.852359">
        <ele>252.671</ele>
        <time>2021-05-15T17:10:49Z</time>
      </trkpt>
      <trkpt lat="41.286515" lon="1.852312">
        <ele>252.067</ele>
        <time>2021-05-15T17:10:51Z</time>
      </trkpt>
      <trkpt lat="41.286457" lon="1.852270">
        <ele>252.080</ele>
        <time>2021-05-15T17:10:52Z</time>
      </trkpt>
      <trkpt lat="41.286414" lon="1.852232">
        <ele>252.046</ele>
        <time>2021-05-15T17:10:53Z</time>
      </trkpt>
      <trkpt lat="41.286331" lon="1.852123">
        <ele>251.843</ele>
        <time>2021-05-15T17:10:55Z</time>
      </trkpt>
      <trkpt lat="41.286237" lon="1.851850">
        <ele>252.264</ele>
        <time>2021-05-15T17:10:59Z</time>
      </trkpt>
      <trkpt lat="41.286187" lon="1.851632">
        <ele>253.010</ele>
        <time>2021-05-15T17:11:03Z</time>
      </trkpt>
      <trkpt lat="41.286159" lon="1.851542">
        <ele>253.608</ele>
        <time>2021-05-15T17:11:05Z</time>
      </trkpt>
      <trkpt lat="41.286099" lon="1.851354">
        <ele>254.231</ele>
        <time>2021-05-15T17:11:09Z</time>
      </trkpt>
      <trkpt lat="41.286051" lon="1.851217">
        <ele>255.057</ele>
        <time>2021-05-15T17:11:12Z</time>
      </trkpt>
      <trkpt lat="41.286011" lon="1.851126">
        <ele>255.283</ele>
        <time>2021-05-15T17:11:14Z</time>
      </trkpt>
      <trkpt lat="41.285987" lon="1.851075">
        <ele>255.259</ele>
        <time>2021-05-15T17:11:15Z</time>
      </trkpt>
      <trkpt lat="41.285942" lon="1.850952">
        <ele>255.279</ele>
        <time>2021-05-15T17:11:17Z</time>
      </trkpt>
      <trkpt lat="41.285921" lon="1.850880">
        <ele>255.215</ele>
        <time>2021-05-15T17:11:18Z</time>
      </trkpt>
      <trkpt lat="41.285902" lon="1.850802">
        <ele>255.058</ele>
        <time>2021-05-15T17:11:19Z</time>
      </trkpt>
      <trkpt lat="41.285857" lon="1.850489">
        <ele>254.624</ele>
        <time>2021-05-15T17:11:23Z</time>
      </trkpt>
      <trkpt lat="41.285786" lon="1.850043">
        <ele>254.695</ele>
        <time>2021-05-15T17:11:29Z</time>
      </trkpt>
      <trkpt lat="41.285670" lon="1.849285">
        <ele>255.049</ele>
        <time>2021-05-15T17:11:40Z</time>
      </trkpt>
      <trkpt lat="41.285573" lon="1.848819">
        <ele>255.223</ele>
        <time>2021-05-15T17:11:47Z</time>
      </trkpt>
      <trkpt lat="41.285498" lon="1.848710">
        <ele>255.208</ele>
        <time>2021-05-15T17:11:49Z</time>
      </trkpt>
      <trkpt lat="41.285446" lon="1.848662">
        <ele>255.066</ele>
        <time>2021-05-15T17:11:50Z</time>
      </trkpt>
      <trkpt lat="41.285332" lon="1.848557">
        <ele>254.252</ele>
        <time>2021-05-15T17:11:52Z</time>
      </trkpt>
      <trkpt lat="41.285274" lon="1.848488">
        <ele>253.838</ele>
        <time>2021-05-15T17:11:53Z</time>
      </trkpt>
      <trkpt lat="41.285221" lon="1.848408">
        <ele>253.214</ele>
        <time>2021-05-15T17:11:54Z</time>
      </trkpt>
      <trkpt lat="41.285177" lon="1.848322">
        <ele>252.824</ele>
        <time>2021-05-15T17:11:55Z</time>
      </trkpt>
      <trkpt lat="41.285117" lon="1.848139">
        <ele>252.250</ele>
        <time>2021-05-15T17:11:57Z</time>
      </trkpt>
      <trkpt lat="41.285072" lon="1.847956">
        <ele>252.233</ele>
        <time>2021-05-15T17:11:59Z</time>
      </trkpt>
      <trkpt lat="41.285040" lon="1.847780">
        <ele>251.859</ele>
        <time>2021-05-15T17:12:01Z</time>
      </trkpt>
      <trkpt lat="41.285005" lon="1.847528">
        <ele>251.873</ele>
        <time>2021-05-15T17:12:04Z</time>
      </trkpt>
      <trkpt lat="41.284916" lon="1.847052">
        <ele>252.485</ele>
        <time>2021-05-15T17:12:10Z</time>
      </trkpt>
      <trkpt lat="41.284855" lon="1.846751">
        <ele>252.813</ele>
        <time>2021-05-15T17:12:14Z</time>
      </trkpt>
      <trkpt lat="41.284814" lon="1.846452">
        <ele>253.208</ele>
        <time>2021-05-15T17:12:18Z</time>
      </trkpt>
      <trkpt lat="41.284796" lon="1.846038">
        <ele>254.254</ele>
        <time>2021-05-15T17:12:24Z</time>
      </trkpt>
      <trkpt lat="41.284798" lon="1.845974">
        <ele>254.230</ele>
        <time>2021-05-15T17:12:25Z</time>
      </trkpt>
      <trkpt lat="41.284800" lon="1.845906">
        <ele>254.636</ele>
        <time>2021-05-15T17:12:26Z</time>
      </trkpt>
      <trkpt lat="41.284879" lon="1.845490">
        <ele>254.872</ele>
        <time>2021-05-15T17:12:32Z</time>
      </trkpt>
      <trkpt lat="41.285062" lon="1.844975">
        <ele>253.412</ele>
        <time>2021-05-15T17:12:40Z</time>
      </trkpt>
      <trkpt lat="41.285083" lon="1.844923">
        <ele>253.258</ele>
        <time>2021-05-15T17:12:41Z</time>
      </trkpt>
      <trkpt lat="41.285106" lon="1.844875">
        <ele>253.281</ele>
        <time>2021-05-15T17:12:42Z</time>
      </trkpt>
      <trkpt lat="41.285206" lon="1.844692">
        <ele>252.857</ele>
        <time>2021-05-15T17:12:46Z</time>
      </trkpt>
      <trkpt lat="41.285314" lon="1.844455">
        <ele>252.435</ele>
        <time>2021-05-15T17:12:51Z</time>
      </trkpt>
      <trkpt lat="41.285346" lon="1.844362">
        <ele>252.486</ele>
        <time>2021-05-15T17:12:53Z</time>
      </trkpt>
      <trkpt lat="41.285360" lon="1.844307">
        <ele>252.414</ele>
        <time>2021-05-15T17:12:54Z</time>
      </trkpt>
      <trkpt lat="41.285371" lon="1.844180">
        <ele>252.208</ele>
        <time>2021-05-15T17:12:56Z</time>
      </trkpt>
      <trkpt lat="41.285375" lon="1.844057">
        <ele>251.860</ele>
        <time>2021-05-15T17:12:58Z</time>
      </trkpt>
      <trkpt lat="41.285373" lon="1.843973">
        <ele>251.296</ele>
        <time>2021-05-15T17:12:59Z</time>
      </trkpt>
      <trkpt lat="41.285356" lon="1.843749">
        <ele>250.492</ele>
        <time>2021-05-15T17:13:02Z</time>
      </trkpt>
      <trkpt lat="41.285356" lon="1.843664">
        <ele>249.888</ele>
        <time>2021-05-15T17:13:03Z</time>
      </trkpt>
      <trkpt lat="41.285355" lon="1.843401">
        <ele>248.638</ele>
        <time>2021-05-15T17:13:06Z</time>
      </trkpt>
      <trkpt lat="41.285373" lon="1.843136">
        <ele>247.444</ele>
        <time>2021-05-15T17:13:09Z</time>
      </trkpt>
      <trkpt lat="41.285407" lon="1.843007">
        <ele>246.027</ele>
        <time>2021-05-15T17:13:11Z</time>
      </trkpt>
      <trkpt lat="41.285483" lon="1.842702">
        <ele>245.063</ele>
        <time>2021-05-15T17:13:15Z</time>
      </trkpt>
      <trkpt lat="41.285500" lon="1.842628">
        <ele>244.883</ele>
        <time>2021-05-15T17:13:16Z</time>
      </trkpt>
      <trkpt lat="41.285567" lon="1.842412">
        <ele>243.625</ele>
        <time>2021-05-15T17:13:19Z</time>
      </trkpt>
      <trkpt lat="41.285604" lon="1.842271">
        <ele>243.217</ele>
        <time>2021-05-15T17:13:21Z</time>
      </trkpt>
      <trkpt lat="41.285675" lon="1.841994">
        <ele>242.408</ele>
        <time>2021-05-15T17:13:24Z</time>
      </trkpt>
      <trkpt lat="41.285713" lon="1.841826">
        <ele>240.615</ele>
        <time>2021-05-15T17:13:26Z</time>
      </trkpt>
      <trkpt lat="41.285737" lon="1.841664">
        <ele>239.241</ele>
        <time>2021-05-15T17:13:29Z</time>
      </trkpt>
      <trkpt lat="41.285739" lon="1.841635">
        <ele>239.027</ele>
        <time>2021-05-15T17:13:30Z</time>
      </trkpt>
      <trkpt lat="41.285739" lon="1.841621">
        <ele>238.443</ele>
        <time>2021-05-15T17:13:33Z</time>
      </trkpt>
      <trkpt lat="41.285739" lon="1.841621">
        <ele>238.253</ele>
        <time>2021-05-15T17:13:34Z</time>
      </trkpt>
      <trkpt lat="41.285739" lon="1.841621">
        <ele>237.869</ele>
        <time>2021-05-15T17:13:39Z</time>
      </trkpt>
      <trkpt lat="41.285739" lon="1.841621">
        <ele>237.662</ele>
        <time>2021-05-15T17:13:41Z</time>
      </trkpt>
      <trkpt lat="41.285739" lon="1.841621">
        <ele>237.438</ele>
        <time>2021-05-15T17:13:48Z</time>
      </trkpt>
      <trkpt lat="41.285739" lon="1.841621">
        <ele>237.659</ele>
        <time>2021-05-15T17:13:57Z</time>
      </trkpt>
      <trkpt lat="41.285739" lon="1.841621">
        <ele>237.603</ele>
        <time>2021-05-15T17:14:00Z</time>
      </trkpt>
      <trkpt lat="41.285739" lon="1.841621">
        <ele>237.423</ele>
        <time>2021-05-15T17:14:10Z</time>
      </trkpt>
      <trkpt lat="41.285739" lon="1.841621">
        <ele>237.208</ele>
        <time>2021-05-15T17:14:32Z</time>
      </trkpt>
      <trkpt lat="41.285739" lon="1.841619">
        <ele>237.072</ele>
        <time>2021-05-15T17:14:35Z</time>
      </trkpt>
      <trkpt lat="41.285728" lon="1.841531">
        <ele>237.058</ele>
        <time>2021-05-15T17:14:37Z</time>
      </trkpt>
      <trkpt lat="41.285720" lon="1.841227">
        <ele>236.424</ele>
        <time>2021-05-15T17:14:41Z</time>
      </trkpt>
      <trkpt lat="41.285705" lon="1.841045">
        <ele>235.850</ele>
        <time>2021-05-15T17:14:43Z</time>
      </trkpt>
      <trkpt lat="41.285644" lon="1.840866">
        <ele>234.880</ele>
        <time>2021-05-15T17:14:45Z</time>
      </trkpt>
      <trkpt lat="41.285534" lon="1.840719">
        <ele>234.296</ele>
        <time>2021-05-15T17:14:47Z</time>
      </trkpt>
      <trkpt lat="41.285409" lon="1.840584">
        <ele>233.679</ele>
        <time>2021-05-15T17:14:49Z</time>
      </trkpt>
      <trkpt lat="41.285291" lon="1.840443">
        <ele>232.415</ele>
        <time>2021-05-15T17:14:51Z</time>
      </trkpt>
      <trkpt lat="41.285177" lon="1.840281">
        <ele>231.098</ele>
        <time>2021-05-15T17:14:53Z</time>
      </trkpt>
      <trkpt lat="41.285124" lon="1.840188">
        <ele>230.615</ele>
        <time>2021-05-15T17:14:54Z</time>
      </trkpt>
      <trkpt lat="41.285077" lon="1.840091">
        <ele>229.826</ele>
        <time>2021-05-15T17:14:55Z</time>
      </trkpt>
      <trkpt lat="41.284977" lon="1.839759">
        <ele>228.008</ele>
        <time>2021-05-15T17:14:58Z</time>
      </trkpt>
      <trkpt lat="41.284955" lon="1.839639">
        <ele>227.056</ele>
        <time>2021-05-15T17:14:59Z</time>
      </trkpt>
      <trkpt lat="41.284934" lon="1.839388">
        <ele>225.272</ele>
        <time>2021-05-15T17:15:01Z</time>
      </trkpt>
      <trkpt lat="41.284918" lon="1.839143">
        <ele>223.828</ele>
        <time>2021-05-15T17:15:03Z</time>
      </trkpt>
      <trkpt lat="41.284833" lon="1.838936">
        <ele>222.434</ele>
        <time>2021-05-15T17:15:05Z</time>
      </trkpt>
      <trkpt lat="41.284687" lon="1.838778">
        <ele>221.484</ele>
        <time>2021-05-15T17:15:07Z</time>
      </trkpt>
      <trkpt lat="41.284618" lon="1.838705">
        <ele>220.250</ele>
        <time>2021-05-15T17:15:08Z</time>
      </trkpt>
      <trkpt lat="41.284563" lon="1.838629">
        <ele>219.493</ele>
        <time>2021-05-15T17:15:09Z</time>
      </trkpt>
      <trkpt lat="41.284529" lon="1.838553">
        <ele>218.429</ele>
        <time>2021-05-15T17:15:10Z</time>
      </trkpt>
      <trkpt lat="41.284514" lon="1.838478">
        <ele>217.466</ele>
        <time>2021-05-15T17:15:11Z</time>
      </trkpt>
      <trkpt lat="41.284501" lon="1.838407">
        <ele>216.229</ele>
        <time>2021-05-15T17:15:12Z</time>
      </trkpt>
      <trkpt lat="41.284464" lon="1.838355">
        <ele>215.221</ele>
        <time>2021-05-15T17:15:13Z</time>
      </trkpt>
      <trkpt lat="41.284405" lon="1.838337">
        <ele>214.208</ele>
        <time>2021-05-15T17:15:14Z</time>
      </trkpt>
      <trkpt lat="41.284339" lon="1.838346">
        <ele>213.813</ele>
        <time>2021-05-15T17:15:15Z</time>
      </trkpt>
      <trkpt lat="41.284193" lon="1.838408">
        <ele>212.839</ele>
        <time>2021-05-15T17:15:17Z</time>
      </trkpt>
      <trkpt lat="41.284109" lon="1.838442">
        <ele>212.445</ele>
        <time>2021-05-15T17:15:18Z</time>
      </trkpt>
      <trkpt lat="41.283943" lon="1.838426">
        <ele>211.481</ele>
        <time>2021-05-15T17:15:20Z</time>
      </trkpt>
      <trkpt lat="41.283870" lon="1.838373">
        <ele>211.231</ele>
        <time>2021-05-15T17:15:21Z</time>
      </trkpt>
      <trkpt lat="41.283800" lon="1.838306">
        <ele>210.897</ele>
        <time>2021-05-15T17:15:22Z</time>
      </trkpt>
      <trkpt lat="41.283736" lon="1.838226">
        <ele>210.070</ele>
        <time>2021-05-15T17:15:23Z</time>
      </trkpt>
      <trkpt lat="41.283613" lon="1.838064">
        <ele>208.636</ele>
        <time>2021-05-15T17:15:25Z</time>
      </trkpt>
      <trkpt lat="41.283497" lon="1.837905">
        <ele>207.629</ele>
        <time>2021-05-15T17:15:27Z</time>
      </trkpt>
      <trkpt lat="41.283454" lon="1.837824">
        <ele>207.400</ele>
        <time>2021-05-15T17:15:28Z</time>
      </trkpt>
      <trkpt lat="41.283424" lon="1.837739">
        <ele>207.220</ele>
        <time>2021-05-15T17:15:29Z</time>
      </trkpt>
      <trkpt lat="41.283422" lon="1.837580">
        <ele>207.008</ele>
        <time>2021-05-15T17:15:31Z</time>
      </trkpt>
      <trkpt lat="41.283440" lon="1.837515">
        <ele>207.249</ele>
        <time>2021-05-15T17:15:32Z</time>
      </trkpt>
      <trkpt lat="41.283543" lon="1.837232">
        <ele>207.655</ele>
        <time>2021-05-15T17:15:37Z</time>
      </trkpt>
      <trkpt lat="41.283628" lon="1.837003">
        <ele>207.841</ele>
        <time>2021-05-15T17:15:41Z</time>
      </trkpt>
      <trkpt lat="41.283711" lon="1.836691">
        <ele>208.217</ele>
        <time>2021-05-15T17:15:46Z</time>
      </trkpt>
      <trkpt lat="41.283750" lon="1.836537">
        <ele>208.077</ele>
        <time>2021-05-15T17:15:48Z</time>
      </trkpt>
      <trkpt lat="41.283777" lon="1.836286">
        <ele>207.673</ele>
        <time>2021-05-15T17:15:51Z</time>
      </trkpt>
      <trkpt lat="41.283762" lon="1.836102">
        <ele>207.216</ele>
        <time>2021-05-15T17:15:53Z</time>
      </trkpt>
      <trkpt lat="41.283707" lon="1.835922">
        <ele>206.682</ele>
        <time>2021-05-15T17:15:55Z</time>
      </trkpt>
      <trkpt lat="41.283612" lon="1.835764">
        <ele>205.438</ele>
        <time>2021-05-15T17:15:57Z</time>
      </trkpt>
      <trkpt lat="41.283490" lon="1.835618">
        <ele>204.270</ele>
        <time>2021-05-15T17:15:59Z</time>
      </trkpt>
      <trkpt lat="41.283362" lon="1.835467">
        <ele>203.017</ele>
        <time>2021-05-15T17:16:01Z</time>
      </trkpt>
      <trkpt lat="41.283298" lon="1.835384">
        <ele>202.208</ele>
        <time>2021-05-15T17:16:02Z</time>
      </trkpt>
      <trkpt lat="41.283238" lon="1.835300">
        <ele>201.220</ele>
        <time>2021-05-15T17:16:03Z</time>
      </trkpt>
      <trkpt lat="41.283175" lon="1.835222">
        <ele>200.236</ele>
        <time>2021-05-15T17:16:04Z</time>
      </trkpt>
      <trkpt lat="41.283107" lon="1.835156">
        <ele>199.042</ele>
        <time>2021-05-15T17:16:05Z</time>
      </trkpt>
      <trkpt lat="41.282990" lon="1.835103">
        <ele>197.638</ele>
        <time>2021-05-15T17:16:07Z</time>
      </trkpt>
      <trkpt lat="41.282787" lon="1.835197">
        <ele>196.258</ele>
        <time>2021-05-15T17:16:10Z</time>
      </trkpt>
      <trkpt lat="41.282571" lon="1.835317">
        <ele>194.424</ele>
        <time>2021-05-15T17:16:13Z</time>
      </trkpt>
      <trkpt lat="41.282487" lon="1.835344">
        <ele>193.887</ele>
        <time>2021-05-15T17:16:14Z</time>
      </trkpt>
      <trkpt lat="41.282402" lon="1.835345">
        <ele>193.033</ele>
        <time>2021-05-15T17:16:15Z</time>
      </trkpt>
      <trkpt lat="41.282326" lon="1.835302">
        <ele>192.624</ele>
        <time>2021-05-15T17:16:16Z</time>
      </trkpt>
      <trkpt lat="41.282266" lon="1.835220">
        <ele>192.004</ele>
        <time>2021-05-15T17:16:17Z</time>
      </trkpt>
      <trkpt lat="41.282224" lon="1.835123">
        <ele>191.614</ele>
        <time>2021-05-15T17:16:18Z</time>
      </trkpt>
      <trkpt lat="41.282116" lon="1.834894">
        <ele>191.008</ele>
        <time>2021-05-15T17:16:21Z</time>
      </trkpt>
      <trkpt lat="41.282101" lon="1.834841">
        <ele>191.029</ele>
        <time>2021-05-15T17:16:22Z</time>
      </trkpt>
      <trkpt lat="41.282098" lon="1.834790">
        <ele>190.415</ele>
        <time>2021-05-15T17:16:23Z</time>
      </trkpt>
      <trkpt lat="41.282098" lon="1.834790">
        <ele>190.011</ele>
        <time>2021-05-15T17:16:24Z</time>
      </trkpt>
      <trkpt lat="41.282137" lon="1.834732">
        <ele>189.817</ele>
        <time>2021-05-15T17:16:25Z</time>
      </trkpt>
      <trkpt lat="41.282175" lon="1.834716">
        <ele>189.617</ele>
        <time>2021-05-15T17:16:26Z</time>
      </trkpt>
      <trkpt lat="41.282219" lon="1.834700">
        <ele>189.423</ele>
        <time>2021-05-15T17:16:27Z</time>
      </trkpt>
      <trkpt lat="41.282301" lon="1.834656">
        <ele>188.826</ele>
        <time>2021-05-15T17:16:29Z</time>
      </trkpt>
      <trkpt lat="41.282326" lon="1.834610">
        <ele>188.622</ele>
        <time>2021-05-15T17:16:30Z</time>
      </trkpt>
      <trkpt lat="41.282361" lon="1.834508">
        <ele>188.227</ele>
        <time>2021-05-15T17:16:32Z</time>
      </trkpt>
      <trkpt lat="41.282395" lon="1.834454">
        <ele>188.068</ele>
        <time>2021-05-15T17:16:33Z</time>
      </trkpt>
      <trkpt lat="41.282431" lon="1.834424">
        <ele>187.814</ele>
        <time>2021-05-15T17:16:34Z</time>
      </trkpt>
      <trkpt lat="41.282538" lon="1.834338">
        <ele>187.208</ele>
        <time>2021-05-15T17:16:36Z</time>
      </trkpt>
      <trkpt lat="41.282581" lon="1.834286">
        <ele>186.629</ele>
        <time>2021-05-15T17:16:37Z</time>
      </trkpt>
      <trkpt lat="41.282609" lon="1.834226">
        <ele>186.435</ele>
        <time>2021-05-15T17:16:38Z</time>
      </trkpt>
      <trkpt lat="41.282619" lon="1.834068">
        <ele>186.081</ele>
        <time>2021-05-15T17:16:40Z</time>
      </trkpt>
      <trkpt lat="41.282613" lon="1.833979">
        <ele>185.837</ele>
        <time>2021-05-15T17:16:41Z</time>
      </trkpt>
      <trkpt lat="41.282621" lon="1.833896">
        <ele>185.897</ele>
        <time>2021-05-15T17:16:42Z</time>
      </trkpt>
      <trkpt lat="41.282652" lon="1.833825">
        <ele>185.453</ele>
        <time>2021-05-15T17:16:43Z</time>
      </trkpt>
      <trkpt lat="41.282692" lon="1.833761">
        <ele>185.266</ele>
        <time>2021-05-15T17:16:44Z</time>
      </trkpt>
      <trkpt lat="41.282782" lon="1.833655">
        <ele>184.872</ele>
        <time>2021-05-15T17:16:46Z</time>
      </trkpt>
      <trkpt lat="41.282819" lon="1.833603">
        <ele>183.885</ele>
        <time>2021-05-15T17:16:47Z</time>
      </trkpt>
      <trkpt lat="41.282849" lon="1.833546">
        <ele>183.489</ele>
        <time>2021-05-15T17:16:48Z</time>
      </trkpt>
      <trkpt lat="41.282876" lon="1.833491">
        <ele>182.817</ele>
        <time>2021-05-15T17:16:49Z</time>
      </trkpt>
      <trkpt lat="41.282939" lon="1.833383">
        <ele>181.208</ele>
        <time>2021-05-15T17:16:51Z</time>
      </trkpt>
      <trkpt lat="41.283007" lon="1.833257">
        <ele>179.815</ele>
        <time>2021-05-15T17:16:53Z</time>
      </trkpt>
      <trkpt lat="41.283047" lon="1.833206">
        <ele>178.691</ele>
        <time>2021-05-15T17:16:54Z</time>
      </trkpt>
      <trkpt lat="41.283095" lon="1.833162">
        <ele>177.867</ele>
        <time>2021-05-15T17:16:55Z</time>
      </trkpt>
      <trkpt lat="41.283144" lon="1.833129">
        <ele>177.253</ele>
        <time>2021-05-15T17:16:56Z</time>
      </trkpt>
      <trkpt lat="41.283197" lon="1.833089">
        <ele>177.053</ele>
        <time>2021-05-15T17:16:57Z</time>
      </trkpt>
      <trkpt lat="41.283305" lon="1.832974">
        <ele>175.839</ele>
        <time>2021-05-15T17:16:59Z</time>
      </trkpt>
      <trkpt lat="41.283389" lon="1.832855">
        <ele>175.072</ele>
        <time>2021-05-15T17:17:01Z</time>
      </trkpt>
      <trkpt lat="41.283399" lon="1.832796">
        <ele>174.668</ele>
        <time>2021-05-15T17:17:02Z</time>
      </trkpt>
      <trkpt lat="41.283395" lon="1.832724">
        <ele>174.072</ele>
        <time>2021-05-15T17:17:03Z</time>
      </trkpt>
      <trkpt lat="41.283380" lon="1.832641">
        <ele>173.213</ele>
        <time>2021-05-15T17:17:04Z</time>
      </trkpt>
      <trkpt lat="41.283357" lon="1.832472">
        <ele>172.214</ele>
        <time>2021-05-15T17:17:06Z</time>
      </trkpt>
      <trkpt lat="41.283342" lon="1.832386">
        <ele>171.608</ele>
        <time>2021-05-15T17:17:07Z</time>
      </trkpt>
      <trkpt lat="41.283315" lon="1.832218">
        <ele>171.094</ele>
        <time>2021-05-15T17:17:09Z</time>
      </trkpt>
      <trkpt lat="41.283308" lon="1.832133">
        <ele>170.260</ele>
        <time>2021-05-15T17:17:10Z</time>
      </trkpt>
      <trkpt lat="41.283306" lon="1.832049">
        <ele>169.696</ele>
        <time>2021-05-15T17:17:11Z</time>
      </trkpt>
      <trkpt lat="41.283304" lon="1.831902">
        <ele>168.622</ele>
        <time>2021-05-15T17:17:13Z</time>
      </trkpt>
      <trkpt lat="41.283291" lon="1.831844">
        <ele>168.212</ele>
        <time>2021-05-15T17:17:14Z</time>
      </trkpt>
      <trkpt lat="41.283227" lon="1.831699">
        <ele>167.298</ele>
        <time>2021-05-15T17:17:17Z</time>
      </trkpt>
      <trkpt lat="41.283166" lon="1.831613">
        <ele>166.081</ele>
        <time>2021-05-15T17:17:19Z</time>
      </trkpt>
      <trkpt lat="41.283103" lon="1.831507">
        <ele>164.847</ele>
        <time>2021-05-15T17:17:21Z</time>
      </trkpt>
      <trkpt lat="41.283013" lon="1.831414">
        <ele>163.446</ele>
        <time>2021-05-15T17:17:23Z</time>
      </trkpt>
      <trkpt lat="41.282964" lon="1.831369">
        <ele>162.888</ele>
        <time>2021-05-15T17:17:24Z</time>
      </trkpt>
      <trkpt lat="41.282870" lon="1.831273">
        <ele>162.216</ele>
        <time>2021-05-15T17:17:26Z</time>
      </trkpt>
      <trkpt lat="41.282838" lon="1.831148">
        <ele>161.408</ele>
        <time>2021-05-15T17:17:28Z</time>
      </trkpt>
      <trkpt lat="41.282835" lon="1.831077">
        <ele>160.831</ele>
        <time>2021-05-15T17:17:29Z</time>
      </trkpt>
      <trkpt lat="41.282826" lon="1.830999">
        <ele>160.447</ele>
        <time>2021-05-15T17:17:30Z</time>
      </trkpt>
      <trkpt lat="41.282758" lon="1.830885">
        <ele>159.883</ele>
        <time>2021-05-15T17:17:32Z</time>
      </trkpt>
      <trkpt lat="41.282707" lon="1.830848">
        <ele>159.699</ele>
        <time>2021-05-15T17:17:33Z</time>
      </trkpt>
      <trkpt lat="41.282583" lon="1.830800">
        <ele>158.869</ele>
        <time>2021-05-15T17:17:35Z</time>
      </trkpt>
      <trkpt lat="41.282446" lon="1.830729">
        <ele>158.665</ele>
        <time>2021-05-15T17:17:37Z</time>
      </trkpt>
      <trkpt lat="41.282252" lon="1.830601">
        <ele>157.618</ele>
        <time>2021-05-15T17:17:40Z</time>
      </trkpt>
      <trkpt lat="41.282188" lon="1.830562">
        <ele>157.094</ele>
        <time>2021-05-15T17:17:41Z</time>
      </trkpt>
      <trkpt lat="41.282074" lon="1.830469">
        <ele>156.421</ele>
        <time>2021-05-15T17:17:43Z</time>
      </trkpt>
      <trkpt lat="41.281988" lon="1.830325">
        <ele>155.841</ele>
        <time>2021-05-15T17:17:45Z</time>
      </trkpt>
      <trkpt lat="41.281953" lon="1.830159">
        <ele>155.005</ele>
        <time>2021-05-15T17:17:47Z</time>
      </trkpt>
      <trkpt lat="41.281961" lon="1.830077">
        <ele>154.608</ele>
        <time>2021-05-15T17:17:48Z</time>
      </trkpt>
      <trkpt lat="41.281984" lon="1.829994">
        <ele>154.499</ele>
        <time>2021-05-15T17:17:49Z</time>
      </trkpt>
      <trkpt lat="41.282028" lon="1.829818">
        <ele>154.085</ele>
        <time>2021-05-15T17:17:51Z</time>
      </trkpt>
      <trkpt lat="41.282085" lon="1.829647">
        <ele>153.421</ele>
        <time>2021-05-15T17:17:53Z</time>
      </trkpt>
      <trkpt lat="41.282108" lon="1.829566">
        <ele>152.877</ele>
        <time>2021-05-15T17:17:54Z</time>
      </trkpt>
      <trkpt lat="41.282127" lon="1.829479">
        <ele>152.477</ele>
        <time>2021-05-15T17:17:55Z</time>
      </trkpt>
      <trkpt lat="41.282171" lon="1.829205">
        <ele>152.473</ele>
        <time>2021-05-15T17:17:58Z</time>
      </trkpt>
      <trkpt lat="41.282230" lon="1.828787">
        <ele>152.646</ele>
        <time>2021-05-15T17:18:03Z</time>
      </trkpt>
      <trkpt lat="41.282226" lon="1.828711">
        <ele>152.632</ele>
        <time>2021-05-15T17:18:04Z</time>
      </trkpt>
      <trkpt lat="41.282208" lon="1.828559">
        <ele>152.894</ele>
        <time>2021-05-15T17:18:06Z</time>
      </trkpt>
      <trkpt lat="41.282169" lon="1.828232">
        <ele>152.857</ele>
        <time>2021-05-15T17:18:10Z</time>
      </trkpt>
      <trkpt lat="41.282152" lon="1.828016">
        <ele>151.022</ele>
        <time>2021-05-15T17:18:13Z</time>
      </trkpt>
      <trkpt lat="41.282148" lon="1.827960">
        <ele>150.008</ele>
        <time>2021-05-15T17:18:14Z</time>
      </trkpt>
      <trkpt lat="41.282135" lon="1.827910">
        <ele>148.816</ele>
        <time>2021-05-15T17:18:15Z</time>
      </trkpt>
      <trkpt lat="41.282119" lon="1.827856">
        <ele>147.492</ele>
        <time>2021-05-15T17:18:16Z</time>
      </trkpt>
      <trkpt lat="41.282095" lon="1.827801">
        <ele>146.828</ele>
        <time>2021-05-15T17:18:17Z</time>
      </trkpt>
      <trkpt lat="41.282063" lon="1.827735">
        <ele>146.474</ele>
        <time>2021-05-15T17:18:18Z</time>
      </trkpt>
      <trkpt lat="41.282002" lon="1.827593">
        <ele>145.644</ele>
        <time>2021-05-15T17:18:20Z</time>
      </trkpt>
      <trkpt lat="41.281988" lon="1.827507">
        <ele>145.410</ele>
        <time>2021-05-15T17:18:21Z</time>
      </trkpt>
      <trkpt lat="41.281964" lon="1.827253">
        <ele>145.073</ele>
        <time>2021-05-15T17:18:24Z</time>
      </trkpt>
      <trkpt lat="41.281817" lon="1.826713">
        <ele>144.859</ele>
        <time>2021-05-15T17:18:31Z</time>
      </trkpt>
      <trkpt lat="41.281776" lon="1.826639">
        <ele>144.291</ele>
        <time>2021-05-15T17:18:32Z</time>
      </trkpt>
      <trkpt lat="41.281708" lon="1.826494">
        <ele>143.281</ele>
        <time>2021-05-15T17:18:34Z</time>
      </trkpt>
      <trkpt lat="41.281696" lon="1.826419">
        <ele>142.619</ele>
        <time>2021-05-15T17:18:35Z</time>
      </trkpt>
      <trkpt lat="41.281703" lon="1.826343">
        <ele>141.408</ele>
        <time>2021-05-15T17:18:36Z</time>
      </trkpt>
      <trkpt lat="41.281753" lon="1.826190">
        <ele>140.236</ele>
        <time>2021-05-15T17:18:38Z</time>
      </trkpt>
      <trkpt lat="41.281841" lon="1.825875">
        <ele>139.222</ele>
        <time>2021-05-15T17:18:42Z</time>
      </trkpt>
      <trkpt lat="41.281848" lon="1.825792">
        <ele>139.058</ele>
        <time>2021-05-15T17:18:43Z</time>
      </trkpt>
      <trkpt lat="41.281851" lon="1.825707">
        <ele>138.824</ele>
        <time>2021-05-15T17:18:44Z</time>
      </trkpt>
      <trkpt lat="41.281848" lon="1.825529">
        <ele>138.084</ele>
        <time>2021-05-15T17:18:46Z</time>
      </trkpt>
      <trkpt lat="41.281856" lon="1.825442">
        <ele>137.870</ele>
        <time>2021-05-15T17:18:47Z</time>
      </trkpt>
      <trkpt lat="41.281869" lon="1.825355">
        <ele>137.653</ele>
        <time>2021-05-15T17:18:48Z</time>
      </trkpt>
      <trkpt lat="41.281887" lon="1.825272">
        <ele>137.279</ele>
        <time>2021-05-15T17:18:49Z</time>
      </trkpt>
      <trkpt lat="41.281920" lon="1.825113">
        <ele>136.429</ele>
        <time>2021-05-15T17:18:51Z</time>
      </trkpt>
      <trkpt lat="41.281978" lon="1.824861">
        <ele>135.200</ele>
        <time>2021-05-15T17:18:54Z</time>
      </trkpt>
      <trkpt lat="41.282002" lon="1.824774">
        <ele>134.820</ele>
        <time>2021-05-15T17:18:55Z</time>
      </trkpt>
      <trkpt lat="41.282030" lon="1.824689">
        <ele>134.408</ele>
        <time>2021-05-15T17:18:56Z</time>
      </trkpt>
      <trkpt lat="41.282061" lon="1.824605">
        <ele>133.829</ele>
        <time>2021-05-15T17:18:57Z</time>
      </trkpt>
      <trkpt lat="41.282134" lon="1.824443">
        <ele>133.045</ele>
        <time>2021-05-15T17:18:59Z</time>
      </trkpt>
      <trkpt lat="41.282181" lon="1.824369">
        <ele>132.621</ele>
        <time>2021-05-15T17:19:00Z</time>
      </trkpt>
      <trkpt lat="41.282233" lon="1.824300">
        <ele>132.477</ele>
        <time>2021-05-15T17:19:01Z</time>
      </trkpt>
      <trkpt lat="41.282422" lon="1.824008">
        <ele>131.457</ele>
        <time>2021-05-15T17:19:05Z</time>
      </trkpt>
      <trkpt lat="41.282451" lon="1.823939">
        <ele>131.263</ele>
        <time>2021-05-15T17:19:06Z</time>
      </trkpt>
      <trkpt lat="41.282530" lon="1.823745">
        <ele>129.836</ele>
        <time>2021-05-15T17:19:09Z</time>
      </trkpt>
      <trkpt lat="41.282590" lon="1.823605">
        <ele>128.692</ele>
        <time>2021-05-15T17:19:11Z</time>
      </trkpt>
      <trkpt lat="41.282624" lon="1.823534">
        <ele>128.061</ele>
        <time>2021-05-15T17:19:12Z</time>
      </trkpt>
      <trkpt lat="41.282651" lon="1.823454">
        <ele>127.621</ele>
        <time>2021-05-15T17:19:13Z</time>
      </trkpt>
      <trkpt lat="41.282671" lon="1.823369">
        <ele>127.013</ele>
        <time>2021-05-15T17:19:14Z</time>
      </trkpt>
      <trkpt lat="41.282697" lon="1.823188">
        <ele>125.808</ele>
        <time>2021-05-15T17:19:16Z</time>
      </trkpt>
      <trkpt lat="41.282704" lon="1.823099">
        <ele>124.693</ele>
        <time>2021-05-15T17:19:17Z</time>
      </trkpt>
      <trkpt lat="41.282713" lon="1.823013">
        <ele>123.859</ele>
        <time>2021-05-15T17:19:18Z</time>
      </trkpt>
      <trkpt lat="41.282728" lon="1.822930">
        <ele>123.035</ele>
        <time>2021-05-15T17:19:19Z</time>
      </trkpt>
      <trkpt lat="41.282766" lon="1.822796">
        <ele>121.691</ele>
        <time>2021-05-15T17:19:21Z</time>
      </trkpt>
      <trkpt lat="41.282787" lon="1.822661">
        <ele>120.621</ele>
        <time>2021-05-15T17:19:23Z</time>
      </trkpt>
      <trkpt lat="41.282826" lon="1.822567">
        <ele>119.477</ele>
        <time>2021-05-15T17:19:25Z</time>
      </trkpt>
      <trkpt lat="41.282847" lon="1.822551">
        <ele>118.260</ele>
        <time>2021-05-15T17:19:28Z</time>
      </trkpt>
      <trkpt lat="41.282847" lon="1.822551">
        <ele>117.446</ele>
        <time>2021-05-15T17:19:36Z</time>
      </trkpt>
      <trkpt lat="41.282847" lon="1.822551">
        <ele>117.255</ele>
        <time>2021-05-15T17:19:39Z</time>
      </trkpt>
      <trkpt lat="41.282847" lon="1.822551">
        <ele>117.207</ele>
        <time>2021-05-15T17:19:40Z</time>
      </trkpt>
      <trkpt lat="41.282847" lon="1.822551">
        <ele>117.217</ele>
        <time>2021-05-15T17:19:46Z</time>
      </trkpt>
      <trkpt lat="41.282847" lon="1.822551">
        <ele>117.208</ele>
        <time>2021-05-15T17:19:48Z</time>
      </trkpt>
      <trkpt lat="41.282847" lon="1.822551">
        <ele>117.242</ele>
        <time>2021-05-15T17:19:50Z</time>
      </trkpt>
      <trkpt lat="41.282847" lon="1.822551">
        <ele>118.058</ele>
        <time>2021-05-15T17:20:00Z</time>
      </trkpt>
      <trkpt lat="41.282847" lon="1.822551">
        <ele>117.644</ele>
        <time>2021-05-15T17:20:18Z</time>
      </trkpt>
      <trkpt lat="41.282847" lon="1.822551">
        <ele>117.660</ele>
        <time>2021-05-15T17:20:21Z</time>
      </trkpt>
      <trkpt lat="41.282836" lon="1.822557">
        <ele>117.450</ele>
        <time>2021-05-15T17:20:27Z</time>
      </trkpt>
      <trkpt lat="41.282820" lon="1.822562">
        <ele>117.476</ele>
        <time>2021-05-15T17:20:30Z</time>
      </trkpt>
      <trkpt lat="41.282820" lon="1.822562">
        <ele>117.659</ele>
        <time>2021-05-15T17:20:33Z</time>
      </trkpt>
      <trkpt lat="41.282820" lon="1.822562">
        <ele>117.655</ele>
        <time>2021-05-15T17:20:35Z</time>
      </trkpt>
      <trkpt lat="41.282816" lon="1.822562">
        <ele>117.687</ele>
        <time>2021-05-15T17:20:41Z</time>
      </trkpt>
      <trkpt lat="41.282756" lon="1.822562">
        <ele>117.642</ele>
        <time>2021-05-15T17:20:44Z</time>
      </trkpt>
      <trkpt lat="41.282730" lon="1.822579">
        <ele>117.626</ele>
        <time>2021-05-15T17:20:45Z</time>
      </trkpt>
      <trkpt lat="41.282687" lon="1.822683">
        <ele>117.608</ele>
        <time>2021-05-15T17:20:48Z</time>
      </trkpt>
      <trkpt lat="41.282653" lon="1.822954">
        <ele>118.465</ele>
        <time>2021-05-15T17:20:54Z</time>
      </trkpt>
      <trkpt lat="41.282641" lon="1.823006">
        <ele>118.421</ele>
        <time>2021-05-15T17:20:55Z</time>
      </trkpt>
      <trkpt lat="41.282577" lon="1.823273">
        <ele>119.057</ele>
        <time>2021-05-15T17:21:00Z</time>
      </trkpt>
      <trkpt lat="41.282562" lon="1.823326">
        <ele>119.263</ele>
        <time>2021-05-15T17:21:01Z</time>
      </trkpt>
      <trkpt lat="41.282409" lon="1.823539">
        <ele>119.263</ele>
        <time>2021-05-15T17:21:06Z</time>
      </trkpt>
      <trkpt lat="41.282354" lon="1.823615">
        <ele>119.479</ele>
        <time>2021-05-15T17:21:08Z</time>
      </trkpt>
      <trkpt lat="41.282278" lon="1.823697">
        <ele>119.872</ele>
        <time>2021-05-15T17:21:11Z</time>
      </trkpt>
      <trkpt lat="41.282118" lon="1.823831">
        <ele>120.488</ele>
        <time>2021-05-15T17:21:16Z</time>
      </trkpt>
      <trkpt lat="41.282005" lon="1.823896">
        <ele>120.639</ele>
        <time>2021-05-15T17:21:19Z</time>
      </trkpt>
      <trkpt lat="41.281777" lon="1.824076">
        <ele>121.201</ele>
        <time>2021-05-15T17:21:25Z</time>
      </trkpt>
      <trkpt lat="41.281697" lon="1.824140">
        <ele>121.621</ele>
        <time>2021-05-15T17:21:27Z</time>
      </trkpt>
      <trkpt lat="41.281476" lon="1.824347">
        <ele>122.408</ele>
        <time>2021-05-15T17:21:33Z</time>
      </trkpt>
      <trkpt lat="41.281444" lon="1.824401">
        <ele>122.640</ele>
        <time>2021-05-15T17:21:34Z</time>
      </trkpt>
      <trkpt lat="41.281432" lon="1.824447">
        <ele>122.656</ele>
        <time>2021-05-15T17:21:35Z</time>
      </trkpt>
      <trkpt lat="41.281431" lon="1.824576">
        <ele>122.812</ele>
        <time>2021-05-15T17:21:37Z</time>
      </trkpt>
      <trkpt lat="41.281512" lon="1.824882">
        <ele>122.848</ele>
        <time>2021-05-15T17:21:42Z</time>
      </trkpt>
      <trkpt lat="41.281515" lon="1.824936">
        <ele>123.068</ele>
        <time>2021-05-15T17:21:43Z</time>
      </trkpt>
      <trkpt lat="41.281486" lon="1.825126">
        <ele>123.664</ele>
        <time>2021-05-15T17:21:47Z</time>
      </trkpt>
      <trkpt lat="41.281481" lon="1.825171">
        <ele>123.817</ele>
        <time>2021-05-15T17:21:48Z</time>
      </trkpt>
      <trkpt lat="41.281427" lon="1.825566">
        <ele>124.443</ele>
        <time>2021-05-15T17:21:56Z</time>
      </trkpt>
      <trkpt lat="41.281410" lon="1.825623">
        <ele>124.475</ele>
        <time>2021-05-15T17:21:57Z</time>
      </trkpt>
      <trkpt lat="41.281387" lon="1.825723">
        <ele>124.628</ele>
        <time>2021-05-15T17:21:59Z</time>
      </trkpt>
      <trkpt lat="41.281296" lon="1.825919">
        <ele>125.220</ele>
        <time>2021-05-15T17:22:03Z</time>
      </trkpt>
      <trkpt lat="41.281204" lon="1.826032">
        <ele>125.808</ele>
        <time>2021-05-15T17:22:06Z</time>
      </trkpt>
      <trkpt lat="41.281133" lon="1.826077">
        <ele>126.274</ele>
        <time>2021-05-15T17:22:08Z</time>
      </trkpt>
      <trkpt lat="41.281097" lon="1.826092">
        <ele>126.430</ele>
        <time>2021-05-15T17:22:09Z</time>
      </trkpt>
      <trkpt lat="41.280911" lon="1.826181">
        <ele>126.616</ele>
        <time>2021-05-15T17:22:14Z</time>
      </trkpt>
      <trkpt lat="41.280885" lon="1.826214">
        <ele>126.852</ele>
        <time>2021-05-15T17:22:15Z</time>
      </trkpt>
      <trkpt lat="41.280809" lon="1.826368">
        <ele>128.062</ele>
        <time>2021-05-15T17:22:19Z</time>
      </trkpt>
      <trkpt lat="41.280742" lon="1.826571">
        <ele>128.428</ele>
        <time>2021-05-15T17:22:23Z</time>
      </trkpt>
      <trkpt lat="41.280734" lon="1.826640">
        <ele>128.411</ele>
        <time>2021-05-15T17:22:24Z</time>
      </trkpt>
      <trkpt lat="41.280732" lon="1.826710">
        <ele>128.427</ele>
        <time>2021-05-15T17:22:25Z</time>
      </trkpt>
      <trkpt lat="41.280746" lon="1.826853">
        <ele>128.447</ele>
        <time>2021-05-15T17:22:27Z</time>
      </trkpt>
      <trkpt lat="41.280762" lon="1.826922">
        <ele>128.629</ele>
        <time>2021-05-15T17:22:28Z</time>
      </trkpt>
      <trkpt lat="41.280879" lon="1.827240">
        <ele>128.821</ele>
        <time>2021-05-15T17:22:33Z</time>
      </trkpt>
      <trkpt lat="41.280905" lon="1.827372">
        <ele>129.008</ele>
        <time>2021-05-15T17:22:35Z</time>
      </trkpt>
      <trkpt lat="41.280911" lon="1.827634">
        <ele>129.051</ele>
        <time>2021-05-15T17:22:39Z</time>
      </trkpt>
      <trkpt lat="41.280895" lon="1.827748">
        <ele>128.887</ele>
        <time>2021-05-15T17:22:41Z</time>
      </trkpt>
      <trkpt lat="41.280850" lon="1.828007">
        <ele>129.073</ele>
        <time>2021-05-15T17:22:46Z</time>
      </trkpt>
      <trkpt lat="41.280758" lon="1.828312">
        <ele>129.659</ele>
        <time>2021-05-15T17:22:52Z</time>
      </trkpt>
      <trkpt lat="41.280715" lon="1.828683">
        <ele>129.899</ele>
        <time>2021-05-15T17:22:58Z</time>
      </trkpt>
      <trkpt lat="41.280710" lon="1.828746">
        <ele>129.825</ele>
        <time>2021-05-15T17:22:59Z</time>
      </trkpt>
      <trkpt lat="41.280704" lon="1.828807">
        <ele>130.048</ele>
        <time>2021-05-15T17:23:00Z</time>
      </trkpt>
      <trkpt lat="41.280681" lon="1.828985">
        <ele>130.414</ele>
        <time>2021-05-15T17:23:03Z</time>
      </trkpt>
      <trkpt lat="41.280661" lon="1.829107">
        <ele>130.632</ele>
        <time>2021-05-15T17:23:05Z</time>
      </trkpt>
      <trkpt lat="41.280616" lon="1.829274">
        <ele>130.892</ele>
        <time>2021-05-15T17:23:08Z</time>
      </trkpt>
      <trkpt lat="41.280580" lon="1.829374">
        <ele>131.211</ele>
        <time>2021-05-15T17:23:10Z</time>
      </trkpt>
      <trkpt lat="41.280542" lon="1.829471">
        <ele>131.208</ele>
        <time>2021-05-15T17:23:12Z</time>
      </trkpt>
      <trkpt lat="41.280527" lon="1.829524">
        <ele>131.270</ele>
        <time>2021-05-15T17:23:13Z</time>
      </trkpt>
      <trkpt lat="41.280450" lon="1.829787">
        <ele>131.676</ele>
        <time>2021-05-15T17:23:18Z</time>
      </trkpt>
      <trkpt lat="41.280333" lon="1.830198">
        <ele>132.292</ele>
        <time>2021-05-15T17:23:25Z</time>
      </trkpt>
      <trkpt lat="41.280289" lon="1.830385">
        <ele>132.438</ele>
        <time>2021-05-15T17:23:28Z</time>
      </trkpt>
      <trkpt lat="41.280274" lon="1.830447">
        <ele>132.428</ele>
        <time>2021-05-15T17:23:29Z</time>
      </trkpt>
      <trkpt lat="41.280227" lon="1.830632">
        <ele>132.844</ele>
        <time>2021-05-15T17:23:32Z</time>
      </trkpt>
      <trkpt lat="41.280081" lon="1.831105">
        <ele>133.217</ele>
        <time>2021-05-15T17:23:40Z</time>
      </trkpt>
      <trkpt lat="41.280062" lon="1.831160">
        <ele>133.483</ele>
        <time>2021-05-15T17:23:41Z</time>
      </trkpt>
      <trkpt lat="41.280040" lon="1.831211">
        <ele>133.476</ele>
        <time>2021-05-15T17:23:42Z</time>
      </trkpt>
      <trkpt lat="41.280003" lon="1.831312">
        <ele>133.690</ele>
        <time>2021-05-15T17:23:44Z</time>
      </trkpt>
      <trkpt lat="41.279969" lon="1.831433">
        <ele>133.819</ele>
        <time>2021-05-15T17:23:46Z</time>
      </trkpt>
      <trkpt lat="41.279925" lon="1.831579">
        <ele>133.808</ele>
        <time>2021-05-15T17:23:48Z</time>
      </trkpt>
      <trkpt lat="41.279851" lon="1.831757">
        <ele>133.824</ele>
        <time>2021-05-15T17:23:51Z</time>
      </trkpt>
      <trkpt lat="41.279830" lon="1.831817">
        <ele>133.870</ele>
        <time>2021-05-15T17:23:52Z</time>
      </trkpt>
      <trkpt lat="41.279743" lon="1.832049">
        <ele>134.466</ele>
        <time>2021-05-15T17:23:56Z</time>
      </trkpt>
      <trkpt lat="41.279694" lon="1.832154">
        <ele>134.882</ele>
        <time>2021-05-15T17:23:58Z</time>
      </trkpt>
      <trkpt lat="41.279646" lon="1.832251">
        <ele>135.082</ele>
        <time>2021-05-15T17:24:00Z</time>
      </trkpt>
      <trkpt lat="41.279601" lon="1.832347">
        <ele>135.038</ele>
        <time>2021-05-15T17:24:02Z</time>
      </trkpt>
      <trkpt lat="41.279581" lon="1.832400">
        <ele>135.421</ele>
        <time>2021-05-15T17:24:03Z</time>
      </trkpt>
      <trkpt lat="41.279550" lon="1.832447">
        <ele>135.487</ele>
        <time>2021-05-15T17:24:04Z</time>
      </trkpt>
      <trkpt lat="41.279382" lon="1.832616">
        <ele>135.885</ele>
        <time>2021-05-15T17:24:08Z</time>
      </trkpt>
      <trkpt lat="41.279264" lon="1.832726">
        <ele>135.689</ele>
        <time>2021-05-15T17:24:11Z</time>
      </trkpt>
      <trkpt lat="41.279197" lon="1.832842">
        <ele>135.617</ele>
        <time>2021-05-15T17:24:13Z</time>
      </trkpt>
      <trkpt lat="41.279070" lon="1.833202">
        <ele>134.608</ele>
        <time>2021-05-15T17:24:18Z</time>
      </trkpt>
      <trkpt lat="41.279043" lon="1.833264">
        <ele>134.695</ele>
        <time>2021-05-15T17:24:19Z</time>
      </trkpt>
      <trkpt lat="41.278955" lon="1.833406">
        <ele>135.671</ele>
        <time>2021-05-15T17:24:22Z</time>
      </trkpt>
      <trkpt lat="41.278824" lon="1.833579">
        <ele>136.467</ele>
        <time>2021-05-15T17:24:26Z</time>
      </trkpt>
      <trkpt lat="41.278737" lon="1.833720">
        <ele>136.823</ele>
        <time>2021-05-15T17:24:29Z</time>
      </trkpt>
      <trkpt lat="41.278714" lon="1.833770">
        <ele>136.863</ele>
        <time>2021-05-15T17:24:30Z</time>
      </trkpt>
      <trkpt lat="41.278649" lon="1.833944">
        <ele>136.829</ele>
        <time>2021-05-15T17:24:33Z</time>
      </trkpt>
      <trkpt lat="41.278622" lon="1.833998">
        <ele>136.852</ele>
        <time>2021-05-15T17:24:34Z</time>
      </trkpt>
      <trkpt lat="41.278593" lon="1.834047">
        <ele>136.888</ele>
        <time>2021-05-15T17:24:35Z</time>
      </trkpt>
      <trkpt lat="41.278521" lon="1.834131">
        <ele>137.058</ele>
        <time>2021-05-15T17:24:37Z</time>
      </trkpt>
      <trkpt lat="41.278446" lon="1.834194">
        <ele>137.252</ele>
        <time>2021-05-15T17:24:39Z</time>
      </trkpt>
      <trkpt lat="41.278330" lon="1.834252">
        <ele>137.617</ele>
        <time>2021-05-15T17:24:42Z</time>
      </trkpt>
      <trkpt lat="41.278102" lon="1.834353">
        <ele>138.408</ele>
        <time>2021-05-15T17:24:48Z</time>
      </trkpt>
      <trkpt lat="41.278066" lon="1.834373">
        <ele>138.662</ele>
        <time>2021-05-15T17:24:49Z</time>
      </trkpt>
      <trkpt lat="41.277936" lon="1.834462">
        <ele>139.458</ele>
        <time>2021-05-15T17:24:53Z</time>
      </trkpt>
      <trkpt lat="41.277898" lon="1.834533">
        <ele>139.844</ele>
        <time>2021-05-15T17:24:55Z</time>
      </trkpt>
      <trkpt lat="41.277881" lon="1.834615">
        <ele>140.250</ele>
        <time>2021-05-15T17:24:57Z</time>
      </trkpt>
      <trkpt lat="41.277883" lon="1.834701">
        <ele>140.820</ele>
        <time>2021-05-15T17:24:59Z</time>
      </trkpt>
      <trkpt lat="41.277923" lon="1.834813">
        <ele>141.836</ele>
        <time>2021-05-15T17:25:02Z</time>
      </trkpt>
      <trkpt lat="41.278114" lon="1.835140">
        <ele>142.669</ele>
        <time>2021-05-15T17:25:11Z</time>
      </trkpt>
      <trkpt lat="41.278281" lon="1.835394">
        <ele>142.615</ele>
        <time>2021-05-15T17:25:18Z</time>
      </trkpt>
      <trkpt lat="41.278433" lon="1.835670">
        <ele>142.413</ele>
        <time>2021-05-15T17:25:24Z</time>
      </trkpt>
      <trkpt lat="41.278650" lon="1.835950">
        <ele>142.043</ele>
        <time>2021-05-15T17:25:30Z</time>
      </trkpt>
      <trkpt lat="41.278819" lon="1.836202">
        <ele>142.407</ele>
        <time>2021-05-15T17:25:35Z</time>
      </trkpt>
      <trkpt lat="41.278894" lon="1.836293">
        <ele>142.408</ele>
        <time>2021-05-15T17:25:37Z</time>
      </trkpt>
      <trkpt lat="41.278994" lon="1.836434">
        <ele>142.618</ele>
        <time>2021-05-15T17:25:40Z</time>
      </trkpt>
      <trkpt lat="41.279097" lon="1.836580">
        <ele>142.624</ele>
        <time>2021-05-15T17:25:43Z</time>
      </trkpt>
      <trkpt lat="41.279129" lon="1.836627">
        <ele>142.610</ele>
        <time>2021-05-15T17:25:44Z</time>
      </trkpt>
      <trkpt lat="41.279290" lon="1.836866">
        <ele>142.826</ele>
        <time>2021-05-15T17:25:49Z</time>
      </trkpt>
      <trkpt lat="41.279414" lon="1.837071">
        <ele>143.266</ele>
        <time>2021-05-15T17:25:53Z</time>
      </trkpt>
      <trkpt lat="41.279468" lon="1.837177">
        <ele>143.692</ele>
        <time>2021-05-15T17:25:55Z</time>
      </trkpt>
      <trkpt lat="41.279487" lon="1.837235">
        <ele>143.675</ele>
        <time>2021-05-15T17:25:56Z</time>
      </trkpt>
      <trkpt lat="41.279546" lon="1.837443">
        <ele>144.041</ele>
        <time>2021-05-15T17:26:00Z</time>
      </trkpt>
      <trkpt lat="41.279565" lon="1.837518">
        <ele>144.492</ele>
        <time>2021-05-15T17:26:02Z</time>
      </trkpt>
      <trkpt lat="41.279578" lon="1.837595">
        <ele>145.073</ele>
        <time>2021-05-15T17:26:04Z</time>
      </trkpt>
      <trkpt lat="41.279589" lon="1.837674">
        <ele>145.420</ele>
        <time>2021-05-15T17:26:06Z</time>
      </trkpt>
      <trkpt lat="41.279582" lon="1.837713">
        <ele>145.608</ele>
        <time>2021-05-15T17:26:07Z</time>
      </trkpt>
      <trkpt lat="41.279571" lon="1.837754">
        <ele>145.866</ele>
        <time>2021-05-15T17:26:08Z</time>
      </trkpt>
      <trkpt lat="41.279551" lon="1.837789">
        <ele>146.292</ele>
        <time>2021-05-15T17:26:09Z</time>
      </trkpt>
      <trkpt lat="41.279505" lon="1.837835">
        <ele>146.638</ele>
        <time>2021-05-15T17:26:11Z</time>
      </trkpt>
      <trkpt lat="41.279457" lon="1.837876">
        <ele>147.444</ele>
        <time>2021-05-15T17:26:13Z</time>
      </trkpt>
      <trkpt lat="41.279381" lon="1.837965">
        <ele>148.074</ele>
        <time>2021-05-15T17:26:16Z</time>
      </trkpt>
      <trkpt lat="41.279332" lon="1.838018">
        <ele>148.460</ele>
        <time>2021-05-15T17:26:18Z</time>
      </trkpt>
      <trkpt lat="41.279301" lon="1.838044">
        <ele>148.663</ele>
        <time>2021-05-15T17:26:19Z</time>
      </trkpt>
      <trkpt lat="41.279133" lon="1.838244">
        <ele>149.019</ele>
        <time>2021-05-15T17:26:25Z</time>
      </trkpt>
      <trkpt lat="41.279087" lon="1.838355">
        <ele>149.685</ele>
        <time>2021-05-15T17:26:28Z</time>
      </trkpt>
      <trkpt lat="41.279066" lon="1.838457">
        <ele>150.289</ele>
        <time>2021-05-15T17:26:31Z</time>
      </trkpt>
      <trkpt lat="41.279073" lon="1.838513">
        <ele>150.617</ele>
        <time>2021-05-15T17:26:33Z</time>
      </trkpt>
      <trkpt lat="41.279089" lon="1.838539">
        <ele>150.608</ele>
        <time>2021-05-15T17:26:34Z</time>
      </trkpt>
      <trkpt lat="41.279104" lon="1.838570">
        <ele>151.065</ele>
        <time>2021-05-15T17:26:35Z</time>
      </trkpt>
      <trkpt lat="41.279115" lon="1.838632">
        <ele>151.241</ele>
        <time>2021-05-15T17:26:37Z</time>
      </trkpt>
      <trkpt lat="41.279083" lon="1.838703">
        <ele>151.217</ele>
        <time>2021-05-15T17:26:39Z</time>
      </trkpt>
      <trkpt lat="41.278965" lon="1.838887">
        <ele>150.813</ele>
        <time>2021-05-15T17:26:43Z</time>
      </trkpt>
      <trkpt lat="41.278868" lon="1.838915">
        <ele>150.423</ele>
        <time>2021-05-15T17:26:45Z</time>
      </trkpt>
      <trkpt lat="41.278823" lon="1.838888">
        <ele>150.269</ele>
        <time>2021-05-15T17:26:46Z</time>
      </trkpt>
      <trkpt lat="41.278793" lon="1.838841">
        <ele>150.282</ele>
        <time>2021-05-15T17:26:47Z</time>
      </trkpt>
      <trkpt lat="41.278772" lon="1.838736">
        <ele>150.218</ele>
        <time>2021-05-15T17:26:49Z</time>
      </trkpt>
      <trkpt lat="41.278779" lon="1.838638">
        <ele>150.428</ele>
        <time>2021-05-15T17:26:51Z</time>
      </trkpt>
      <trkpt lat="41.278787" lon="1.838554">
        <ele>150.889</ele>
        <time>2021-05-15T17:26:53Z</time>
      </trkpt>
      <trkpt lat="41.278794" lon="1.838379">
        <ele>151.617</ele>
        <time>2021-05-15T17:26:57Z</time>
      </trkpt>
      <trkpt lat="41.278793" lon="1.838298">
        <ele>152.208</ele>
        <time>2021-05-15T17:26:59Z</time>
      </trkpt>
      <trkpt lat="41.278799" lon="1.838177">
        <ele>153.019</ele>
        <time>2021-05-15T17:27:02Z</time>
      </trkpt>
      <trkpt lat="41.278812" lon="1.838057">
        <ele>154.095</ele>
        <time>2021-05-15T17:27:05Z</time>
      </trkpt>
      <trkpt lat="41.278834" lon="1.837989">
        <ele>154.481</ele>
        <time>2021-05-15T17:27:07Z</time>
      </trkpt>
      <trkpt lat="41.278870" lon="1.837885">
        <ele>155.247</ele>
        <time>2021-05-15T17:27:10Z</time>
      </trkpt>
      <trkpt lat="41.278900" lon="1.837712">
        <ele>156.217</ele>
        <time>2021-05-15T17:27:14Z</time>
      </trkpt>
      <trkpt lat="41.278901" lon="1.837667">
        <ele>156.473</ele>
        <time>2021-05-15T17:27:15Z</time>
      </trkpt>
      <trkpt lat="41.278836" lon="1.837475">
        <ele>157.046</ele>
        <time>2021-05-15T17:27:20Z</time>
      </trkpt>
      <trkpt lat="41.278778" lon="1.837356">
        <ele>157.432</ele>
        <time>2021-05-15T17:27:23Z</time>
      </trkpt>
      <trkpt lat="41.278628" lon="1.837185">
        <ele>157.856</ele>
        <time>2021-05-15T17:27:28Z</time>
      </trkpt>
      <trkpt lat="41.278546" lon="1.837088">
        <ele>158.059</ele>
        <time>2021-05-15T17:27:31Z</time>
      </trkpt>
      <trkpt lat="41.278421" lon="1.836980">
        <ele>158.214</ele>
        <time>2021-05-15T17:27:35Z</time>
      </trkpt>
      <trkpt lat="41.278388" lon="1.836952">
        <ele>158.208</ele>
        <time>2021-05-15T17:27:36Z</time>
      </trkpt>
      <trkpt lat="41.278323" lon="1.836892">
        <ele>158.432</ele>
        <time>2021-05-15T17:27:38Z</time>
      </trkpt>
      <trkpt lat="41.278161" lon="1.836770">
        <ele>158.838</ele>
        <time>2021-05-15T17:27:43Z</time>
      </trkpt>
      <trkpt lat="41.277962" lon="1.836671">
        <ele>159.074</ele>
        <time>2021-05-15T17:27:48Z</time>
      </trkpt>
      <trkpt lat="41.277923" lon="1.836680">
        <ele>159.080</ele>
        <time>2021-05-15T17:27:49Z</time>
      </trkpt>
      <trkpt lat="41.277892" lon="1.836700">
        <ele>159.030</ele>
        <time>2021-05-15T17:27:50Z</time>
      </trkpt>
      <trkpt lat="41.277857" lon="1.836746">
        <ele>159.296</ele>
        <time>2021-05-15T17:27:52Z</time>
      </trkpt>
      <trkpt lat="41.277837" lon="1.836734">
        <ele>159.229</ele>
        <time>2021-05-15T17:27:54Z</time>
      </trkpt>
      <trkpt lat="41.277850" lon="1.836720">
        <ele>159.215</ele>
        <time>2021-05-15T17:27:55Z</time>
      </trkpt>
      <trkpt lat="41.277867" lon="1.836714">
        <ele>159.265</ele>
        <time>2021-05-15T17:27:56Z</time>
      </trkpt>
      <trkpt lat="41.277990" lon="1.836698">
        <ele>158.668</ele>
        <time>2021-05-15T17:28:00Z</time>
      </trkpt>
      <trkpt lat="41.278082" lon="1.836745">
        <ele>158.214</ele>
        <time>2021-05-15T17:28:05Z</time>
      </trkpt>
      <trkpt lat="41.278082" lon="1.836745">
        <ele>158.008</ele>
        <time>2021-05-15T17:28:10Z</time>
      </trkpt>
      <trkpt lat="41.278082" lon="1.836744">
        <ele>158.613</ele>
        <time>2021-05-15T17:28:16Z</time>
      </trkpt>
      <trkpt lat="41.278082" lon="1.836744">
        <ele>159.049</ele>
        <time>2021-05-15T17:28:21Z</time>
      </trkpt>
      <trkpt lat="41.278090" lon="1.836742">
        <ele>158.215</ele>
        <time>2021-05-15T17:28:32Z</time>
      </trkpt>
      <trkpt lat="41.278028" lon="1.836698">
        <ele>158.481</ele>
        <time>2021-05-15T17:28:35Z</time>
      </trkpt>
      <trkpt lat="41.277889" lon="1.836717">
        <ele>158.851</ele>
        <time>2021-05-15T17:28:39Z</time>
      </trkpt>
      <trkpt lat="41.277740" lon="1.836866">
        <ele>158.857</ele>
        <time>2021-05-15T17:28:44Z</time>
      </trkpt>
      <trkpt lat="41.277673" lon="1.836946">
        <ele>158.830</ele>
        <time>2021-05-15T17:28:46Z</time>
      </trkpt>
      <trkpt lat="41.277494" lon="1.837073">
        <ele>159.276</ele>
        <time>2021-05-15T17:28:51Z</time>
      </trkpt>
      <trkpt lat="41.277397" lon="1.837060">
        <ele>159.684</ele>
        <time>2021-05-15T17:28:54Z</time>
      </trkpt>
      <trkpt lat="41.277361" lon="1.837031">
        <ele>159.607</ele>
        <time>2021-05-15T17:28:55Z</time>
      </trkpt>
      <trkpt lat="41.277226" lon="1.836969">
        <ele>160.417</ele>
        <time>2021-05-15T17:29:00Z</time>
      </trkpt>
      <trkpt lat="41.277188" lon="1.836972">
        <ele>160.608</ele>
        <time>2021-05-15T17:29:01Z</time>
      </trkpt>
      <trkpt lat="41.277070" lon="1.836985">
        <ele>161.425</ele>
        <time>2021-05-15T17:29:05Z</time>
      </trkpt>
      <trkpt lat="41.276941" lon="1.837012">
        <ele>161.831</ele>
        <time>2021-05-15T17:29:09Z</time>
      </trkpt>
      <trkpt lat="41.276713" lon="1.837059">
        <ele>162.877</ele>
        <time>2021-05-15T17:29:16Z</time>
      </trkpt>
      <trkpt lat="41.276488" lon="1.837144">
        <ele>163.883</ele>
        <time>2021-05-15T17:29:23Z</time>
      </trkpt>
      <trkpt lat="41.276430" lon="1.837182">
        <ele>164.253</ele>
        <time>2021-05-15T17:29:25Z</time>
      </trkpt>
      <trkpt lat="41.276286" lon="1.837265">
        <ele>165.099</ele>
        <time>2021-05-15T17:29:29Z</time>
      </trkpt>
      <trkpt lat="41.276155" lon="1.837333">
        <ele>165.872</ele>
        <time>2021-05-15T17:29:33Z</time>
      </trkpt>
      <trkpt lat="41.276091" lon="1.837372">
        <ele>166.078</ele>
        <time>2021-05-15T17:29:35Z</time>
      </trkpt>
      <trkpt lat="41.276002" lon="1.837440">
        <ele>166.652</ele>
        <time>2021-05-15T17:29:38Z</time>
      </trkpt>
      <trkpt lat="41.275896" lon="1.837501">
        <ele>167.253</ele>
        <time>2021-05-15T17:29:41Z</time>
      </trkpt>
      <trkpt lat="41.275787" lon="1.837563">
        <ele>167.408</ele>
        <time>2021-05-15T17:29:44Z</time>
      </trkpt>
      <trkpt lat="41.275600" lon="1.837665">
        <ele>168.208</ele>
        <time>2021-05-15T17:29:50Z</time>
      </trkpt>
      <trkpt lat="41.275508" lon="1.837654">
        <ele>168.242</ele>
        <time>2021-05-15T17:29:51Z</time>
      </trkpt>
      <trkpt lat="41.275430" lon="1.837594">
        <ele>168.218</ele>
        <time>2021-05-15T17:29:53Z</time>
      </trkpt>
      <trkpt lat="41.275397" lon="1.837554">
        <ele>168.484</ele>
        <time>2021-05-15T17:29:56Z</time>
      </trkpt>
      <trkpt lat="41.275399" lon="1.837550">
        <ele>168.030</ele>
        <time>2021-05-15T17:30:00Z</time>
      </trkpt>
      <trkpt lat="41.275399" lon="1.837550">
        <ele>168.440</ele>
        <time>2021-05-15T17:30:05Z</time>
      </trkpt>
      <trkpt lat="41.275399" lon="1.837550">
        <ele>168.656</ele>
        <time>2021-05-15T17:30:08Z</time>
      </trkpt>
      <trkpt lat="41.275399" lon="1.837550">
        <ele>168.219</ele>
        <time>2021-05-15T17:30:15Z</time>
      </trkpt>
      <trkpt lat="41.275399" lon="1.837550">
        <ele>168.025</ele>
        <time>2021-05-15T17:30:19Z</time>
      </trkpt>
      <trkpt lat="41.275395" lon="1.837550">
        <ele>168.262</ele>
        <time>2021-05-15T17:30:35Z</time>
      </trkpt>
      <trkpt lat="41.275392" lon="1.837547">
        <ele>168.483</ele>
        <time>2021-05-15T17:30:43Z</time>
      </trkpt>
      <trkpt lat="41.275401" lon="1.837476">
        <ele>168.611</ele>
        <time>2021-05-15T17:30:46Z</time>
      </trkpt>
      <trkpt lat="41.275460" lon="1.837320">
        <ele>168.808</ele>
        <time>2021-05-15T17:30:50Z</time>
      </trkpt>
      <trkpt lat="41.275512" lon="1.837221">
        <ele>169.213</ele>
        <time>2021-05-15T17:30:53Z</time>
      </trkpt>
      <trkpt lat="41.275566" lon="1.837155">
        <ele>170.089</ele>
        <time>2021-05-15T17:30:56Z</time>
      </trkpt>
      <trkpt lat="41.275605" lon="1.837100">
        <ele>170.695</ele>
        <time>2021-05-15T17:30:58Z</time>
      </trkpt>
      <trkpt lat="41.275686" lon="1.836988">
        <ele>171.641</ele>
        <time>2021-05-15T17:31:03Z</time>
      </trkpt>
      <trkpt lat="41.275730" lon="1.836932">
        <ele>172.271</ele>
        <time>2021-05-15T17:31:06Z</time>
      </trkpt>
      <trkpt lat="41.275777" lon="1.836854">
        <ele>172.857</ele>
        <time>2021-05-15T17:31:09Z</time>
      </trkpt>
      <trkpt lat="41.275817" lon="1.836778">
        <ele>173.240</ele>
        <time>2021-05-15T17:31:12Z</time>
      </trkpt>
      <trkpt lat="41.275870" lon="1.836693">
        <ele>174.046</ele>
        <time>2021-05-15T17:31:15Z</time>
      </trkpt>
      <trkpt lat="41.275901" lon="1.836642">
        <ele>174.445</ele>
        <time>2021-05-15T17:31:17Z</time>
      </trkpt>
      <trkpt lat="41.275919" lon="1.836616">
        <ele>174.447</ele>
        <time>2021-05-15T17:31:18Z</time>
      </trkpt>
      <trkpt lat="41.275960" lon="1.836556">
        <ele>175.011</ele>
        <time>2021-05-15T17:31:20Z</time>
      </trkpt>
      <trkpt lat="41.276054" lon="1.836441">
        <ele>176.008</ele>
        <time>2021-05-15T17:31:25Z</time>
      </trkpt>
      <trkpt lat="41.276071" lon="1.836410">
        <ele>176.261</ele>
        <time>2021-05-15T17:31:26Z</time>
      </trkpt>
      <trkpt lat="41.276126" lon="1.836326">
        <ele>177.277</ele>
        <time>2021-05-15T17:31:30Z</time>
      </trkpt>
      <trkpt lat="41.276174" lon="1.836231">
        <ele>178.013</ele>
        <time>2021-05-15T17:31:34Z</time>
      </trkpt>
      <trkpt lat="41.276187" lon="1.836193">
        <ele>178.279</ele>
        <time>2021-05-15T17:31:35Z</time>
      </trkpt>
      <trkpt lat="41.276205" lon="1.836090">
        <ele>178.819</ele>
        <time>2021-05-15T17:31:38Z</time>
      </trkpt>
      <trkpt lat="41.276200" lon="1.836053">
        <ele>179.295</ele>
        <time>2021-05-15T17:31:39Z</time>
      </trkpt>
      <trkpt lat="41.276196" lon="1.836019">
        <ele>179.498</ele>
        <time>2021-05-15T17:31:40Z</time>
      </trkpt>
      <trkpt lat="41.276151" lon="1.835868">
        <ele>180.454</ele>
        <time>2021-05-15T17:31:45Z</time>
      </trkpt>
      <trkpt lat="41.276130" lon="1.835808">
        <ele>180.895</ele>
        <time>2021-05-15T17:31:47Z</time>
      </trkpt>
      <trkpt lat="41.276108" lon="1.835754">
        <ele>181.249</ele>
        <time>2021-05-15T17:31:49Z</time>
      </trkpt>
      <trkpt lat="41.276082" lon="1.835690">
        <ele>181.623</ele>
        <time>2021-05-15T17:31:51Z</time>
      </trkpt>
      <trkpt lat="41.276060" lon="1.835638">
        <ele>182.008</ele>
        <time>2021-05-15T17:31:53Z</time>
      </trkpt>
      <trkpt lat="41.275996" lon="1.835545">
        <ele>182.846</ele>
        <time>2021-05-15T17:31:57Z</time>
      </trkpt>
      <trkpt lat="41.275963" lon="1.835492">
        <ele>183.222</ele>
        <time>2021-05-15T17:31:59Z</time>
      </trkpt>
      <trkpt lat="41.275895" lon="1.835391">
        <ele>184.048</ele>
        <time>2021-05-15T17:32:04Z</time>
      </trkpt>
      <trkpt lat="41.275849" lon="1.835362">
        <ele>184.044</ele>
        <time>2021-05-15T17:32:05Z</time>
      </trkpt>
      <trkpt lat="41.275849" lon="1.835362">
        <ele>184.294</ele>
        <time>2021-05-15T17:32:06Z</time>
      </trkpt>
      <trkpt lat="41.275744" lon="1.835351">
        <ele>185.450</ele>
        <time>2021-05-15T17:32:10Z</time>
      </trkpt>
      <trkpt lat="41.275720" lon="1.835365">
        <ele>186.013</ele>
        <time>2021-05-15T17:32:11Z</time>
      </trkpt>
      <trkpt lat="41.275680" lon="1.835406">
        <ele>186.699</ele>
        <time>2021-05-15T17:32:13Z</time>
      </trkpt>
      <trkpt lat="41.275594" lon="1.835502">
        <ele>187.627</ele>
        <time>2021-05-15T17:32:17Z</time>
      </trkpt>
      <trkpt lat="41.275494" lon="1.835606">
        <ele>188.668</ele>
        <time>2021-05-15T17:32:22Z</time>
      </trkpt>
      <trkpt lat="41.275465" lon="1.835657">
        <ele>189.614</ele>
        <time>2021-05-15T17:32:25Z</time>
      </trkpt>
      <trkpt lat="41.275434" lon="1.835715">
        <ele>189.608</ele>
        <time>2021-05-15T17:32:26Z</time>
      </trkpt>
      <trkpt lat="41.275283" lon="1.835956">
        <ele>190.699</ele>
        <time>2021-05-15T17:32:34Z</time>
      </trkpt>
      <trkpt lat="41.275263" lon="1.835984">
        <ele>190.875</ele>
        <time>2021-05-15T17:32:35Z</time>
      </trkpt>
      <trkpt lat="41.275069" lon="1.836222">
        <ele>191.871</ele>
        <time>2021-05-15T17:32:43Z</time>
      </trkpt>
      <trkpt lat="41.275046" lon="1.836249">
        <ele>192.067</ele>
        <time>2021-05-15T17:32:44Z</time>
      </trkpt>
      <trkpt lat="41.274937" lon="1.836389">
        <ele>193.057</ele>
        <time>2021-05-15T17:32:50Z</time>
      </trkpt>
      <trkpt lat="41.274924" lon="1.836409">
        <ele>193.413</ele>
        <time>2021-05-15T17:32:51Z</time>
      </trkpt>
      <trkpt lat="41.274845" lon="1.836520">
        <ele>194.226</ele>
        <time>2021-05-15T17:32:56Z</time>
      </trkpt>
      <trkpt lat="41.274786" lon="1.836590">
        <ele>194.692</ele>
        <time>2021-05-15T17:32:59Z</time>
      </trkpt>
      <trkpt lat="41.274676" lon="1.836702">
        <ele>195.475</ele>
        <time>2021-05-15T17:33:04Z</time>
      </trkpt>
      <trkpt lat="41.274591" lon="1.836770">
        <ele>196.228</ele>
        <time>2021-05-15T17:33:09Z</time>
      </trkpt>
      <trkpt lat="41.274543" lon="1.836825">
        <ele>196.620</ele>
        <time>2021-05-15T17:33:12Z</time>
      </trkpt>
      <trkpt lat="41.274495" lon="1.836918">
        <ele>197.808</ele>
        <time>2021-05-15T17:33:15Z</time>
      </trkpt>
      <trkpt lat="41.274458" lon="1.837034">
        <ele>198.884</ele>
        <time>2021-05-15T17:33:20Z</time>
      </trkpt>
      <trkpt lat="41.274436" lon="1.837177">
        <ele>199.830</ele>
        <time>2021-05-15T17:33:25Z</time>
      </trkpt>
      <trkpt lat="41.274436" lon="1.837177">
        <ele>200.416</ele>
        <time>2021-05-15T17:33:26Z</time>
      </trkpt>
      <trkpt lat="41.274414" lon="1.837228">
        <ele>201.052</ele>
        <time>2021-05-15T17:33:28Z</time>
      </trkpt>
      <trkpt lat="41.274371" lon="1.837335">
        <ele>202.012</ele>
        <time>2021-05-15T17:33:32Z</time>
      </trkpt>
      <trkpt lat="41.274286" lon="1.837427">
        <ele>203.088</ele>
        <time>2021-05-15T17:33:36Z</time>
      </trkpt>
      <trkpt lat="41.274286" lon="1.837427">
        <ele>203.211</ele>
        <time>2021-05-15T17:33:37Z</time>
      </trkpt>
      <trkpt lat="41.274199" lon="1.837511">
        <ele>203.887</ele>
        <time>2021-05-15T17:33:41Z</time>
      </trkpt>
      <trkpt lat="41.274199" lon="1.837511">
        <ele>204.287</ele>
        <time>2021-05-15T17:33:42Z</time>
      </trkpt>
      <trkpt lat="41.274061" lon="1.837676">
        <ele>205.242</ele>
        <time>2021-05-15T17:33:49Z</time>
      </trkpt>
      <trkpt lat="41.274043" lon="1.837699">
        <ele>205.226</ele>
        <time>2021-05-15T17:33:50Z</time>
      </trkpt>
      <trkpt lat="41.273956" lon="1.837806">
        <ele>206.208</ele>
        <time>2021-05-15T17:33:55Z</time>
      </trkpt>
      <trkpt lat="41.273881" lon="1.837883">
        <ele>207.035</ele>
        <time>2021-05-15T17:33:58Z</time>
      </trkpt>
      <trkpt lat="41.273863" lon="1.837902">
        <ele>207.421</ele>
        <time>2021-05-15T17:33:59Z</time>
      </trkpt>
      <trkpt lat="41.273792" lon="1.837991">
        <ele>207.857</ele>
        <time>2021-05-15T17:34:03Z</time>
      </trkpt>
      <trkpt lat="41.273749" lon="1.838056">
        <ele>208.643</ele>
        <time>2021-05-15T17:34:06Z</time>
      </trkpt>
      <trkpt lat="41.273686" lon="1.838147">
        <ele>209.823</ele>
        <time>2021-05-15T17:34:10Z</time>
      </trkpt>
      <trkpt lat="41.273643" lon="1.838192">
        <ele>210.279</ele>
        <time>2021-05-15T17:34:12Z</time>
      </trkpt>
      <trkpt lat="41.273547" lon="1.838328">
        <ele>211.082</ele>
        <time>2021-05-15T17:34:17Z</time>
      </trkpt>
      <trkpt lat="41.273530" lon="1.838357">
        <ele>211.258</ele>
        <time>2021-05-15T17:34:18Z</time>
      </trkpt>
      <trkpt lat="41.273417" lon="1.838548">
        <ele>212.096</ele>
        <time>2021-05-15T17:34:25Z</time>
      </trkpt>
      <trkpt lat="41.273248" lon="1.838774">
        <ele>213.231</ele>
        <time>2021-05-15T17:34:34Z</time>
      </trkpt>
      <trkpt lat="41.273118" lon="1.838976">
        <ele>214.024</ele>
        <time>2021-05-15T17:34:41Z</time>
      </trkpt>
      <trkpt lat="41.273083" lon="1.839029">
        <ele>214.208</ele>
        <time>2021-05-15T17:34:43Z</time>
      </trkpt>
      <trkpt lat="41.273049" lon="1.839098">
        <ele>214.426</ele>
        <time>2021-05-15T17:34:45Z</time>
      </trkpt>
      <trkpt lat="41.272958" lon="1.839239">
        <ele>215.252</ele>
        <time>2021-05-15T17:34:50Z</time>
      </trkpt>
      <trkpt lat="41.272891" lon="1.839325">
        <ele>216.098</ele>
        <time>2021-05-15T17:34:54Z</time>
      </trkpt>
      <trkpt lat="41.272878" lon="1.839346">
        <ele>216.444</ele>
        <time>2021-05-15T17:34:55Z</time>
      </trkpt>
      <trkpt lat="41.272786" lon="1.839440">
        <ele>217.274</ele>
        <time>2021-05-15T17:35:00Z</time>
      </trkpt>
      <trkpt lat="41.272771" lon="1.839458">
        <ele>217.430</ele>
        <time>2021-05-15T17:35:01Z</time>
      </trkpt>
      <trkpt lat="41.272691" lon="1.839521">
        <ele>218.443</ele>
        <time>2021-05-15T17:35:06Z</time>
      </trkpt>
      <trkpt lat="41.272662" lon="1.839549">
        <ele>219.069</ele>
        <time>2021-05-15T17:35:08Z</time>
      </trkpt>
      <trkpt lat="41.272624" lon="1.839584">
        <ele>219.647</ele>
        <time>2021-05-15T17:35:11Z</time>
      </trkpt>
      <trkpt lat="41.272563" lon="1.839634">
        <ele>220.829</ele>
        <time>2021-05-15T17:35:15Z</time>
      </trkpt>
      <trkpt lat="41.272545" lon="1.839647">
        <ele>221.221</ele>
        <time>2021-05-15T17:35:16Z</time>
      </trkpt>
      <trkpt lat="41.272508" lon="1.839674">
        <ele>221.808</ele>
        <time>2021-05-15T17:35:19Z</time>
      </trkpt>
      <trkpt lat="41.272473" lon="1.839708">
        <ele>222.891</ele>
        <time>2021-05-15T17:35:22Z</time>
      </trkpt>
      <trkpt lat="41.272452" lon="1.839734">
        <ele>223.257</ele>
        <time>2021-05-15T17:35:24Z</time>
      </trkpt>
      <trkpt lat="41.272418" lon="1.839783">
        <ele>224.073</ele>
        <time>2021-05-15T17:35:27Z</time>
      </trkpt>
      <trkpt lat="41.272354" lon="1.839808">
        <ele>225.049</ele>
        <time>2021-05-15T17:35:31Z</time>
      </trkpt>
      <trkpt lat="41.272336" lon="1.839809">
        <ele>225.259</ele>
        <time>2021-05-15T17:35:32Z</time>
      </trkpt>
      <trkpt lat="41.272267" lon="1.839859">
        <ele>226.455</ele>
        <time>2021-05-15T17:35:37Z</time>
      </trkpt>
      <trkpt lat="41.272243" lon="1.839879">
        <ele>227.068</ele>
        <time>2021-05-15T17:35:39Z</time>
      </trkpt>
      <trkpt lat="41.272213" lon="1.839905">
        <ele>227.664</ele>
        <time>2021-05-15T17:35:41Z</time>
      </trkpt>
      <trkpt lat="41.272164" lon="1.839959">
        <ele>228.679</ele>
        <time>2021-05-15T17:35:45Z</time>
      </trkpt>
      <trkpt lat="41.272132" lon="1.839992">
        <ele>228.805</ele>
        <time>2021-05-15T17:35:47Z</time>
      </trkpt>
      <trkpt lat="41.272091" lon="1.840046">
        <ele>229.625</ele>
        <time>2021-05-15T17:35:50Z</time>
      </trkpt>
      <trkpt lat="41.272048" lon="1.840127">
        <ele>230.608</ele>
        <time>2021-05-15T17:35:54Z</time>
      </trkpt>
      <trkpt lat="41.272013" lon="1.840183">
        <ele>231.234</ele>
        <time>2021-05-15T17:35:57Z</time>
      </trkpt>
      <trkpt lat="41.271987" lon="1.840230">
        <ele>231.640</ele>
        <time>2021-05-15T17:36:00Z</time>
      </trkpt>
      <trkpt lat="41.271937" lon="1.840335">
        <ele>232.666</ele>
        <time>2021-05-15T17:36:05Z</time>
      </trkpt>
      <trkpt lat="41.271925" lon="1.840360">
        <ele>232.822</ele>
        <time>2021-05-15T17:36:06Z</time>
      </trkpt>
      <trkpt lat="41.271881" lon="1.840459">
        <ele>234.092</ele>
        <time>2021-05-15T17:36:12Z</time>
      </trkpt>
      <trkpt lat="41.271828" lon="1.840527">
        <ele>234.688</ele>
        <time>2021-05-15T17:36:15Z</time>
      </trkpt>
      <trkpt lat="41.271817" lon="1.840544">
        <ele>235.291</ele>
        <time>2021-05-15T17:36:17Z</time>
      </trkpt>
      <trkpt lat="41.271730" lon="1.840677">
        <ele>236.697</ele>
        <time>2021-05-15T17:36:23Z</time>
      </trkpt>
      <trkpt lat="41.271691" lon="1.840737">
        <ele>237.841</ele>
        <time>2021-05-15T17:36:26Z</time>
      </trkpt>
      <trkpt lat="41.271630" lon="1.840806">
        <ele>238.881</ele>
        <time>2021-05-15T17:36:30Z</time>
      </trkpt>
      <trkpt lat="41.271609" lon="1.840821">
        <ele>239.009</ele>
        <time>2021-05-15T17:36:31Z</time>
      </trkpt>
      <trkpt lat="41.271537" lon="1.840875">
        <ele>240.008</ele>
        <time>2021-05-15T17:36:35Z</time>
      </trkpt>
      <trkpt lat="41.271436" lon="1.840938">
        <ele>240.831</ele>
        <time>2021-05-15T17:36:40Z</time>
      </trkpt>
      <trkpt lat="41.271417" lon="1.840951">
        <ele>241.057</ele>
        <time>2021-05-15T17:36:41Z</time>
      </trkpt>
      <trkpt lat="41.271279" lon="1.841055">
        <ele>242.253</ele>
        <time>2021-05-15T17:36:48Z</time>
      </trkpt>
      <trkpt lat="41.271212" lon="1.841084">
        <ele>242.659</ele>
        <time>2021-05-15T17:36:51Z</time>
      </trkpt>
      <trkpt lat="41.271154" lon="1.841129">
        <ele>243.229</ele>
        <time>2021-05-15T17:36:54Z</time>
      </trkpt>
      <trkpt lat="41.271057" lon="1.841192">
        <ele>244.045</ele>
        <time>2021-05-15T17:36:59Z</time>
      </trkpt>
      <trkpt lat="41.271039" lon="1.841205">
        <ele>244.468</ele>
        <time>2021-05-15T17:37:01Z</time>
      </trkpt>
      <trkpt lat="41.270909" lon="1.841278">
        <ele>245.444</ele>
        <time>2021-05-15T17:37:07Z</time>
      </trkpt>
      <trkpt lat="41.270889" lon="1.841289">
        <ele>245.667</ele>
        <time>2021-05-15T17:37:08Z</time>
      </trkpt>
      <trkpt lat="41.270787" lon="1.841349">
        <ele>246.681</ele>
        <time>2021-05-15T17:37:13Z</time>
      </trkpt>
      <trkpt lat="41.270707" lon="1.841394">
        <ele>247.219</ele>
        <time>2021-05-15T17:37:17Z</time>
      </trkpt>
      <trkpt lat="41.270649" lon="1.841438">
        <ele>247.608</ele>
        <time>2021-05-15T17:37:20Z</time>
      </trkpt>
      <trkpt lat="41.270487" lon="1.841539">
        <ele>248.423</ele>
        <time>2021-05-15T17:37:27Z</time>
      </trkpt>
      <trkpt lat="41.270436" lon="1.841559">
        <ele>248.639</ele>
        <time>2021-05-15T17:37:29Z</time>
      </trkpt>
      <trkpt lat="41.270286" lon="1.841620">
        <ele>249.615</ele>
        <time>2021-05-15T17:37:35Z</time>
      </trkpt>
      <trkpt lat="41.270262" lon="1.841625">
        <ele>249.881</ele>
        <time>2021-05-15T17:37:36Z</time>
      </trkpt>
      <trkpt lat="41.270126" lon="1.841635">
        <ele>250.421</ele>
        <time>2021-05-15T17:37:41Z</time>
      </trkpt>
      <trkpt lat="41.269944" lon="1.841644">
        <ele>250.857</ele>
        <time>2021-05-15T17:37:47Z</time>
      </trkpt>
      <trkpt lat="41.269843" lon="1.841641">
        <ele>251.250</ele>
        <time>2021-05-15T17:37:51Z</time>
      </trkpt>
      <trkpt lat="41.269763" lon="1.841642">
        <ele>252.086</ele>
        <time>2021-05-15T17:37:54Z</time>
      </trkpt>
      <trkpt lat="41.269569" lon="1.841621">
        <ele>252.826</ele>
        <time>2021-05-15T17:38:01Z</time>
      </trkpt>
      <trkpt lat="41.269478" lon="1.841592">
        <ele>253.047</ele>
        <time>2021-05-15T17:38:04Z</time>
      </trkpt>
      <trkpt lat="41.269233" lon="1.841519">
        <ele>254.011</ele>
        <time>2021-05-15T17:38:12Z</time>
      </trkpt>
      <trkpt lat="41.269157" lon="1.841515">
        <ele>254.208</ele>
        <time>2021-05-15T17:38:14Z</time>
      </trkpt>
      <trkpt lat="41.269007" lon="1.841490">
        <ele>254.899</ele>
        <time>2021-05-15T17:38:18Z</time>
      </trkpt>
      <trkpt lat="41.268800" lon="1.841462">
        <ele>255.275</ele>
        <time>2021-05-15T17:38:24Z</time>
      </trkpt>
      <trkpt lat="41.268762" lon="1.841459">
        <ele>255.241</ele>
        <time>2021-05-15T17:38:25Z</time>
      </trkpt>
      <trkpt lat="41.268469" lon="1.841468">
        <ele>256.287</ele>
        <time>2021-05-15T17:38:33Z</time>
      </trkpt>
      <trkpt lat="41.268433" lon="1.841482">
        <ele>256.287</ele>
        <time>2021-05-15T17:38:34Z</time>
      </trkpt>
      <trkpt lat="41.268275" lon="1.841565">
        <ele>257.483</ele>
        <time>2021-05-15T17:38:39Z</time>
      </trkpt>
      <trkpt lat="41.268243" lon="1.841579">
        <ele>257.856</ele>
        <time>2021-05-15T17:38:40Z</time>
      </trkpt>
      <trkpt lat="41.268098" lon="1.841646">
        <ele>258.662</ele>
        <time>2021-05-15T17:38:45Z</time>
      </trkpt>
      <trkpt lat="41.268031" lon="1.841650">
        <ele>259.051</ele>
        <time>2021-05-15T17:38:47Z</time>
      </trkpt>
      <trkpt lat="41.267914" lon="1.841613">
        <ele>259.201</ele>
        <time>2021-05-15T17:38:50Z</time>
      </trkpt>
      <trkpt lat="41.267880" lon="1.841566">
        <ele>259.211</ele>
        <time>2021-05-15T17:38:51Z</time>
      </trkpt>
      <trkpt lat="41.267861" lon="1.841515">
        <ele>259.008</ele>
        <time>2021-05-15T17:38:52Z</time>
      </trkpt>
      <trkpt lat="41.267834" lon="1.841340">
        <ele>258.632</ele>
        <time>2021-05-15T17:38:54Z</time>
      </trkpt>
      <trkpt lat="41.267836" lon="1.841064">
        <ele>257.698</ele>
        <time>2021-05-15T17:38:57Z</time>
      </trkpt>
      <trkpt lat="41.267842" lon="1.840868">
        <ele>256.884</ele>
        <time>2021-05-15T17:38:59Z</time>
      </trkpt>
      <trkpt lat="41.267846" lon="1.840791">
        <ele>256.410</ele>
        <time>2021-05-15T17:39:00Z</time>
      </trkpt>
      <trkpt lat="41.267860" lon="1.840598">
        <ele>255.460</ele>
        <time>2021-05-15T17:39:02Z</time>
      </trkpt>
      <trkpt lat="41.267860" lon="1.840488">
        <ele>255.056</ele>
        <time>2021-05-15T17:39:03Z</time>
      </trkpt>
      <trkpt lat="41.267843" lon="1.840400">
        <ele>254.639</ele>
        <time>2021-05-15T17:39:04Z</time>
      </trkpt>
      <trkpt lat="41.267817" lon="1.840338">
        <ele>254.045</ele>
        <time>2021-05-15T17:39:05Z</time>
      </trkpt>
      <trkpt lat="41.267709" lon="1.840227">
        <ele>252.683</ele>
        <time>2021-05-15T17:39:07Z</time>
      </trkpt>
      <trkpt lat="41.267496" lon="1.840080">
        <ele>251.625</ele>
        <time>2021-05-15T17:39:10Z</time>
      </trkpt>
      <trkpt lat="41.267295" lon="1.839944">
        <ele>250.417</ele>
        <time>2021-05-15T17:39:13Z</time>
      </trkpt>
      <trkpt lat="41.267145" lon="1.839868">
        <ele>250.008</ele>
        <time>2021-05-15T17:39:15Z</time>
      </trkpt>
      <trkpt lat="41.266766" lon="1.839760">
        <ele>249.445</ele>
        <time>2021-05-15T17:39:20Z</time>
      </trkpt>
      <trkpt lat="41.266709" lon="1.839741">
        <ele>249.261</ele>
        <time>2021-05-15T17:39:21Z</time>
      </trkpt>
      <trkpt lat="41.266499" lon="1.839653">
        <ele>249.237</ele>
        <time>2021-05-15T17:39:24Z</time>
      </trkpt>
      <trkpt lat="41.266442" lon="1.839614">
        <ele>249.243</ele>
        <time>2021-05-15T17:39:25Z</time>
      </trkpt>
      <trkpt lat="41.266350" lon="1.839532">
        <ele>249.273</ele>
        <time>2021-05-15T17:39:27Z</time>
      </trkpt>
      <trkpt lat="41.266261" lon="1.839401">
        <ele>249.419</ele>
        <time>2021-05-15T17:39:29Z</time>
      </trkpt>
      <trkpt lat="41.266077" lon="1.839067">
        <ele>249.652</ele>
        <time>2021-05-15T17:39:35Z</time>
      </trkpt>
      <trkpt lat="41.266024" lon="1.838969">
        <ele>249.688</ele>
        <time>2021-05-15T17:39:37Z</time>
      </trkpt>
      <trkpt lat="41.265925" lon="1.838786">
        <ele>249.499</ele>
        <time>2021-05-15T17:39:40Z</time>
      </trkpt>
      <trkpt lat="41.265871" lon="1.838647">
        <ele>249.007</ele>
        <time>2021-05-15T17:39:42Z</time>
      </trkpt>
      <trkpt lat="41.265818" lon="1.838404">
        <ele>248.827</ele>
        <time>2021-05-15T17:39:45Z</time>
      </trkpt>
      <trkpt lat="41.265800" lon="1.838229">
        <ele>248.408</ele>
        <time>2021-05-15T17:39:47Z</time>
      </trkpt>
      <trkpt lat="41.265799" lon="1.838135">
        <ele>248.056</ele>
        <time>2021-05-15T17:39:48Z</time>
      </trkpt>
      <trkpt lat="41.265803" lon="1.837957">
        <ele>247.452</ele>
        <time>2021-05-15T17:39:50Z</time>
      </trkpt>
      <trkpt lat="41.265793" lon="1.837884">
        <ele>247.088</ele>
        <time>2021-05-15T17:39:51Z</time>
      </trkpt>
      <trkpt lat="41.265736" lon="1.837735">
        <ele>246.454</ele>
        <time>2021-05-15T17:39:53Z</time>
      </trkpt>
      <trkpt lat="41.265683" lon="1.837680">
        <ele>246.274</ele>
        <time>2021-05-15T17:39:54Z</time>
      </trkpt>
      <trkpt lat="41.265617" lon="1.837662">
        <ele>246.260</ele>
        <time>2021-05-15T17:39:55Z</time>
      </trkpt>
      <trkpt lat="41.265559" lon="1.837674">
        <ele>246.283</ele>
        <time>2021-05-15T17:39:56Z</time>
      </trkpt>
      <trkpt lat="41.265445" lon="1.837724">
        <ele>246.279</ele>
        <time>2021-05-15T17:39:58Z</time>
      </trkpt>
      <trkpt lat="41.265334" lon="1.837737">
        <ele>246.252</ele>
        <time>2021-05-15T17:40:00Z</time>
      </trkpt>
      <trkpt lat="41.265230" lon="1.837714">
        <ele>246.453</ele>
        <time>2021-05-15T17:40:02Z</time>
      </trkpt>
      <trkpt lat="41.265154" lon="1.837658">
        <ele>246.608</ele>
        <time>2021-05-15T17:40:04Z</time>
      </trkpt>
      <trkpt lat="41.265013" lon="1.837390">
        <ele>246.808</ele>
        <time>2021-05-15T17:40:10Z</time>
      </trkpt>
      <trkpt lat="41.264808" lon="1.836968">
        <ele>247.852</ele>
        <time>2021-05-15T17:40:18Z</time>
      </trkpt>
      <trkpt lat="41.264581" lon="1.836521">
        <ele>247.698</ele>
        <time>2021-05-15T17:40:26Z</time>
      </trkpt>
      <trkpt lat="41.264433" lon="1.836180">
        <ele>247.484</ele>
        <time>2021-05-15T17:40:31Z</time>
      </trkpt>
      <trkpt lat="41.264413" lon="1.836104">
        <ele>247.480</ele>
        <time>2021-05-15T17:40:32Z</time>
      </trkpt>
      <trkpt lat="41.264320" lon="1.835692">
        <ele>245.850</ele>
        <time>2021-05-15T17:40:37Z</time>
      </trkpt>
      <trkpt lat="41.264218" lon="1.835583">
        <ele>245.086</ele>
        <time>2021-05-15T17:40:39Z</time>
      </trkpt>
      <trkpt lat="41.264137" lon="1.835553">
        <ele>244.499</ele>
        <time>2021-05-15T17:40:40Z</time>
      </trkpt>
      <trkpt lat="41.264065" lon="1.835543">
        <ele>243.615</ele>
        <time>2021-05-15T17:40:41Z</time>
      </trkpt>
      <trkpt lat="41.264002" lon="1.835541">
        <ele>243.292</ele>
        <time>2021-05-15T17:40:42Z</time>
      </trkpt>
      <trkpt lat="41.263874" lon="1.835551">
        <ele>241.873</ele>
        <time>2021-05-15T17:40:44Z</time>
      </trkpt>
      <trkpt lat="41.263822" lon="1.835562">
        <ele>240.620</ele>
        <time>2021-05-15T17:40:45Z</time>
      </trkpt>
      <trkpt lat="41.263763" lon="1.835594">
        <ele>239.208</ele>
        <time>2021-05-15T17:40:47Z</time>
      </trkpt>
      <trkpt lat="41.263637" lon="1.835615">
        <ele>238.436</ele>
        <time>2021-05-15T17:40:50Z</time>
      </trkpt>
      <trkpt lat="41.263591" lon="1.835587">
        <ele>238.242</ele>
        <time>2021-05-15T17:40:51Z</time>
      </trkpt>
      <trkpt lat="41.263591" lon="1.835587">
        <ele>238.038</ele>
        <time>2021-05-15T17:40:52Z</time>
      </trkpt>
      <trkpt lat="41.263499" lon="1.835483">
        <ele>237.854</ele>
        <time>2021-05-15T17:40:53Z</time>
      </trkpt>
      <trkpt lat="41.263404" lon="1.835326">
        <ele>236.884</ele>
        <time>2021-05-15T17:40:55Z</time>
      </trkpt>
      <trkpt lat="41.263294" lon="1.835139">
        <ele>236.280</ele>
        <time>2021-05-15T17:40:57Z</time>
      </trkpt>
      <trkpt lat="41.263216" lon="1.834977">
        <ele>235.453</ele>
        <time>2021-05-15T17:40:59Z</time>
      </trkpt>
      <trkpt lat="41.263171" lon="1.834887">
        <ele>235.069</ele>
        <time>2021-05-15T17:41:00Z</time>
      </trkpt>
      <trkpt lat="41.263042" lon="1.834660">
        <ele>234.264</ele>
        <time>2021-05-15T17:41:03Z</time>
      </trkpt>
      <trkpt lat="41.263010" lon="1.834630">
        <ele>233.406</ele>
        <time>2021-05-15T17:41:04Z</time>
      </trkpt>
      <trkpt lat="41.262986" lon="1.834623">
        <ele>232.816</ele>
        <time>2021-05-15T17:41:05Z</time>
      </trkpt>
      <trkpt lat="41.262972" lon="1.834635">
        <ele>232.608</ele>
        <time>2021-05-15T17:41:06Z</time>
      </trkpt>
      <trkpt lat="41.262913" lon="1.834806">
        <ele>233.243</ele>
        <time>2021-05-15T17:41:11Z</time>
      </trkpt>
      <trkpt lat="41.262836" lon="1.835048">
        <ele>233.879</ele>
        <time>2021-05-15T17:41:17Z</time>
      </trkpt>
      <trkpt lat="41.262710" lon="1.835308">
        <ele>234.065</ele>
        <time>2021-05-15T17:41:24Z</time>
      </trkpt>
      <trkpt lat="41.262700" lon="1.835334">
        <ele>234.031</ele>
        <time>2021-05-15T17:41:26Z</time>
      </trkpt>
      <trkpt lat="41.262696" lon="1.835360">
        <ele>234.051</ele>
        <time>2021-05-15T17:41:27Z</time>
      </trkpt>
      <trkpt lat="41.262625" lon="1.835541">
        <ele>233.617</ele>
        <time>2021-05-15T17:41:32Z</time>
      </trkpt>
      <trkpt lat="41.262490" lon="1.835800">
        <ele>234.660</ele>
        <time>2021-05-15T17:41:39Z</time>
      </trkpt>
      <trkpt lat="41.262407" lon="1.836113">
        <ele>234.226</ele>
        <time>2021-05-15T17:41:45Z</time>
      </trkpt>
      <trkpt lat="41.262394" lon="1.836170">
        <ele>234.264</ele>
        <time>2021-05-15T17:41:46Z</time>
      </trkpt>
      <trkpt lat="41.262306" lon="1.836366">
        <ele>233.606</ele>
        <time>2021-05-15T17:41:49Z</time>
      </trkpt>
      <trkpt lat="41.262263" lon="1.836421">
        <ele>233.416</ele>
        <time>2021-05-15T17:41:50Z</time>
      </trkpt>
      <trkpt lat="41.262156" lon="1.836508">
        <ele>233.008</ele>
        <time>2021-05-15T17:41:52Z</time>
      </trkpt>
      <trkpt lat="41.261846" lon="1.836589">
        <ele>232.893</ele>
        <time>2021-05-15T17:41:58Z</time>
      </trkpt>
      <trkpt lat="41.261519" lon="1.836686">
        <ele>233.029</ele>
        <time>2021-05-15T17:42:05Z</time>
      </trkpt>
      <trkpt lat="41.261228" lon="1.836813">
        <ele>234.255</ele>
        <time>2021-05-15T17:42:12Z</time>
      </trkpt>
      <trkpt lat="41.261163" lon="1.836807">
        <ele>234.441</ele>
        <time>2021-05-15T17:42:14Z</time>
      </trkpt>
      <trkpt lat="41.261098" lon="1.836790">
        <ele>234.611</ele>
        <time>2021-05-15T17:42:16Z</time>
      </trkpt>
      <trkpt lat="41.260994" lon="1.836734">
        <ele>235.057</ele>
        <time>2021-05-15T17:42:19Z</time>
      </trkpt>
      <trkpt lat="41.260906" lon="1.836696">
        <ele>235.680</ele>
        <time>2021-05-15T17:42:22Z</time>
      </trkpt>
      <trkpt lat="41.260834" lon="1.836688">
        <ele>236.226</ele>
        <time>2021-05-15T17:42:24Z</time>
      </trkpt>
      <trkpt lat="41.260663" lon="1.836660">
        <ele>236.476</ele>
        <time>2021-05-15T17:42:29Z</time>
      </trkpt>
      <trkpt lat="41.260571" lon="1.836647">
        <ele>236.890</ele>
        <time>2021-05-15T17:42:31Z</time>
      </trkpt>
      <trkpt lat="41.260301" lon="1.836594">
        <ele>237.219</ele>
        <time>2021-05-15T17:42:37Z</time>
      </trkpt>
      <trkpt lat="41.260015" lon="1.836546">
        <ele>236.808</ele>
        <time>2021-05-15T17:42:42Z</time>
      </trkpt>
      <trkpt lat="41.259955" lon="1.836530">
        <ele>236.824</ele>
        <time>2021-05-15T17:42:43Z</time>
      </trkpt>
      <trkpt lat="41.259718" lon="1.836442">
        <ele>236.650</ele>
        <time>2021-05-15T17:42:47Z</time>
      </trkpt>
      <trkpt lat="41.259661" lon="1.836428">
        <ele>236.896</ele>
        <time>2021-05-15T17:42:48Z</time>
      </trkpt>
      <trkpt lat="41.259464" lon="1.836391">
        <ele>236.662</ele>
        <time>2021-05-15T17:42:51Z</time>
      </trkpt>
      <trkpt lat="41.259396" lon="1.836369">
        <ele>236.222</ele>
        <time>2021-05-15T17:42:52Z</time>
      </trkpt>
      <trkpt lat="41.259219" lon="1.836269">
        <ele>235.688</ele>
        <time>2021-05-15T17:42:55Z</time>
      </trkpt>
      <trkpt lat="41.259112" lon="1.836209">
        <ele>235.631</ele>
        <time>2021-05-15T17:42:57Z</time>
      </trkpt>
      <trkpt lat="41.258987" lon="1.836232">
        <ele>235.447</ele>
        <time>2021-05-15T17:42:59Z</time>
      </trkpt>
      <trkpt lat="41.258925" lon="1.836254">
        <ele>235.491</ele>
        <time>2021-05-15T17:43:00Z</time>
      </trkpt>
      <trkpt lat="41.258793" lon="1.836300">
        <ele>235.281</ele>
        <time>2021-05-15T17:43:02Z</time>
      </trkpt>
      <trkpt lat="41.258674" lon="1.836358">
        <ele>234.819</ele>
        <time>2021-05-15T17:43:04Z</time>
      </trkpt>
      <trkpt lat="41.258604" lon="1.836421">
        <ele>234.808</ele>
        <time>2021-05-15T17:43:06Z</time>
      </trkpt>
      <trkpt lat="41.258565" lon="1.836535">
        <ele>234.836</ele>
        <time>2021-05-15T17:43:08Z</time>
      </trkpt>
      <trkpt lat="41.258557" lon="1.836622">
        <ele>234.812</ele>
        <time>2021-05-15T17:43:09Z</time>
      </trkpt>
      <trkpt lat="41.258538" lon="1.837033">
        <ele>234.898</ele>
        <time>2021-05-15T17:43:14Z</time>
      </trkpt>
      <trkpt lat="41.258465" lon="1.837458">
        <ele>234.854</ele>
        <time>2021-05-15T17:43:20Z</time>
      </trkpt>
      <trkpt lat="41.258428" lon="1.837607">
        <ele>234.434</ele>
        <time>2021-05-15T17:43:22Z</time>
      </trkpt>
      <trkpt lat="41.258402" lon="1.837682">
        <ele>234.220</ele>
        <time>2021-05-15T17:43:23Z</time>
      </trkpt>
      <trkpt lat="41.258330" lon="1.837818">
        <ele>234.083</ele>
        <time>2021-05-15T17:43:25Z</time>
      </trkpt>
      <trkpt lat="41.258248" lon="1.837951">
        <ele>233.859</ele>
        <time>2021-05-15T17:43:27Z</time>
      </trkpt>
      <trkpt lat="41.258206" lon="1.838012">
        <ele>233.864</ele>
        <time>2021-05-15T17:43:28Z</time>
      </trkpt>
      <trkpt lat="41.258040" lon="1.838242">
        <ele>233.806</ele>
        <time>2021-05-15T17:43:32Z</time>
      </trkpt>
      <trkpt lat="41.257938" lon="1.838401">
        <ele>233.816</ele>
        <time>2021-05-15T17:43:35Z</time>
      </trkpt>
      <trkpt lat="41.257896" lon="1.838456">
        <ele>233.808</ele>
        <time>2021-05-15T17:43:36Z</time>
      </trkpt>
      <trkpt lat="41.257718" lon="1.838658">
        <ele>233.643</ele>
        <time>2021-05-15T17:43:40Z</time>
      </trkpt>
      <trkpt lat="41.257648" lon="1.838708">
        <ele>233.649</ele>
        <time>2021-05-15T17:43:41Z</time>
      </trkpt>
      <trkpt lat="41.257522" lon="1.838781">
        <ele>233.075</ele>
        <time>2021-05-15T17:43:43Z</time>
      </trkpt>
      <trkpt lat="41.257311" lon="1.838887">
        <ele>232.031</ele>
        <time>2021-05-15T17:43:46Z</time>
      </trkpt>
      <trkpt lat="41.257123" lon="1.839001">
        <ele>231.671</ele>
        <time>2021-05-15T17:43:49Z</time>
      </trkpt>
      <trkpt lat="41.256893" lon="1.839174">
        <ele>230.837</ele>
        <time>2021-05-15T17:43:53Z</time>
      </trkpt>
      <trkpt lat="41.256675" lon="1.839362">
        <ele>230.460</ele>
        <time>2021-05-15T17:43:57Z</time>
      </trkpt>
      <trkpt lat="41.256552" lon="1.839452">
        <ele>230.016</ele>
        <time>2021-05-15T17:43:59Z</time>
      </trkpt>
      <trkpt lat="41.256364" lon="1.839585">
        <ele>229.475</ele>
        <time>2021-05-15T17:44:02Z</time>
      </trkpt>
      <trkpt lat="41.256205" lon="1.839689">
        <ele>228.428</ele>
        <time>2021-05-15T17:44:04Z</time>
      </trkpt>
      <trkpt lat="41.256054" lon="1.839786">
        <ele>227.220</ele>
        <time>2021-05-15T17:44:06Z</time>
      </trkpt>
      <trkpt lat="41.255981" lon="1.839845">
        <ele>226.608</ele>
        <time>2021-05-15T17:44:07Z</time>
      </trkpt>
      <trkpt lat="41.255860" lon="1.839987">
        <ele>226.044</ele>
        <time>2021-05-15T17:44:09Z</time>
      </trkpt>
      <trkpt lat="41.255795" lon="1.840051">
        <ele>225.870</ele>
        <time>2021-05-15T17:44:10Z</time>
      </trkpt>
      <trkpt lat="41.255673" lon="1.840135">
        <ele>225.646</ele>
        <time>2021-05-15T17:44:12Z</time>
      </trkpt>
      <trkpt lat="41.255542" lon="1.840126">
        <ele>225.092</ele>
        <time>2021-05-15T17:44:14Z</time>
      </trkpt>
      <trkpt lat="41.255487" lon="1.840112">
        <ele>224.612</ele>
        <time>2021-05-15T17:44:15Z</time>
      </trkpt>
      <trkpt lat="41.255440" lon="1.840112">
        <ele>224.418</ele>
        <time>2021-05-15T17:44:16Z</time>
      </trkpt>
      <trkpt lat="41.255426" lon="1.840125">
        <ele>224.441</ele>
        <time>2021-05-15T17:44:17Z</time>
      </trkpt>
      <trkpt lat="41.255358" lon="1.840206">
        <ele>226.067</ele>
        <time>2021-05-15T17:44:22Z</time>
      </trkpt>
      <trkpt lat="41.255350" lon="1.840218">
        <ele>226.214</ele>
        <time>2021-05-15T17:44:23Z</time>
      </trkpt>
      <trkpt lat="41.255316" lon="1.840292">
        <ele>227.454</ele>
        <time>2021-05-15T17:44:27Z</time>
      </trkpt>
      <trkpt lat="41.255297" lon="1.840327">
        <ele>228.209</ele>
        <time>2021-05-15T17:44:29Z</time>
      </trkpt>
      <trkpt lat="41.255283" lon="1.840341">
        <ele>228.208</ele>
        <time>2021-05-15T17:44:30Z</time>
      </trkpt>
      <trkpt lat="41.255272" lon="1.840358">
        <ele>228.418</ele>
        <time>2021-05-15T17:44:31Z</time>
      </trkpt>
      <trkpt lat="41.255255" lon="1.840380">
        <ele>228.654</ele>
        <time>2021-05-15T17:44:33Z</time>
      </trkpt>
      <trkpt lat="41.255233" lon="1.840401">
        <ele>228.890</ele>
        <time>2021-05-15T17:44:35Z</time>
      </trkpt>
      <trkpt lat="41.255209" lon="1.840419">
        <ele>229.096</ele>
        <time>2021-05-15T17:44:37Z</time>
      </trkpt>
      <trkpt lat="41.255179" lon="1.840441">
        <ele>229.686</ele>
        <time>2021-05-15T17:44:39Z</time>
      </trkpt>
      <trkpt lat="41.255157" lon="1.840457">
        <ele>230.082</ele>
        <time>2021-05-15T17:44:41Z</time>
      </trkpt>
      <trkpt lat="41.255098" lon="1.840467">
        <ele>229.875</ele>
        <time>2021-05-15T17:44:44Z</time>
      </trkpt>
      <trkpt lat="41.255004" lon="1.840535">
        <ele>230.661</ele>
        <time>2021-05-15T17:44:50Z</time>
      </trkpt>
      <trkpt lat="41.254959" lon="1.840574">
        <ele>231.067</ele>
        <time>2021-05-15T17:44:53Z</time>
      </trkpt>
      <trkpt lat="41.254878" lon="1.840659">
        <ele>231.681</ele>
        <time>2021-05-15T17:44:58Z</time>
      </trkpt>
      <trkpt lat="41.254855" lon="1.840676">
        <ele>231.819</ele>
        <time>2021-05-15T17:44:59Z</time>
      </trkpt>
      <trkpt lat="41.254722" lon="1.840727">
        <ele>232.608</ele>
        <time>2021-05-15T17:45:04Z</time>
      </trkpt>
      <trkpt lat="41.254699" lon="1.840720">
        <ele>232.893</ele>
        <time>2021-05-15T17:45:05Z</time>
      </trkpt>
      <trkpt lat="41.254649" lon="1.840676">
        <ele>233.289</ele>
        <time>2021-05-15T17:45:08Z</time>
      </trkpt>
      <trkpt lat="41.254632" lon="1.840663">
        <ele>233.625</ele>
        <time>2021-05-15T17:45:09Z</time>
      </trkpt>
      <trkpt lat="41.254617" lon="1.840652">
        <ele>233.891</ele>
        <time>2021-05-15T17:45:10Z</time>
      </trkpt>
      <trkpt lat="41.254604" lon="1.840636">
        <ele>234.221</ele>
        <time>2021-05-15T17:45:11Z</time>
      </trkpt>
      <trkpt lat="41.254599" lon="1.840619">
        <ele>234.297</ele>
        <time>2021-05-15T17:45:12Z</time>
      </trkpt>
      <trkpt lat="41.254585" lon="1.840575">
        <ele>234.610</ele>
        <time>2021-05-15T17:45:14Z</time>
      </trkpt>
      <trkpt lat="41.254571" lon="1.840538">
        <ele>235.296</ele>
        <time>2021-05-15T17:45:16Z</time>
      </trkpt>
      <trkpt lat="41.254550" lon="1.840514">
        <ele>235.841</ele>
        <time>2021-05-15T17:45:18Z</time>
      </trkpt>
      <trkpt lat="41.254539" lon="1.840504">
        <ele>236.281</ele>
        <time>2021-05-15T17:45:19Z</time>
      </trkpt>
      <trkpt lat="41.254528" lon="1.840491">
        <ele>236.609</ele>
        <time>2021-05-15T17:45:20Z</time>
      </trkpt>
      <trkpt lat="41.254489" lon="1.840436">
        <ele>237.808</ele>
        <time>2021-05-15T17:45:24Z</time>
      </trkpt>
      <trkpt lat="41.254455" lon="1.840428">
        <ele>238.471</ele>
        <time>2021-05-15T17:45:26Z</time>
      </trkpt>
      <trkpt lat="41.254420" lon="1.840418">
        <ele>239.077</ele>
        <time>2021-05-15T17:45:28Z</time>
      </trkpt>
      <trkpt lat="41.254378" lon="1.840377">
        <ele>240.043</ele>
        <time>2021-05-15T17:45:31Z</time>
      </trkpt>
      <trkpt lat="41.254337" lon="1.840325">
        <ele>241.039</ele>
        <time>2021-05-15T17:45:35Z</time>
      </trkpt>
      <trkpt lat="41.254328" lon="1.840319">
        <ele>241.299</ele>
        <time>2021-05-15T17:45:36Z</time>
      </trkpt>
      <trkpt lat="41.254282" lon="1.840299">
        <ele>242.215</ele>
        <time>2021-05-15T17:45:39Z</time>
      </trkpt>
      <trkpt lat="41.254248" lon="1.840288">
        <ele>242.638</ele>
        <time>2021-05-15T17:45:41Z</time>
      </trkpt>
      <trkpt lat="41.254181" lon="1.840266">
        <ele>243.484</ele>
        <time>2021-05-15T17:45:45Z</time>
      </trkpt>
      <trkpt lat="41.254108" lon="1.840213">
        <ele>244.618</ele>
        <time>2021-05-15T17:45:50Z</time>
      </trkpt>
      <trkpt lat="41.254028" lon="1.840173">
        <ele>245.898</ele>
        <time>2021-05-15T17:45:55Z</time>
      </trkpt>
      <trkpt lat="41.253970" lon="1.840127">
        <ele>246.617</ele>
        <time>2021-05-15T17:45:58Z</time>
      </trkpt>
      <trkpt lat="41.253938" lon="1.840102">
        <ele>247.008</ele>
        <time>2021-05-15T17:46:00Z</time>
      </trkpt>
      <trkpt lat="41.253838" lon="1.840053">
        <ele>248.088</ele>
        <time>2021-05-15T17:46:06Z</time>
      </trkpt>
      <trkpt lat="41.253601" lon="1.840031">
        <ele>249.084</ele>
        <time>2021-05-15T17:46:15Z</time>
      </trkpt>
      <trkpt lat="41.253574" lon="1.840030">
        <ele>249.040</ele>
        <time>2021-05-15T17:46:16Z</time>
      </trkpt>
      <trkpt lat="41.253406" lon="1.839969">
        <ele>249.686</ele>
        <time>2021-05-15T17:46:22Z</time>
      </trkpt>
      <trkpt lat="41.253301" lon="1.839910">
        <ele>250.226</ele>
        <time>2021-05-15T17:46:26Z</time>
      </trkpt>
      <trkpt lat="41.253191" lon="1.839844">
        <ele>250.282</ele>
        <time>2021-05-15T17:46:29Z</time>
      </trkpt>
      <trkpt lat="41.253149" lon="1.839810">
        <ele>250.235</ele>
        <time>2021-05-15T17:46:30Z</time>
      </trkpt>
      <trkpt lat="41.253045" lon="1.839750">
        <ele>249.611</ele>
        <time>2021-05-15T17:46:32Z</time>
      </trkpt>
      <trkpt lat="41.252931" lon="1.839744">
        <ele>249.413</ele>
        <time>2021-05-15T17:46:34Z</time>
      </trkpt>
      <trkpt lat="41.252824" lon="1.839775">
        <ele>250.043</ele>
        <time>2021-05-15T17:46:38Z</time>
      </trkpt>
      <trkpt lat="41.252729" lon="1.839817">
        <ele>251.407</ele>
        <time>2021-05-15T17:46:42Z</time>
      </trkpt>
      <trkpt lat="41.252680" lon="1.839828">
        <ele>251.808</ele>
        <time>2021-05-15T17:46:44Z</time>
      </trkpt>
      <trkpt lat="41.252613" lon="1.839844">
        <ele>252.488</ele>
        <time>2021-05-15T17:46:47Z</time>
      </trkpt>
      <trkpt lat="41.252478" lon="1.839875">
        <ele>253.624</ele>
        <time>2021-05-15T17:46:52Z</time>
      </trkpt>
      <trkpt lat="41.252425" lon="1.839890">
        <ele>254.260</ele>
        <time>2021-05-15T17:46:54Z</time>
      </trkpt>
      <trkpt lat="41.252316" lon="1.839928">
        <ele>254.826</ele>
        <time>2021-05-15T17:46:58Z</time>
      </trkpt>
      <trkpt lat="41.252224" lon="1.839958">
        <ele>255.626</ele>
        <time>2021-05-15T17:47:01Z</time>
      </trkpt>
      <trkpt lat="41.252159" lon="1.839980">
        <ele>256.022</ele>
        <time>2021-05-15T17:47:03Z</time>
      </trkpt>
      <trkpt lat="41.252021" lon="1.840056">
        <ele>256.625</ele>
        <time>2021-05-15T17:47:08Z</time>
      </trkpt>
      <trkpt lat="41.251775" lon="1.840143">
        <ele>256.811</ele>
        <time>2021-05-15T17:47:14Z</time>
      </trkpt>
      <trkpt lat="41.251705" lon="1.840148">
        <ele>257.079</ele>
        <time>2021-05-15T17:47:16Z</time>
      </trkpt>
      <trkpt lat="41.251638" lon="1.840130">
        <ele>258.005</ele>
        <time>2021-05-15T17:47:19Z</time>
      </trkpt>
      <trkpt lat="41.251616" lon="1.840125">
        <ele>258.225</ele>
        <time>2021-05-15T17:47:20Z</time>
      </trkpt>
      <trkpt lat="41.251542" lon="1.840125">
        <ele>259.608</ele>
        <time>2021-05-15T17:47:23Z</time>
      </trkpt>
      <trkpt lat="41.251444" lon="1.840129">
        <ele>260.644</ele>
        <time>2021-05-15T17:47:28Z</time>
      </trkpt>
      <trkpt lat="41.251341" lon="1.840135">
        <ele>261.680</ele>
        <time>2021-05-15T17:47:33Z</time>
      </trkpt>
      <trkpt lat="41.251289" lon="1.840117">
        <ele>262.466</ele>
        <time>2021-05-15T17:47:36Z</time>
      </trkpt>
      <trkpt lat="41.251276" lon="1.840110">
        <ele>262.842</ele>
        <time>2021-05-15T17:47:37Z</time>
      </trkpt>
      <trkpt lat="41.251195" lon="1.840076">
        <ele>264.092</ele>
        <time>2021-05-15T17:47:42Z</time>
      </trkpt>
      <trkpt lat="41.251176" lon="1.840068">
        <ele>264.448</ele>
        <time>2021-05-15T17:47:43Z</time>
      </trkpt>
      <trkpt lat="41.251141" lon="1.840060">
        <ele>265.221</ele>
        <time>2021-05-15T17:47:45Z</time>
      </trkpt>
      <trkpt lat="41.251079" lon="1.840051">
        <ele>266.237</ele>
        <time>2021-05-15T17:47:49Z</time>
      </trkpt>
      <trkpt lat="41.251065" lon="1.840049">
        <ele>266.415</ele>
        <time>2021-05-15T17:47:50Z</time>
      </trkpt>
      <trkpt lat="41.251035" lon="1.840048">
        <ele>267.265</ele>
        <time>2021-05-15T17:47:52Z</time>
      </trkpt>
      <trkpt lat="41.250999" lon="1.840043">
        <ele>267.611</ele>
        <time>2021-05-15T17:47:54Z</time>
      </trkpt>
      <trkpt lat="41.250944" lon="1.840019">
        <ele>268.808</ele>
        <time>2021-05-15T17:47:58Z</time>
      </trkpt>
      <trkpt lat="41.250901" lon="1.840008">
        <ele>269.668</ele>
        <time>2021-05-15T17:48:01Z</time>
      </trkpt>
      <trkpt lat="41.250883" lon="1.840009">
        <ele>269.884</ele>
        <time>2021-05-15T17:48:02Z</time>
      </trkpt>
      <trkpt lat="41.250781" lon="1.840003">
        <ele>270.890</ele>
        <time>2021-05-15T17:48:08Z</time>
      </trkpt>
      <trkpt lat="41.250722" lon="1.839986">
        <ele>271.656</ele>
        <time>2021-05-15T17:48:11Z</time>
      </trkpt>
      <trkpt lat="41.250678" lon="1.839981">
        <ele>272.076</ele>
        <time>2021-05-15T17:48:13Z</time>
      </trkpt>
      <trkpt lat="41.250519" lon="1.839962">
        <ele>273.012</ele>
        <time>2021-05-15T17:48:19Z</time>
      </trkpt>
      <trkpt lat="41.250492" lon="1.839956">
        <ele>273.055</ele>
        <time>2021-05-15T17:48:20Z</time>
      </trkpt>
      <trkpt lat="41.250335" lon="1.839852">
        <ele>274.041</ele>
        <time>2021-05-15T17:48:26Z</time>
      </trkpt>
      <trkpt lat="41.250313" lon="1.839820">
        <ele>274.279</ele>
        <time>2021-05-15T17:48:27Z</time>
      </trkpt>
      <trkpt lat="41.250177" lon="1.839740">
        <ele>275.005</ele>
        <time>2021-05-15T17:48:31Z</time>
      </trkpt>
      <trkpt lat="41.250113" lon="1.839716">
        <ele>275.425</ele>
        <time>2021-05-15T17:48:33Z</time>
      </trkpt>
      <trkpt lat="41.250021" lon="1.839720">
        <ele>275.608</ele>
        <time>2021-05-15T17:48:36Z</time>
      </trkpt>
      <trkpt lat="41.249940" lon="1.839710">
        <ele>276.454</ele>
        <time>2021-05-15T17:48:39Z</time>
      </trkpt>
      <trkpt lat="41.249826" lon="1.839698">
        <ele>277.670</ele>
        <time>2021-05-15T17:48:43Z</time>
      </trkpt>
      <trkpt lat="41.249790" lon="1.839694">
        <ele>277.866</ele>
        <time>2021-05-15T17:48:44Z</time>
      </trkpt>
      <trkpt lat="41.249657" lon="1.839675">
        <ele>278.612</ele>
        <time>2021-05-15T17:48:48Z</time>
      </trkpt>
      <trkpt lat="41.249496" lon="1.839625">
        <ele>279.422</ele>
        <time>2021-05-15T17:48:53Z</time>
      </trkpt>
      <trkpt lat="41.249466" lon="1.839617">
        <ele>279.838</ele>
        <time>2021-05-15T17:48:54Z</time>
      </trkpt>
      <trkpt lat="41.249266" lon="1.839635">
        <ele>280.491</ele>
        <time>2021-05-15T17:49:00Z</time>
      </trkpt>
      <trkpt lat="41.249194" lon="1.839635">
        <ele>280.887</ele>
        <time>2021-05-15T17:49:02Z</time>
      </trkpt>
      <trkpt lat="41.249032" lon="1.839639">
        <ele>281.886</ele>
        <time>2021-05-15T17:49:07Z</time>
      </trkpt>
      <trkpt lat="41.248964" lon="1.839654">
        <ele>281.860</ele>
        <time>2021-05-15T17:49:09Z</time>
      </trkpt>
      <trkpt lat="41.248814" lon="1.839735">
        <ele>282.026</ele>
        <time>2021-05-15T17:49:13Z</time>
      </trkpt>
      <trkpt lat="41.248604" lon="1.839813">
        <ele>281.008</ele>
        <time>2021-05-15T17:49:17Z</time>
      </trkpt>
      <trkpt lat="41.248545" lon="1.839830">
        <ele>280.815</ele>
        <time>2021-05-15T17:49:18Z</time>
      </trkpt>
      <trkpt lat="41.248354" lon="1.839907">
        <ele>279.421</ele>
        <time>2021-05-15T17:49:21Z</time>
      </trkpt>
      <trkpt lat="41.248205" lon="1.839931">
        <ele>278.847</ele>
        <time>2021-05-15T17:49:23Z</time>
      </trkpt>
      <trkpt lat="41.248033" lon="1.839904">
        <ele>277.463</ele>
        <time>2021-05-15T17:49:25Z</time>
      </trkpt>
      <trkpt lat="41.247945" lon="1.839886">
        <ele>276.063</ele>
        <time>2021-05-15T17:49:26Z</time>
      </trkpt>
      <trkpt lat="41.247855" lon="1.839872">
        <ele>274.889</ele>
        <time>2021-05-15T17:49:27Z</time>
      </trkpt>
      <trkpt lat="41.247768" lon="1.839877">
        <ele>273.012</ele>
        <time>2021-05-15T17:49:28Z</time>
      </trkpt>
      <trkpt lat="41.247681" lon="1.839907">
        <ele>272.048</ele>
        <time>2021-05-15T17:49:29Z</time>
      </trkpt>
      <trkpt lat="41.247499" lon="1.839991">
        <ele>270.685</ele>
        <time>2021-05-15T17:49:31Z</time>
      </trkpt>
      <trkpt lat="41.247400" lon="1.840019">
        <ele>269.889</ele>
        <time>2021-05-15T17:49:32Z</time>
      </trkpt>
      <trkpt lat="41.247301" lon="1.840026">
        <ele>269.217</ele>
        <time>2021-05-15T17:49:33Z</time>
      </trkpt>
      <trkpt lat="41.247200" lon="1.840016">
        <ele>268.608</ele>
        <time>2021-05-15T17:49:34Z</time>
      </trkpt>
      <trkpt lat="41.247095" lon="1.840004">
        <ele>267.815</ele>
        <time>2021-05-15T17:49:35Z</time>
      </trkpt>
      <trkpt lat="41.246975" lon="1.839999">
        <ele>265.631</ele>
        <time>2021-05-15T17:49:36Z</time>
      </trkpt>
      <trkpt lat="41.246862" lon="1.840005">
        <ele>264.247</ele>
        <time>2021-05-15T17:49:37Z</time>
      </trkpt>
      <trkpt lat="41.246755" lon="1.840011">
        <ele>262.813</ele>
        <time>2021-05-15T17:49:38Z</time>
      </trkpt>
      <trkpt lat="41.246676" lon="1.840003">
        <ele>262.253</ele>
        <time>2021-05-15T17:49:39Z</time>
      </trkpt>
      <trkpt lat="41.246569" lon="1.839980">
        <ele>261.699</ele>
        <time>2021-05-15T17:49:40Z</time>
      </trkpt>
      <trkpt lat="41.246494" lon="1.839940">
        <ele>261.462</ele>
        <time>2021-05-15T17:49:41Z</time>
      </trkpt>
      <trkpt lat="41.246273" lon="1.839857">
        <ele>260.878</ele>
        <time>2021-05-15T17:49:44Z</time>
      </trkpt>
      <trkpt lat="41.246085" lon="1.839823">
        <ele>261.059</ele>
        <time>2021-05-15T17:49:47Z</time>
      </trkpt>
      <trkpt lat="41.245990" lon="1.839844">
        <ele>261.603</ele>
        <time>2021-05-15T17:49:49Z</time>
      </trkpt>
      <trkpt lat="41.245879" lon="1.839906">
        <ele>262.623</ele>
        <time>2021-05-15T17:49:52Z</time>
      </trkpt>
      <trkpt lat="41.245841" lon="1.839939">
        <ele>262.808</ele>
        <time>2021-05-15T17:49:53Z</time>
      </trkpt>
      <trkpt lat="41.245801" lon="1.839971">
        <ele>263.282</ele>
        <time>2021-05-15T17:49:54Z</time>
      </trkpt>
      <trkpt lat="41.245757" lon="1.839998">
        <ele>263.238</ele>
        <time>2021-05-15T17:49:55Z</time>
      </trkpt>
      <trkpt lat="41.245654" lon="1.840036">
        <ele>263.464</ele>
        <time>2021-05-15T17:49:57Z</time>
      </trkpt>
      <trkpt lat="41.245597" lon="1.840046">
        <ele>263.240</ele>
        <time>2021-05-15T17:49:58Z</time>
      </trkpt>
      <trkpt lat="41.245258" lon="1.840038">
        <ele>261.820</ele>
        <time>2021-05-15T17:50:03Z</time>
      </trkpt>
      <trkpt lat="41.245179" lon="1.840032">
        <ele>261.256</ele>
        <time>2021-05-15T17:50:04Z</time>
      </trkpt>
      <trkpt lat="41.244945" lon="1.840000">
        <ele>260.089</ele>
        <time>2021-05-15T17:50:07Z</time>
      </trkpt>
      <trkpt lat="41.244866" lon="1.840003">
        <ele>259.095</ele>
        <time>2021-05-15T17:50:08Z</time>
      </trkpt>
      <trkpt lat="41.244785" lon="1.840021">
        <ele>258.288</ele>
        <time>2021-05-15T17:50:09Z</time>
      </trkpt>
      <trkpt lat="41.244614" lon="1.840092">
        <ele>256.424</ele>
        <time>2021-05-15T17:50:11Z</time>
      </trkpt>
      <trkpt lat="41.244439" lon="1.840199">
        <ele>255.026</ele>
        <time>2021-05-15T17:50:13Z</time>
      </trkpt>
      <trkpt lat="41.244361" lon="1.840253">
        <ele>253.808</ele>
        <time>2021-05-15T17:50:14Z</time>
      </trkpt>
      <trkpt lat="41.244241" lon="1.840352">
        <ele>252.285</ele>
        <time>2021-05-15T17:50:16Z</time>
      </trkpt>
      <trkpt lat="41.244226" lon="1.840387">
        <ele>250.821</ele>
        <time>2021-05-15T17:50:17Z</time>
      </trkpt>
      <trkpt lat="41.244201" lon="1.840471">
        <ele>249.687</ele>
        <time>2021-05-15T17:50:18Z</time>
      </trkpt>
      <trkpt lat="41.244182" lon="1.840557">
        <ele>248.843</ele>
        <time>2021-05-15T17:50:19Z</time>
      </trkpt>
      <trkpt lat="41.244153" lon="1.840648">
        <ele>248.073</ele>
        <time>2021-05-15T17:50:20Z</time>
      </trkpt>
      <trkpt lat="41.244119" lon="1.840742">
        <ele>247.069</ele>
        <time>2021-05-15T17:50:21Z</time>
      </trkpt>
      <trkpt lat="41.244091" lon="1.840841">
        <ele>246.212</ele>
        <time>2021-05-15T17:50:22Z</time>
      </trkpt>
      <trkpt lat="41.244073" lon="1.840947">
        <ele>245.238</ele>
        <time>2021-05-15T17:50:23Z</time>
      </trkpt>
      <trkpt lat="41.244030" lon="1.841286">
        <ele>243.812</ele>
        <time>2021-05-15T17:50:26Z</time>
      </trkpt>
      <trkpt lat="41.243998" lon="1.841491">
        <ele>243.632</ele>
        <time>2021-05-15T17:50:28Z</time>
      </trkpt>
      <trkpt lat="41.243933" lon="1.841878">
        <ele>243.805</ele>
        <time>2021-05-15T17:50:33Z</time>
      </trkpt>
      <trkpt lat="41.243869" lon="1.842046">
        <ele>245.408</ele>
        <time>2021-05-15T17:50:37Z</time>
      </trkpt>
      <trkpt lat="41.243846" lon="1.842109">
        <ele>246.428</ele>
        <time>2021-05-15T17:50:39Z</time>
      </trkpt>
      <trkpt lat="41.243832" lon="1.842170">
        <ele>247.054</ele>
        <time>2021-05-15T17:50:41Z</time>
      </trkpt>
      <trkpt lat="41.243828" lon="1.842255">
        <ele>247.610</ele>
        <time>2021-05-15T17:50:43Z</time>
      </trkpt>
      <trkpt lat="41.243811" lon="1.842416">
        <ele>248.466</ele>
        <time>2021-05-15T17:50:47Z</time>
      </trkpt>
      <trkpt lat="41.243801" lon="1.842455">
        <ele>248.616</ele>
        <time>2021-05-15T17:50:48Z</time>
      </trkpt>
      <trkpt lat="41.243782" lon="1.842534">
        <ele>248.612</ele>
        <time>2021-05-15T17:50:50Z</time>
      </trkpt>
      <trkpt lat="41.243709" lon="1.842814">
        <ele>249.485</ele>
        <time>2021-05-15T17:50:56Z</time>
      </trkpt>
      <trkpt lat="41.243607" lon="1.843096">
        <ele>249.691</ele>
        <time>2021-05-15T17:51:01Z</time>
      </trkpt>
      <trkpt lat="41.243561" lon="1.843176">
        <ele>249.879</ele>
        <time>2021-05-15T17:51:03Z</time>
      </trkpt>
      <trkpt lat="41.243466" lon="1.843312">
        <ele>250.805</ele>
        <time>2021-05-15T17:51:07Z</time>
      </trkpt>
      <trkpt lat="41.243441" lon="1.843341">
        <ele>251.025</ele>
        <time>2021-05-15T17:51:08Z</time>
      </trkpt>
      <trkpt lat="41.243285" lon="1.843595">
        <ele>251.408</ele>
        <time>2021-05-15T17:51:14Z</time>
      </trkpt>
      <trkpt lat="41.243029" lon="1.844039">
        <ele>251.844</ele>
        <time>2021-05-15T17:51:23Z</time>
      </trkpt>
      <trkpt lat="41.242852" lon="1.844242">
        <ele>252.460</ele>
        <time>2021-05-15T17:51:29Z</time>
      </trkpt>
      <trkpt lat="41.242806" lon="1.844314">
        <ele>253.026</ele>
        <time>2021-05-15T17:51:31Z</time>
      </trkpt>
      <trkpt lat="41.242708" lon="1.844455">
        <ele>254.032</ele>
        <time>2021-05-15T17:51:35Z</time>
      </trkpt>
      <trkpt lat="41.242686" lon="1.844483">
        <ele>254.242</ele>
        <time>2021-05-15T17:51:36Z</time>
      </trkpt>
      <trkpt lat="41.242584" lon="1.844577">
        <ele>255.498</ele>
        <time>2021-05-15T17:51:40Z</time>
      </trkpt>
      <trkpt lat="41.242537" lon="1.844622">
        <ele>256.011</ele>
        <time>2021-05-15T17:51:42Z</time>
      </trkpt>
      <trkpt lat="41.242494" lon="1.844778">
        <ele>256.227</ele>
        <time>2021-05-15T17:51:46Z</time>
      </trkpt>
      <trkpt lat="41.242498" lon="1.844841">
        <ele>256.293</ele>
        <time>2021-05-15T17:51:47Z</time>
      </trkpt>
      <trkpt lat="41.242545" lon="1.845136">
        <ele>255.465</ele>
        <time>2021-05-15T17:51:51Z</time>
      </trkpt>
      <trkpt lat="41.242555" lon="1.845226">
        <ele>255.221</ele>
        <time>2021-05-15T17:51:52Z</time>
      </trkpt>
      <trkpt lat="41.242574" lon="1.845523">
        <ele>254.008</ele>
        <time>2021-05-15T17:51:55Z</time>
      </trkpt>
      <trkpt lat="41.242572" lon="1.845635">
        <ele>253.426</ele>
        <time>2021-05-15T17:51:56Z</time>
      </trkpt>
      <trkpt lat="41.242526" lon="1.845845">
        <ele>252.612</ele>
        <time>2021-05-15T17:51:58Z</time>
      </trkpt>
      <trkpt lat="41.242503" lon="1.845949">
        <ele>251.668</ele>
        <time>2021-05-15T17:51:59Z</time>
      </trkpt>
      <trkpt lat="41.242471" lon="1.846166">
        <ele>250.474</ele>
        <time>2021-05-15T17:52:01Z</time>
      </trkpt>
      <trkpt lat="41.242444" lon="1.846391">
        <ele>249.644</ele>
        <time>2021-05-15T17:52:03Z</time>
      </trkpt>
      <trkpt lat="41.242425" lon="1.846490">
        <ele>249.080</ele>
        <time>2021-05-15T17:52:04Z</time>
      </trkpt>
      <trkpt lat="41.242387" lon="1.846624">
        <ele>248.213</ele>
        <time>2021-05-15T17:52:06Z</time>
      </trkpt>
      <trkpt lat="41.242361" lon="1.846675">
        <ele>247.429</ele>
        <time>2021-05-15T17:52:07Z</time>
      </trkpt>
      <trkpt lat="41.242326" lon="1.846725">
        <ele>246.243</ele>
        <time>2021-05-15T17:52:08Z</time>
      </trkpt>
      <trkpt lat="41.242286" lon="1.846772">
        <ele>244.864</ele>
        <time>2021-05-15T17:52:09Z</time>
      </trkpt>
      <trkpt lat="41.242248" lon="1.846822">
        <ele>243.010</ele>
        <time>2021-05-15T17:52:10Z</time>
      </trkpt>
      <trkpt lat="41.242210" lon="1.846875">
        <ele>242.008</ele>
        <time>2021-05-15T17:52:11Z</time>
      </trkpt>
      <trkpt lat="41.242168" lon="1.846932">
        <ele>240.671</ele>
        <time>2021-05-15T17:52:12Z</time>
      </trkpt>
      <trkpt lat="41.242125" lon="1.846995">
        <ele>239.217</ele>
        <time>2021-05-15T17:52:13Z</time>
      </trkpt>
      <trkpt lat="41.242077" lon="1.847063">
        <ele>238.043</ele>
        <time>2021-05-15T17:52:14Z</time>
      </trkpt>
      <trkpt lat="41.242018" lon="1.847131">
        <ele>236.869</ele>
        <time>2021-05-15T17:52:15Z</time>
      </trkpt>
      <trkpt lat="41.241951" lon="1.847196">
        <ele>236.029</ele>
        <time>2021-05-15T17:52:16Z</time>
      </trkpt>
      <trkpt lat="41.241875" lon="1.847254">
        <ele>235.235</ele>
        <time>2021-05-15T17:52:17Z</time>
      </trkpt>
      <trkpt lat="41.241802" lon="1.847311">
        <ele>233.698</ele>
        <time>2021-05-15T17:52:18Z</time>
      </trkpt>
      <trkpt lat="41.241730" lon="1.847363">
        <ele>232.414</ele>
        <time>2021-05-15T17:52:19Z</time>
      </trkpt>
      <trkpt lat="41.241660" lon="1.847414">
        <ele>231.297</ele>
        <time>2021-05-15T17:52:20Z</time>
      </trkpt>
      <trkpt lat="41.241587" lon="1.847465">
        <ele>230.623</ele>
        <time>2021-05-15T17:52:21Z</time>
      </trkpt>
      <trkpt lat="41.241509" lon="1.847511">
        <ele>229.625</ele>
        <time>2021-05-15T17:52:22Z</time>
      </trkpt>
      <trkpt lat="41.241433" lon="1.847570">
        <ele>228.208</ele>
        <time>2021-05-15T17:52:23Z</time>
      </trkpt>
      <trkpt lat="41.241378" lon="1.847638">
        <ele>227.096</ele>
        <time>2021-05-15T17:52:24Z</time>
      </trkpt>
      <trkpt lat="41.241339" lon="1.847703">
        <ele>226.282</ele>
        <time>2021-05-15T17:52:25Z</time>
      </trkpt>
      <trkpt lat="41.241306" lon="1.847767">
        <ele>225.838</ele>
        <time>2021-05-15T17:52:26Z</time>
      </trkpt>
      <trkpt lat="41.241268" lon="1.847830">
        <ele>224.644</ele>
        <time>2021-05-15T17:52:27Z</time>
      </trkpt>
      <trkpt lat="41.241150" lon="1.847947">
        <ele>223.224</ele>
        <time>2021-05-15T17:52:29Z</time>
      </trkpt>
      <trkpt lat="41.241076" lon="1.847997">
        <ele>222.460</ele>
        <time>2021-05-15T17:52:30Z</time>
      </trkpt>
      <trkpt lat="41.240997" lon="1.848050">
        <ele>221.223</ele>
        <time>2021-05-15T17:52:31Z</time>
      </trkpt>
      <trkpt lat="41.240913" lon="1.848113">
        <ele>219.089</ele>
        <time>2021-05-15T17:52:32Z</time>
      </trkpt>
      <trkpt lat="41.240830" lon="1.848177">
        <ele>217.442</ele>
        <time>2021-05-15T17:52:33Z</time>
      </trkpt>
      <trkpt lat="41.240758" lon="1.848238">
        <ele>216.622</ele>
        <time>2021-05-15T17:52:34Z</time>
      </trkpt>
      <trkpt lat="41.240699" lon="1.848309">
        <ele>215.614</ele>
        <time>2021-05-15T17:52:35Z</time>
      </trkpt>
      <trkpt lat="41.240657" lon="1.848389">
        <ele>214.008</ele>
        <time>2021-05-15T17:52:36Z</time>
      </trkpt>
      <trkpt lat="41.240626" lon="1.848482">
        <ele>213.031</ele>
        <time>2021-05-15T17:52:37Z</time>
      </trkpt>
      <trkpt lat="41.240601" lon="1.848591">
        <ele>212.447</ele>
        <time>2021-05-15T17:52:38Z</time>
      </trkpt>
      <trkpt lat="41.240583" lon="1.848714">
        <ele>211.033</ele>
        <time>2021-05-15T17:52:39Z</time>
      </trkpt>
      <trkpt lat="41.240559" lon="1.848990">
        <ele>208.699</ele>
        <time>2021-05-15T17:52:41Z</time>
      </trkpt>
      <trkpt lat="41.240541" lon="1.849132">
        <ele>207.459</ele>
        <time>2021-05-15T17:52:42Z</time>
      </trkpt>
      <trkpt lat="41.240485" lon="1.849397">
        <ele>205.875</ele>
        <time>2021-05-15T17:52:44Z</time>
      </trkpt>
      <trkpt lat="41.240444" lon="1.849514">
        <ele>205.448</ele>
        <time>2021-05-15T17:52:45Z</time>
      </trkpt>
      <trkpt lat="41.240344" lon="1.849708">
        <ele>204.434</ele>
        <time>2021-05-15T17:52:47Z</time>
      </trkpt>
      <trkpt lat="41.240251" lon="1.849829">
        <ele>204.016</ele>
        <time>2021-05-15T17:52:49Z</time>
      </trkpt>
      <trkpt lat="41.240124" lon="1.849913">
        <ele>203.876</ele>
        <time>2021-05-15T17:52:52Z</time>
      </trkpt>
      <trkpt lat="41.240022" lon="1.850024">
        <ele>204.813</ele>
        <time>2021-05-15T17:52:56Z</time>
      </trkpt>
      <trkpt lat="41.239987" lon="1.850051">
        <ele>205.608</ele>
        <time>2021-05-15T17:52:58Z</time>
      </trkpt>
      <trkpt lat="41.239945" lon="1.850081">
        <ele>207.028</ele>
        <time>2021-05-15T17:53:01Z</time>
      </trkpt>
      <trkpt lat="41.239931" lon="1.850093">
        <ele>207.434</ele>
        <time>2021-05-15T17:53:02Z</time>
      </trkpt>
      <trkpt lat="41.239903" lon="1.850119">
        <ele>207.850</ele>
        <time>2021-05-15T17:53:04Z</time>
      </trkpt>
      <trkpt lat="41.239885" lon="1.850144">
        <ele>208.296</ele>
        <time>2021-05-15T17:53:06Z</time>
      </trkpt>
      <trkpt lat="41.239872" lon="1.850157">
        <ele>208.416</ele>
        <time>2021-05-15T17:53:07Z</time>
      </trkpt>
      <trkpt lat="41.239843" lon="1.850175">
        <ele>209.282</ele>
        <time>2021-05-15T17:53:09Z</time>
      </trkpt>
      <trkpt lat="41.239788" lon="1.850243">
        <ele>210.215</ele>
        <time>2021-05-15T17:53:14Z</time>
      </trkpt>
      <trkpt lat="41.239777" lon="1.850260">
        <ele>210.641</ele>
        <time>2021-05-15T17:53:15Z</time>
      </trkpt>
      <trkpt lat="41.239742" lon="1.850333">
        <ele>211.826</ele>
        <time>2021-05-15T17:53:19Z</time>
      </trkpt>
      <trkpt lat="41.239726" lon="1.850397">
        <ele>212.647</ele>
        <time>2021-05-15T17:53:22Z</time>
      </trkpt>
      <trkpt lat="41.239720" lon="1.850416">
        <ele>212.811</ele>
        <time>2021-05-15T17:53:23Z</time>
      </trkpt>
      <trkpt lat="41.239701" lon="1.850489">
        <ele>214.008</ele>
        <time>2021-05-15T17:53:27Z</time>
      </trkpt>
      <trkpt lat="41.239681" lon="1.850533">
        <ele>214.659</ele>
        <time>2021-05-15T17:53:29Z</time>
      </trkpt>
      <trkpt lat="41.239577" lon="1.850690">
        <ele>214.415</ele>
        <time>2021-05-15T17:53:33Z</time>
      </trkpt>
      <trkpt lat="41.239405" lon="1.850997">
        <ele>212.671</ele>
        <time>2021-05-15T17:53:38Z</time>
      </trkpt>
      <trkpt lat="41.239339" lon="1.851143">
        <ele>211.637</ele>
        <time>2021-05-15T17:53:40Z</time>
      </trkpt>
      <trkpt lat="41.239300" lon="1.851333">
        <ele>210.087</ele>
        <time>2021-05-15T17:53:42Z</time>
      </trkpt>
      <trkpt lat="41.239274" lon="1.851573">
        <ele>208.613</ele>
        <time>2021-05-15T17:53:44Z</time>
      </trkpt>
      <trkpt lat="41.239239" lon="1.851825">
        <ele>206.896</ele>
        <time>2021-05-15T17:53:46Z</time>
      </trkpt>
      <trkpt lat="41.239211" lon="1.851951">
        <ele>205.622</ele>
        <time>2021-05-15T17:53:47Z</time>
      </trkpt>
      <trkpt lat="41.239178" lon="1.852067">
        <ele>203.491</ele>
        <time>2021-05-15T17:53:48Z</time>
      </trkpt>
      <trkpt lat="41.239138" lon="1.852167">
        <ele>201.681</ele>
        <time>2021-05-15T17:53:49Z</time>
      </trkpt>
      <trkpt lat="41.239100" lon="1.852239">
        <ele>199.619</ele>
        <time>2021-05-15T17:53:50Z</time>
      </trkpt>
      <trkpt lat="41.239070" lon="1.852288">
        <ele>198.208</ele>
        <time>2021-05-15T17:53:51Z</time>
      </trkpt>
      <trkpt lat="41.239048" lon="1.852323">
        <ele>196.476</ele>
        <time>2021-05-15T17:53:52Z</time>
      </trkpt>
      <trkpt lat="41.239030" lon="1.852341">
        <ele>195.012</ele>
        <time>2021-05-15T17:53:53Z</time>
      </trkpt>
      <trkpt lat="41.239002" lon="1.852349">
        <ele>194.438</ele>
        <time>2021-05-15T17:53:54Z</time>
      </trkpt>
      <trkpt lat="41.238976" lon="1.852354">
        <ele>194.014</ele>
        <time>2021-05-15T17:53:55Z</time>
      </trkpt>
      <trkpt lat="41.238868" lon="1.852363">
        <ele>193.284</ele>
        <time>2021-05-15T17:53:58Z</time>
      </trkpt>
      <trkpt lat="41.238749" lon="1.852402">
        <ele>192.260</ele>
        <time>2021-05-15T17:54:00Z</time>
      </trkpt>
      <trkpt lat="41.238685" lon="1.852427">
        <ele>191.683</ele>
        <time>2021-05-15T17:54:01Z</time>
      </trkpt>
      <trkpt lat="41.238627" lon="1.852451">
        <ele>190.659</ele>
        <time>2021-05-15T17:54:02Z</time>
      </trkpt>
      <trkpt lat="41.238573" lon="1.852465">
        <ele>189.477</ele>
        <time>2021-05-15T17:54:03Z</time>
      </trkpt>
      <trkpt lat="41.238524" lon="1.852473">
        <ele>188.061</ele>
        <time>2021-05-15T17:54:04Z</time>
      </trkpt>
      <trkpt lat="41.238472" lon="1.852485">
        <ele>187.427</ele>
        <time>2021-05-15T17:54:05Z</time>
      </trkpt>
      <trkpt lat="41.238433" lon="1.852502">
        <ele>187.008</ele>
        <time>2021-05-15T17:54:06Z</time>
      </trkpt>
      <trkpt lat="41.238374" lon="1.852551">
        <ele>186.854</ele>
        <time>2021-05-15T17:54:08Z</time>
      </trkpt>
      <trkpt lat="41.238345" lon="1.852579">
        <ele>186.620</ele>
        <time>2021-05-15T17:54:09Z</time>
      </trkpt>
      <trkpt lat="41.238218" lon="1.852741">
        <ele>187.446</ele>
        <time>2021-05-15T17:54:14Z</time>
      </trkpt>
      <trkpt lat="41.238192" lon="1.852922">
        <ele>188.472</ele>
        <time>2021-05-15T17:54:18Z</time>
      </trkpt>
      <trkpt lat="41.238198" lon="1.852964">
        <ele>188.842</ele>
        <time>2021-05-15T17:54:19Z</time>
      </trkpt>
      <trkpt lat="41.238224" lon="1.853050">
        <ele>189.448</ele>
        <time>2021-05-15T17:54:21Z</time>
      </trkpt>
      <trkpt lat="41.238309" lon="1.853201">
        <ele>190.231</ele>
        <time>2021-05-15T17:54:25Z</time>
      </trkpt>
      <trkpt lat="41.238361" lon="1.853291">
        <ele>190.247</ele>
        <time>2021-05-15T17:54:27Z</time>
      </trkpt>
      <trkpt lat="41.238404" lon="1.853391">
        <ele>190.666</ele>
        <time>2021-05-15T17:54:29Z</time>
      </trkpt>
      <trkpt lat="41.238429" lon="1.853442">
        <ele>190.629</ele>
        <time>2021-05-15T17:54:30Z</time>
      </trkpt>
      <trkpt lat="41.238526" lon="1.853657">
        <ele>191.221</ele>
        <time>2021-05-15T17:54:35Z</time>
      </trkpt>
      <trkpt lat="41.238528" lon="1.853762">
        <ele>191.208</ele>
        <time>2021-05-15T17:54:37Z</time>
      </trkpt>
      <trkpt lat="41.238557" lon="1.854071">
        <ele>190.483</ele>
        <time>2021-05-15T17:54:43Z</time>
      </trkpt>
      <trkpt lat="41.238559" lon="1.854122">
        <ele>190.079</ele>
        <time>2021-05-15T17:54:46Z</time>
      </trkpt>
      <trkpt lat="41.238552" lon="1.854151">
        <ele>189.435</ele>
        <time>2021-05-15T17:54:50Z</time>
      </trkpt>
      <trkpt lat="41.238551" lon="1.854176">
        <ele>189.481</ele>
        <time>2021-05-15T17:54:53Z</time>
      </trkpt>
      <trkpt lat="41.238545" lon="1.854192">
        <ele>189.411</ele>
        <time>2021-05-15T17:54:54Z</time>
      </trkpt>
      <trkpt lat="41.238492" lon="1.854329">
        <ele>189.287</ele>
        <time>2021-05-15T17:54:58Z</time>
      </trkpt>
      <trkpt lat="41.238432" lon="1.854562">
        <ele>189.210</ele>
        <time>2021-05-15T17:55:05Z</time>
      </trkpt>
      <trkpt lat="41.238410" lon="1.854631">
        <ele>189.436</ele>
        <time>2021-05-15T17:55:08Z</time>
      </trkpt>
      <trkpt lat="41.238402" lon="1.854636">
        <ele>189.467</ele>
        <time>2021-05-15T17:55:09Z</time>
      </trkpt>
      <trkpt lat="41.238395" lon="1.854630">
        <ele>189.481</ele>
        <time>2021-05-15T17:55:13Z</time>
      </trkpt>
      <trkpt lat="41.238395" lon="1.854630">
        <ele>189.419</ele>
        <time>2021-05-15T17:55:14Z</time>
      </trkpt>
      <trkpt lat="41.238404" lon="1.854609">
        <ele>188.808</ele>
        <time>2021-05-15T17:55:20Z</time>
      </trkpt>
      <trkpt lat="41.238408" lon="1.854596">
        <ele>188.843</ele>
        <time>2021-05-15T17:55:21Z</time>
      </trkpt>
      <trkpt lat="41.238419" lon="1.854555">
        <ele>188.689</ele>
        <time>2021-05-15T17:55:24Z</time>
      </trkpt>
      <trkpt lat="41.238425" lon="1.854503">
        <ele>188.465</ele>
        <time>2021-05-15T17:55:28Z</time>
      </trkpt>
      <trkpt lat="41.238439" lon="1.854474">
        <ele>188.461</ele>
        <time>2021-05-15T17:55:30Z</time>
      </trkpt>
      <trkpt lat="41.238452" lon="1.854460">
        <ele>188.491</ele>
        <time>2021-05-15T17:55:32Z</time>
      </trkpt>
      <trkpt lat="41.238453" lon="1.854471">
        <ele>188.627</ele>
        <time>2021-05-15T17:55:33Z</time>
      </trkpt>
      <trkpt lat="41.238447" lon="1.854489">
        <ele>188.610</ele>
        <time>2021-05-15T17:55:35Z</time>
      </trkpt>
      <trkpt lat="41.238421" lon="1.854554">
        <ele>188.886</ele>
        <time>2021-05-15T17:55:40Z</time>
      </trkpt>
      <trkpt lat="41.238399" lon="1.854599">
        <ele>188.812</ele>
        <time>2021-05-15T17:55:43Z</time>
      </trkpt>
      <trkpt lat="41.238368" lon="1.854622">
        <ele>188.832</ele>
        <time>2021-05-15T17:55:47Z</time>
      </trkpt>
      <trkpt lat="41.238378" lon="1.854621">
        <ele>189.005</ele>
        <time>2021-05-15T17:55:53Z</time>
      </trkpt>
      <trkpt lat="41.238387" lon="1.854624">
        <ele>188.808</ele>
        <time>2021-05-15T17:55:59Z</time>
      </trkpt>
      <trkpt lat="41.238403" lon="1.854594">
        <ele>189.078</ele>
        <time>2021-05-15T17:56:09Z</time>
      </trkpt>
      <trkpt lat="41.238403" lon="1.854594">
        <ele>189.024</ele>
        <time>2021-05-15T17:56:14Z</time>
      </trkpt>
      <trkpt lat="41.238403" lon="1.854594">
        <ele>189.440</ele>
        <time>2021-05-15T17:56:15Z</time>
      </trkpt>
      <trkpt lat="41.238403" lon="1.854594">
        <ele>189.466</ele>
        <time>2021-05-15T17:56:17Z</time>
      </trkpt>
      <trkpt lat="41.238377" lon="1.854605">
        <ele>189.476</ele>
        <time>2021-05-15T17:56:28Z</time>
      </trkpt>
      <trkpt lat="41.238377" lon="1.854605">
        <ele>189.412</ele>
        <time>2021-05-15T17:56:36Z</time>
      </trkpt>
      <trkpt lat="41.238352" lon="1.854615">
        <ele>189.465</ele>
        <time>2021-05-15T17:56:46Z</time>
      </trkpt>
      <trkpt lat="41.238352" lon="1.854615">
        <ele>189.431</ele>
        <time>2021-05-15T17:56:47Z</time>
      </trkpt>
      <trkpt lat="41.238352" lon="1.854615">
        <ele>189.438</ele>
        <time>2021-05-15T17:56:51Z</time>
      </trkpt>
      <trkpt lat="41.238352" lon="1.854615">
        <ele>189.470</ele>
        <time>2021-05-15T17:56:54Z</time>
      </trkpt>
      <trkpt lat="41.238352" lon="1.854615">
        <ele>189.417</ele>
        <time>2021-05-15T17:56:55Z</time>
      </trkpt>
      <trkpt lat="41.238352" lon="1.854615">
        <ele>189.408</ele>
        <time>2021-05-15T17:56:57Z</time>
      </trkpt>
      <trkpt lat="41.238352" lon="1.854615">
        <ele>189.460</ele>
        <time>2021-05-15T17:56:59Z</time>
      </trkpt>
      <trkpt lat="41.238352" lon="1.854615">
        <ele>189.446</ele>
        <time>2021-05-15T17:57:11Z</time>
      </trkpt>
      <trkpt lat="41.238352" lon="1.854615">
        <ele>189.452</ele>
        <time>2021-05-15T17:57:19Z</time>
      </trkpt>
      <trkpt lat="41.238352" lon="1.854615">
        <ele>189.448</ele>
        <time>2021-05-15T17:57:31Z</time>
      </trkpt>
      <trkpt lat="41.238352" lon="1.854615">
        <ele>189.478</ele>
        <time>2021-05-15T17:57:34Z</time>
      </trkpt>
      <trkpt lat="41.238350" lon="1.854615">
        <ele>189.474</ele>
        <time>2021-05-15T17:57:45Z</time>
      </trkpt>
      <trkpt lat="41.238350" lon="1.854617">
        <ele>189.497</ele>
        <time>2021-05-15T17:57:53Z</time>
      </trkpt>
      <trkpt lat="41.238352" lon="1.854620">
        <ele>189.433</ele>
        <time>2021-05-15T17:58:04Z</time>
      </trkpt>
      <trkpt lat="41.238353" lon="1.854620">
        <ele>189.464</ele>
        <time>2021-05-15T17:58:18Z</time>
      </trkpt>
      <trkpt lat="41.238356" lon="1.854617">
        <ele>189.406</ele>
        <time>2021-05-15T17:58:25Z</time>
      </trkpt>
      <trkpt lat="41.238383" lon="1.854547">
        <ele>189.416</ele>
        <time>2021-05-15T17:58:29Z</time>
      </trkpt>
      <trkpt lat="41.238398" lon="1.854521">
        <ele>188.808</ele>
        <time>2021-05-15T17:58:31Z</time>
      </trkpt>
      <trkpt lat="41.238405" lon="1.854513">
        <ele>188.483</ele>
        <time>2021-05-15T17:58:33Z</time>
      </trkpt>
      <trkpt lat="41.238406" lon="1.854509">
        <ele>188.499</ele>
        <time>2021-05-15T17:58:35Z</time>
      </trkpt>
      <trkpt lat="41.238404" lon="1.854512">
        <ele>188.225</ele>
        <time>2021-05-15T17:58:42Z</time>
      </trkpt>
      <trkpt lat="41.238407" lon="1.854526">
        <ele>187.881</ele>
        <time>2021-05-15T17:58:50Z</time>
      </trkpt>
      <trkpt lat="41.238405" lon="1.854546">
        <ele>187.821</ele>
        <time>2021-05-15T17:58:52Z</time>
      </trkpt>
      <trkpt lat="41.238405" lon="1.854546">
        <ele>188.287</ele>
        <time>2021-05-15T17:58:58Z</time>
      </trkpt>
      <trkpt lat="41.238405" lon="1.854546">
        <ele>188.480</ele>
        <time>2021-05-15T17:59:06Z</time>
      </trkpt>
      <trkpt lat="41.238404" lon="1.854529">
        <ele>188.436</ele>
        <time>2021-05-15T17:59:11Z</time>
      </trkpt>
      <trkpt lat="41.238407" lon="1.854539">
        <ele>187.888</ele>
        <time>2021-05-15T17:59:18Z</time>
      </trkpt>
      <trkpt lat="41.238412" lon="1.854568">
        <ele>187.824</ele>
        <time>2021-05-15T17:59:21Z</time>
      </trkpt>
      <trkpt lat="41.238412" lon="1.854568">
        <ele>188.426</ele>
        <time>2021-05-15T17:59:28Z</time>
      </trkpt>
      <trkpt lat="41.238411" lon="1.854577">
        <ele>187.808</ele>
        <time>2021-05-15T17:59:41Z</time>
      </trkpt>
      <trkpt lat="41.238411" lon="1.854581">
        <ele>187.875</ele>
        <time>2021-05-15T17:59:46Z</time>
      </trkpt>
      <trkpt lat="41.238411" lon="1.854581">
        <ele>188.061</ele>
        <time>2021-05-15T18:00:14Z</time>
      </trkpt>
      <trkpt lat="41.238411" lon="1.854581">
        <ele>188.077</ele>
        <time>2021-05-15T18:00:28Z</time>
      </trkpt>
      <trkpt lat="41.238407" lon="1.854583">
        <ele>188.023</ele>
        <time>2021-05-15T18:00:40Z</time>
      </trkpt>
      <trkpt lat="41.238407" lon="1.854583">
        <ele>188.043</ele>
        <time>2021-05-15T18:00:52Z</time>
      </trkpt>
      <trkpt lat="41.238407" lon="1.854583">
        <ele>188.079</ele>
        <time>2021-05-15T18:01:12Z</time>
      </trkpt>
      <trkpt lat="41.238410" lon="1.854574">
        <ele>188.012</ele>
        <time>2021-05-15T18:01:21Z</time>
      </trkpt>
      <trkpt lat="41.238410" lon="1.854574">
        <ele>188.028</ele>
        <time>2021-05-15T18:01:22Z</time>
      </trkpt>
      <trkpt lat="41.238410" lon="1.854574">
        <ele>188.064</ele>
        <time>2021-05-15T18:01:23Z</time>
      </trkpt>
      <trkpt lat="41.238411" lon="1.854592">
        <ele>188.006</ele>
        <time>2021-05-15T18:01:25Z</time>
      </trkpt>
      <trkpt lat="41.238411" lon="1.854631">
        <ele>188.016</ele>
        <time>2021-05-15T18:01:28Z</time>
      </trkpt>
      <trkpt lat="41.238385" lon="1.854656">
        <ele>188.208</ele>
        <time>2021-05-15T18:01:35Z</time>
      </trkpt>
      <trkpt lat="41.238385" lon="1.854656">
        <ele>188.093</ele>
        <time>2021-05-15T18:01:46Z</time>
      </trkpt>
      <trkpt lat="41.238385" lon="1.854656">
        <ele>188.019</ele>
        <time>2021-05-15T18:01:48Z</time>
      </trkpt>
    </trkseg>
  </trk>
</gpx>
